<?xml version="1.0" encoding="UTF-8" standalone="no" ?>
<gpx xmlns="http://www.topografix.com/GPX/1/1" xmlns:xsi="http://www.w3.org/2001/XMLSchema-instance" xsi:schemaLocation="http://www.topografix.com/GPX/1/1 http://www.topografix.com/GPX/1/1/gpx.xsd" version="1.1" creator="VisuGPX - https://www.visugpx.com">
  <metadata>
    <name>Sortie 11/11/2013 Vienne</name>
    <desc><![CDATA[Sortie entre voisins !]]></desc>
  </metadata>
  <trk>
    <name><![CDATA[Sortie 11/11/2013 Vienne_1]]></name>
    <trkseg>
      <trkpt lat="47.80292" lon="2.14074">
        <ele>155</ele>
        <time>2013-11-11T08:29:35.000Z</time>
      </trkpt>
      <trkpt lat="47.80292" lon="2.14074">
        <ele>155</ele>
        <time>2013-11-11T08:29:36.000Z</time>
      </trkpt>
      <trkpt lat="47.80301" lon="2.14085">
        <ele>156</ele>
        <time>2013-11-11T08:30:25.000Z</time>
      </trkpt>
      <trkpt lat="47.80327" lon="2.14097">
        <ele>157</ele>
        <time>2013-11-11T08:30:30.000Z</time>
      </trkpt>
      <trkpt lat="47.80327" lon="2.14097">
        <ele>157</ele>
        <time>2013-11-11T08:30:33.000Z</time>
      </trkpt>
      <trkpt lat="47.8034" lon="2.14108">
        <ele>155</ele>
        <time>2013-11-11T08:30:35.000Z</time>
      </trkpt>
      <trkpt lat="47.8034" lon="2.14108">
        <ele>155</ele>
        <time>2013-11-11T08:30:37.000Z</time>
      </trkpt>
      <trkpt lat="47.8034" lon="2.14108">
        <ele>155</ele>
        <time>2013-11-11T08:30:39.000Z</time>
      </trkpt>
      <trkpt lat="47.80359" lon="2.14125">
        <ele>157</ele>
        <time>2013-11-11T08:30:43.000Z</time>
      </trkpt>
      <trkpt lat="47.80359" lon="2.14125">
        <ele>157</ele>
        <time>2013-11-11T08:30:45.000Z</time>
      </trkpt>
      <trkpt lat="47.80359" lon="2.14125">
        <ele>157</ele>
        <time>2013-11-11T08:30:47.000Z</time>
      </trkpt>
      <trkpt lat="47.80359" lon="2.14125">
        <ele>157</ele>
        <time>2013-11-11T08:30:49.000Z</time>
      </trkpt>
      <trkpt lat="47.80359" lon="2.14125">
        <ele>157</ele>
        <time>2013-11-11T08:30:51.000Z</time>
      </trkpt>
      <trkpt lat="47.80359" lon="2.14125">
        <ele>157</ele>
        <time>2013-11-11T08:30:53.000Z</time>
      </trkpt>
      <trkpt lat="47.80394" lon="2.14157">
        <ele>154</ele>
        <time>2013-11-11T08:30:57.000Z</time>
      </trkpt>
      <trkpt lat="47.80412" lon="2.1417">
        <ele>151</ele>
        <time>2013-11-11T08:31:00.000Z</time>
      </trkpt>
      <trkpt lat="47.80421" lon="2.1418">
        <ele>151</ele>
        <time>2013-11-11T08:31:02.000Z</time>
      </trkpt>
      <trkpt lat="47.80434" lon="2.14189">
        <ele>149</ele>
        <time>2013-11-11T08:31:04.000Z</time>
      </trkpt>
      <trkpt lat="47.80444" lon="2.14197">
        <ele>149</ele>
        <time>2013-11-11T08:31:06.000Z</time>
      </trkpt>
      <trkpt lat="47.80452" lon="2.14206">
        <ele>148</ele>
        <time>2013-11-11T08:31:08.000Z</time>
      </trkpt>
      <trkpt lat="47.80452" lon="2.14206">
        <ele>148</ele>
        <time>2013-11-11T08:31:10.000Z</time>
      </trkpt>
      <trkpt lat="47.80452" lon="2.14206">
        <ele>148</ele>
        <time>2013-11-11T08:31:14.000Z</time>
      </trkpt>
      <trkpt lat="47.80452" lon="2.14206">
        <ele>148</ele>
        <time>2013-11-11T08:31:18.000Z</time>
      </trkpt>
      <trkpt lat="47.80452" lon="2.14206">
        <ele>148</ele>
        <time>2013-11-11T08:31:20.000Z</time>
      </trkpt>
      <trkpt lat="47.80452" lon="2.14206">
        <ele>148</ele>
        <time>2013-11-11T08:31:22.000Z</time>
      </trkpt>
      <trkpt lat="47.80452" lon="2.14206">
        <ele>148</ele>
        <time>2013-11-11T08:31:24.000Z</time>
      </trkpt>
      <trkpt lat="47.80452" lon="2.14206">
        <ele>148</ele>
        <time>2013-11-11T08:31:26.000Z</time>
      </trkpt>
      <trkpt lat="47.80536" lon="2.14288">
        <ele>148</ele>
        <time>2013-11-11T08:31:30.000Z</time>
      </trkpt>
      <trkpt lat="47.80536" lon="2.14288">
        <ele>148</ele>
        <time>2013-11-11T08:31:32.000Z</time>
      </trkpt>
      <trkpt lat="47.80563" lon="2.14312">
        <ele>147</ele>
        <time>2013-11-11T08:31:36.000Z</time>
      </trkpt>
      <trkpt lat="47.80578" lon="2.14327">
        <ele>148</ele>
        <time>2013-11-11T08:31:40.000Z</time>
      </trkpt>
      <trkpt lat="47.80586" lon="2.14335">
        <ele>147</ele>
        <time>2013-11-11T08:31:42.000Z</time>
      </trkpt>
      <trkpt lat="47.80586" lon="2.14335">
        <ele>147</ele>
        <time>2013-11-11T08:31:44.000Z</time>
      </trkpt>
      <trkpt lat="47.80602" lon="2.14351">
        <ele>148</ele>
        <time>2013-11-11T08:31:46.000Z</time>
      </trkpt>
      <trkpt lat="47.80602" lon="2.14351">
        <ele>148</ele>
        <time>2013-11-11T08:31:48.000Z</time>
      </trkpt>
      <trkpt lat="47.80602" lon="2.14351">
        <ele>148</ele>
        <time>2013-11-11T08:31:52.000Z</time>
      </trkpt>
      <trkpt lat="47.80602" lon="2.14351">
        <ele>148</ele>
        <time>2013-11-11T08:31:56.000Z</time>
      </trkpt>
      <trkpt lat="47.80651" lon="2.14411">
        <ele>149</ele>
        <time>2013-11-11T08:32:00.000Z</time>
      </trkpt>
      <trkpt lat="47.8066" lon="2.14421">
        <ele>148</ele>
        <time>2013-11-11T08:32:02.000Z</time>
      </trkpt>
      <trkpt lat="47.80668" lon="2.14431">
        <ele>149</ele>
        <time>2013-11-11T08:32:04.000Z</time>
      </trkpt>
      <trkpt lat="47.80677" lon="2.14442">
        <ele>148</ele>
        <time>2013-11-11T08:32:06.000Z</time>
      </trkpt>
      <trkpt lat="47.80684" lon="2.14451">
        <ele>148</ele>
        <time>2013-11-11T08:32:08.000Z</time>
      </trkpt>
      <trkpt lat="47.80684" lon="2.14451">
        <ele>148</ele>
        <time>2013-11-11T08:32:12.000Z</time>
      </trkpt>
      <trkpt lat="47.80684" lon="2.14451">
        <ele>148</ele>
        <time>2013-11-11T08:32:14.000Z</time>
      </trkpt>
      <trkpt lat="47.80684" lon="2.14451">
        <ele>148</ele>
        <time>2013-11-11T08:32:16.000Z</time>
      </trkpt>
      <trkpt lat="47.8071" lon="2.14484">
        <ele>146</ele>
        <time>2013-11-11T08:32:22.000Z</time>
      </trkpt>
      <trkpt lat="47.8071" lon="2.14484">
        <ele>146</ele>
        <time>2013-11-11T08:32:24.000Z</time>
      </trkpt>
      <trkpt lat="47.8071" lon="2.14484">
        <ele>146</ele>
        <time>2013-11-11T08:32:26.000Z</time>
      </trkpt>
      <trkpt lat="47.8071" lon="2.14484">
        <ele>146</ele>
        <time>2013-11-11T08:32:28.000Z</time>
      </trkpt>
      <trkpt lat="47.80744" lon="2.14515">
        <ele>148</ele>
        <time>2013-11-11T08:32:32.000Z</time>
      </trkpt>
      <trkpt lat="47.80766" lon="2.14533">
        <ele>148</ele>
        <time>2013-11-11T08:32:34.000Z</time>
      </trkpt>
      <trkpt lat="47.80782" lon="2.14543">
        <ele>148</ele>
        <time>2013-11-11T08:32:36.000Z</time>
      </trkpt>
      <trkpt lat="47.80795" lon="2.14551">
        <ele>148</ele>
        <time>2013-11-11T08:32:38.000Z</time>
      </trkpt>
      <trkpt lat="47.80806" lon="2.14558">
        <ele>147</ele>
        <time>2013-11-11T08:32:40.000Z</time>
      </trkpt>
      <trkpt lat="47.80806" lon="2.14558">
        <ele>147</ele>
        <time>2013-11-11T08:32:42.000Z</time>
      </trkpt>
      <trkpt lat="47.80806" lon="2.14558">
        <ele>147</ele>
        <time>2013-11-11T08:32:44.000Z</time>
      </trkpt>
      <trkpt lat="47.80806" lon="2.14558">
        <ele>147</ele>
        <time>2013-11-11T08:32:46.000Z</time>
      </trkpt>
      <trkpt lat="47.80874" lon="2.14589">
        <ele>146</ele>
        <time>2013-11-11T08:32:52.000Z</time>
      </trkpt>
      <trkpt lat="47.80874" lon="2.14589">
        <ele>146</ele>
        <time>2013-11-11T08:32:54.000Z</time>
      </trkpt>
      <trkpt lat="47.80874" lon="2.14589">
        <ele>146</ele>
        <time>2013-11-11T08:32:56.000Z</time>
      </trkpt>
      <trkpt lat="47.80874" lon="2.14589">
        <ele>146</ele>
        <time>2013-11-11T08:32:58.000Z</time>
      </trkpt>
      <trkpt lat="47.80913" lon="2.14606">
        <ele>148</ele>
        <time>2013-11-11T08:33:00.000Z</time>
      </trkpt>
      <trkpt lat="47.80922" lon="2.14611">
        <ele>148</ele>
        <time>2013-11-11T08:33:02.000Z</time>
      </trkpt>
      <trkpt lat="47.80931" lon="2.14616">
        <ele>147</ele>
        <time>2013-11-11T08:33:04.000Z</time>
      </trkpt>
      <trkpt lat="47.80942" lon="2.14621">
        <ele>147</ele>
        <time>2013-11-11T08:33:06.000Z</time>
      </trkpt>
      <trkpt lat="47.80952" lon="2.14625">
        <ele>148</ele>
        <time>2013-11-11T08:33:08.000Z</time>
      </trkpt>
      <trkpt lat="47.80952" lon="2.14625">
        <ele>148</ele>
        <time>2013-11-11T08:33:10.000Z</time>
      </trkpt>
      <trkpt lat="47.80952" lon="2.14625">
        <ele>148</ele>
        <time>2013-11-11T08:33:12.000Z</time>
      </trkpt>
      <trkpt lat="47.80952" lon="2.14625">
        <ele>148</ele>
        <time>2013-11-11T08:33:14.000Z</time>
      </trkpt>
      <trkpt lat="47.80952" lon="2.14625">
        <ele>148</ele>
        <time>2013-11-11T08:33:17.000Z</time>
      </trkpt>
      <trkpt lat="47.81011" lon="2.1465">
        <ele>147</ele>
        <time>2013-11-11T08:33:21.000Z</time>
      </trkpt>
      <trkpt lat="47.8102" lon="2.14654">
        <ele>147</ele>
        <time>2013-11-11T08:33:23.000Z</time>
      </trkpt>
      <trkpt lat="47.81029" lon="2.14659">
        <ele>147</ele>
        <time>2013-11-11T08:33:25.000Z</time>
      </trkpt>
      <trkpt lat="47.81039" lon="2.14664">
        <ele>147</ele>
        <time>2013-11-11T08:33:27.000Z</time>
      </trkpt>
      <trkpt lat="47.81048" lon="2.14669">
        <ele>148</ele>
        <time>2013-11-11T08:33:29.000Z</time>
      </trkpt>
      <trkpt lat="47.81048" lon="2.14669">
        <ele>148</ele>
        <time>2013-11-11T08:33:31.000Z</time>
      </trkpt>
      <trkpt lat="47.81048" lon="2.14669">
        <ele>148</ele>
        <time>2013-11-11T08:33:33.000Z</time>
      </trkpt>
      <trkpt lat="47.81048" lon="2.14669">
        <ele>148</ele>
        <time>2013-11-11T08:33:35.000Z</time>
      </trkpt>
      <trkpt lat="47.81094" lon="2.14689">
        <ele>148</ele>
        <time>2013-11-11T08:33:39.000Z</time>
      </trkpt>
      <trkpt lat="47.81103" lon="2.14692">
        <ele>148</ele>
        <time>2013-11-11T08:33:41.000Z</time>
      </trkpt>
      <trkpt lat="47.81112" lon="2.14697">
        <ele>147</ele>
        <time>2013-11-11T08:33:43.000Z</time>
      </trkpt>
      <trkpt lat="47.81121" lon="2.14699">
        <ele>147</ele>
        <time>2013-11-11T08:33:45.000Z</time>
      </trkpt>
      <trkpt lat="47.81132" lon="2.14703">
        <ele>148</ele>
        <time>2013-11-11T08:33:47.000Z</time>
      </trkpt>
      <trkpt lat="47.81151" lon="2.14712">
        <ele>147</ele>
        <time>2013-11-11T08:33:51.000Z</time>
      </trkpt>
      <trkpt lat="47.81151" lon="2.14712">
        <ele>147</ele>
        <time>2013-11-11T08:33:53.000Z</time>
      </trkpt>
      <trkpt lat="47.81151" lon="2.14712">
        <ele>147</ele>
        <time>2013-11-11T08:33:55.000Z</time>
      </trkpt>
      <trkpt lat="47.81151" lon="2.14712">
        <ele>147</ele>
        <time>2013-11-11T08:33:57.000Z</time>
      </trkpt>
      <trkpt lat="47.81151" lon="2.14712">
        <ele>147</ele>
        <time>2013-11-11T08:33:59.000Z</time>
      </trkpt>
      <trkpt lat="47.81151" lon="2.14712">
        <ele>147</ele>
        <time>2013-11-11T08:34:02.000Z</time>
      </trkpt>
      <trkpt lat="47.81151" lon="2.14712">
        <ele>147</ele>
        <time>2013-11-11T08:34:04.000Z</time>
      </trkpt>
      <trkpt lat="47.81207" lon="2.14672">
        <ele>143</ele>
        <time>2013-11-11T08:34:08.000Z</time>
      </trkpt>
      <trkpt lat="47.81211" lon="2.14659">
        <ele>142</ele>
        <time>2013-11-11T08:34:10.000Z</time>
      </trkpt>
      <trkpt lat="47.81218" lon="2.14637">
        <ele>141</ele>
        <time>2013-11-11T08:34:14.000Z</time>
      </trkpt>
      <trkpt lat="47.81218" lon="2.14637">
        <ele>141</ele>
        <time>2013-11-11T08:34:16.000Z</time>
      </trkpt>
      <trkpt lat="47.81223" lon="2.14609">
        <ele>140</ele>
        <time>2013-11-11T08:34:18.000Z</time>
      </trkpt>
      <trkpt lat="47.81225" lon="2.14594">
        <ele>138</ele>
        <time>2013-11-11T08:34:20.000Z</time>
      </trkpt>
      <trkpt lat="47.81227" lon="2.1458">
        <ele>138</ele>
        <time>2013-11-11T08:34:22.000Z</time>
      </trkpt>
      <trkpt lat="47.81231" lon="2.14565">
        <ele>138</ele>
        <time>2013-11-11T08:34:24.000Z</time>
      </trkpt>
      <trkpt lat="47.81234" lon="2.14549">
        <ele>138</ele>
        <time>2013-11-11T08:34:26.000Z</time>
      </trkpt>
      <trkpt lat="47.81238" lon="2.14534">
        <ele>138</ele>
        <time>2013-11-11T08:34:29.000Z</time>
      </trkpt>
      <trkpt lat="47.8124" lon="2.1452">
        <ele>138</ele>
        <time>2013-11-11T08:34:31.000Z</time>
      </trkpt>
      <trkpt lat="47.8124" lon="2.1452">
        <ele>138</ele>
        <time>2013-11-11T08:34:33.000Z</time>
      </trkpt>
      <trkpt lat="47.8124" lon="2.1452">
        <ele>138</ele>
        <time>2013-11-11T08:34:35.000Z</time>
      </trkpt>
      <trkpt lat="47.8124" lon="2.1452">
        <ele>138</ele>
        <time>2013-11-11T08:34:37.000Z</time>
      </trkpt>
      <trkpt lat="47.8124" lon="2.1452">
        <ele>138</ele>
        <time>2013-11-11T08:34:39.000Z</time>
      </trkpt>
      <trkpt lat="47.8124" lon="2.1452">
        <ele>138</ele>
        <time>2013-11-11T08:34:41.000Z</time>
      </trkpt>
      <trkpt lat="47.8124" lon="2.1452">
        <ele>138</ele>
        <time>2013-11-11T08:34:43.000Z</time>
      </trkpt>
      <trkpt lat="47.8124" lon="2.1452">
        <ele>138</ele>
        <time>2013-11-11T08:34:45.000Z</time>
      </trkpt>
      <trkpt lat="47.8124" lon="2.1452">
        <ele>138</ele>
        <time>2013-11-11T08:34:50.000Z</time>
      </trkpt>
      <trkpt lat="47.8124" lon="2.1452">
        <ele>138</ele>
        <time>2013-11-11T08:34:52.000Z</time>
      </trkpt>
      <trkpt lat="47.81276" lon="2.14384">
        <ele>145</ele>
        <time>2013-11-11T08:35:12.000Z</time>
      </trkpt>
      <trkpt lat="47.81297" lon="2.14309">
        <ele>145</ele>
        <time>2013-11-11T08:35:14.000Z</time>
      </trkpt>
      <trkpt lat="47.81308" lon="2.14266">
        <ele>145</ele>
        <time>2013-11-11T08:35:16.000Z</time>
      </trkpt>
      <trkpt lat="47.81313" lon="2.14228">
        <ele>149</ele>
        <time>2013-11-11T08:35:19.000Z</time>
      </trkpt>
      <trkpt lat="47.81317" lon="2.14203">
        <ele>150</ele>
        <time>2013-11-11T08:35:21.000Z</time>
      </trkpt>
      <trkpt lat="47.81325" lon="2.14163">
        <ele>150</ele>
        <time>2013-11-11T08:35:23.000Z</time>
      </trkpt>
      <trkpt lat="47.81329" lon="2.1415">
        <ele>150</ele>
        <time>2013-11-11T08:35:25.000Z</time>
      </trkpt>
      <trkpt lat="47.81329" lon="2.1415">
        <ele>150</ele>
        <time>2013-11-11T08:35:27.000Z</time>
      </trkpt>
      <trkpt lat="47.81329" lon="2.1415">
        <ele>150</ele>
        <time>2013-11-11T08:35:29.000Z</time>
      </trkpt>
      <trkpt lat="47.81329" lon="2.1415">
        <ele>150</ele>
        <time>2013-11-11T08:35:31.000Z</time>
      </trkpt>
      <trkpt lat="47.81351" lon="2.14087">
        <ele>146</ele>
        <time>2013-11-11T08:35:35.000Z</time>
      </trkpt>
      <trkpt lat="47.81355" lon="2.14072">
        <ele>147</ele>
        <time>2013-11-11T08:35:37.000Z</time>
      </trkpt>
      <trkpt lat="47.81358" lon="2.14059">
        <ele>146</ele>
        <time>2013-11-11T08:35:39.000Z</time>
      </trkpt>
      <trkpt lat="47.81361" lon="2.14044">
        <ele>146</ele>
        <time>2013-11-11T08:35:41.000Z</time>
      </trkpt>
      <trkpt lat="47.81361" lon="2.14044">
        <ele>146</ele>
        <time>2013-11-11T08:35:43.000Z</time>
      </trkpt>
      <trkpt lat="47.81361" lon="2.14044">
        <ele>146</ele>
        <time>2013-11-11T08:35:45.000Z</time>
      </trkpt>
      <trkpt lat="47.81361" lon="2.14044">
        <ele>146</ele>
        <time>2013-11-11T08:35:47.000Z</time>
      </trkpt>
      <trkpt lat="47.81377" lon="2.13973">
        <ele>146</ele>
        <time>2013-11-11T08:35:51.000Z</time>
      </trkpt>
      <trkpt lat="47.81381" lon="2.1396">
        <ele>145</ele>
        <time>2013-11-11T08:35:53.000Z</time>
      </trkpt>
      <trkpt lat="47.81386" lon="2.13947">
        <ele>145</ele>
        <time>2013-11-11T08:35:55.000Z</time>
      </trkpt>
      <trkpt lat="47.8139" lon="2.13934">
        <ele>145</ele>
        <time>2013-11-11T08:35:57.000Z</time>
      </trkpt>
      <trkpt lat="47.8139" lon="2.13934">
        <ele>145</ele>
        <time>2013-11-11T08:35:59.000Z</time>
      </trkpt>
      <trkpt lat="47.814" lon="2.1389">
        <ele>146</ele>
        <time>2013-11-11T08:36:03.000Z</time>
      </trkpt>
      <trkpt lat="47.81403" lon="2.13876">
        <ele>146</ele>
        <time>2013-11-11T08:36:05.000Z</time>
      </trkpt>
      <trkpt lat="47.81406" lon="2.13863">
        <ele>145</ele>
        <time>2013-11-11T08:36:07.000Z</time>
      </trkpt>
      <trkpt lat="47.81406" lon="2.13863">
        <ele>145</ele>
        <time>2013-11-11T08:36:09.000Z</time>
      </trkpt>
      <trkpt lat="47.81406" lon="2.13863">
        <ele>145</ele>
        <time>2013-11-11T08:36:11.000Z</time>
      </trkpt>
      <trkpt lat="47.81406" lon="2.13863">
        <ele>145</ele>
        <time>2013-11-11T08:36:13.000Z</time>
      </trkpt>
      <trkpt lat="47.81406" lon="2.13863">
        <ele>145</ele>
        <time>2013-11-11T08:36:15.000Z</time>
      </trkpt>
      <trkpt lat="47.81406" lon="2.13863">
        <ele>145</ele>
        <time>2013-11-11T08:36:17.000Z</time>
      </trkpt>
      <trkpt lat="47.81406" lon="2.13863">
        <ele>145</ele>
        <time>2013-11-11T08:36:19.000Z</time>
      </trkpt>
      <trkpt lat="47.81406" lon="2.13863">
        <ele>145</ele>
        <time>2013-11-11T08:36:21.000Z</time>
      </trkpt>
      <trkpt lat="47.81406" lon="2.13863">
        <ele>145</ele>
        <time>2013-11-11T08:36:23.000Z</time>
      </trkpt>
      <trkpt lat="47.81453" lon="2.13814">
        <ele>144</ele>
        <time>2013-11-11T08:36:27.000Z</time>
      </trkpt>
      <trkpt lat="47.81468" lon="2.13825">
        <ele>144</ele>
        <time>2013-11-11T08:36:31.000Z</time>
      </trkpt>
      <trkpt lat="47.81485" lon="2.13835">
        <ele>144</ele>
        <time>2013-11-11T08:36:35.000Z</time>
      </trkpt>
      <trkpt lat="47.815" lon="2.13844">
        <ele>145</ele>
        <time>2013-11-11T08:36:39.000Z</time>
      </trkpt>
      <trkpt lat="47.81516" lon="2.13856">
        <ele>146</ele>
        <time>2013-11-11T08:36:43.000Z</time>
      </trkpt>
      <trkpt lat="47.81525" lon="2.13861">
        <ele>147</ele>
        <time>2013-11-11T08:36:45.000Z</time>
      </trkpt>
      <trkpt lat="47.81525" lon="2.13861">
        <ele>147</ele>
        <time>2013-11-11T08:36:47.000Z</time>
      </trkpt>
      <trkpt lat="47.81525" lon="2.13861">
        <ele>147</ele>
        <time>2013-11-11T08:36:49.000Z</time>
      </trkpt>
      <trkpt lat="47.81525" lon="2.13861">
        <ele>147</ele>
        <time>2013-11-11T08:36:51.000Z</time>
      </trkpt>
      <trkpt lat="47.81525" lon="2.13861">
        <ele>147</ele>
        <time>2013-11-11T08:36:53.000Z</time>
      </trkpt>
      <trkpt lat="47.81525" lon="2.13861">
        <ele>147</ele>
        <time>2013-11-11T08:36:55.000Z</time>
      </trkpt>
      <trkpt lat="47.81525" lon="2.13861">
        <ele>147</ele>
        <time>2013-11-11T08:36:57.000Z</time>
      </trkpt>
      <trkpt lat="47.81525" lon="2.13861">
        <ele>147</ele>
        <time>2013-11-11T08:36:59.000Z</time>
      </trkpt>
      <trkpt lat="47.81525" lon="2.13861">
        <ele>147</ele>
        <time>2013-11-11T08:37:01.000Z</time>
      </trkpt>
      <trkpt lat="47.8157" lon="2.13892">
        <ele>145</ele>
        <time>2013-11-11T08:37:05.000Z</time>
      </trkpt>
      <trkpt lat="47.81598" lon="2.13911">
        <ele>147</ele>
        <time>2013-11-11T08:37:08.000Z</time>
      </trkpt>
      <trkpt lat="47.81615" lon="2.13923">
        <ele>147</ele>
        <time>2013-11-11T08:37:10.000Z</time>
      </trkpt>
      <trkpt lat="47.81615" lon="2.13923">
        <ele>147</ele>
        <time>2013-11-11T08:37:12.000Z</time>
      </trkpt>
      <trkpt lat="47.81615" lon="2.13923">
        <ele>147</ele>
        <time>2013-11-11T08:37:14.000Z</time>
      </trkpt>
      <trkpt lat="47.81615" lon="2.13923">
        <ele>147</ele>
        <time>2013-11-11T08:37:16.000Z</time>
      </trkpt>
      <trkpt lat="47.81615" lon="2.13923">
        <ele>147</ele>
        <time>2013-11-11T08:37:23.000Z</time>
      </trkpt>
      <trkpt lat="47.81615" lon="2.13923">
        <ele>147</ele>
        <time>2013-11-11T08:37:25.000Z</time>
      </trkpt>
      <trkpt lat="47.81615" lon="2.13923">
        <ele>147</ele>
        <time>2013-11-11T08:37:27.000Z</time>
      </trkpt>
      <trkpt lat="47.81653" lon="2.1395">
        <ele>154</ele>
        <time>2013-11-11T08:37:31.000Z</time>
      </trkpt>
      <trkpt lat="47.81675" lon="2.13966">
        <ele>154</ele>
        <time>2013-11-11T08:37:33.000Z</time>
      </trkpt>
      <trkpt lat="47.81691" lon="2.13977">
        <ele>155</ele>
        <time>2013-11-11T08:37:35.000Z</time>
      </trkpt>
      <trkpt lat="47.81702" lon="2.13986">
        <ele>155</ele>
        <time>2013-11-11T08:37:37.000Z</time>
      </trkpt>
      <trkpt lat="47.81711" lon="2.13992">
        <ele>155</ele>
        <time>2013-11-11T08:37:39.000Z</time>
      </trkpt>
      <trkpt lat="47.81711" lon="2.13992">
        <ele>155</ele>
        <time>2013-11-11T08:37:41.000Z</time>
      </trkpt>
      <trkpt lat="47.81711" lon="2.13992">
        <ele>155</ele>
        <time>2013-11-11T08:37:43.000Z</time>
      </trkpt>
      <trkpt lat="47.81711" lon="2.13992">
        <ele>155</ele>
        <time>2013-11-11T08:37:45.000Z</time>
      </trkpt>
      <trkpt lat="47.81711" lon="2.13992">
        <ele>155</ele>
        <time>2013-11-11T08:37:47.000Z</time>
      </trkpt>
      <trkpt lat="47.81711" lon="2.13992">
        <ele>155</ele>
        <time>2013-11-11T08:37:52.000Z</time>
      </trkpt>
      <trkpt lat="47.81754" lon="2.14036">
        <ele>155</ele>
        <time>2013-11-11T08:37:55.000Z</time>
      </trkpt>
      <trkpt lat="47.81771" lon="2.14048">
        <ele>153</ele>
        <time>2013-11-11T08:38:00.000Z</time>
      </trkpt>
      <trkpt lat="47.81771" lon="2.14048">
        <ele>153</ele>
        <time>2013-11-11T08:38:02.000Z</time>
      </trkpt>
      <trkpt lat="47.81796" lon="2.14059">
        <ele>152</ele>
        <time>2013-11-11T08:38:05.000Z</time>
      </trkpt>
      <trkpt lat="47.81807" lon="2.14063">
        <ele>150</ele>
        <time>2013-11-11T08:38:07.000Z</time>
      </trkpt>
      <trkpt lat="47.81807" lon="2.14063">
        <ele>150</ele>
        <time>2013-11-11T08:38:09.000Z</time>
      </trkpt>
      <trkpt lat="47.81807" lon="2.14063">
        <ele>150</ele>
        <time>2013-11-11T08:38:13.000Z</time>
      </trkpt>
      <trkpt lat="47.81844" lon="2.14081">
        <ele>149</ele>
        <time>2013-11-11T08:38:15.000Z</time>
      </trkpt>
      <trkpt lat="47.81844" lon="2.14081">
        <ele>149</ele>
        <time>2013-11-11T08:38:17.000Z</time>
      </trkpt>
      <trkpt lat="47.81844" lon="2.14081">
        <ele>149</ele>
        <time>2013-11-11T08:38:19.000Z</time>
      </trkpt>
      <trkpt lat="47.81844" lon="2.14081">
        <ele>149</ele>
        <time>2013-11-11T08:38:21.000Z</time>
      </trkpt>
      <trkpt lat="47.81844" lon="2.14081">
        <ele>149</ele>
        <time>2013-11-11T08:38:23.000Z</time>
      </trkpt>
      <trkpt lat="47.81844" lon="2.14081">
        <ele>149</ele>
        <time>2013-11-11T08:38:25.000Z</time>
      </trkpt>
      <trkpt lat="47.81844" lon="2.14081">
        <ele>149</ele>
        <time>2013-11-11T08:38:27.000Z</time>
      </trkpt>
      <trkpt lat="47.81844" lon="2.14081">
        <ele>149</ele>
        <time>2013-11-11T08:38:29.000Z</time>
      </trkpt>
      <trkpt lat="47.81844" lon="2.14081">
        <ele>149</ele>
        <time>2013-11-11T08:38:31.000Z</time>
      </trkpt>
      <trkpt lat="47.81844" lon="2.14081">
        <ele>149</ele>
        <time>2013-11-11T08:38:35.000Z</time>
      </trkpt>
      <trkpt lat="47.81844" lon="2.14081">
        <ele>149</ele>
        <time>2013-11-11T08:38:37.000Z</time>
      </trkpt>
      <trkpt lat="47.81844" lon="2.14081">
        <ele>149</ele>
        <time>2013-11-11T08:38:39.000Z</time>
      </trkpt>
      <trkpt lat="47.81844" lon="2.14081">
        <ele>149</ele>
        <time>2013-11-11T08:38:41.000Z</time>
      </trkpt>
      <trkpt lat="47.81926" lon="2.1412">
        <ele>148</ele>
        <time>2013-11-11T08:38:44.000Z</time>
      </trkpt>
      <trkpt lat="47.81938" lon="2.1413">
        <ele>148</ele>
        <time>2013-11-11T08:38:50.000Z</time>
      </trkpt>
      <trkpt lat="47.81947" lon="2.14136">
        <ele>147</ele>
        <time>2013-11-11T08:38:54.000Z</time>
      </trkpt>
      <trkpt lat="47.81959" lon="2.14145">
        <ele>147</ele>
        <time>2013-11-11T08:38:58.000Z</time>
      </trkpt>
      <trkpt lat="47.81969" lon="2.14154">
        <ele>147</ele>
        <time>2013-11-11T08:39:02.000Z</time>
      </trkpt>
      <trkpt lat="47.81969" lon="2.14154">
        <ele>147</ele>
        <time>2013-11-11T08:39:04.000Z</time>
      </trkpt>
      <trkpt lat="47.81978" lon="2.14161">
        <ele>148</ele>
        <time>2013-11-11T08:39:06.000Z</time>
      </trkpt>
      <trkpt lat="47.81978" lon="2.14161">
        <ele>148</ele>
        <time>2013-11-11T08:39:08.000Z</time>
      </trkpt>
      <trkpt lat="47.81978" lon="2.14161">
        <ele>148</ele>
        <time>2013-11-11T08:39:10.000Z</time>
      </trkpt>
      <trkpt lat="47.81978" lon="2.14161">
        <ele>148</ele>
        <time>2013-11-11T08:39:12.000Z</time>
      </trkpt>
      <trkpt lat="47.81978" lon="2.14161">
        <ele>148</ele>
        <time>2013-11-11T08:39:14.000Z</time>
      </trkpt>
      <trkpt lat="47.81992" lon="2.14175">
        <ele>150</ele>
        <time>2013-11-11T08:39:18.000Z</time>
      </trkpt>
      <trkpt lat="47.82002" lon="2.14184">
        <ele>150</ele>
        <time>2013-11-11T08:39:20.000Z</time>
      </trkpt>
      <trkpt lat="47.82009" lon="2.14191">
        <ele>150</ele>
        <time>2013-11-11T08:39:22.000Z</time>
      </trkpt>
      <trkpt lat="47.82015" lon="2.14197">
        <ele>149</ele>
        <time>2013-11-11T08:39:24.000Z</time>
      </trkpt>
      <trkpt lat="47.82021" lon="2.14202">
        <ele>149</ele>
        <time>2013-11-11T08:39:26.000Z</time>
      </trkpt>
      <trkpt lat="47.82032" lon="2.14213">
        <ele>150</ele>
        <time>2013-11-11T08:39:28.000Z</time>
      </trkpt>
      <trkpt lat="47.82041" lon="2.14221">
        <ele>150</ele>
        <time>2013-11-11T08:39:32.000Z</time>
      </trkpt>
      <trkpt lat="47.82041" lon="2.14221">
        <ele>150</ele>
        <time>2013-11-11T08:39:34.000Z</time>
      </trkpt>
      <trkpt lat="47.82061" lon="2.14238">
        <ele>150</ele>
        <time>2013-11-11T08:39:40.000Z</time>
      </trkpt>
      <trkpt lat="47.82061" lon="2.14238">
        <ele>150</ele>
        <time>2013-11-11T08:39:42.000Z</time>
      </trkpt>
      <trkpt lat="47.82071" lon="2.14247">
        <ele>150</ele>
        <time>2013-11-11T08:39:44.000Z</time>
      </trkpt>
      <trkpt lat="47.82082" lon="2.14256">
        <ele>150</ele>
        <time>2013-11-11T08:39:48.000Z</time>
      </trkpt>
      <trkpt lat="47.82093" lon="2.14265">
        <ele>150</ele>
        <time>2013-11-11T08:39:52.000Z</time>
      </trkpt>
      <trkpt lat="47.82103" lon="2.14274">
        <ele>151</ele>
        <time>2013-11-11T08:39:56.000Z</time>
      </trkpt>
      <trkpt lat="47.82103" lon="2.14274">
        <ele>151</ele>
        <time>2013-11-11T08:39:58.000Z</time>
      </trkpt>
      <trkpt lat="47.82115" lon="2.14283">
        <ele>150</ele>
        <time>2013-11-11T08:40:00.000Z</time>
      </trkpt>
      <trkpt lat="47.82125" lon="2.14293">
        <ele>150</ele>
        <time>2013-11-11T08:40:04.000Z</time>
      </trkpt>
      <trkpt lat="47.82137" lon="2.14303">
        <ele>150</ele>
        <time>2013-11-11T08:40:08.000Z</time>
      </trkpt>
      <trkpt lat="47.82137" lon="2.14303">
        <ele>150</ele>
        <time>2013-11-11T08:40:12.000Z</time>
      </trkpt>
      <trkpt lat="47.82137" lon="2.14303">
        <ele>150</ele>
        <time>2013-11-11T08:40:14.000Z</time>
      </trkpt>
      <trkpt lat="47.82137" lon="2.14303">
        <ele>150</ele>
        <time>2013-11-11T08:40:16.000Z</time>
      </trkpt>
      <trkpt lat="47.82137" lon="2.14303">
        <ele>150</ele>
        <time>2013-11-11T08:40:18.000Z</time>
      </trkpt>
      <trkpt lat="47.82169" lon="2.14345">
        <ele>153</ele>
        <time>2013-11-11T08:40:22.000Z</time>
      </trkpt>
      <trkpt lat="47.82169" lon="2.14345">
        <ele>153</ele>
        <time>2013-11-11T08:40:24.000Z</time>
      </trkpt>
      <trkpt lat="47.82169" lon="2.14345">
        <ele>153</ele>
        <time>2013-11-11T08:40:26.000Z</time>
      </trkpt>
      <trkpt lat="47.82169" lon="2.14345">
        <ele>153</ele>
        <time>2013-11-11T08:40:28.000Z</time>
      </trkpt>
      <trkpt lat="47.82169" lon="2.14345">
        <ele>153</ele>
        <time>2013-11-11T08:40:30.000Z</time>
      </trkpt>
      <trkpt lat="47.82169" lon="2.14345">
        <ele>153</ele>
        <time>2013-11-11T08:40:32.000Z</time>
      </trkpt>
      <trkpt lat="47.82196" lon="2.14391">
        <ele>149</ele>
        <time>2013-11-11T08:40:36.000Z</time>
      </trkpt>
      <trkpt lat="47.82206" lon="2.14404">
        <ele>149</ele>
        <time>2013-11-11T08:40:40.000Z</time>
      </trkpt>
      <trkpt lat="47.82216" lon="2.14414">
        <ele>149</ele>
        <time>2013-11-11T08:40:44.000Z</time>
      </trkpt>
      <trkpt lat="47.82227" lon="2.14425">
        <ele>149</ele>
        <time>2013-11-11T08:40:48.000Z</time>
      </trkpt>
      <trkpt lat="47.82227" lon="2.14425">
        <ele>149</ele>
        <time>2013-11-11T08:40:50.000Z</time>
      </trkpt>
      <trkpt lat="47.82227" lon="2.14425">
        <ele>149</ele>
        <time>2013-11-11T08:40:52.000Z</time>
      </trkpt>
      <trkpt lat="47.82242" lon="2.14442">
        <ele>150</ele>
        <time>2013-11-11T08:40:54.000Z</time>
      </trkpt>
      <trkpt lat="47.82252" lon="2.14454">
        <ele>150</ele>
        <time>2013-11-11T08:40:58.000Z</time>
      </trkpt>
      <trkpt lat="47.82257" lon="2.1446">
        <ele>150</ele>
        <time>2013-11-11T08:41:02.000Z</time>
      </trkpt>
      <trkpt lat="47.82262" lon="2.14466">
        <ele>151</ele>
        <time>2013-11-11T08:41:04.000Z</time>
      </trkpt>
      <trkpt lat="47.82262" lon="2.14466">
        <ele>151</ele>
        <time>2013-11-11T08:41:06.000Z</time>
      </trkpt>
      <trkpt lat="47.82262" lon="2.14466">
        <ele>151</ele>
        <time>2013-11-11T08:41:08.000Z</time>
      </trkpt>
      <trkpt lat="47.82262" lon="2.14466">
        <ele>151</ele>
        <time>2013-11-11T08:41:10.000Z</time>
      </trkpt>
      <trkpt lat="47.82262" lon="2.14466">
        <ele>151</ele>
        <time>2013-11-11T08:41:12.000Z</time>
      </trkpt>
      <trkpt lat="47.82279" lon="2.14489">
        <ele>151</ele>
        <time>2013-11-11T08:41:16.000Z</time>
      </trkpt>
      <trkpt lat="47.82289" lon="2.14505">
        <ele>151</ele>
        <time>2013-11-11T08:41:18.000Z</time>
      </trkpt>
      <trkpt lat="47.82297" lon="2.14516">
        <ele>151</ele>
        <time>2013-11-11T08:41:20.000Z</time>
      </trkpt>
      <trkpt lat="47.82302" lon="2.14525">
        <ele>151</ele>
        <time>2013-11-11T08:41:22.000Z</time>
      </trkpt>
      <trkpt lat="47.82307" lon="2.14534">
        <ele>152</ele>
        <time>2013-11-11T08:41:24.000Z</time>
      </trkpt>
      <trkpt lat="47.82317" lon="2.14551">
        <ele>151</ele>
        <time>2013-11-11T08:41:26.000Z</time>
      </trkpt>
      <trkpt lat="47.82326" lon="2.14568">
        <ele>152</ele>
        <time>2013-11-11T08:41:30.000Z</time>
      </trkpt>
      <trkpt lat="47.82336" lon="2.14584">
        <ele>152</ele>
        <time>2013-11-11T08:41:34.000Z</time>
      </trkpt>
      <trkpt lat="47.82347" lon="2.14598">
        <ele>152</ele>
        <time>2013-11-11T08:41:38.000Z</time>
      </trkpt>
      <trkpt lat="47.82357" lon="2.1461">
        <ele>152</ele>
        <time>2013-11-11T08:41:42.000Z</time>
      </trkpt>
      <trkpt lat="47.82357" lon="2.1461">
        <ele>152</ele>
        <time>2013-11-11T08:41:44.000Z</time>
      </trkpt>
      <trkpt lat="47.82357" lon="2.1461">
        <ele>152</ele>
        <time>2013-11-11T08:41:46.000Z</time>
      </trkpt>
      <trkpt lat="47.82357" lon="2.1461">
        <ele>152</ele>
        <time>2013-11-11T08:41:48.000Z</time>
      </trkpt>
      <trkpt lat="47.82389" lon="2.14643">
        <ele>153</ele>
        <time>2013-11-11T08:41:54.000Z</time>
      </trkpt>
      <trkpt lat="47.82389" lon="2.14643">
        <ele>153</ele>
        <time>2013-11-11T08:41:56.000Z</time>
      </trkpt>
      <trkpt lat="47.82402" lon="2.14655">
        <ele>152</ele>
        <time>2013-11-11T08:41:58.000Z</time>
      </trkpt>
      <trkpt lat="47.82413" lon="2.14666">
        <ele>153</ele>
        <time>2013-11-11T08:42:02.000Z</time>
      </trkpt>
      <trkpt lat="47.82424" lon="2.14678">
        <ele>152</ele>
        <time>2013-11-11T08:42:06.000Z</time>
      </trkpt>
      <trkpt lat="47.82424" lon="2.14678">
        <ele>152</ele>
        <time>2013-11-11T08:42:08.000Z</time>
      </trkpt>
      <trkpt lat="47.82424" lon="2.14678">
        <ele>152</ele>
        <time>2013-11-11T08:42:10.000Z</time>
      </trkpt>
      <trkpt lat="47.82424" lon="2.14678">
        <ele>152</ele>
        <time>2013-11-11T08:42:12.000Z</time>
      </trkpt>
      <trkpt lat="47.82424" lon="2.14678">
        <ele>152</ele>
        <time>2013-11-11T08:42:14.000Z</time>
      </trkpt>
      <trkpt lat="47.82424" lon="2.14678">
        <ele>152</ele>
        <time>2013-11-11T08:42:16.000Z</time>
      </trkpt>
      <trkpt lat="47.82424" lon="2.14678">
        <ele>152</ele>
        <time>2013-11-11T08:42:18.000Z</time>
      </trkpt>
      <trkpt lat="47.82471" lon="2.14718">
        <ele>154</ele>
        <time>2013-11-11T08:42:24.000Z</time>
      </trkpt>
      <trkpt lat="47.82481" lon="2.14728">
        <ele>155</ele>
        <time>2013-11-11T08:42:28.000Z</time>
      </trkpt>
      <trkpt lat="47.82494" lon="2.14738">
        <ele>154</ele>
        <time>2013-11-11T08:42:32.000Z</time>
      </trkpt>
      <trkpt lat="47.82494" lon="2.14738">
        <ele>154</ele>
        <time>2013-11-11T08:42:34.000Z</time>
      </trkpt>
      <trkpt lat="47.82494" lon="2.14738">
        <ele>154</ele>
        <time>2013-11-11T08:42:36.000Z</time>
      </trkpt>
      <trkpt lat="47.82494" lon="2.14738">
        <ele>154</ele>
        <time>2013-11-11T08:42:38.000Z</time>
      </trkpt>
      <trkpt lat="47.82494" lon="2.14738">
        <ele>154</ele>
        <time>2013-11-11T08:42:42.000Z</time>
      </trkpt>
      <trkpt lat="47.82494" lon="2.14738">
        <ele>154</ele>
        <time>2013-11-11T08:42:44.000Z</time>
      </trkpt>
      <trkpt lat="47.82534" lon="2.14778">
        <ele>150</ele>
        <time>2013-11-11T08:42:46.000Z</time>
      </trkpt>
      <trkpt lat="47.82534" lon="2.14778">
        <ele>150</ele>
        <time>2013-11-11T08:42:50.000Z</time>
      </trkpt>
      <trkpt lat="47.82541" lon="2.14788">
        <ele>149</ele>
        <time>2013-11-11T08:42:52.000Z</time>
      </trkpt>
      <trkpt lat="47.82547" lon="2.14798">
        <ele>151</ele>
        <time>2013-11-11T08:42:54.000Z</time>
      </trkpt>
      <trkpt lat="47.82552" lon="2.14806">
        <ele>152</ele>
        <time>2013-11-11T08:42:56.000Z</time>
      </trkpt>
      <trkpt lat="47.82557" lon="2.14814">
        <ele>151</ele>
        <time>2013-11-11T08:42:58.000Z</time>
      </trkpt>
      <trkpt lat="47.82561" lon="2.14823">
        <ele>151</ele>
        <time>2013-11-11T08:43:00.000Z</time>
      </trkpt>
      <trkpt lat="47.82569" lon="2.14841">
        <ele>151</ele>
        <time>2013-11-11T08:43:02.000Z</time>
      </trkpt>
      <trkpt lat="47.82571" lon="2.1486">
        <ele>150</ele>
        <time>2013-11-11T08:43:06.000Z</time>
      </trkpt>
      <trkpt lat="47.82571" lon="2.1486">
        <ele>150</ele>
        <time>2013-11-11T08:43:08.000Z</time>
      </trkpt>
      <trkpt lat="47.8257" lon="2.14894">
        <ele>147</ele>
        <time>2013-11-11T08:43:12.000Z</time>
      </trkpt>
      <trkpt lat="47.82565" lon="2.14916">
        <ele>148</ele>
        <time>2013-11-11T08:43:16.000Z</time>
      </trkpt>
      <trkpt lat="47.82558" lon="2.14938">
        <ele>150</ele>
        <time>2013-11-11T08:43:20.000Z</time>
      </trkpt>
      <trkpt lat="47.82555" lon="2.1496">
        <ele>152</ele>
        <time>2013-11-11T08:43:24.000Z</time>
      </trkpt>
      <trkpt lat="47.82555" lon="2.1496">
        <ele>152</ele>
        <time>2013-11-11T08:43:26.000Z</time>
      </trkpt>
      <trkpt lat="47.82555" lon="2.1496">
        <ele>152</ele>
        <time>2013-11-11T08:43:28.000Z</time>
      </trkpt>
      <trkpt lat="47.82555" lon="2.1496">
        <ele>152</ele>
        <time>2013-11-11T08:43:30.000Z</time>
      </trkpt>
      <trkpt lat="47.82555" lon="2.1496">
        <ele>152</ele>
        <time>2013-11-11T08:43:32.000Z</time>
      </trkpt>
      <trkpt lat="47.82555" lon="2.1496">
        <ele>152</ele>
        <time>2013-11-11T08:43:34.000Z</time>
      </trkpt>
      <trkpt lat="47.82581" lon="2.14968">
        <ele>153</ele>
        <time>2013-11-11T08:43:44.000Z</time>
      </trkpt>
      <trkpt lat="47.8259" lon="2.14981">
        <ele>154</ele>
        <time>2013-11-11T08:43:48.000Z</time>
      </trkpt>
      <trkpt lat="47.826" lon="2.14997">
        <ele>154</ele>
        <time>2013-11-11T08:43:52.000Z</time>
      </trkpt>
      <trkpt lat="47.8261" lon="2.1501">
        <ele>155</ele>
        <time>2013-11-11T08:43:56.000Z</time>
      </trkpt>
      <trkpt lat="47.82623" lon="2.15022">
        <ele>156</ele>
        <time>2013-11-11T08:44:00.000Z</time>
      </trkpt>
      <trkpt lat="47.82623" lon="2.15022">
        <ele>156</ele>
        <time>2013-11-11T08:44:04.000Z</time>
      </trkpt>
      <trkpt lat="47.82623" lon="2.15022">
        <ele>156</ele>
        <time>2013-11-11T08:44:06.000Z</time>
      </trkpt>
      <trkpt lat="47.82623" lon="2.15022">
        <ele>156</ele>
        <time>2013-11-11T08:44:08.000Z</time>
      </trkpt>
      <trkpt lat="47.82664" lon="2.1504">
        <ele>155</ele>
        <time>2013-11-11T08:44:12.000Z</time>
      </trkpt>
      <trkpt lat="47.82678" lon="2.15044">
        <ele>156</ele>
        <time>2013-11-11T08:44:16.000Z</time>
      </trkpt>
      <trkpt lat="47.82678" lon="2.15044">
        <ele>156</ele>
        <time>2013-11-11T08:44:20.000Z</time>
      </trkpt>
      <trkpt lat="47.82678" lon="2.15044">
        <ele>156</ele>
        <time>2013-11-11T08:44:22.000Z</time>
      </trkpt>
      <trkpt lat="47.82678" lon="2.15044">
        <ele>156</ele>
        <time>2013-11-11T08:44:24.000Z</time>
      </trkpt>
      <trkpt lat="47.82699" lon="2.15053">
        <ele>154</ele>
        <time>2013-11-11T08:44:28.000Z</time>
      </trkpt>
      <trkpt lat="47.82713" lon="2.15058">
        <ele>155</ele>
        <time>2013-11-11T08:44:30.000Z</time>
      </trkpt>
      <trkpt lat="47.82722" lon="2.15062">
        <ele>154</ele>
        <time>2013-11-11T08:44:32.000Z</time>
      </trkpt>
      <trkpt lat="47.82722" lon="2.15062">
        <ele>154</ele>
        <time>2013-11-11T08:44:34.000Z</time>
      </trkpt>
      <trkpt lat="47.82743" lon="2.15069">
        <ele>154</ele>
        <time>2013-11-11T08:44:38.000Z</time>
      </trkpt>
      <trkpt lat="47.82758" lon="2.15073">
        <ele>154</ele>
        <time>2013-11-11T08:44:41.000Z</time>
      </trkpt>
      <trkpt lat="47.82773" lon="2.15078">
        <ele>151</ele>
        <time>2013-11-11T08:44:44.000Z</time>
      </trkpt>
      <trkpt lat="47.82794" lon="2.15089">
        <ele>150</ele>
        <time>2013-11-11T08:44:50.000Z</time>
      </trkpt>
      <trkpt lat="47.82804" lon="2.15098">
        <ele>149</ele>
        <time>2013-11-11T08:44:52.000Z</time>
      </trkpt>
      <trkpt lat="47.82804" lon="2.15098">
        <ele>149</ele>
        <time>2013-11-11T08:44:54.000Z</time>
      </trkpt>
      <trkpt lat="47.82804" lon="2.15098">
        <ele>149</ele>
        <time>2013-11-11T08:44:56.000Z</time>
      </trkpt>
      <trkpt lat="47.82804" lon="2.15098">
        <ele>149</ele>
        <time>2013-11-11T08:44:58.000Z</time>
      </trkpt>
      <trkpt lat="47.82804" lon="2.15098">
        <ele>149</ele>
        <time>2013-11-11T08:45:00.000Z</time>
      </trkpt>
      <trkpt lat="47.82804" lon="2.15098">
        <ele>149</ele>
        <time>2013-11-11T08:45:02.000Z</time>
      </trkpt>
      <trkpt lat="47.82804" lon="2.15098">
        <ele>149</ele>
        <time>2013-11-11T08:45:04.000Z</time>
      </trkpt>
      <trkpt lat="47.82804" lon="2.15098">
        <ele>149</ele>
        <time>2013-11-11T08:45:06.000Z</time>
      </trkpt>
      <trkpt lat="47.82804" lon="2.15098">
        <ele>149</ele>
        <time>2013-11-11T08:45:08.000Z</time>
      </trkpt>
      <trkpt lat="47.82822" lon="2.15148">
        <ele>153</ele>
        <time>2013-11-11T08:45:12.000Z</time>
      </trkpt>
      <trkpt lat="47.82835" lon="2.15175">
        <ele>153</ele>
        <time>2013-11-11T08:45:14.000Z</time>
      </trkpt>
      <trkpt lat="47.82846" lon="2.1519">
        <ele>153</ele>
        <time>2013-11-11T08:45:16.000Z</time>
      </trkpt>
      <trkpt lat="47.82855" lon="2.15201">
        <ele>153</ele>
        <time>2013-11-11T08:45:18.000Z</time>
      </trkpt>
      <trkpt lat="47.82863" lon="2.15209">
        <ele>153</ele>
        <time>2013-11-11T08:45:20.000Z</time>
      </trkpt>
      <trkpt lat="47.82878" lon="2.15222">
        <ele>152</ele>
        <time>2013-11-11T08:45:22.000Z</time>
      </trkpt>
      <trkpt lat="47.82878" lon="2.15222">
        <ele>152</ele>
        <time>2013-11-11T08:45:24.000Z</time>
      </trkpt>
      <trkpt lat="47.82878" lon="2.15222">
        <ele>152</ele>
        <time>2013-11-11T08:45:26.000Z</time>
      </trkpt>
      <trkpt lat="47.82878" lon="2.15222">
        <ele>152</ele>
        <time>2013-11-11T08:45:28.000Z</time>
      </trkpt>
      <trkpt lat="47.82878" lon="2.15222">
        <ele>152</ele>
        <time>2013-11-11T08:45:30.000Z</time>
      </trkpt>
      <trkpt lat="47.82923" lon="2.15249">
        <ele>153</ele>
        <time>2013-11-11T08:45:34.000Z</time>
      </trkpt>
      <trkpt lat="47.82923" lon="2.15249">
        <ele>153</ele>
        <time>2013-11-11T08:45:36.000Z</time>
      </trkpt>
      <trkpt lat="47.82923" lon="2.15249">
        <ele>153</ele>
        <time>2013-11-11T08:45:38.000Z</time>
      </trkpt>
      <trkpt lat="47.82923" lon="2.15249">
        <ele>153</ele>
        <time>2013-11-11T08:45:40.000Z</time>
      </trkpt>
      <trkpt lat="47.82923" lon="2.15249">
        <ele>153</ele>
        <time>2013-11-11T08:45:42.000Z</time>
      </trkpt>
      <trkpt lat="47.82923" lon="2.15249">
        <ele>153</ele>
        <time>2013-11-11T08:45:44.000Z</time>
      </trkpt>
      <trkpt lat="47.82956" lon="2.15325">
        <ele>151</ele>
        <time>2013-11-11T08:45:54.000Z</time>
      </trkpt>
      <trkpt lat="47.82953" lon="2.15338">
        <ele>153</ele>
        <time>2013-11-11T08:45:56.000Z</time>
      </trkpt>
      <trkpt lat="47.82948" lon="2.15353">
        <ele>154</ele>
        <time>2013-11-11T08:45:58.000Z</time>
      </trkpt>
      <trkpt lat="47.82942" lon="2.15376">
        <ele>156</ele>
        <time>2013-11-11T08:46:02.000Z</time>
      </trkpt>
      <trkpt lat="47.82938" lon="2.15389">
        <ele>157</ele>
        <time>2013-11-11T08:46:04.000Z</time>
      </trkpt>
      <trkpt lat="47.82933" lon="2.15412">
        <ele>157</ele>
        <time>2013-11-11T08:46:08.000Z</time>
      </trkpt>
      <trkpt lat="47.82933" lon="2.15412">
        <ele>157</ele>
        <time>2013-11-11T08:46:10.000Z</time>
      </trkpt>
      <trkpt lat="47.82933" lon="2.15412">
        <ele>157</ele>
        <time>2013-11-11T08:46:12.000Z</time>
      </trkpt>
      <trkpt lat="47.82933" lon="2.15412">
        <ele>157</ele>
        <time>2013-11-11T08:46:14.000Z</time>
      </trkpt>
      <trkpt lat="47.82933" lon="2.15412">
        <ele>157</ele>
        <time>2013-11-11T08:46:16.000Z</time>
      </trkpt>
      <trkpt lat="47.82933" lon="2.15412">
        <ele>157</ele>
        <time>2013-11-11T08:46:18.000Z</time>
      </trkpt>
      <trkpt lat="47.82933" lon="2.15412">
        <ele>157</ele>
        <time>2013-11-11T08:46:20.000Z</time>
      </trkpt>
      <trkpt lat="47.82933" lon="2.15412">
        <ele>157</ele>
        <time>2013-11-11T08:46:22.000Z</time>
      </trkpt>
      <trkpt lat="47.82933" lon="2.15412">
        <ele>157</ele>
        <time>2013-11-11T08:46:24.000Z</time>
      </trkpt>
      <trkpt lat="47.82933" lon="2.15412">
        <ele>157</ele>
        <time>2013-11-11T08:46:26.000Z</time>
      </trkpt>
      <trkpt lat="47.82908" lon="2.15527">
        <ele>159</ele>
        <time>2013-11-11T08:46:30.000Z</time>
      </trkpt>
      <trkpt lat="47.82911" lon="2.15551">
        <ele>159</ele>
        <time>2013-11-11T08:46:34.000Z</time>
      </trkpt>
      <trkpt lat="47.82913" lon="2.15575">
        <ele>158</ele>
        <time>2013-11-11T08:46:38.000Z</time>
      </trkpt>
      <trkpt lat="47.82912" lon="2.15598">
        <ele>158</ele>
        <time>2013-11-11T08:46:42.000Z</time>
      </trkpt>
      <trkpt lat="47.82913" lon="2.15612">
        <ele>159</ele>
        <time>2013-11-11T08:46:44.000Z</time>
      </trkpt>
      <trkpt lat="47.82913" lon="2.15624">
        <ele>159</ele>
        <time>2013-11-11T08:46:48.000Z</time>
      </trkpt>
      <trkpt lat="47.82914" lon="2.15637">
        <ele>159</ele>
        <time>2013-11-11T08:46:50.000Z</time>
      </trkpt>
      <trkpt lat="47.82915" lon="2.1565">
        <ele>160</ele>
        <time>2013-11-11T08:46:52.000Z</time>
      </trkpt>
      <trkpt lat="47.82916" lon="2.15663">
        <ele>160</ele>
        <time>2013-11-11T08:46:54.000Z</time>
      </trkpt>
      <trkpt lat="47.82916" lon="2.15676">
        <ele>159</ele>
        <time>2013-11-11T08:46:56.000Z</time>
      </trkpt>
      <trkpt lat="47.82915" lon="2.15702">
        <ele>159</ele>
        <time>2013-11-11T08:46:58.000Z</time>
      </trkpt>
      <trkpt lat="47.82911" lon="2.15716">
        <ele>158</ele>
        <time>2013-11-11T08:47:00.000Z</time>
      </trkpt>
      <trkpt lat="47.82907" lon="2.1573">
        <ele>158</ele>
        <time>2013-11-11T08:47:02.000Z</time>
      </trkpt>
      <trkpt lat="47.82903" lon="2.15742">
        <ele>159</ele>
        <time>2013-11-11T08:47:04.000Z</time>
      </trkpt>
      <trkpt lat="47.82903" lon="2.15742">
        <ele>159</ele>
        <time>2013-11-11T08:47:06.000Z</time>
      </trkpt>
      <trkpt lat="47.82903" lon="2.15742">
        <ele>159</ele>
        <time>2013-11-11T08:47:08.000Z</time>
      </trkpt>
      <trkpt lat="47.82903" lon="2.15742">
        <ele>159</ele>
        <time>2013-11-11T08:47:10.000Z</time>
      </trkpt>
      <trkpt lat="47.82903" lon="2.15742">
        <ele>159</ele>
        <time>2013-11-11T08:47:12.000Z</time>
      </trkpt>
      <trkpt lat="47.82903" lon="2.15742">
        <ele>159</ele>
        <time>2013-11-11T08:47:14.000Z</time>
      </trkpt>
      <trkpt lat="47.82903" lon="2.15742">
        <ele>159</ele>
        <time>2013-11-11T08:47:16.000Z</time>
      </trkpt>
      <trkpt lat="47.82883" lon="2.15831">
        <ele>159</ele>
        <time>2013-11-11T08:47:20.000Z</time>
      </trkpt>
      <trkpt lat="47.82889" lon="2.15853">
        <ele>158</ele>
        <time>2013-11-11T08:47:24.000Z</time>
      </trkpt>
      <trkpt lat="47.82889" lon="2.15853">
        <ele>158</ele>
        <time>2013-11-11T08:47:26.000Z</time>
      </trkpt>
      <trkpt lat="47.82896" lon="2.15878">
        <ele>157</ele>
        <time>2013-11-11T08:47:28.000Z</time>
      </trkpt>
      <trkpt lat="47.82901" lon="2.15904">
        <ele>158</ele>
        <time>2013-11-11T08:47:32.000Z</time>
      </trkpt>
      <trkpt lat="47.82907" lon="2.15927">
        <ele>156</ele>
        <time>2013-11-11T08:47:36.000Z</time>
      </trkpt>
      <trkpt lat="47.8291" lon="2.1594">
        <ele>157</ele>
        <time>2013-11-11T08:47:38.000Z</time>
      </trkpt>
      <trkpt lat="47.8291" lon="2.1594">
        <ele>157</ele>
        <time>2013-11-11T08:47:42.000Z</time>
      </trkpt>
      <trkpt lat="47.8291" lon="2.1594">
        <ele>157</ele>
        <time>2013-11-11T08:47:44.000Z</time>
      </trkpt>
      <trkpt lat="47.8291" lon="2.1594">
        <ele>157</ele>
        <time>2013-11-11T08:47:46.000Z</time>
      </trkpt>
      <trkpt lat="47.82928" lon="2.15998">
        <ele>153</ele>
        <time>2013-11-11T08:47:48.000Z</time>
      </trkpt>
      <trkpt lat="47.82932" lon="2.16012">
        <ele>154</ele>
        <time>2013-11-11T08:47:50.000Z</time>
      </trkpt>
      <trkpt lat="47.82932" lon="2.16012">
        <ele>154</ele>
        <time>2013-11-11T08:47:52.000Z</time>
      </trkpt>
      <trkpt lat="47.82939" lon="2.16038">
        <ele>153</ele>
        <time>2013-11-11T08:47:54.000Z</time>
      </trkpt>
      <trkpt lat="47.82942" lon="2.16052">
        <ele>154</ele>
        <time>2013-11-11T08:47:56.000Z</time>
      </trkpt>
      <trkpt lat="47.82945" lon="2.16066">
        <ele>154</ele>
        <time>2013-11-11T08:47:58.000Z</time>
      </trkpt>
      <trkpt lat="47.8295" lon="2.1608">
        <ele>154</ele>
        <time>2013-11-11T08:48:00.000Z</time>
      </trkpt>
      <trkpt lat="47.82956" lon="2.16093">
        <ele>154</ele>
        <time>2013-11-11T08:48:02.000Z</time>
      </trkpt>
      <trkpt lat="47.82961" lon="2.16107">
        <ele>154</ele>
        <time>2013-11-11T08:48:04.000Z</time>
      </trkpt>
      <trkpt lat="47.82961" lon="2.16107">
        <ele>154</ele>
        <time>2013-11-11T08:48:06.000Z</time>
      </trkpt>
      <trkpt lat="47.82961" lon="2.16107">
        <ele>154</ele>
        <time>2013-11-11T08:48:08.000Z</time>
      </trkpt>
      <trkpt lat="47.82961" lon="2.16107">
        <ele>154</ele>
        <time>2013-11-11T08:48:10.000Z</time>
      </trkpt>
      <trkpt lat="47.82961" lon="2.16107">
        <ele>154</ele>
        <time>2013-11-11T08:48:12.000Z</time>
      </trkpt>
      <trkpt lat="47.82988" lon="2.16196">
        <ele>155</ele>
        <time>2013-11-11T08:48:18.000Z</time>
      </trkpt>
      <trkpt lat="47.82991" lon="2.1621">
        <ele>155</ele>
        <time>2013-11-11T08:48:20.000Z</time>
      </trkpt>
      <trkpt lat="47.82994" lon="2.16223">
        <ele>154</ele>
        <time>2013-11-11T08:48:22.000Z</time>
      </trkpt>
      <trkpt lat="47.82996" lon="2.16237">
        <ele>155</ele>
        <time>2013-11-11T08:48:24.000Z</time>
      </trkpt>
      <trkpt lat="47.83" lon="2.1625">
        <ele>155</ele>
        <time>2013-11-11T08:48:26.000Z</time>
      </trkpt>
      <trkpt lat="47.83003" lon="2.16264">
        <ele>155</ele>
        <time>2013-11-11T08:48:28.000Z</time>
      </trkpt>
      <trkpt lat="47.83007" lon="2.16291">
        <ele>154</ele>
        <time>2013-11-11T08:48:32.000Z</time>
      </trkpt>
      <trkpt lat="47.83009" lon="2.16305">
        <ele>154</ele>
        <time>2013-11-11T08:48:34.000Z</time>
      </trkpt>
      <trkpt lat="47.83009" lon="2.16305">
        <ele>154</ele>
        <time>2013-11-11T08:48:36.000Z</time>
      </trkpt>
      <trkpt lat="47.83009" lon="2.16305">
        <ele>154</ele>
        <time>2013-11-11T08:48:38.000Z</time>
      </trkpt>
      <trkpt lat="47.83009" lon="2.16305">
        <ele>154</ele>
        <time>2013-11-11T08:48:40.000Z</time>
      </trkpt>
      <trkpt lat="47.83027" lon="2.16355">
        <ele>154</ele>
        <time>2013-11-11T08:48:42.000Z</time>
      </trkpt>
      <trkpt lat="47.83032" lon="2.16367">
        <ele>154</ele>
        <time>2013-11-11T08:48:44.000Z</time>
      </trkpt>
      <trkpt lat="47.83037" lon="2.16379">
        <ele>154</ele>
        <time>2013-11-11T08:48:46.000Z</time>
      </trkpt>
      <trkpt lat="47.83041" lon="2.16392">
        <ele>154</ele>
        <time>2013-11-11T08:48:48.000Z</time>
      </trkpt>
      <trkpt lat="47.83041" lon="2.16392">
        <ele>154</ele>
        <time>2013-11-11T08:48:50.000Z</time>
      </trkpt>
      <trkpt lat="47.83041" lon="2.16392">
        <ele>154</ele>
        <time>2013-11-11T08:48:52.000Z</time>
      </trkpt>
      <trkpt lat="47.83041" lon="2.16392">
        <ele>154</ele>
        <time>2013-11-11T08:48:54.000Z</time>
      </trkpt>
      <trkpt lat="47.83041" lon="2.16392">
        <ele>154</ele>
        <time>2013-11-11T08:48:56.000Z</time>
      </trkpt>
      <trkpt lat="47.83041" lon="2.16392">
        <ele>154</ele>
        <time>2013-11-11T08:48:58.000Z</time>
      </trkpt>
      <trkpt lat="47.83041" lon="2.16392">
        <ele>154</ele>
        <time>2013-11-11T08:49:00.000Z</time>
      </trkpt>
      <trkpt lat="47.83041" lon="2.16392">
        <ele>154</ele>
        <time>2013-11-11T08:49:02.000Z</time>
      </trkpt>
      <trkpt lat="47.83041" lon="2.16392">
        <ele>154</ele>
        <time>2013-11-11T08:49:04.000Z</time>
      </trkpt>
      <trkpt lat="47.83041" lon="2.16392">
        <ele>154</ele>
        <time>2013-11-11T08:49:06.000Z</time>
      </trkpt>
      <trkpt lat="47.83041" lon="2.16392">
        <ele>154</ele>
        <time>2013-11-11T08:49:08.000Z</time>
      </trkpt>
      <trkpt lat="47.83041" lon="2.16392">
        <ele>154</ele>
        <time>2013-11-11T08:49:10.000Z</time>
      </trkpt>
      <trkpt lat="47.83041" lon="2.16392">
        <ele>154</ele>
        <time>2013-11-11T08:49:12.000Z</time>
      </trkpt>
      <trkpt lat="47.83041" lon="2.16392">
        <ele>154</ele>
        <time>2013-11-11T08:49:14.000Z</time>
      </trkpt>
      <trkpt lat="47.83041" lon="2.16392">
        <ele>154</ele>
        <time>2013-11-11T08:49:16.000Z</time>
      </trkpt>
      <trkpt lat="47.83041" lon="2.16392">
        <ele>154</ele>
        <time>2013-11-11T08:49:18.000Z</time>
      </trkpt>
      <trkpt lat="47.83041" lon="2.16392">
        <ele>154</ele>
        <time>2013-11-11T08:49:20.000Z</time>
      </trkpt>
      <trkpt lat="47.83046" lon="2.16494">
        <ele>155</ele>
        <time>2013-11-11T08:49:22.000Z</time>
      </trkpt>
      <trkpt lat="47.83047" lon="2.16549">
        <ele>154</ele>
        <time>2013-11-11T08:49:24.000Z</time>
      </trkpt>
      <trkpt lat="47.83047" lon="2.16584">
        <ele>155</ele>
        <time>2013-11-11T08:49:26.000Z</time>
      </trkpt>
      <trkpt lat="47.83047" lon="2.16608">
        <ele>155</ele>
        <time>2013-11-11T08:49:28.000Z</time>
      </trkpt>
      <trkpt lat="47.83048" lon="2.16624">
        <ele>155</ele>
        <time>2013-11-11T08:49:30.000Z</time>
      </trkpt>
      <trkpt lat="47.83048" lon="2.16624">
        <ele>155</ele>
        <time>2013-11-11T08:49:32.000Z</time>
      </trkpt>
      <trkpt lat="47.83048" lon="2.16624">
        <ele>155</ele>
        <time>2013-11-11T08:49:34.000Z</time>
      </trkpt>
      <trkpt lat="47.83048" lon="2.16624">
        <ele>155</ele>
        <time>2013-11-11T08:49:36.000Z</time>
      </trkpt>
      <trkpt lat="47.83048" lon="2.16624">
        <ele>155</ele>
        <time>2013-11-11T08:49:38.000Z</time>
      </trkpt>
      <trkpt lat="47.83048" lon="2.16624">
        <ele>155</ele>
        <time>2013-11-11T08:49:40.000Z</time>
      </trkpt>
      <trkpt lat="47.83048" lon="2.16624">
        <ele>155</ele>
        <time>2013-11-11T08:49:42.000Z</time>
      </trkpt>
      <trkpt lat="47.83048" lon="2.16624">
        <ele>155</ele>
        <time>2013-11-11T08:49:44.000Z</time>
      </trkpt>
      <trkpt lat="47.83048" lon="2.16624">
        <ele>155</ele>
        <time>2013-11-11T08:49:46.000Z</time>
      </trkpt>
      <trkpt lat="47.83048" lon="2.16624">
        <ele>155</ele>
        <time>2013-11-11T08:49:50.000Z</time>
      </trkpt>
      <trkpt lat="47.83048" lon="2.16624">
        <ele>155</ele>
        <time>2013-11-11T08:49:52.000Z</time>
      </trkpt>
      <trkpt lat="47.83071" lon="2.16759">
        <ele>153</ele>
        <time>2013-11-11T08:49:56.000Z</time>
      </trkpt>
      <trkpt lat="47.83071" lon="2.16759">
        <ele>153</ele>
        <time>2013-11-11T08:49:58.000Z</time>
      </trkpt>
      <trkpt lat="47.83071" lon="2.16759">
        <ele>153</ele>
        <time>2013-11-11T08:50:00.000Z</time>
      </trkpt>
      <trkpt lat="47.83076" lon="2.16788">
        <ele>151</ele>
        <time>2013-11-11T08:50:02.000Z</time>
      </trkpt>
      <trkpt lat="47.83081" lon="2.1681">
        <ele>149</ele>
        <time>2013-11-11T08:50:06.000Z</time>
      </trkpt>
      <trkpt lat="47.83084" lon="2.16829">
        <ele>148</ele>
        <time>2013-11-11T08:50:10.000Z</time>
      </trkpt>
      <trkpt lat="47.83084" lon="2.16829">
        <ele>148</ele>
        <time>2013-11-11T08:50:12.000Z</time>
      </trkpt>
      <trkpt lat="47.83084" lon="2.16829">
        <ele>148</ele>
        <time>2013-11-11T08:50:14.000Z</time>
      </trkpt>
      <trkpt lat="47.83084" lon="2.16829">
        <ele>148</ele>
        <time>2013-11-11T08:50:16.000Z</time>
      </trkpt>
      <trkpt lat="47.83084" lon="2.16829">
        <ele>148</ele>
        <time>2013-11-11T08:50:18.000Z</time>
      </trkpt>
      <trkpt lat="47.83084" lon="2.16829">
        <ele>148</ele>
        <time>2013-11-11T08:50:20.000Z</time>
      </trkpt>
      <trkpt lat="47.83084" lon="2.16829">
        <ele>148</ele>
        <time>2013-11-11T08:50:22.000Z</time>
      </trkpt>
      <trkpt lat="47.83096" lon="2.169">
        <ele>144</ele>
        <time>2013-11-11T08:50:26.000Z</time>
      </trkpt>
      <trkpt lat="47.83094" lon="2.16914">
        <ele>143</ele>
        <time>2013-11-11T08:50:28.000Z</time>
      </trkpt>
      <trkpt lat="47.83095" lon="2.16939">
        <ele>143</ele>
        <time>2013-11-11T08:50:32.000Z</time>
      </trkpt>
      <trkpt lat="47.83093" lon="2.16954">
        <ele>144</ele>
        <time>2013-11-11T08:50:34.000Z</time>
      </trkpt>
      <trkpt lat="47.83096" lon="2.16979">
        <ele>146</ele>
        <time>2013-11-11T08:50:38.000Z</time>
      </trkpt>
      <trkpt lat="47.83097" lon="2.17006">
        <ele>147</ele>
        <time>2013-11-11T08:50:42.000Z</time>
      </trkpt>
      <trkpt lat="47.83098" lon="2.17033">
        <ele>149</ele>
        <time>2013-11-11T08:50:46.000Z</time>
      </trkpt>
      <trkpt lat="47.83101" lon="2.17058">
        <ele>150</ele>
        <time>2013-11-11T08:50:50.000Z</time>
      </trkpt>
      <trkpt lat="47.83101" lon="2.17058">
        <ele>150</ele>
        <time>2013-11-11T08:50:52.000Z</time>
      </trkpt>
      <trkpt lat="47.83101" lon="2.17058">
        <ele>150</ele>
        <time>2013-11-11T08:50:54.000Z</time>
      </trkpt>
      <trkpt lat="47.83105" lon="2.17084">
        <ele>153</ele>
        <time>2013-11-11T08:50:58.000Z</time>
      </trkpt>
      <trkpt lat="47.83107" lon="2.17104">
        <ele>153</ele>
        <time>2013-11-11T08:51:00.000Z</time>
      </trkpt>
      <trkpt lat="47.8311" lon="2.1712">
        <ele>154</ele>
        <time>2013-11-11T08:51:02.000Z</time>
      </trkpt>
      <trkpt lat="47.83112" lon="2.17135">
        <ele>154</ele>
        <time>2013-11-11T08:51:04.000Z</time>
      </trkpt>
      <trkpt lat="47.83113" lon="2.1715">
        <ele>154</ele>
        <time>2013-11-11T08:51:06.000Z</time>
      </trkpt>
      <trkpt lat="47.83117" lon="2.17178">
        <ele>155</ele>
        <time>2013-11-11T08:51:08.000Z</time>
      </trkpt>
      <trkpt lat="47.83118" lon="2.17193">
        <ele>155</ele>
        <time>2013-11-11T08:51:10.000Z</time>
      </trkpt>
      <trkpt lat="47.8312" lon="2.17208">
        <ele>155</ele>
        <time>2013-11-11T08:51:12.000Z</time>
      </trkpt>
      <trkpt lat="47.83121" lon="2.17221">
        <ele>155</ele>
        <time>2013-11-11T08:51:14.000Z</time>
      </trkpt>
      <trkpt lat="47.83124" lon="2.17234">
        <ele>155</ele>
        <time>2013-11-11T08:51:16.000Z</time>
      </trkpt>
      <trkpt lat="47.83124" lon="2.17234">
        <ele>155</ele>
        <time>2013-11-11T08:51:18.000Z</time>
      </trkpt>
      <trkpt lat="47.83124" lon="2.17234">
        <ele>155</ele>
        <time>2013-11-11T08:51:20.000Z</time>
      </trkpt>
      <trkpt lat="47.83124" lon="2.17234">
        <ele>155</ele>
        <time>2013-11-11T08:51:22.000Z</time>
      </trkpt>
      <trkpt lat="47.83131" lon="2.17287">
        <ele>155</ele>
        <time>2013-11-11T08:51:24.000Z</time>
      </trkpt>
      <trkpt lat="47.83135" lon="2.17308">
        <ele>153</ele>
        <time>2013-11-11T08:51:28.000Z</time>
      </trkpt>
      <trkpt lat="47.83136" lon="2.17323">
        <ele>154</ele>
        <time>2013-11-11T08:51:30.000Z</time>
      </trkpt>
      <trkpt lat="47.83138" lon="2.17337">
        <ele>154</ele>
        <time>2013-11-11T08:51:32.000Z</time>
      </trkpt>
      <trkpt lat="47.83139" lon="2.17351">
        <ele>154</ele>
        <time>2013-11-11T08:51:34.000Z</time>
      </trkpt>
      <trkpt lat="47.83139" lon="2.17351">
        <ele>154</ele>
        <time>2013-11-11T08:51:36.000Z</time>
      </trkpt>
      <trkpt lat="47.83143" lon="2.17374">
        <ele>152</ele>
        <time>2013-11-11T08:51:38.000Z</time>
      </trkpt>
      <trkpt lat="47.83143" lon="2.17374">
        <ele>152</ele>
        <time>2013-11-11T08:51:40.000Z</time>
      </trkpt>
      <trkpt lat="47.83143" lon="2.17374">
        <ele>152</ele>
        <time>2013-11-11T08:51:42.000Z</time>
      </trkpt>
      <trkpt lat="47.8315" lon="2.17427">
        <ele>153</ele>
        <time>2013-11-11T08:51:46.000Z</time>
      </trkpt>
      <trkpt lat="47.83152" lon="2.17442">
        <ele>154</ele>
        <time>2013-11-11T08:51:48.000Z</time>
      </trkpt>
      <trkpt lat="47.83152" lon="2.17442">
        <ele>154</ele>
        <time>2013-11-11T08:51:50.000Z</time>
      </trkpt>
      <trkpt lat="47.83152" lon="2.17442">
        <ele>154</ele>
        <time>2013-11-11T08:51:52.000Z</time>
      </trkpt>
      <trkpt lat="47.83152" lon="2.17442">
        <ele>154</ele>
        <time>2013-11-11T08:51:54.000Z</time>
      </trkpt>
      <trkpt lat="47.83152" lon="2.17442">
        <ele>154</ele>
        <time>2013-11-11T08:51:56.000Z</time>
      </trkpt>
      <trkpt lat="47.83152" lon="2.17442">
        <ele>154</ele>
        <time>2013-11-11T08:51:58.000Z</time>
      </trkpt>
      <trkpt lat="47.8316" lon="2.17536">
        <ele>156</ele>
        <time>2013-11-11T08:52:02.000Z</time>
      </trkpt>
      <trkpt lat="47.83163" lon="2.17551">
        <ele>157</ele>
        <time>2013-11-11T08:52:04.000Z</time>
      </trkpt>
      <trkpt lat="47.83166" lon="2.17565">
        <ele>157</ele>
        <time>2013-11-11T08:52:06.000Z</time>
      </trkpt>
      <trkpt lat="47.83167" lon="2.17583">
        <ele>157</ele>
        <time>2013-11-11T08:52:08.000Z</time>
      </trkpt>
      <trkpt lat="47.83167" lon="2.17583">
        <ele>157</ele>
        <time>2013-11-11T08:52:10.000Z</time>
      </trkpt>
      <trkpt lat="47.8317" lon="2.17625">
        <ele>156</ele>
        <time>2013-11-11T08:52:14.000Z</time>
      </trkpt>
      <trkpt lat="47.83171" lon="2.1764">
        <ele>157</ele>
        <time>2013-11-11T08:52:16.000Z</time>
      </trkpt>
      <trkpt lat="47.83175" lon="2.17655">
        <ele>157</ele>
        <time>2013-11-11T08:52:18.000Z</time>
      </trkpt>
      <trkpt lat="47.83181" lon="2.17683">
        <ele>156</ele>
        <time>2013-11-11T08:52:22.000Z</time>
      </trkpt>
      <trkpt lat="47.83187" lon="2.1771">
        <ele>156</ele>
        <time>2013-11-11T08:52:26.000Z</time>
      </trkpt>
      <trkpt lat="47.83187" lon="2.1771">
        <ele>156</ele>
        <time>2013-11-11T08:52:28.000Z</time>
      </trkpt>
      <trkpt lat="47.83187" lon="2.1771">
        <ele>156</ele>
        <time>2013-11-11T08:52:30.000Z</time>
      </trkpt>
      <trkpt lat="47.83187" lon="2.1771">
        <ele>156</ele>
        <time>2013-11-11T08:52:32.000Z</time>
      </trkpt>
      <trkpt lat="47.83187" lon="2.1771">
        <ele>156</ele>
        <time>2013-11-11T08:52:34.000Z</time>
      </trkpt>
      <trkpt lat="47.83205" lon="2.17792">
        <ele>157</ele>
        <time>2013-11-11T08:52:38.000Z</time>
      </trkpt>
      <trkpt lat="47.83205" lon="2.17792">
        <ele>157</ele>
        <time>2013-11-11T08:52:40.000Z</time>
      </trkpt>
      <trkpt lat="47.83205" lon="2.17792">
        <ele>157</ele>
        <time>2013-11-11T08:52:42.000Z</time>
      </trkpt>
      <trkpt lat="47.83205" lon="2.17792">
        <ele>157</ele>
        <time>2013-11-11T08:52:44.000Z</time>
      </trkpt>
      <trkpt lat="47.83205" lon="2.17792">
        <ele>157</ele>
        <time>2013-11-11T08:52:46.000Z</time>
      </trkpt>
      <trkpt lat="47.83205" lon="2.17792">
        <ele>157</ele>
        <time>2013-11-11T08:52:49.000Z</time>
      </trkpt>
      <trkpt lat="47.83205" lon="2.17792">
        <ele>157</ele>
        <time>2013-11-11T08:52:51.000Z</time>
      </trkpt>
      <trkpt lat="47.83222" lon="2.17829">
        <ele>158</ele>
        <time>2013-11-11T08:52:57.000Z</time>
      </trkpt>
      <trkpt lat="47.83234" lon="2.1785">
        <ele>158</ele>
        <time>2013-11-11T08:52:59.000Z</time>
      </trkpt>
      <trkpt lat="47.83244" lon="2.17862">
        <ele>158</ele>
        <time>2013-11-11T08:53:01.000Z</time>
      </trkpt>
      <trkpt lat="47.83251" lon="2.17866">
        <ele>157</ele>
        <time>2013-11-11T08:53:03.000Z</time>
      </trkpt>
      <trkpt lat="47.83263" lon="2.17867">
        <ele>154</ele>
        <time>2013-11-11T08:53:06.000Z</time>
      </trkpt>
      <trkpt lat="47.83283" lon="2.17865">
        <ele>154</ele>
        <time>2013-11-11T08:53:08.000Z</time>
      </trkpt>
      <trkpt lat="47.83292" lon="2.17865">
        <ele>154</ele>
        <time>2013-11-11T08:53:10.000Z</time>
      </trkpt>
      <trkpt lat="47.83303" lon="2.17883">
        <ele>156</ele>
        <time>2013-11-11T08:53:14.000Z</time>
      </trkpt>
      <trkpt lat="47.8331" lon="2.17905">
        <ele>156</ele>
        <time>2013-11-11T08:53:18.000Z</time>
      </trkpt>
      <trkpt lat="47.83321" lon="2.17926">
        <ele>155</ele>
        <time>2013-11-11T08:53:22.000Z</time>
      </trkpt>
      <trkpt lat="47.83337" lon="2.1794">
        <ele>154</ele>
        <time>2013-11-11T08:53:26.000Z</time>
      </trkpt>
      <trkpt lat="47.83337" lon="2.1794">
        <ele>154</ele>
        <time>2013-11-11T08:53:28.000Z</time>
      </trkpt>
      <trkpt lat="47.83355" lon="2.17943">
        <ele>154</ele>
        <time>2013-11-11T08:53:30.000Z</time>
      </trkpt>
      <trkpt lat="47.83373" lon="2.17946">
        <ele>153</ele>
        <time>2013-11-11T08:53:34.000Z</time>
      </trkpt>
      <trkpt lat="47.83382" lon="2.17948">
        <ele>151</ele>
        <time>2013-11-11T08:53:36.000Z</time>
      </trkpt>
      <trkpt lat="47.83392" lon="2.17949">
        <ele>151</ele>
        <time>2013-11-11T08:53:38.000Z</time>
      </trkpt>
      <trkpt lat="47.83401" lon="2.17949">
        <ele>151</ele>
        <time>2013-11-11T08:53:40.000Z</time>
      </trkpt>
      <trkpt lat="47.83401" lon="2.17949">
        <ele>151</ele>
        <time>2013-11-11T08:53:42.000Z</time>
      </trkpt>
      <trkpt lat="47.83401" lon="2.17949">
        <ele>151</ele>
        <time>2013-11-11T08:53:44.000Z</time>
      </trkpt>
      <trkpt lat="47.83401" lon="2.17949">
        <ele>151</ele>
        <time>2013-11-11T08:53:46.000Z</time>
      </trkpt>
      <trkpt lat="47.83401" lon="2.17949">
        <ele>151</ele>
        <time>2013-11-11T08:53:50.000Z</time>
      </trkpt>
      <trkpt lat="47.83401" lon="2.17949">
        <ele>151</ele>
        <time>2013-11-11T08:53:52.000Z</time>
      </trkpt>
      <trkpt lat="47.83401" lon="2.17949">
        <ele>151</ele>
        <time>2013-11-11T08:53:54.000Z</time>
      </trkpt>
      <trkpt lat="47.83492" lon="2.1798">
        <ele>147</ele>
        <time>2013-11-11T08:54:00.000Z</time>
      </trkpt>
      <trkpt lat="47.83502" lon="2.17983">
        <ele>147</ele>
        <time>2013-11-11T08:54:02.000Z</time>
      </trkpt>
      <trkpt lat="47.83512" lon="2.17986">
        <ele>147</ele>
        <time>2013-11-11T08:54:04.000Z</time>
      </trkpt>
      <trkpt lat="47.83521" lon="2.17991">
        <ele>146</ele>
        <time>2013-11-11T08:54:06.000Z</time>
      </trkpt>
      <trkpt lat="47.83531" lon="2.17996">
        <ele>147</ele>
        <time>2013-11-11T08:54:08.000Z</time>
      </trkpt>
      <trkpt lat="47.8354" lon="2.18003">
        <ele>147</ele>
        <time>2013-11-11T08:54:10.000Z</time>
      </trkpt>
      <trkpt lat="47.8355" lon="2.18008">
        <ele>148</ele>
        <time>2013-11-11T08:54:12.000Z</time>
      </trkpt>
      <trkpt lat="47.8356" lon="2.18014">
        <ele>148</ele>
        <time>2013-11-11T08:54:14.000Z</time>
      </trkpt>
      <trkpt lat="47.8357" lon="2.18019">
        <ele>147</ele>
        <time>2013-11-11T08:54:16.000Z</time>
      </trkpt>
      <trkpt lat="47.8358" lon="2.18022">
        <ele>148</ele>
        <time>2013-11-11T08:54:18.000Z</time>
      </trkpt>
      <trkpt lat="47.8358" lon="2.18022">
        <ele>148</ele>
        <time>2013-11-11T08:54:20.000Z</time>
      </trkpt>
      <trkpt lat="47.8358" lon="2.18022">
        <ele>148</ele>
        <time>2013-11-11T08:54:22.000Z</time>
      </trkpt>
      <trkpt lat="47.83612" lon="2.1803">
        <ele>150</ele>
        <time>2013-11-11T08:54:24.000Z</time>
      </trkpt>
      <trkpt lat="47.83622" lon="2.18033">
        <ele>151</ele>
        <time>2013-11-11T08:54:26.000Z</time>
      </trkpt>
      <trkpt lat="47.83633" lon="2.18036">
        <ele>151</ele>
        <time>2013-11-11T08:54:28.000Z</time>
      </trkpt>
      <trkpt lat="47.83633" lon="2.18036">
        <ele>151</ele>
        <time>2013-11-11T08:54:30.000Z</time>
      </trkpt>
      <trkpt lat="47.83652" lon="2.18041">
        <ele>150</ele>
        <time>2013-11-11T08:54:32.000Z</time>
      </trkpt>
      <trkpt lat="47.83652" lon="2.18041">
        <ele>150</ele>
        <time>2013-11-11T08:54:34.000Z</time>
      </trkpt>
      <trkpt lat="47.83672" lon="2.18049">
        <ele>151</ele>
        <time>2013-11-11T08:54:36.000Z</time>
      </trkpt>
      <trkpt lat="47.83683" lon="2.18051">
        <ele>151</ele>
        <time>2013-11-11T08:54:38.000Z</time>
      </trkpt>
      <trkpt lat="47.83694" lon="2.18053">
        <ele>151</ele>
        <time>2013-11-11T08:54:40.000Z</time>
      </trkpt>
      <trkpt lat="47.83704" lon="2.18057">
        <ele>151</ele>
        <time>2013-11-11T08:54:42.000Z</time>
      </trkpt>
      <trkpt lat="47.83714" lon="2.18059">
        <ele>150</ele>
        <time>2013-11-11T08:54:44.000Z</time>
      </trkpt>
      <trkpt lat="47.83726" lon="2.18062">
        <ele>151</ele>
        <time>2013-11-11T08:54:46.000Z</time>
      </trkpt>
      <trkpt lat="47.83735" lon="2.18065">
        <ele>151</ele>
        <time>2013-11-11T08:54:48.000Z</time>
      </trkpt>
      <trkpt lat="47.83746" lon="2.18069">
        <ele>151</ele>
        <time>2013-11-11T08:54:50.000Z</time>
      </trkpt>
      <trkpt lat="47.83746" lon="2.18069">
        <ele>151</ele>
        <time>2013-11-11T08:54:52.000Z</time>
      </trkpt>
      <trkpt lat="47.83799" lon="2.18085">
        <ele>153</ele>
        <time>2013-11-11T08:55:00.000Z</time>
      </trkpt>
      <trkpt lat="47.83809" lon="2.18088">
        <ele>153</ele>
        <time>2013-11-11T08:55:02.000Z</time>
      </trkpt>
      <trkpt lat="47.8382" lon="2.18091">
        <ele>153</ele>
        <time>2013-11-11T08:55:04.000Z</time>
      </trkpt>
      <trkpt lat="47.8382" lon="2.18091">
        <ele>153</ele>
        <time>2013-11-11T08:55:06.000Z</time>
      </trkpt>
      <trkpt lat="47.8382" lon="2.18091">
        <ele>153</ele>
        <time>2013-11-11T08:55:08.000Z</time>
      </trkpt>
      <trkpt lat="47.8382" lon="2.18091">
        <ele>153</ele>
        <time>2013-11-11T08:55:10.000Z</time>
      </trkpt>
      <trkpt lat="47.83873" lon="2.18104">
        <ele>152</ele>
        <time>2013-11-11T08:55:14.000Z</time>
      </trkpt>
      <trkpt lat="47.83884" lon="2.18105">
        <ele>153</ele>
        <time>2013-11-11T08:55:16.000Z</time>
      </trkpt>
      <trkpt lat="47.83894" lon="2.18107">
        <ele>153</ele>
        <time>2013-11-11T08:55:18.000Z</time>
      </trkpt>
      <trkpt lat="47.83905" lon="2.18109">
        <ele>153</ele>
        <time>2013-11-11T08:55:20.000Z</time>
      </trkpt>
      <trkpt lat="47.83916" lon="2.18112">
        <ele>153</ele>
        <time>2013-11-11T08:55:22.000Z</time>
      </trkpt>
      <trkpt lat="47.83927" lon="2.18114">
        <ele>153</ele>
        <time>2013-11-11T08:55:24.000Z</time>
      </trkpt>
      <trkpt lat="47.83937" lon="2.18115">
        <ele>153</ele>
        <time>2013-11-11T08:55:26.000Z</time>
      </trkpt>
      <trkpt lat="47.83949" lon="2.18117">
        <ele>153</ele>
        <time>2013-11-11T08:55:28.000Z</time>
      </trkpt>
      <trkpt lat="47.83959" lon="2.18119">
        <ele>153</ele>
        <time>2013-11-11T08:55:30.000Z</time>
      </trkpt>
      <trkpt lat="47.8397" lon="2.18121">
        <ele>154</ele>
        <time>2013-11-11T08:55:32.000Z</time>
      </trkpt>
      <trkpt lat="47.8398" lon="2.18123">
        <ele>154</ele>
        <time>2013-11-11T08:55:34.000Z</time>
      </trkpt>
      <trkpt lat="47.83991" lon="2.18125">
        <ele>154</ele>
        <time>2013-11-11T08:55:36.000Z</time>
      </trkpt>
      <trkpt lat="47.84002" lon="2.18127">
        <ele>153</ele>
        <time>2013-11-11T08:55:38.000Z</time>
      </trkpt>
      <trkpt lat="47.84013" lon="2.18129">
        <ele>153</ele>
        <time>2013-11-11T08:55:40.000Z</time>
      </trkpt>
      <trkpt lat="47.84024" lon="2.1813">
        <ele>154</ele>
        <time>2013-11-11T08:55:42.000Z</time>
      </trkpt>
      <trkpt lat="47.84035" lon="2.1813">
        <ele>154</ele>
        <time>2013-11-11T08:55:44.000Z</time>
      </trkpt>
      <trkpt lat="47.84047" lon="2.18127">
        <ele>156</ele>
        <time>2013-11-11T08:55:46.000Z</time>
      </trkpt>
      <trkpt lat="47.84058" lon="2.18123">
        <ele>155</ele>
        <time>2013-11-11T08:55:48.000Z</time>
      </trkpt>
      <trkpt lat="47.8407" lon="2.1812">
        <ele>155</ele>
        <time>2013-11-11T08:55:50.000Z</time>
      </trkpt>
      <trkpt lat="47.84081" lon="2.18117">
        <ele>155</ele>
        <time>2013-11-11T08:55:52.000Z</time>
      </trkpt>
      <trkpt lat="47.84091" lon="2.18113">
        <ele>155</ele>
        <time>2013-11-11T08:55:54.000Z</time>
      </trkpt>
      <trkpt lat="47.84102" lon="2.1811">
        <ele>155</ele>
        <time>2013-11-11T08:55:56.000Z</time>
      </trkpt>
      <trkpt lat="47.84112" lon="2.18107">
        <ele>154</ele>
        <time>2013-11-11T08:55:58.000Z</time>
      </trkpt>
      <trkpt lat="47.84112" lon="2.18107">
        <ele>154</ele>
        <time>2013-11-11T08:56:00.000Z</time>
      </trkpt>
      <trkpt lat="47.84112" lon="2.18107">
        <ele>154</ele>
        <time>2013-11-11T08:56:02.000Z</time>
      </trkpt>
      <trkpt lat="47.84112" lon="2.18107">
        <ele>154</ele>
        <time>2013-11-11T08:56:04.000Z</time>
      </trkpt>
      <trkpt lat="47.84112" lon="2.18107">
        <ele>154</ele>
        <time>2013-11-11T08:56:06.000Z</time>
      </trkpt>
      <trkpt lat="47.84112" lon="2.18107">
        <ele>154</ele>
        <time>2013-11-11T08:56:08.000Z</time>
      </trkpt>
      <trkpt lat="47.84112" lon="2.18107">
        <ele>154</ele>
        <time>2013-11-11T08:56:10.000Z</time>
      </trkpt>
      <trkpt lat="47.84112" lon="2.18107">
        <ele>154</ele>
        <time>2013-11-11T08:56:12.000Z</time>
      </trkpt>
      <trkpt lat="47.8414" lon="2.18127">
        <ele>154</ele>
        <time>2013-11-11T08:56:16.000Z</time>
      </trkpt>
      <trkpt lat="47.84156" lon="2.18144">
        <ele>154</ele>
        <time>2013-11-11T08:56:18.000Z</time>
      </trkpt>
      <trkpt lat="47.84166" lon="2.18159">
        <ele>153</ele>
        <time>2013-11-11T08:56:20.000Z</time>
      </trkpt>
      <trkpt lat="47.84172" lon="2.18172">
        <ele>153</ele>
        <time>2013-11-11T08:56:22.000Z</time>
      </trkpt>
      <trkpt lat="47.84178" lon="2.18185">
        <ele>153</ele>
        <time>2013-11-11T08:56:24.000Z</time>
      </trkpt>
      <trkpt lat="47.84188" lon="2.18214">
        <ele>154</ele>
        <time>2013-11-11T08:56:26.000Z</time>
      </trkpt>
      <trkpt lat="47.84192" lon="2.18228">
        <ele>156</ele>
        <time>2013-11-11T08:56:28.000Z</time>
      </trkpt>
      <trkpt lat="47.84195" lon="2.18242">
        <ele>156</ele>
        <time>2013-11-11T08:56:30.000Z</time>
      </trkpt>
      <trkpt lat="47.84199" lon="2.18256">
        <ele>155</ele>
        <time>2013-11-11T08:56:32.000Z</time>
      </trkpt>
      <trkpt lat="47.84199" lon="2.18256">
        <ele>155</ele>
        <time>2013-11-11T08:56:34.000Z</time>
      </trkpt>
      <trkpt lat="47.84199" lon="2.18256">
        <ele>155</ele>
        <time>2013-11-11T08:56:36.000Z</time>
      </trkpt>
      <trkpt lat="47.84199" lon="2.18256">
        <ele>155</ele>
        <time>2013-11-11T08:56:38.000Z</time>
      </trkpt>
      <trkpt lat="47.84199" lon="2.18256">
        <ele>155</ele>
        <time>2013-11-11T08:56:40.000Z</time>
      </trkpt>
      <trkpt lat="47.84199" lon="2.18256">
        <ele>155</ele>
        <time>2013-11-11T08:56:42.000Z</time>
      </trkpt>
      <trkpt lat="47.84199" lon="2.18256">
        <ele>155</ele>
        <time>2013-11-11T08:56:44.000Z</time>
      </trkpt>
      <trkpt lat="47.84199" lon="2.18256">
        <ele>155</ele>
        <time>2013-11-11T08:56:46.000Z</time>
      </trkpt>
      <trkpt lat="47.84199" lon="2.18256">
        <ele>155</ele>
        <time>2013-11-11T08:56:48.000Z</time>
      </trkpt>
      <trkpt lat="47.84199" lon="2.18256">
        <ele>155</ele>
        <time>2013-11-11T08:56:50.000Z</time>
      </trkpt>
      <trkpt lat="47.84253" lon="2.18349">
        <ele>151</ele>
        <time>2013-11-11T08:56:54.000Z</time>
      </trkpt>
      <trkpt lat="47.84263" lon="2.18352">
        <ele>151</ele>
        <time>2013-11-11T08:56:56.000Z</time>
      </trkpt>
      <trkpt lat="47.84273" lon="2.18353">
        <ele>151</ele>
        <time>2013-11-11T08:56:58.000Z</time>
      </trkpt>
      <trkpt lat="47.84283" lon="2.18353">
        <ele>152</ele>
        <time>2013-11-11T08:57:00.000Z</time>
      </trkpt>
      <trkpt lat="47.84293" lon="2.18353">
        <ele>151</ele>
        <time>2013-11-11T08:57:02.000Z</time>
      </trkpt>
      <trkpt lat="47.84303" lon="2.18355">
        <ele>152</ele>
        <time>2013-11-11T08:57:04.000Z</time>
      </trkpt>
      <trkpt lat="47.84312" lon="2.18356">
        <ele>152</ele>
        <time>2013-11-11T08:57:06.000Z</time>
      </trkpt>
      <trkpt lat="47.84323" lon="2.18357">
        <ele>152</ele>
        <time>2013-11-11T08:57:08.000Z</time>
      </trkpt>
      <trkpt lat="47.84335" lon="2.1836">
        <ele>151</ele>
        <time>2013-11-11T08:57:10.000Z</time>
      </trkpt>
      <trkpt lat="47.84344" lon="2.18362">
        <ele>150</ele>
        <time>2013-11-11T08:57:12.000Z</time>
      </trkpt>
      <trkpt lat="47.84355" lon="2.18362">
        <ele>151</ele>
        <time>2013-11-11T08:57:14.000Z</time>
      </trkpt>
      <trkpt lat="47.84365" lon="2.18363">
        <ele>149</ele>
        <time>2013-11-11T08:57:16.000Z</time>
      </trkpt>
      <trkpt lat="47.84375" lon="2.18364">
        <ele>149</ele>
        <time>2013-11-11T08:57:18.000Z</time>
      </trkpt>
      <trkpt lat="47.84386" lon="2.18365">
        <ele>148</ele>
        <time>2013-11-11T08:57:20.000Z</time>
      </trkpt>
      <trkpt lat="47.84395" lon="2.18367">
        <ele>148</ele>
        <time>2013-11-11T08:57:22.000Z</time>
      </trkpt>
      <trkpt lat="47.84395" lon="2.18367">
        <ele>148</ele>
        <time>2013-11-11T08:57:24.000Z</time>
      </trkpt>
      <trkpt lat="47.84415" lon="2.1837">
        <ele>147</ele>
        <time>2013-11-11T08:57:26.000Z</time>
      </trkpt>
      <trkpt lat="47.84426" lon="2.18371">
        <ele>146</ele>
        <time>2013-11-11T08:57:28.000Z</time>
      </trkpt>
      <trkpt lat="47.84438" lon="2.18372">
        <ele>147</ele>
        <time>2013-11-11T08:57:30.000Z</time>
      </trkpt>
      <trkpt lat="47.84449" lon="2.18373">
        <ele>147</ele>
        <time>2013-11-11T08:57:32.000Z</time>
      </trkpt>
      <trkpt lat="47.8446" lon="2.18375">
        <ele>147</ele>
        <time>2013-11-11T08:57:34.000Z</time>
      </trkpt>
      <trkpt lat="47.84472" lon="2.18377">
        <ele>147</ele>
        <time>2013-11-11T08:57:36.000Z</time>
      </trkpt>
      <trkpt lat="47.84483" lon="2.18379">
        <ele>147</ele>
        <time>2013-11-11T08:57:38.000Z</time>
      </trkpt>
      <trkpt lat="47.84494" lon="2.18382">
        <ele>148</ele>
        <time>2013-11-11T08:57:40.000Z</time>
      </trkpt>
      <trkpt lat="47.84504" lon="2.18383">
        <ele>147</ele>
        <time>2013-11-11T08:57:42.000Z</time>
      </trkpt>
      <trkpt lat="47.84516" lon="2.18384">
        <ele>148</ele>
        <time>2013-11-11T08:57:44.000Z</time>
      </trkpt>
      <trkpt lat="47.84526" lon="2.18385">
        <ele>147</ele>
        <time>2013-11-11T08:57:46.000Z</time>
      </trkpt>
      <trkpt lat="47.84537" lon="2.18387">
        <ele>147</ele>
        <time>2013-11-11T08:57:48.000Z</time>
      </trkpt>
      <trkpt lat="47.84537" lon="2.18387">
        <ele>147</ele>
        <time>2013-11-11T08:57:50.000Z</time>
      </trkpt>
      <trkpt lat="47.84537" lon="2.18387">
        <ele>147</ele>
        <time>2013-11-11T08:57:52.000Z</time>
      </trkpt>
      <trkpt lat="47.84537" lon="2.18387">
        <ele>147</ele>
        <time>2013-11-11T08:57:54.000Z</time>
      </trkpt>
      <trkpt lat="47.84579" lon="2.1839">
        <ele>151</ele>
        <time>2013-11-11T08:57:56.000Z</time>
      </trkpt>
      <trkpt lat="47.84579" lon="2.1839">
        <ele>151</ele>
        <time>2013-11-11T08:57:58.000Z</time>
      </trkpt>
      <trkpt lat="47.84579" lon="2.1839">
        <ele>151</ele>
        <time>2013-11-11T08:58:00.000Z</time>
      </trkpt>
      <trkpt lat="47.84579" lon="2.1839">
        <ele>151</ele>
        <time>2013-11-11T08:58:02.000Z</time>
      </trkpt>
      <trkpt lat="47.84579" lon="2.1839">
        <ele>151</ele>
        <time>2013-11-11T08:58:04.000Z</time>
      </trkpt>
      <trkpt lat="47.84579" lon="2.1839">
        <ele>151</ele>
        <time>2013-11-11T08:58:06.000Z</time>
      </trkpt>
      <trkpt lat="47.84579" lon="2.1839">
        <ele>151</ele>
        <time>2013-11-11T08:58:08.000Z</time>
      </trkpt>
      <trkpt lat="47.846" lon="2.18463">
        <ele>148</ele>
        <time>2013-11-11T08:58:14.000Z</time>
      </trkpt>
      <trkpt lat="47.84596" lon="2.18484">
        <ele>148</ele>
        <time>2013-11-11T08:58:18.000Z</time>
      </trkpt>
      <trkpt lat="47.84595" lon="2.18504">
        <ele>148</ele>
        <time>2013-11-11T08:58:22.000Z</time>
      </trkpt>
      <trkpt lat="47.84595" lon="2.18504">
        <ele>148</ele>
        <time>2013-11-11T08:58:24.000Z</time>
      </trkpt>
      <trkpt lat="47.84592" lon="2.18524">
        <ele>148</ele>
        <time>2013-11-11T08:58:26.000Z</time>
      </trkpt>
      <trkpt lat="47.84591" lon="2.18547">
        <ele>149</ele>
        <time>2013-11-11T08:58:30.000Z</time>
      </trkpt>
      <trkpt lat="47.84587" lon="2.18571">
        <ele>149</ele>
        <time>2013-11-11T08:58:34.000Z</time>
      </trkpt>
      <trkpt lat="47.84585" lon="2.18595">
        <ele>149</ele>
        <time>2013-11-11T08:58:38.000Z</time>
      </trkpt>
      <trkpt lat="47.84585" lon="2.1861">
        <ele>149</ele>
        <time>2013-11-11T08:58:40.000Z</time>
      </trkpt>
      <trkpt lat="47.84586" lon="2.18636">
        <ele>149</ele>
        <time>2013-11-11T08:58:44.000Z</time>
      </trkpt>
      <trkpt lat="47.84585" lon="2.18651">
        <ele>150</ele>
        <time>2013-11-11T08:58:48.000Z</time>
      </trkpt>
      <trkpt lat="47.84586" lon="2.18665">
        <ele>149</ele>
        <time>2013-11-11T08:58:50.000Z</time>
      </trkpt>
      <trkpt lat="47.84586" lon="2.18679">
        <ele>150</ele>
        <time>2013-11-11T08:58:52.000Z</time>
      </trkpt>
      <trkpt lat="47.84585" lon="2.18692">
        <ele>149</ele>
        <time>2013-11-11T08:58:54.000Z</time>
      </trkpt>
      <trkpt lat="47.84585" lon="2.18706">
        <ele>149</ele>
        <time>2013-11-11T08:58:56.000Z</time>
      </trkpt>
      <trkpt lat="47.84583" lon="2.18735">
        <ele>149</ele>
        <time>2013-11-11T08:58:58.000Z</time>
      </trkpt>
      <trkpt lat="47.84579" lon="2.1876">
        <ele>151</ele>
        <time>2013-11-11T08:59:02.000Z</time>
      </trkpt>
      <trkpt lat="47.84578" lon="2.18776">
        <ele>151</ele>
        <time>2013-11-11T08:59:04.000Z</time>
      </trkpt>
      <trkpt lat="47.84576" lon="2.18791">
        <ele>153</ele>
        <time>2013-11-11T08:59:06.000Z</time>
      </trkpt>
      <trkpt lat="47.84575" lon="2.18805">
        <ele>152</ele>
        <time>2013-11-11T08:59:08.000Z</time>
      </trkpt>
      <trkpt lat="47.84576" lon="2.1882">
        <ele>153</ele>
        <time>2013-11-11T08:59:10.000Z</time>
      </trkpt>
      <trkpt lat="47.84576" lon="2.18834">
        <ele>154</ele>
        <time>2013-11-11T08:59:12.000Z</time>
      </trkpt>
      <trkpt lat="47.84576" lon="2.18849">
        <ele>154</ele>
        <time>2013-11-11T08:59:14.000Z</time>
      </trkpt>
      <trkpt lat="47.84576" lon="2.18849">
        <ele>154</ele>
        <time>2013-11-11T08:59:16.000Z</time>
      </trkpt>
      <trkpt lat="47.84576" lon="2.18849">
        <ele>154</ele>
        <time>2013-11-11T08:59:18.000Z</time>
      </trkpt>
      <trkpt lat="47.84576" lon="2.1892">
        <ele>154</ele>
        <time>2013-11-11T08:59:24.000Z</time>
      </trkpt>
      <trkpt lat="47.84576" lon="2.18933">
        <ele>154</ele>
        <time>2013-11-11T08:59:26.000Z</time>
      </trkpt>
      <trkpt lat="47.84578" lon="2.18961">
        <ele>155</ele>
        <time>2013-11-11T08:59:30.000Z</time>
      </trkpt>
      <trkpt lat="47.84579" lon="2.18977">
        <ele>155</ele>
        <time>2013-11-11T08:59:32.000Z</time>
      </trkpt>
      <trkpt lat="47.8458" lon="2.18993">
        <ele>155</ele>
        <time>2013-11-11T08:59:34.000Z</time>
      </trkpt>
      <trkpt lat="47.8458" lon="2.19008">
        <ele>155</ele>
        <time>2013-11-11T08:59:36.000Z</time>
      </trkpt>
      <trkpt lat="47.8458" lon="2.19023">
        <ele>155</ele>
        <time>2013-11-11T08:59:38.000Z</time>
      </trkpt>
      <trkpt lat="47.84581" lon="2.19036">
        <ele>155</ele>
        <time>2013-11-11T08:59:40.000Z</time>
      </trkpt>
      <trkpt lat="47.84582" lon="2.19052">
        <ele>155</ele>
        <time>2013-11-11T08:59:42.000Z</time>
      </trkpt>
      <trkpt lat="47.84584" lon="2.19066">
        <ele>153</ele>
        <time>2013-11-11T08:59:44.000Z</time>
      </trkpt>
      <trkpt lat="47.84584" lon="2.1908">
        <ele>153</ele>
        <time>2013-11-11T08:59:46.000Z</time>
      </trkpt>
      <trkpt lat="47.84586" lon="2.19095">
        <ele>153</ele>
        <time>2013-11-11T08:59:48.000Z</time>
      </trkpt>
      <trkpt lat="47.84586" lon="2.19095">
        <ele>153</ele>
        <time>2013-11-11T08:59:50.000Z</time>
      </trkpt>
      <trkpt lat="47.84586" lon="2.19095">
        <ele>153</ele>
        <time>2013-11-11T08:59:58.000Z</time>
      </trkpt>
      <trkpt lat="47.84586" lon="2.19095">
        <ele>153</ele>
        <time>2013-11-11T09:00:00.000Z</time>
      </trkpt>
      <trkpt lat="47.84598" lon="2.19233">
        <ele>152</ele>
        <time>2013-11-11T09:00:06.000Z</time>
      </trkpt>
      <trkpt lat="47.846" lon="2.19247">
        <ele>151</ele>
        <time>2013-11-11T09:00:08.000Z</time>
      </trkpt>
      <trkpt lat="47.84602" lon="2.19262">
        <ele>151</ele>
        <time>2013-11-11T09:00:10.000Z</time>
      </trkpt>
      <trkpt lat="47.84602" lon="2.19277">
        <ele>151</ele>
        <time>2013-11-11T09:00:12.000Z</time>
      </trkpt>
      <trkpt lat="47.84602" lon="2.19292">
        <ele>151</ele>
        <time>2013-11-11T09:00:14.000Z</time>
      </trkpt>
      <trkpt lat="47.84603" lon="2.19307">
        <ele>151</ele>
        <time>2013-11-11T09:00:16.000Z</time>
      </trkpt>
      <trkpt lat="47.84604" lon="2.19323">
        <ele>151</ele>
        <time>2013-11-11T09:00:18.000Z</time>
      </trkpt>
      <trkpt lat="47.84605" lon="2.19336">
        <ele>151</ele>
        <time>2013-11-11T09:00:20.000Z</time>
      </trkpt>
      <trkpt lat="47.84607" lon="2.19351">
        <ele>150</ele>
        <time>2013-11-11T09:00:22.000Z</time>
      </trkpt>
      <trkpt lat="47.84612" lon="2.19368">
        <ele>151</ele>
        <time>2013-11-11T09:00:24.000Z</time>
      </trkpt>
      <trkpt lat="47.84615" lon="2.19386">
        <ele>151</ele>
        <time>2013-11-11T09:00:26.000Z</time>
      </trkpt>
      <trkpt lat="47.84619" lon="2.19399">
        <ele>148</ele>
        <time>2013-11-11T09:00:28.000Z</time>
      </trkpt>
      <trkpt lat="47.84624" lon="2.19416">
        <ele>146</ele>
        <time>2013-11-11T09:00:30.000Z</time>
      </trkpt>
      <trkpt lat="47.84627" lon="2.19431">
        <ele>147</ele>
        <time>2013-11-11T09:00:32.000Z</time>
      </trkpt>
      <trkpt lat="47.84629" lon="2.19446">
        <ele>147</ele>
        <time>2013-11-11T09:00:34.000Z</time>
      </trkpt>
      <trkpt lat="47.84632" lon="2.19461">
        <ele>149</ele>
        <time>2013-11-11T09:00:36.000Z</time>
      </trkpt>
      <trkpt lat="47.84632" lon="2.19461">
        <ele>149</ele>
        <time>2013-11-11T09:00:38.000Z</time>
      </trkpt>
      <trkpt lat="47.84642" lon="2.19507">
        <ele>151</ele>
        <time>2013-11-11T09:00:42.000Z</time>
      </trkpt>
      <trkpt lat="47.84646" lon="2.19522">
        <ele>150</ele>
        <time>2013-11-11T09:00:44.000Z</time>
      </trkpt>
      <trkpt lat="47.84649" lon="2.19537">
        <ele>150</ele>
        <time>2013-11-11T09:00:46.000Z</time>
      </trkpt>
      <trkpt lat="47.84652" lon="2.19553">
        <ele>150</ele>
        <time>2013-11-11T09:00:48.000Z</time>
      </trkpt>
      <trkpt lat="47.84652" lon="2.19553">
        <ele>150</ele>
        <time>2013-11-11T09:00:50.000Z</time>
      </trkpt>
      <trkpt lat="47.84652" lon="2.19553">
        <ele>150</ele>
        <time>2013-11-11T09:00:52.000Z</time>
      </trkpt>
      <trkpt lat="47.84652" lon="2.19553">
        <ele>150</ele>
        <time>2013-11-11T09:00:54.000Z</time>
      </trkpt>
      <trkpt lat="47.84665" lon="2.19614">
        <ele>151</ele>
        <time>2013-11-11T09:00:56.000Z</time>
      </trkpt>
      <trkpt lat="47.84668" lon="2.19629">
        <ele>150</ele>
        <time>2013-11-11T09:00:58.000Z</time>
      </trkpt>
      <trkpt lat="47.84672" lon="2.19646">
        <ele>150</ele>
        <time>2013-11-11T09:01:00.000Z</time>
      </trkpt>
      <trkpt lat="47.84675" lon="2.19661">
        <ele>150</ele>
        <time>2013-11-11T09:01:02.000Z</time>
      </trkpt>
      <trkpt lat="47.84679" lon="2.19677">
        <ele>149</ele>
        <time>2013-11-11T09:01:04.000Z</time>
      </trkpt>
      <trkpt lat="47.84682" lon="2.19693">
        <ele>150</ele>
        <time>2013-11-11T09:01:06.000Z</time>
      </trkpt>
      <trkpt lat="47.84685" lon="2.19708">
        <ele>151</ele>
        <time>2013-11-11T09:01:08.000Z</time>
      </trkpt>
      <trkpt lat="47.84685" lon="2.19708">
        <ele>151</ele>
        <time>2013-11-11T09:01:10.000Z</time>
      </trkpt>
      <trkpt lat="47.84685" lon="2.19708">
        <ele>151</ele>
        <time>2013-11-11T09:01:12.000Z</time>
      </trkpt>
      <trkpt lat="47.84694" lon="2.19753">
        <ele>152</ele>
        <time>2013-11-11T09:01:14.000Z</time>
      </trkpt>
      <trkpt lat="47.84697" lon="2.19769">
        <ele>152</ele>
        <time>2013-11-11T09:01:16.000Z</time>
      </trkpt>
      <trkpt lat="47.84701" lon="2.19785">
        <ele>152</ele>
        <time>2013-11-11T09:01:18.000Z</time>
      </trkpt>
      <trkpt lat="47.84704" lon="2.19799">
        <ele>151</ele>
        <time>2013-11-11T09:01:20.000Z</time>
      </trkpt>
      <trkpt lat="47.84707" lon="2.19816">
        <ele>151</ele>
        <time>2013-11-11T09:01:22.000Z</time>
      </trkpt>
      <trkpt lat="47.84711" lon="2.19831">
        <ele>150</ele>
        <time>2013-11-11T09:01:24.000Z</time>
      </trkpt>
      <trkpt lat="47.84715" lon="2.19847">
        <ele>149</ele>
        <time>2013-11-11T09:01:26.000Z</time>
      </trkpt>
      <trkpt lat="47.84718" lon="2.19863">
        <ele>149</ele>
        <time>2013-11-11T09:01:28.000Z</time>
      </trkpt>
      <trkpt lat="47.84721" lon="2.19878">
        <ele>148</ele>
        <time>2013-11-11T09:01:30.000Z</time>
      </trkpt>
      <trkpt lat="47.84726" lon="2.19893">
        <ele>147</ele>
        <time>2013-11-11T09:01:32.000Z</time>
      </trkpt>
      <trkpt lat="47.84728" lon="2.19909">
        <ele>148</ele>
        <time>2013-11-11T09:01:34.000Z</time>
      </trkpt>
      <trkpt lat="47.84731" lon="2.19923">
        <ele>149</ele>
        <time>2013-11-11T09:01:36.000Z</time>
      </trkpt>
      <trkpt lat="47.84731" lon="2.19923">
        <ele>149</ele>
        <time>2013-11-11T09:01:38.000Z</time>
      </trkpt>
      <trkpt lat="47.84731" lon="2.19923">
        <ele>149</ele>
        <time>2013-11-11T09:01:40.000Z</time>
      </trkpt>
      <trkpt lat="47.84731" lon="2.19923">
        <ele>149</ele>
        <time>2013-11-11T09:01:42.000Z</time>
      </trkpt>
      <trkpt lat="47.84731" lon="2.19923">
        <ele>149</ele>
        <time>2013-11-11T09:01:44.000Z</time>
      </trkpt>
      <trkpt lat="47.84731" lon="2.19923">
        <ele>149</ele>
        <time>2013-11-11T09:01:46.000Z</time>
      </trkpt>
      <trkpt lat="47.84731" lon="2.19923">
        <ele>149</ele>
        <time>2013-11-11T09:01:48.000Z</time>
      </trkpt>
      <trkpt lat="47.84731" lon="2.19923">
        <ele>149</ele>
        <time>2013-11-11T09:01:50.000Z</time>
      </trkpt>
      <trkpt lat="47.84731" lon="2.19923">
        <ele>149</ele>
        <time>2013-11-11T09:01:52.000Z</time>
      </trkpt>
      <trkpt lat="47.84731" lon="2.19923">
        <ele>149</ele>
        <time>2013-11-11T09:01:54.000Z</time>
      </trkpt>
      <trkpt lat="47.84748" lon="2.19988">
        <ele>150</ele>
        <time>2013-11-11T09:01:58.000Z</time>
      </trkpt>
      <trkpt lat="47.84759" lon="2.20029">
        <ele>149</ele>
        <time>2013-11-11T09:02:00.000Z</time>
      </trkpt>
      <trkpt lat="47.84766" lon="2.20057">
        <ele>149</ele>
        <time>2013-11-11T09:02:02.000Z</time>
      </trkpt>
      <trkpt lat="47.84769" lon="2.20076">
        <ele>149</ele>
        <time>2013-11-11T09:02:04.000Z</time>
      </trkpt>
      <trkpt lat="47.84769" lon="2.20076">
        <ele>149</ele>
        <time>2013-11-11T09:02:06.000Z</time>
      </trkpt>
      <trkpt lat="47.84769" lon="2.20076">
        <ele>149</ele>
        <time>2013-11-11T09:02:08.000Z</time>
      </trkpt>
      <trkpt lat="47.84769" lon="2.20076">
        <ele>149</ele>
        <time>2013-11-11T09:02:10.000Z</time>
      </trkpt>
      <trkpt lat="47.84769" lon="2.20076">
        <ele>149</ele>
        <time>2013-11-11T09:02:12.000Z</time>
      </trkpt>
      <trkpt lat="47.84769" lon="2.20076">
        <ele>149</ele>
        <time>2013-11-11T09:02:14.000Z</time>
      </trkpt>
      <trkpt lat="47.84769" lon="2.20076">
        <ele>149</ele>
        <time>2013-11-11T09:02:16.000Z</time>
      </trkpt>
      <trkpt lat="47.84788" lon="2.2009">
        <ele>149</ele>
        <time>2013-11-11T09:02:22.000Z</time>
      </trkpt>
      <trkpt lat="47.84801" lon="2.20096">
        <ele>150</ele>
        <time>2013-11-11T09:02:24.000Z</time>
      </trkpt>
      <trkpt lat="47.8481" lon="2.20099">
        <ele>150</ele>
        <time>2013-11-11T09:02:26.000Z</time>
      </trkpt>
      <trkpt lat="47.84818" lon="2.201">
        <ele>150</ele>
        <time>2013-11-11T09:02:28.000Z</time>
      </trkpt>
      <trkpt lat="47.84824" lon="2.20101">
        <ele>149</ele>
        <time>2013-11-11T09:02:30.000Z</time>
      </trkpt>
      <trkpt lat="47.84824" lon="2.20101">
        <ele>149</ele>
        <time>2013-11-11T09:02:32.000Z</time>
      </trkpt>
      <trkpt lat="47.84824" lon="2.20101">
        <ele>149</ele>
        <time>2013-11-11T09:02:34.000Z</time>
      </trkpt>
      <trkpt lat="47.84824" lon="2.20101">
        <ele>149</ele>
        <time>2013-11-11T09:02:36.000Z</time>
      </trkpt>
      <trkpt lat="47.84824" lon="2.20101">
        <ele>149</ele>
        <time>2013-11-11T09:02:38.000Z</time>
      </trkpt>
      <trkpt lat="47.84855" lon="2.20118">
        <ele>152</ele>
        <time>2013-11-11T09:02:40.000Z</time>
      </trkpt>
      <trkpt lat="47.84867" lon="2.20134">
        <ele>147</ele>
        <time>2013-11-11T09:02:44.000Z</time>
      </trkpt>
      <trkpt lat="47.84875" lon="2.20155">
        <ele>146</ele>
        <time>2013-11-11T09:02:48.000Z</time>
      </trkpt>
      <trkpt lat="47.84881" lon="2.20167">
        <ele>145</ele>
        <time>2013-11-11T09:02:50.000Z</time>
      </trkpt>
      <trkpt lat="47.84892" lon="2.20187">
        <ele>147</ele>
        <time>2013-11-11T09:02:54.000Z</time>
      </trkpt>
      <trkpt lat="47.84892" lon="2.20187">
        <ele>147</ele>
        <time>2013-11-11T09:02:56.000Z</time>
      </trkpt>
      <trkpt lat="47.84903" lon="2.20207">
        <ele>148</ele>
        <time>2013-11-11T09:02:58.000Z</time>
      </trkpt>
      <trkpt lat="47.84903" lon="2.20207">
        <ele>148</ele>
        <time>2013-11-11T09:03:00.000Z</time>
      </trkpt>
      <trkpt lat="47.84912" lon="2.20227">
        <ele>146</ele>
        <time>2013-11-11T09:03:02.000Z</time>
      </trkpt>
      <trkpt lat="47.84919" lon="2.20238">
        <ele>146</ele>
        <time>2013-11-11T09:03:04.000Z</time>
      </trkpt>
      <trkpt lat="47.8493" lon="2.20257">
        <ele>144</ele>
        <time>2013-11-11T09:03:08.000Z</time>
      </trkpt>
      <trkpt lat="47.8493" lon="2.20257">
        <ele>144</ele>
        <time>2013-11-11T09:03:10.000Z</time>
      </trkpt>
      <trkpt lat="47.8493" lon="2.20257">
        <ele>144</ele>
        <time>2013-11-11T09:03:12.000Z</time>
      </trkpt>
      <trkpt lat="47.8493" lon="2.20257">
        <ele>144</ele>
        <time>2013-11-11T09:03:14.000Z</time>
      </trkpt>
      <trkpt lat="47.8493" lon="2.20257">
        <ele>144</ele>
        <time>2013-11-11T09:03:16.000Z</time>
      </trkpt>
      <trkpt lat="47.8493" lon="2.20257">
        <ele>144</ele>
        <time>2013-11-11T09:03:18.000Z</time>
      </trkpt>
      <trkpt lat="47.8493" lon="2.20257">
        <ele>144</ele>
        <time>2013-11-11T09:03:20.000Z</time>
      </trkpt>
      <trkpt lat="47.8493" lon="2.20257">
        <ele>144</ele>
        <time>2013-11-11T09:03:22.000Z</time>
      </trkpt>
      <trkpt lat="47.8493" lon="2.20257">
        <ele>144</ele>
        <time>2013-11-11T09:03:24.000Z</time>
      </trkpt>
      <trkpt lat="47.8493" lon="2.20257">
        <ele>144</ele>
        <time>2013-11-11T09:03:26.000Z</time>
      </trkpt>
      <trkpt lat="47.84987" lon="2.20356">
        <ele>142</ele>
        <time>2013-11-11T09:03:30.000Z</time>
      </trkpt>
      <trkpt lat="47.85001" lon="2.20379">
        <ele>145</ele>
        <time>2013-11-11T09:03:34.000Z</time>
      </trkpt>
      <trkpt lat="47.85008" lon="2.2039">
        <ele>145</ele>
        <time>2013-11-11T09:03:36.000Z</time>
      </trkpt>
      <trkpt lat="47.85018" lon="2.20405">
        <ele>145</ele>
        <time>2013-11-11T09:03:40.000Z</time>
      </trkpt>
      <trkpt lat="47.85018" lon="2.20405">
        <ele>145</ele>
        <time>2013-11-11T09:03:42.000Z</time>
      </trkpt>
      <trkpt lat="47.85018" lon="2.20405">
        <ele>145</ele>
        <time>2013-11-11T09:03:44.000Z</time>
      </trkpt>
      <trkpt lat="47.85018" lon="2.20405">
        <ele>145</ele>
        <time>2013-11-11T09:03:46.000Z</time>
      </trkpt>
      <trkpt lat="47.85018" lon="2.20405">
        <ele>145</ele>
        <time>2013-11-11T09:03:48.000Z</time>
      </trkpt>
      <trkpt lat="47.85018" lon="2.20405">
        <ele>145</ele>
        <time>2013-11-11T09:03:50.000Z</time>
      </trkpt>
      <trkpt lat="47.85018" lon="2.20405">
        <ele>145</ele>
        <time>2013-11-11T09:03:52.000Z</time>
      </trkpt>
      <trkpt lat="47.85018" lon="2.20405">
        <ele>145</ele>
        <time>2013-11-11T09:03:54.000Z</time>
      </trkpt>
      <trkpt lat="47.85018" lon="2.20405">
        <ele>145</ele>
        <time>2013-11-11T09:03:56.000Z</time>
      </trkpt>
      <trkpt lat="47.85018" lon="2.20405">
        <ele>145</ele>
        <time>2013-11-11T09:04:02.000Z</time>
      </trkpt>
      <trkpt lat="47.85018" lon="2.20405">
        <ele>145</ele>
        <time>2013-11-11T09:04:04.000Z</time>
      </trkpt>
      <trkpt lat="47.85018" lon="2.20405">
        <ele>145</ele>
        <time>2013-11-11T09:04:06.000Z</time>
      </trkpt>
      <trkpt lat="47.85058" lon="2.20463">
        <ele>136</ele>
        <time>2013-11-11T09:04:09.000Z</time>
      </trkpt>
      <trkpt lat="47.85081" lon="2.20496">
        <ele>136</ele>
        <time>2013-11-11T09:04:11.000Z</time>
      </trkpt>
      <trkpt lat="47.85096" lon="2.20517">
        <ele>137</ele>
        <time>2013-11-11T09:04:13.000Z</time>
      </trkpt>
      <trkpt lat="47.85105" lon="2.20531">
        <ele>138</ele>
        <time>2013-11-11T09:04:15.000Z</time>
      </trkpt>
      <trkpt lat="47.85105" lon="2.20531">
        <ele>138</ele>
        <time>2013-11-11T09:04:17.000Z</time>
      </trkpt>
      <trkpt lat="47.85105" lon="2.20531">
        <ele>138</ele>
        <time>2013-11-11T09:04:19.000Z</time>
      </trkpt>
      <trkpt lat="47.85105" lon="2.20531">
        <ele>138</ele>
        <time>2013-11-11T09:04:21.000Z</time>
      </trkpt>
      <trkpt lat="47.85105" lon="2.20531">
        <ele>138</ele>
        <time>2013-11-11T09:04:24.000Z</time>
      </trkpt>
      <trkpt lat="47.85128" lon="2.20572">
        <ele>143</ele>
        <time>2013-11-11T09:04:28.000Z</time>
      </trkpt>
      <trkpt lat="47.85143" lon="2.20598">
        <ele>144</ele>
        <time>2013-11-11T09:04:30.000Z</time>
      </trkpt>
      <trkpt lat="47.85153" lon="2.20617">
        <ele>143</ele>
        <time>2013-11-11T09:04:32.000Z</time>
      </trkpt>
      <trkpt lat="47.85161" lon="2.20633">
        <ele>144</ele>
        <time>2013-11-11T09:04:34.000Z</time>
      </trkpt>
      <trkpt lat="47.85169" lon="2.20644">
        <ele>145</ele>
        <time>2013-11-11T09:04:36.000Z</time>
      </trkpt>
      <trkpt lat="47.85169" lon="2.20644">
        <ele>145</ele>
        <time>2013-11-11T09:04:38.000Z</time>
      </trkpt>
      <trkpt lat="47.85191" lon="2.20678">
        <ele>144</ele>
        <time>2013-11-11T09:04:40.000Z</time>
      </trkpt>
      <trkpt lat="47.85204" lon="2.20699">
        <ele>144</ele>
        <time>2013-11-11T09:04:44.000Z</time>
      </trkpt>
      <trkpt lat="47.85204" lon="2.20699">
        <ele>144</ele>
        <time>2013-11-11T09:04:46.000Z</time>
      </trkpt>
      <trkpt lat="47.85204" lon="2.20699">
        <ele>144</ele>
        <time>2013-11-11T09:04:48.000Z</time>
      </trkpt>
      <trkpt lat="47.85204" lon="2.20699">
        <ele>144</ele>
        <time>2013-11-11T09:04:50.000Z</time>
      </trkpt>
      <trkpt lat="47.85239" lon="2.20764">
        <ele>142</ele>
        <time>2013-11-11T09:04:56.000Z</time>
      </trkpt>
      <trkpt lat="47.85244" lon="2.20778">
        <ele>141</ele>
        <time>2013-11-11T09:04:58.000Z</time>
      </trkpt>
      <trkpt lat="47.85249" lon="2.2079">
        <ele>140</ele>
        <time>2013-11-11T09:05:00.000Z</time>
      </trkpt>
      <trkpt lat="47.85255" lon="2.20814">
        <ele>140</ele>
        <time>2013-11-11T09:05:04.000Z</time>
      </trkpt>
      <trkpt lat="47.85255" lon="2.20814">
        <ele>140</ele>
        <time>2013-11-11T09:05:06.000Z</time>
      </trkpt>
      <trkpt lat="47.85255" lon="2.20814">
        <ele>140</ele>
        <time>2013-11-11T09:05:08.000Z</time>
      </trkpt>
      <trkpt lat="47.85255" lon="2.20814">
        <ele>140</ele>
        <time>2013-11-11T09:05:10.000Z</time>
      </trkpt>
      <trkpt lat="47.85255" lon="2.20814">
        <ele>140</ele>
        <time>2013-11-11T09:05:12.000Z</time>
      </trkpt>
      <trkpt lat="47.85255" lon="2.20814">
        <ele>140</ele>
        <time>2013-11-11T09:05:14.000Z</time>
      </trkpt>
      <trkpt lat="47.85265" lon="2.2088">
        <ele>138</ele>
        <time>2013-11-11T09:05:20.000Z</time>
      </trkpt>
      <trkpt lat="47.85277" lon="2.20902">
        <ele>133</ele>
        <time>2013-11-11T09:05:24.000Z</time>
      </trkpt>
      <trkpt lat="47.85284" lon="2.20913">
        <ele>132</ele>
        <time>2013-11-11T09:05:26.000Z</time>
      </trkpt>
      <trkpt lat="47.8529" lon="2.20923">
        <ele>132</ele>
        <time>2013-11-11T09:05:28.000Z</time>
      </trkpt>
      <trkpt lat="47.8529" lon="2.20923">
        <ele>132</ele>
        <time>2013-11-11T09:05:30.000Z</time>
      </trkpt>
      <trkpt lat="47.85294" lon="2.20941">
        <ele>132</ele>
        <time>2013-11-11T09:05:32.000Z</time>
      </trkpt>
      <trkpt lat="47.85294" lon="2.20941">
        <ele>132</ele>
        <time>2013-11-11T09:05:34.000Z</time>
      </trkpt>
      <trkpt lat="47.85294" lon="2.20941">
        <ele>132</ele>
        <time>2013-11-11T09:05:36.000Z</time>
      </trkpt>
      <trkpt lat="47.85294" lon="2.20941">
        <ele>132</ele>
        <time>2013-11-11T09:05:38.000Z</time>
      </trkpt>
      <trkpt lat="47.85294" lon="2.20941">
        <ele>132</ele>
        <time>2013-11-11T09:05:40.000Z</time>
      </trkpt>
      <trkpt lat="47.85294" lon="2.20941">
        <ele>132</ele>
        <time>2013-11-11T09:05:42.000Z</time>
      </trkpt>
      <trkpt lat="47.85327" lon="2.21012">
        <ele>130</ele>
        <time>2013-11-11T09:05:47.000Z</time>
      </trkpt>
      <trkpt lat="47.85335" lon="2.21031">
        <ele>130</ele>
        <time>2013-11-11T09:05:51.000Z</time>
      </trkpt>
      <trkpt lat="47.85344" lon="2.21043">
        <ele>132</ele>
        <time>2013-11-11T09:05:53.000Z</time>
      </trkpt>
      <trkpt lat="47.85355" lon="2.21062">
        <ele>137</ele>
        <time>2013-11-11T09:05:57.000Z</time>
      </trkpt>
      <trkpt lat="47.85355" lon="2.21062">
        <ele>137</ele>
        <time>2013-11-11T09:05:59.000Z</time>
      </trkpt>
      <trkpt lat="47.85367" lon="2.21082">
        <ele>135</ele>
        <time>2013-11-11T09:06:01.000Z</time>
      </trkpt>
      <trkpt lat="47.85377" lon="2.21105">
        <ele>136</ele>
        <time>2013-11-11T09:06:05.000Z</time>
      </trkpt>
      <trkpt lat="47.85388" lon="2.2112">
        <ele>136</ele>
        <time>2013-11-11T09:06:09.000Z</time>
      </trkpt>
      <trkpt lat="47.85388" lon="2.2112">
        <ele>136</ele>
        <time>2013-11-11T09:06:11.000Z</time>
      </trkpt>
      <trkpt lat="47.85388" lon="2.2112">
        <ele>136</ele>
        <time>2013-11-11T09:06:13.000Z</time>
      </trkpt>
      <trkpt lat="47.85401" lon="2.21148">
        <ele>136</ele>
        <time>2013-11-11T09:06:19.000Z</time>
      </trkpt>
      <trkpt lat="47.8541" lon="2.21168">
        <ele>136</ele>
        <time>2013-11-11T09:06:21.000Z</time>
      </trkpt>
      <trkpt lat="47.85416" lon="2.21183">
        <ele>137</ele>
        <time>2013-11-11T09:06:23.000Z</time>
      </trkpt>
      <trkpt lat="47.85416" lon="2.21183">
        <ele>137</ele>
        <time>2013-11-11T09:06:25.000Z</time>
      </trkpt>
      <trkpt lat="47.85426" lon="2.21207">
        <ele>133</ele>
        <time>2013-11-11T09:06:29.000Z</time>
      </trkpt>
      <trkpt lat="47.85431" lon="2.21226">
        <ele>136</ele>
        <time>2013-11-11T09:06:31.000Z</time>
      </trkpt>
      <trkpt lat="47.85437" lon="2.2124">
        <ele>137</ele>
        <time>2013-11-11T09:06:33.000Z</time>
      </trkpt>
      <trkpt lat="47.85437" lon="2.2124">
        <ele>137</ele>
        <time>2013-11-11T09:06:35.000Z</time>
      </trkpt>
      <trkpt lat="47.85437" lon="2.2124">
        <ele>137</ele>
        <time>2013-11-11T09:06:37.000Z</time>
      </trkpt>
      <trkpt lat="47.85437" lon="2.2124">
        <ele>137</ele>
        <time>2013-11-11T09:06:39.000Z</time>
      </trkpt>
      <trkpt lat="47.85437" lon="2.2124">
        <ele>137</ele>
        <time>2013-11-11T09:06:41.000Z</time>
      </trkpt>
      <trkpt lat="47.85437" lon="2.2124">
        <ele>137</ele>
        <time>2013-11-11T09:06:43.000Z</time>
      </trkpt>
      <trkpt lat="47.85437" lon="2.2124">
        <ele>137</ele>
        <time>2013-11-11T09:06:45.000Z</time>
      </trkpt>
      <trkpt lat="47.85453" lon="2.21284">
        <ele>136</ele>
        <time>2013-11-11T09:06:47.000Z</time>
      </trkpt>
      <trkpt lat="47.85463" lon="2.21313">
        <ele>138</ele>
        <time>2013-11-11T09:06:49.000Z</time>
      </trkpt>
      <trkpt lat="47.85469" lon="2.21334">
        <ele>138</ele>
        <time>2013-11-11T09:06:51.000Z</time>
      </trkpt>
      <trkpt lat="47.85475" lon="2.2135">
        <ele>139</ele>
        <time>2013-11-11T09:06:53.000Z</time>
      </trkpt>
      <trkpt lat="47.85479" lon="2.21363">
        <ele>136</ele>
        <time>2013-11-11T09:06:55.000Z</time>
      </trkpt>
      <trkpt lat="47.85488" lon="2.21387">
        <ele>133</ele>
        <time>2013-11-11T09:06:57.000Z</time>
      </trkpt>
      <trkpt lat="47.85496" lon="2.21411">
        <ele>131</ele>
        <time>2013-11-11T09:07:01.000Z</time>
      </trkpt>
      <trkpt lat="47.85496" lon="2.21411">
        <ele>131</ele>
        <time>2013-11-11T09:07:03.000Z</time>
      </trkpt>
      <trkpt lat="47.85503" lon="2.21434">
        <ele>130</ele>
        <time>2013-11-11T09:07:05.000Z</time>
      </trkpt>
      <trkpt lat="47.85508" lon="2.21446">
        <ele>128</ele>
        <time>2013-11-11T09:07:07.000Z</time>
      </trkpt>
      <trkpt lat="47.85515" lon="2.2147">
        <ele>129</ele>
        <time>2013-11-11T09:07:11.000Z</time>
      </trkpt>
      <trkpt lat="47.85519" lon="2.21482">
        <ele>127</ele>
        <time>2013-11-11T09:07:13.000Z</time>
      </trkpt>
      <trkpt lat="47.85523" lon="2.21494">
        <ele>127</ele>
        <time>2013-11-11T09:07:15.000Z</time>
      </trkpt>
      <trkpt lat="47.85527" lon="2.21508">
        <ele>127</ele>
        <time>2013-11-11T09:07:17.000Z</time>
      </trkpt>
      <trkpt lat="47.85533" lon="2.21534">
        <ele>124</ele>
        <time>2013-11-11T09:07:21.000Z</time>
      </trkpt>
      <trkpt lat="47.85537" lon="2.21549">
        <ele>124</ele>
        <time>2013-11-11T09:07:23.000Z</time>
      </trkpt>
      <trkpt lat="47.85539" lon="2.21562">
        <ele>123</ele>
        <time>2013-11-11T09:07:25.000Z</time>
      </trkpt>
      <trkpt lat="47.85539" lon="2.21562">
        <ele>123</ele>
        <time>2013-11-11T09:07:27.000Z</time>
      </trkpt>
      <trkpt lat="47.85539" lon="2.21562">
        <ele>123</ele>
        <time>2013-11-11T09:07:29.000Z</time>
      </trkpt>
      <trkpt lat="47.85539" lon="2.21562">
        <ele>123</ele>
        <time>2013-11-11T09:07:31.000Z</time>
      </trkpt>
      <trkpt lat="47.85539" lon="2.21562">
        <ele>123</ele>
        <time>2013-11-11T09:07:33.000Z</time>
      </trkpt>
      <trkpt lat="47.85539" lon="2.21562">
        <ele>123</ele>
        <time>2013-11-11T09:07:35.000Z</time>
      </trkpt>
      <trkpt lat="47.85539" lon="2.21562">
        <ele>123</ele>
        <time>2013-11-11T09:07:37.000Z</time>
      </trkpt>
      <trkpt lat="47.85539" lon="2.21562">
        <ele>123</ele>
        <time>2013-11-11T09:07:39.000Z</time>
      </trkpt>
      <trkpt lat="47.85539" lon="2.21562">
        <ele>123</ele>
        <time>2013-11-11T09:07:41.000Z</time>
      </trkpt>
      <trkpt lat="47.85566" lon="2.2169">
        <ele>125</ele>
        <time>2013-11-11T09:07:47.000Z</time>
      </trkpt>
      <trkpt lat="47.85566" lon="2.2169">
        <ele>125</ele>
        <time>2013-11-11T09:07:49.000Z</time>
      </trkpt>
      <trkpt lat="47.85566" lon="2.2169">
        <ele>125</ele>
        <time>2013-11-11T09:07:51.000Z</time>
      </trkpt>
      <trkpt lat="47.85579" lon="2.21736">
        <ele>122</ele>
        <time>2013-11-11T09:07:55.000Z</time>
      </trkpt>
      <trkpt lat="47.85583" lon="2.21756">
        <ele>115</ele>
        <time>2013-11-11T09:07:59.000Z</time>
      </trkpt>
      <trkpt lat="47.85583" lon="2.21756">
        <ele>115</ele>
        <time>2013-11-11T09:08:01.000Z</time>
      </trkpt>
      <trkpt lat="47.85583" lon="2.21756">
        <ele>115</ele>
        <time>2013-11-11T09:08:03.000Z</time>
      </trkpt>
      <trkpt lat="47.85583" lon="2.21756">
        <ele>115</ele>
        <time>2013-11-11T09:08:05.000Z</time>
      </trkpt>
      <trkpt lat="47.85583" lon="2.21756">
        <ele>115</ele>
        <time>2013-11-11T09:08:07.000Z</time>
      </trkpt>
      <trkpt lat="47.85583" lon="2.21756">
        <ele>115</ele>
        <time>2013-11-11T09:08:09.000Z</time>
      </trkpt>
      <trkpt lat="47.85583" lon="2.21756">
        <ele>115</ele>
        <time>2013-11-11T09:08:11.000Z</time>
      </trkpt>
      <trkpt lat="47.85583" lon="2.21756">
        <ele>115</ele>
        <time>2013-11-11T09:08:13.000Z</time>
      </trkpt>
      <trkpt lat="47.85583" lon="2.21756">
        <ele>115</ele>
        <time>2013-11-11T09:08:15.000Z</time>
      </trkpt>
      <trkpt lat="47.85583" lon="2.21756">
        <ele>115</ele>
        <time>2013-11-11T09:08:17.000Z</time>
      </trkpt>
      <trkpt lat="47.85583" lon="2.21756">
        <ele>115</ele>
        <time>2013-11-11T09:08:19.000Z</time>
      </trkpt>
      <trkpt lat="47.85592" lon="2.21816">
        <ele>120</ele>
        <time>2013-11-11T09:08:25.000Z</time>
      </trkpt>
      <trkpt lat="47.85598" lon="2.21853">
        <ele>119</ele>
        <time>2013-11-11T09:08:27.000Z</time>
      </trkpt>
      <trkpt lat="47.85601" lon="2.21878">
        <ele>118</ele>
        <time>2013-11-11T09:08:29.000Z</time>
      </trkpt>
      <trkpt lat="47.85604" lon="2.21898">
        <ele>120</ele>
        <time>2013-11-11T09:08:31.000Z</time>
      </trkpt>
      <trkpt lat="47.85606" lon="2.21914">
        <ele>122</ele>
        <time>2013-11-11T09:08:33.000Z</time>
      </trkpt>
      <trkpt lat="47.85612" lon="2.21945">
        <ele>123</ele>
        <time>2013-11-11T09:08:35.000Z</time>
      </trkpt>
      <trkpt lat="47.85612" lon="2.21945">
        <ele>123</ele>
        <time>2013-11-11T09:08:37.000Z</time>
      </trkpt>
      <trkpt lat="47.85612" lon="2.21945">
        <ele>123</ele>
        <time>2013-11-11T09:08:39.000Z</time>
      </trkpt>
      <trkpt lat="47.85612" lon="2.21945">
        <ele>123</ele>
        <time>2013-11-11T09:08:41.000Z</time>
      </trkpt>
      <trkpt lat="47.85612" lon="2.21945">
        <ele>123</ele>
        <time>2013-11-11T09:08:43.000Z</time>
      </trkpt>
      <trkpt lat="47.85612" lon="2.21945">
        <ele>123</ele>
        <time>2013-11-11T09:08:45.000Z</time>
      </trkpt>
      <trkpt lat="47.85621" lon="2.22032">
        <ele>128</ele>
        <time>2013-11-11T09:08:51.000Z</time>
      </trkpt>
      <trkpt lat="47.85623" lon="2.22046">
        <ele>130</ele>
        <time>2013-11-11T09:08:53.000Z</time>
      </trkpt>
      <trkpt lat="47.85624" lon="2.22061">
        <ele>131</ele>
        <time>2013-11-11T09:08:55.000Z</time>
      </trkpt>
      <trkpt lat="47.85624" lon="2.22076">
        <ele>131</ele>
        <time>2013-11-11T09:08:57.000Z</time>
      </trkpt>
      <trkpt lat="47.85625" lon="2.22093">
        <ele>131</ele>
        <time>2013-11-11T09:08:59.000Z</time>
      </trkpt>
      <trkpt lat="47.85625" lon="2.22093">
        <ele>131</ele>
        <time>2013-11-11T09:09:01.000Z</time>
      </trkpt>
      <trkpt lat="47.85625" lon="2.22093">
        <ele>131</ele>
        <time>2013-11-11T09:09:03.000Z</time>
      </trkpt>
      <trkpt lat="47.85625" lon="2.22093">
        <ele>131</ele>
        <time>2013-11-11T09:09:05.000Z</time>
      </trkpt>
      <trkpt lat="47.85625" lon="2.22093">
        <ele>131</ele>
        <time>2013-11-11T09:09:07.000Z</time>
      </trkpt>
      <trkpt lat="47.85626" lon="2.22169">
        <ele>135</ele>
        <time>2013-11-11T09:09:11.000Z</time>
      </trkpt>
      <trkpt lat="47.85628" lon="2.22184">
        <ele>134</ele>
        <time>2013-11-11T09:09:13.000Z</time>
      </trkpt>
      <trkpt lat="47.85629" lon="2.222">
        <ele>132</ele>
        <time>2013-11-11T09:09:15.000Z</time>
      </trkpt>
      <trkpt lat="47.85633" lon="2.22216">
        <ele>132</ele>
        <time>2013-11-11T09:09:17.000Z</time>
      </trkpt>
      <trkpt lat="47.85633" lon="2.2223">
        <ele>132</ele>
        <time>2013-11-11T09:09:19.000Z</time>
      </trkpt>
      <trkpt lat="47.85633" lon="2.22248">
        <ele>133</ele>
        <time>2013-11-11T09:09:21.000Z</time>
      </trkpt>
      <trkpt lat="47.8563" lon="2.22268">
        <ele>133</ele>
        <time>2013-11-11T09:09:23.000Z</time>
      </trkpt>
      <trkpt lat="47.85627" lon="2.22285">
        <ele>132</ele>
        <time>2013-11-11T09:09:25.000Z</time>
      </trkpt>
      <trkpt lat="47.85626" lon="2.22301">
        <ele>132</ele>
        <time>2013-11-11T09:09:27.000Z</time>
      </trkpt>
      <trkpt lat="47.85623" lon="2.22314">
        <ele>133</ele>
        <time>2013-11-11T09:09:29.000Z</time>
      </trkpt>
      <trkpt lat="47.85623" lon="2.22314">
        <ele>133</ele>
        <time>2013-11-11T09:09:31.000Z</time>
      </trkpt>
      <trkpt lat="47.85623" lon="2.22314">
        <ele>133</ele>
        <time>2013-11-11T09:09:33.000Z</time>
      </trkpt>
      <trkpt lat="47.85623" lon="2.22314">
        <ele>133</ele>
        <time>2013-11-11T09:09:35.000Z</time>
      </trkpt>
      <trkpt lat="47.85623" lon="2.22314">
        <ele>133</ele>
        <time>2013-11-11T09:09:38.000Z</time>
      </trkpt>
      <trkpt lat="47.85623" lon="2.22314">
        <ele>133</ele>
        <time>2013-11-11T09:09:40.000Z</time>
      </trkpt>
      <trkpt lat="47.85623" lon="2.22314">
        <ele>133</ele>
        <time>2013-11-11T09:09:42.000Z</time>
      </trkpt>
      <trkpt lat="47.85623" lon="2.22314">
        <ele>133</ele>
        <time>2013-11-11T09:09:44.000Z</time>
      </trkpt>
      <trkpt lat="47.85623" lon="2.22314">
        <ele>133</ele>
        <time>2013-11-11T09:09:46.000Z</time>
      </trkpt>
      <trkpt lat="47.85634" lon="2.22363">
        <ele>145</ele>
        <time>2013-11-11T09:10:06.000Z</time>
      </trkpt>
      <trkpt lat="47.85646" lon="2.22362">
        <ele>145</ele>
        <time>2013-11-11T09:10:10.000Z</time>
      </trkpt>
      <trkpt lat="47.85661" lon="2.22362">
        <ele>142</ele>
        <time>2013-11-11T09:10:13.000Z</time>
      </trkpt>
      <trkpt lat="47.8567" lon="2.2236">
        <ele>142</ele>
        <time>2013-11-11T09:10:15.000Z</time>
      </trkpt>
      <trkpt lat="47.8569" lon="2.22361">
        <ele>142</ele>
        <time>2013-11-11T09:10:19.000Z</time>
      </trkpt>
      <trkpt lat="47.85714" lon="2.22358">
        <ele>142</ele>
        <time>2013-11-11T09:10:24.000Z</time>
      </trkpt>
      <trkpt lat="47.85725" lon="2.22356">
        <ele>142</ele>
        <time>2013-11-11T09:10:26.000Z</time>
      </trkpt>
      <trkpt lat="47.85741" lon="2.22355">
        <ele>143</ele>
        <time>2013-11-11T09:10:30.000Z</time>
      </trkpt>
      <trkpt lat="47.85741" lon="2.22355">
        <ele>143</ele>
        <time>2013-11-11T09:10:32.000Z</time>
      </trkpt>
      <trkpt lat="47.85741" lon="2.22355">
        <ele>143</ele>
        <time>2013-11-11T09:10:34.000Z</time>
      </trkpt>
      <trkpt lat="47.85791" lon="2.22349">
        <ele>145</ele>
        <time>2013-11-11T09:10:40.000Z</time>
      </trkpt>
      <trkpt lat="47.85791" lon="2.22349">
        <ele>145</ele>
        <time>2013-11-11T09:10:42.000Z</time>
      </trkpt>
      <trkpt lat="47.85791" lon="2.22349">
        <ele>145</ele>
        <time>2013-11-11T09:10:44.000Z</time>
      </trkpt>
      <trkpt lat="47.85791" lon="2.22349">
        <ele>145</ele>
        <time>2013-11-11T09:10:50.000Z</time>
      </trkpt>
      <trkpt lat="47.85791" lon="2.22349">
        <ele>145</ele>
        <time>2013-11-11T09:10:52.000Z</time>
      </trkpt>
      <trkpt lat="47.85873" lon="2.22341">
        <ele>145</ele>
        <time>2013-11-11T09:10:56.000Z</time>
      </trkpt>
      <trkpt lat="47.85887" lon="2.22337">
        <ele>147</ele>
        <time>2013-11-11T09:10:58.000Z</time>
      </trkpt>
      <trkpt lat="47.85887" lon="2.22337">
        <ele>147</ele>
        <time>2013-11-11T09:11:02.000Z</time>
      </trkpt>
      <trkpt lat="47.85887" lon="2.22337">
        <ele>147</ele>
        <time>2013-11-11T09:11:04.000Z</time>
      </trkpt>
      <trkpt lat="47.85887" lon="2.22337">
        <ele>147</ele>
        <time>2013-11-11T09:11:06.000Z</time>
      </trkpt>
      <trkpt lat="47.85887" lon="2.22337">
        <ele>147</ele>
        <time>2013-11-11T09:11:08.000Z</time>
      </trkpt>
      <trkpt lat="47.85887" lon="2.22337">
        <ele>147</ele>
        <time>2013-11-11T09:11:10.000Z</time>
      </trkpt>
      <trkpt lat="47.85887" lon="2.22337">
        <ele>147</ele>
        <time>2013-11-11T09:11:16.000Z</time>
      </trkpt>
      <trkpt lat="47.85887" lon="2.22337">
        <ele>147</ele>
        <time>2013-11-11T09:11:18.000Z</time>
      </trkpt>
      <trkpt lat="47.85887" lon="2.22337">
        <ele>147</ele>
        <time>2013-11-11T09:11:20.000Z</time>
      </trkpt>
      <trkpt lat="47.85887" lon="2.22337">
        <ele>147</ele>
        <time>2013-11-11T09:11:22.000Z</time>
      </trkpt>
      <trkpt lat="47.85999" lon="2.22324">
        <ele>144</ele>
        <time>2013-11-11T09:11:26.000Z</time>
      </trkpt>
      <trkpt lat="47.85995" lon="2.22308">
        <ele>146</ele>
        <time>2013-11-11T09:11:28.000Z</time>
      </trkpt>
      <trkpt lat="47.85995" lon="2.22308">
        <ele>146</ele>
        <time>2013-11-11T09:11:30.000Z</time>
      </trkpt>
      <trkpt lat="47.85993" lon="2.22287">
        <ele>147</ele>
        <time>2013-11-11T09:11:32.000Z</time>
      </trkpt>
      <trkpt lat="47.85993" lon="2.22287">
        <ele>147</ele>
        <time>2013-11-11T09:11:34.000Z</time>
      </trkpt>
      <trkpt lat="47.85995" lon="2.2225">
        <ele>148</ele>
        <time>2013-11-11T09:11:37.000Z</time>
      </trkpt>
      <trkpt lat="47.85994" lon="2.22225">
        <ele>148</ele>
        <time>2013-11-11T09:11:41.000Z</time>
      </trkpt>
      <trkpt lat="47.85994" lon="2.22225">
        <ele>148</ele>
        <time>2013-11-11T09:11:43.000Z</time>
      </trkpt>
      <trkpt lat="47.85994" lon="2.22213">
        <ele>147</ele>
        <time>2013-11-11T09:11:45.000Z</time>
      </trkpt>
      <trkpt lat="47.85993" lon="2.222">
        <ele>147</ele>
        <time>2013-11-11T09:11:47.000Z</time>
      </trkpt>
      <trkpt lat="47.85991" lon="2.22184">
        <ele>147</ele>
        <time>2013-11-11T09:11:49.000Z</time>
      </trkpt>
      <trkpt lat="47.85992" lon="2.22168">
        <ele>147</ele>
        <time>2013-11-11T09:11:51.000Z</time>
      </trkpt>
      <trkpt lat="47.85991" lon="2.22152">
        <ele>147</ele>
        <time>2013-11-11T09:11:53.000Z</time>
      </trkpt>
      <trkpt lat="47.85987" lon="2.2212">
        <ele>149</ele>
        <time>2013-11-11T09:11:55.000Z</time>
      </trkpt>
      <trkpt lat="47.85986" lon="2.22106">
        <ele>150</ele>
        <time>2013-11-11T09:11:57.000Z</time>
      </trkpt>
      <trkpt lat="47.85986" lon="2.22106">
        <ele>150</ele>
        <time>2013-11-11T09:11:59.000Z</time>
      </trkpt>
      <trkpt lat="47.85986" lon="2.22106">
        <ele>150</ele>
        <time>2013-11-11T09:12:01.000Z</time>
      </trkpt>
      <trkpt lat="47.85986" lon="2.22106">
        <ele>150</ele>
        <time>2013-11-11T09:12:03.000Z</time>
      </trkpt>
      <trkpt lat="47.85986" lon="2.22106">
        <ele>150</ele>
        <time>2013-11-11T09:12:05.000Z</time>
      </trkpt>
      <trkpt lat="47.85986" lon="2.22106">
        <ele>150</ele>
        <time>2013-11-11T09:12:07.000Z</time>
      </trkpt>
      <trkpt lat="47.85986" lon="2.22106">
        <ele>150</ele>
        <time>2013-11-11T09:12:09.000Z</time>
      </trkpt>
      <trkpt lat="47.85996" lon="2.21999">
        <ele>149</ele>
        <time>2013-11-11T09:12:13.000Z</time>
      </trkpt>
      <trkpt lat="47.86" lon="2.2197">
        <ele>149</ele>
        <time>2013-11-11T09:12:17.000Z</time>
      </trkpt>
      <trkpt lat="47.86004" lon="2.21944">
        <ele>149</ele>
        <time>2013-11-11T09:12:21.000Z</time>
      </trkpt>
      <trkpt lat="47.86004" lon="2.21944">
        <ele>149</ele>
        <time>2013-11-11T09:12:23.000Z</time>
      </trkpt>
      <trkpt lat="47.86004" lon="2.21944">
        <ele>149</ele>
        <time>2013-11-11T09:12:25.000Z</time>
      </trkpt>
      <trkpt lat="47.86004" lon="2.21944">
        <ele>149</ele>
        <time>2013-11-11T09:12:27.000Z</time>
      </trkpt>
      <trkpt lat="47.86004" lon="2.21944">
        <ele>149</ele>
        <time>2013-11-11T09:12:29.000Z</time>
      </trkpt>
      <trkpt lat="47.86004" lon="2.21944">
        <ele>149</ele>
        <time>2013-11-11T09:12:31.000Z</time>
      </trkpt>
      <trkpt lat="47.86013" lon="2.21855">
        <ele>144</ele>
        <time>2013-11-11T09:12:35.000Z</time>
      </trkpt>
      <trkpt lat="47.86011" lon="2.21839">
        <ele>144</ele>
        <time>2013-11-11T09:12:37.000Z</time>
      </trkpt>
      <trkpt lat="47.86009" lon="2.21823">
        <ele>145</ele>
        <time>2013-11-11T09:12:39.000Z</time>
      </trkpt>
      <trkpt lat="47.86009" lon="2.21823">
        <ele>145</ele>
        <time>2013-11-11T09:12:41.000Z</time>
      </trkpt>
      <trkpt lat="47.86009" lon="2.21823">
        <ele>145</ele>
        <time>2013-11-11T09:12:44.000Z</time>
      </trkpt>
      <trkpt lat="47.85993" lon="2.21773">
        <ele>146</ele>
        <time>2013-11-11T09:12:46.000Z</time>
      </trkpt>
      <trkpt lat="47.85984" lon="2.21765">
        <ele>146</ele>
        <time>2013-11-11T09:12:48.000Z</time>
      </trkpt>
      <trkpt lat="47.85975" lon="2.21762">
        <ele>146</ele>
        <time>2013-11-11T09:12:50.000Z</time>
      </trkpt>
      <trkpt lat="47.85975" lon="2.21762">
        <ele>146</ele>
        <time>2013-11-11T09:12:52.000Z</time>
      </trkpt>
      <trkpt lat="47.85962" lon="2.21745">
        <ele>145</ele>
        <time>2013-11-11T09:12:54.000Z</time>
      </trkpt>
      <trkpt lat="47.85962" lon="2.21745">
        <ele>145</ele>
        <time>2013-11-11T09:12:56.000Z</time>
      </trkpt>
      <trkpt lat="47.85956" lon="2.21705">
        <ele>146</ele>
        <time>2013-11-11T09:13:00.000Z</time>
      </trkpt>
      <trkpt lat="47.85954" lon="2.2169">
        <ele>146</ele>
        <time>2013-11-11T09:13:02.000Z</time>
      </trkpt>
      <trkpt lat="47.85949" lon="2.2166">
        <ele>147</ele>
        <time>2013-11-11T09:13:06.000Z</time>
      </trkpt>
      <trkpt lat="47.85933" lon="2.21638">
        <ele>147</ele>
        <time>2013-11-11T09:13:09.000Z</time>
      </trkpt>
      <trkpt lat="47.85925" lon="2.21625">
        <ele>146</ele>
        <time>2013-11-11T09:13:11.000Z</time>
      </trkpt>
      <trkpt lat="47.85921" lon="2.21598">
        <ele>147</ele>
        <time>2013-11-11T09:13:15.000Z</time>
      </trkpt>
      <trkpt lat="47.85918" lon="2.21583">
        <ele>147</ele>
        <time>2013-11-11T09:13:17.000Z</time>
      </trkpt>
      <trkpt lat="47.85915" lon="2.21569">
        <ele>147</ele>
        <time>2013-11-11T09:13:19.000Z</time>
      </trkpt>
      <trkpt lat="47.8591" lon="2.21554">
        <ele>147</ele>
        <time>2013-11-11T09:13:21.000Z</time>
      </trkpt>
      <trkpt lat="47.8591" lon="2.21554">
        <ele>147</ele>
        <time>2013-11-11T09:13:23.000Z</time>
      </trkpt>
      <trkpt lat="47.8591" lon="2.21554">
        <ele>147</ele>
        <time>2013-11-11T09:13:25.000Z</time>
      </trkpt>
      <trkpt lat="47.8591" lon="2.21554">
        <ele>147</ele>
        <time>2013-11-11T09:13:27.000Z</time>
      </trkpt>
      <trkpt lat="47.8591" lon="2.21554">
        <ele>147</ele>
        <time>2013-11-11T09:13:29.000Z</time>
      </trkpt>
      <trkpt lat="47.8591" lon="2.21554">
        <ele>147</ele>
        <time>2013-11-11T09:13:31.000Z</time>
      </trkpt>
      <trkpt lat="47.8591" lon="2.21554">
        <ele>147</ele>
        <time>2013-11-11T09:13:39.000Z</time>
      </trkpt>
      <trkpt lat="47.85887" lon="2.21485">
        <ele>149</ele>
        <time>2013-11-11T09:13:42.000Z</time>
      </trkpt>
      <trkpt lat="47.85873" lon="2.21443">
        <ele>150</ele>
        <time>2013-11-11T09:13:44.000Z</time>
      </trkpt>
      <trkpt lat="47.85864" lon="2.21413">
        <ele>150</ele>
        <time>2013-11-11T09:13:46.000Z</time>
      </trkpt>
      <trkpt lat="47.85861" lon="2.21391">
        <ele>152</ele>
        <time>2013-11-11T09:13:48.000Z</time>
      </trkpt>
      <trkpt lat="47.85861" lon="2.21391">
        <ele>152</ele>
        <time>2013-11-11T09:13:50.000Z</time>
      </trkpt>
      <trkpt lat="47.85861" lon="2.21391">
        <ele>152</ele>
        <time>2013-11-11T09:13:52.000Z</time>
      </trkpt>
      <trkpt lat="47.85849" lon="2.21349">
        <ele>154</ele>
        <time>2013-11-11T09:13:56.000Z</time>
      </trkpt>
      <trkpt lat="47.85841" lon="2.2132">
        <ele>154</ele>
        <time>2013-11-11T09:13:58.000Z</time>
      </trkpt>
      <trkpt lat="47.85835" lon="2.21298">
        <ele>154</ele>
        <time>2013-11-11T09:14:00.000Z</time>
      </trkpt>
      <trkpt lat="47.8583" lon="2.21279">
        <ele>154</ele>
        <time>2013-11-11T09:14:02.000Z</time>
      </trkpt>
      <trkpt lat="47.8583" lon="2.21265">
        <ele>153</ele>
        <time>2013-11-11T09:14:04.000Z</time>
      </trkpt>
      <trkpt lat="47.8583" lon="2.21265">
        <ele>153</ele>
        <time>2013-11-11T09:14:07.000Z</time>
      </trkpt>
      <trkpt lat="47.8583" lon="2.21265">
        <ele>153</ele>
        <time>2013-11-11T09:14:09.000Z</time>
      </trkpt>
      <trkpt lat="47.8583" lon="2.21265">
        <ele>153</ele>
        <time>2013-11-11T09:14:13.000Z</time>
      </trkpt>
      <trkpt lat="47.8583" lon="2.21265">
        <ele>153</ele>
        <time>2013-11-11T09:14:15.000Z</time>
      </trkpt>
      <trkpt lat="47.8583" lon="2.21265">
        <ele>153</ele>
        <time>2013-11-11T09:14:17.000Z</time>
      </trkpt>
      <trkpt lat="47.85799" lon="2.21143">
        <ele>154</ele>
        <time>2013-11-11T09:14:19.000Z</time>
      </trkpt>
      <trkpt lat="47.85799" lon="2.21143">
        <ele>154</ele>
        <time>2013-11-11T09:14:21.000Z</time>
      </trkpt>
      <trkpt lat="47.85799" lon="2.21143">
        <ele>154</ele>
        <time>2013-11-11T09:14:23.000Z</time>
      </trkpt>
      <trkpt lat="47.85799" lon="2.21143">
        <ele>154</ele>
        <time>2013-11-11T09:14:25.000Z</time>
      </trkpt>
      <trkpt lat="47.85799" lon="2.21143">
        <ele>154</ele>
        <time>2013-11-11T09:14:31.000Z</time>
      </trkpt>
      <trkpt lat="47.85799" lon="2.21143">
        <ele>154</ele>
        <time>2013-11-11T09:14:34.000Z</time>
      </trkpt>
      <trkpt lat="47.85764" lon="2.21031">
        <ele>152</ele>
        <time>2013-11-11T09:14:38.000Z</time>
      </trkpt>
      <trkpt lat="47.85758" lon="2.21017">
        <ele>151</ele>
        <time>2013-11-11T09:14:40.000Z</time>
      </trkpt>
      <trkpt lat="47.85752" lon="2.21003">
        <ele>151</ele>
        <time>2013-11-11T09:14:42.000Z</time>
      </trkpt>
      <trkpt lat="47.85744" lon="2.2099">
        <ele>150</ele>
        <time>2013-11-11T09:14:44.000Z</time>
      </trkpt>
      <trkpt lat="47.85739" lon="2.20975">
        <ele>150</ele>
        <time>2013-11-11T09:14:46.000Z</time>
      </trkpt>
      <trkpt lat="47.85725" lon="2.20949">
        <ele>148</ele>
        <time>2013-11-11T09:14:50.000Z</time>
      </trkpt>
      <trkpt lat="47.85717" lon="2.20937">
        <ele>149</ele>
        <time>2013-11-11T09:14:52.000Z</time>
      </trkpt>
      <trkpt lat="47.85711" lon="2.20922">
        <ele>150</ele>
        <time>2013-11-11T09:14:54.000Z</time>
      </trkpt>
      <trkpt lat="47.85702" lon="2.20907">
        <ele>150</ele>
        <time>2013-11-11T09:14:56.000Z</time>
      </trkpt>
      <trkpt lat="47.85695" lon="2.20892">
        <ele>150</ele>
        <time>2013-11-11T09:14:58.000Z</time>
      </trkpt>
      <trkpt lat="47.85687" lon="2.20878">
        <ele>149</ele>
        <time>2013-11-11T09:15:00.000Z</time>
      </trkpt>
      <trkpt lat="47.85682" lon="2.20865">
        <ele>151</ele>
        <time>2013-11-11T09:15:02.000Z</time>
      </trkpt>
      <trkpt lat="47.85677" lon="2.20852">
        <ele>151</ele>
        <time>2013-11-11T09:15:04.000Z</time>
      </trkpt>
      <trkpt lat="47.8567" lon="2.20838">
        <ele>151</ele>
        <time>2013-11-11T09:15:06.000Z</time>
      </trkpt>
      <trkpt lat="47.85664" lon="2.20827">
        <ele>150</ele>
        <time>2013-11-11T09:15:08.000Z</time>
      </trkpt>
      <trkpt lat="47.85664" lon="2.20827">
        <ele>150</ele>
        <time>2013-11-11T09:15:10.000Z</time>
      </trkpt>
      <trkpt lat="47.85664" lon="2.20827">
        <ele>150</ele>
        <time>2013-11-11T09:15:12.000Z</time>
      </trkpt>
      <trkpt lat="47.85664" lon="2.20827">
        <ele>150</ele>
        <time>2013-11-11T09:15:14.000Z</time>
      </trkpt>
      <trkpt lat="47.85634" lon="2.20759">
        <ele>150</ele>
        <time>2013-11-11T09:15:18.000Z</time>
      </trkpt>
      <trkpt lat="47.85627" lon="2.20748">
        <ele>152</ele>
        <time>2013-11-11T09:15:20.000Z</time>
      </trkpt>
      <trkpt lat="47.8562" lon="2.20733">
        <ele>152</ele>
        <time>2013-11-11T09:15:22.000Z</time>
      </trkpt>
      <trkpt lat="47.85611" lon="2.20722">
        <ele>152</ele>
        <time>2013-11-11T09:15:24.000Z</time>
      </trkpt>
      <trkpt lat="47.85611" lon="2.20722">
        <ele>152</ele>
        <time>2013-11-11T09:15:26.000Z</time>
      </trkpt>
      <trkpt lat="47.85611" lon="2.20722">
        <ele>152</ele>
        <time>2013-11-11T09:15:28.000Z</time>
      </trkpt>
      <trkpt lat="47.85611" lon="2.20722">
        <ele>152</ele>
        <time>2013-11-11T09:15:30.000Z</time>
      </trkpt>
      <trkpt lat="47.85611" lon="2.20722">
        <ele>152</ele>
        <time>2013-11-11T09:15:32.000Z</time>
      </trkpt>
      <trkpt lat="47.85611" lon="2.20722">
        <ele>152</ele>
        <time>2013-11-11T09:15:34.000Z</time>
      </trkpt>
      <trkpt lat="47.85611" lon="2.20722">
        <ele>152</ele>
        <time>2013-11-11T09:15:36.000Z</time>
      </trkpt>
      <trkpt lat="47.85611" lon="2.20722">
        <ele>152</ele>
        <time>2013-11-11T09:15:38.000Z</time>
      </trkpt>
      <trkpt lat="47.85611" lon="2.20722">
        <ele>152</ele>
        <time>2013-11-11T09:15:40.000Z</time>
      </trkpt>
      <trkpt lat="47.85563" lon="2.20598">
        <ele>140</ele>
        <time>2013-11-11T09:15:45.000Z</time>
      </trkpt>
      <trkpt lat="47.85557" lon="2.20585">
        <ele>140</ele>
        <time>2013-11-11T09:15:47.000Z</time>
      </trkpt>
      <trkpt lat="47.8555" lon="2.2057">
        <ele>137</ele>
        <time>2013-11-11T09:15:49.000Z</time>
      </trkpt>
      <trkpt lat="47.85543" lon="2.20553">
        <ele>134</ele>
        <time>2013-11-11T09:15:51.000Z</time>
      </trkpt>
      <trkpt lat="47.85536" lon="2.20539">
        <ele>134</ele>
        <time>2013-11-11T09:15:53.000Z</time>
      </trkpt>
      <trkpt lat="47.85529" lon="2.20527">
        <ele>135</ele>
        <time>2013-11-11T09:15:55.000Z</time>
      </trkpt>
      <trkpt lat="47.85522" lon="2.20517">
        <ele>136</ele>
        <time>2013-11-11T09:15:57.000Z</time>
      </trkpt>
      <trkpt lat="47.85522" lon="2.20517">
        <ele>136</ele>
        <time>2013-11-11T09:15:59.000Z</time>
      </trkpt>
      <trkpt lat="47.85522" lon="2.20517">
        <ele>136</ele>
        <time>2013-11-11T09:16:01.000Z</time>
      </trkpt>
      <trkpt lat="47.85522" lon="2.20517">
        <ele>136</ele>
        <time>2013-11-11T09:16:03.000Z</time>
      </trkpt>
      <trkpt lat="47.85522" lon="2.20517">
        <ele>136</ele>
        <time>2013-11-11T09:16:05.000Z</time>
      </trkpt>
      <trkpt lat="47.85497" lon="2.20491">
        <ele>141</ele>
        <time>2013-11-11T09:16:11.000Z</time>
      </trkpt>
      <trkpt lat="47.85481" lon="2.20473">
        <ele>141</ele>
        <time>2013-11-11T09:16:13.000Z</time>
      </trkpt>
      <trkpt lat="47.85469" lon="2.2046">
        <ele>142</ele>
        <time>2013-11-11T09:16:15.000Z</time>
      </trkpt>
      <trkpt lat="47.85461" lon="2.20448">
        <ele>143</ele>
        <time>2013-11-11T09:16:17.000Z</time>
      </trkpt>
      <trkpt lat="47.85453" lon="2.20438">
        <ele>144</ele>
        <time>2013-11-11T09:16:19.000Z</time>
      </trkpt>
      <trkpt lat="47.85439" lon="2.20415">
        <ele>145</ele>
        <time>2013-11-11T09:16:21.000Z</time>
      </trkpt>
      <trkpt lat="47.85431" lon="2.20403">
        <ele>146</ele>
        <time>2013-11-11T09:16:23.000Z</time>
      </trkpt>
      <trkpt lat="47.85426" lon="2.20392">
        <ele>147</ele>
        <time>2013-11-11T09:16:25.000Z</time>
      </trkpt>
      <trkpt lat="47.85419" lon="2.2038">
        <ele>146</ele>
        <time>2013-11-11T09:16:27.000Z</time>
      </trkpt>
      <trkpt lat="47.85414" lon="2.20369">
        <ele>146</ele>
        <time>2013-11-11T09:16:29.000Z</time>
      </trkpt>
      <trkpt lat="47.85414" lon="2.20369">
        <ele>146</ele>
        <time>2013-11-11T09:16:31.000Z</time>
      </trkpt>
      <trkpt lat="47.85414" lon="2.20369">
        <ele>146</ele>
        <time>2013-11-11T09:16:33.000Z</time>
      </trkpt>
      <trkpt lat="47.85414" lon="2.20369">
        <ele>146</ele>
        <time>2013-11-11T09:16:35.000Z</time>
      </trkpt>
      <trkpt lat="47.85414" lon="2.20369">
        <ele>146</ele>
        <time>2013-11-11T09:16:37.000Z</time>
      </trkpt>
      <trkpt lat="47.85374" lon="2.20298">
        <ele>151</ele>
        <time>2013-11-11T09:16:41.000Z</time>
      </trkpt>
      <trkpt lat="47.85364" lon="2.20276">
        <ele>152</ele>
        <time>2013-11-11T09:16:45.000Z</time>
      </trkpt>
      <trkpt lat="47.85364" lon="2.20276">
        <ele>152</ele>
        <time>2013-11-11T09:16:47.000Z</time>
      </trkpt>
      <trkpt lat="47.85364" lon="2.20276">
        <ele>152</ele>
        <time>2013-11-11T09:16:49.000Z</time>
      </trkpt>
      <trkpt lat="47.85339" lon="2.20228">
        <ele>152</ele>
        <time>2013-11-11T09:16:53.000Z</time>
      </trkpt>
      <trkpt lat="47.85334" lon="2.20216">
        <ele>152</ele>
        <time>2013-11-11T09:16:55.000Z</time>
      </trkpt>
      <trkpt lat="47.85328" lon="2.20203">
        <ele>152</ele>
        <time>2013-11-11T09:16:57.000Z</time>
      </trkpt>
      <trkpt lat="47.85321" lon="2.2019">
        <ele>152</ele>
        <time>2013-11-11T09:16:59.000Z</time>
      </trkpt>
      <trkpt lat="47.85315" lon="2.20177">
        <ele>153</ele>
        <time>2013-11-11T09:17:01.000Z</time>
      </trkpt>
      <trkpt lat="47.85308" lon="2.20164">
        <ele>154</ele>
        <time>2013-11-11T09:17:03.000Z</time>
      </trkpt>
      <trkpt lat="47.85302" lon="2.20151">
        <ele>153</ele>
        <time>2013-11-11T09:17:05.000Z</time>
      </trkpt>
      <trkpt lat="47.85295" lon="2.20139">
        <ele>153</ele>
        <time>2013-11-11T09:17:07.000Z</time>
      </trkpt>
      <trkpt lat="47.85295" lon="2.20139">
        <ele>153</ele>
        <time>2013-11-11T09:17:11.000Z</time>
      </trkpt>
      <trkpt lat="47.85277" lon="2.20099">
        <ele>153</ele>
        <time>2013-11-11T09:17:13.000Z</time>
      </trkpt>
      <trkpt lat="47.85277" lon="2.20099">
        <ele>153</ele>
        <time>2013-11-11T09:17:15.000Z</time>
      </trkpt>
      <trkpt lat="47.85264" lon="2.20073">
        <ele>153</ele>
        <time>2013-11-11T09:17:17.000Z</time>
      </trkpt>
      <trkpt lat="47.85258" lon="2.20061">
        <ele>153</ele>
        <time>2013-11-11T09:17:19.000Z</time>
      </trkpt>
      <trkpt lat="47.85258" lon="2.20061">
        <ele>153</ele>
        <time>2013-11-11T09:17:21.000Z</time>
      </trkpt>
      <trkpt lat="47.85258" lon="2.20061">
        <ele>153</ele>
        <time>2013-11-11T09:17:23.000Z</time>
      </trkpt>
      <trkpt lat="47.85234" lon="2.20011">
        <ele>152</ele>
        <time>2013-11-11T09:17:27.000Z</time>
      </trkpt>
      <trkpt lat="47.85229" lon="2.19998">
        <ele>153</ele>
        <time>2013-11-11T09:17:29.000Z</time>
      </trkpt>
      <trkpt lat="47.85224" lon="2.19985">
        <ele>154</ele>
        <time>2013-11-11T09:17:31.000Z</time>
      </trkpt>
      <trkpt lat="47.85224" lon="2.19985">
        <ele>154</ele>
        <time>2013-11-11T09:17:33.000Z</time>
      </trkpt>
      <trkpt lat="47.85224" lon="2.19985">
        <ele>154</ele>
        <time>2013-11-11T09:17:35.000Z</time>
      </trkpt>
      <trkpt lat="47.85224" lon="2.19985">
        <ele>154</ele>
        <time>2013-11-11T09:17:37.000Z</time>
      </trkpt>
      <trkpt lat="47.85224" lon="2.19985">
        <ele>154</ele>
        <time>2013-11-11T09:17:45.000Z</time>
      </trkpt>
      <trkpt lat="47.85224" lon="2.19985">
        <ele>154</ele>
        <time>2013-11-11T09:17:47.000Z</time>
      </trkpt>
      <trkpt lat="47.85224" lon="2.19985">
        <ele>154</ele>
        <time>2013-11-11T09:17:49.000Z</time>
      </trkpt>
      <trkpt lat="47.85224" lon="2.19985">
        <ele>154</ele>
        <time>2013-11-11T09:17:57.000Z</time>
      </trkpt>
      <trkpt lat="47.85158" lon="2.19788">
        <ele>150</ele>
        <time>2013-11-11T09:18:01.000Z</time>
      </trkpt>
      <trkpt lat="47.85154" lon="2.19774">
        <ele>151</ele>
        <time>2013-11-11T09:18:03.000Z</time>
      </trkpt>
      <trkpt lat="47.8515" lon="2.19761">
        <ele>149</ele>
        <time>2013-11-11T09:18:05.000Z</time>
      </trkpt>
      <trkpt lat="47.85146" lon="2.19747">
        <ele>149</ele>
        <time>2013-11-11T09:18:07.000Z</time>
      </trkpt>
      <trkpt lat="47.85146" lon="2.19747">
        <ele>149</ele>
        <time>2013-11-11T09:18:09.000Z</time>
      </trkpt>
      <trkpt lat="47.85141" lon="2.19733">
        <ele>150</ele>
        <time>2013-11-11T09:18:11.000Z</time>
      </trkpt>
      <trkpt lat="47.85137" lon="2.19719">
        <ele>151</ele>
        <time>2013-11-11T09:18:13.000Z</time>
      </trkpt>
      <trkpt lat="47.85133" lon="2.19705">
        <ele>151</ele>
        <time>2013-11-11T09:18:15.000Z</time>
      </trkpt>
      <trkpt lat="47.85129" lon="2.19692">
        <ele>150</ele>
        <time>2013-11-11T09:18:17.000Z</time>
      </trkpt>
      <trkpt lat="47.85125" lon="2.19678">
        <ele>150</ele>
        <time>2013-11-11T09:18:19.000Z</time>
      </trkpt>
      <trkpt lat="47.85125" lon="2.19678">
        <ele>150</ele>
        <time>2013-11-11T09:18:21.000Z</time>
      </trkpt>
      <trkpt lat="47.85125" lon="2.19678">
        <ele>150</ele>
        <time>2013-11-11T09:18:23.000Z</time>
      </trkpt>
      <trkpt lat="47.85125" lon="2.19678">
        <ele>150</ele>
        <time>2013-11-11T09:18:25.000Z</time>
      </trkpt>
      <trkpt lat="47.85099" lon="2.19581">
        <ele>151</ele>
        <time>2013-11-11T09:18:31.000Z</time>
      </trkpt>
      <trkpt lat="47.85094" lon="2.19566">
        <ele>151</ele>
        <time>2013-11-11T09:18:33.000Z</time>
      </trkpt>
      <trkpt lat="47.85093" lon="2.19539">
        <ele>151</ele>
        <time>2013-11-11T09:18:37.000Z</time>
      </trkpt>
      <trkpt lat="47.85093" lon="2.19539">
        <ele>151</ele>
        <time>2013-11-11T09:18:39.000Z</time>
      </trkpt>
      <trkpt lat="47.85093" lon="2.19539">
        <ele>151</ele>
        <time>2013-11-11T09:18:41.000Z</time>
      </trkpt>
      <trkpt lat="47.8509" lon="2.19462">
        <ele>151</ele>
        <time>2013-11-11T09:18:47.000Z</time>
      </trkpt>
      <trkpt lat="47.85089" lon="2.19445">
        <ele>151</ele>
        <time>2013-11-11T09:18:49.000Z</time>
      </trkpt>
      <trkpt lat="47.85091" lon="2.19414">
        <ele>152</ele>
        <time>2013-11-11T09:18:53.000Z</time>
      </trkpt>
      <trkpt lat="47.85091" lon="2.19414">
        <ele>152</ele>
        <time>2013-11-11T09:18:57.000Z</time>
      </trkpt>
      <trkpt lat="47.85091" lon="2.19414">
        <ele>152</ele>
        <time>2013-11-11T09:18:59.000Z</time>
      </trkpt>
      <trkpt lat="47.85091" lon="2.19414">
        <ele>152</ele>
        <time>2013-11-11T09:19:01.000Z</time>
      </trkpt>
      <trkpt lat="47.8509" lon="2.1933">
        <ele>151</ele>
        <time>2013-11-11T09:19:03.000Z</time>
      </trkpt>
      <trkpt lat="47.85089" lon="2.19314">
        <ele>150</ele>
        <time>2013-11-11T09:19:05.000Z</time>
      </trkpt>
      <trkpt lat="47.85086" lon="2.19295">
        <ele>150</ele>
        <time>2013-11-11T09:19:07.000Z</time>
      </trkpt>
      <trkpt lat="47.85084" lon="2.19277">
        <ele>151</ele>
        <time>2013-11-11T09:19:09.000Z</time>
      </trkpt>
      <trkpt lat="47.85084" lon="2.19262">
        <ele>150</ele>
        <time>2013-11-11T09:19:11.000Z</time>
      </trkpt>
      <trkpt lat="47.85084" lon="2.19248">
        <ele>149</ele>
        <time>2013-11-11T09:19:13.000Z</time>
      </trkpt>
      <trkpt lat="47.85084" lon="2.1923">
        <ele>149</ele>
        <time>2013-11-11T09:19:15.000Z</time>
      </trkpt>
      <trkpt lat="47.85084" lon="2.1923">
        <ele>149</ele>
        <time>2013-11-11T09:19:17.000Z</time>
      </trkpt>
      <trkpt lat="47.85084" lon="2.1923">
        <ele>149</ele>
        <time>2013-11-11T09:19:19.000Z</time>
      </trkpt>
      <trkpt lat="47.85084" lon="2.1923">
        <ele>149</ele>
        <time>2013-11-11T09:19:21.000Z</time>
      </trkpt>
      <trkpt lat="47.85084" lon="2.1923">
        <ele>149</ele>
        <time>2013-11-11T09:19:23.000Z</time>
      </trkpt>
      <trkpt lat="47.85084" lon="2.1923">
        <ele>149</ele>
        <time>2013-11-11T09:19:25.000Z</time>
      </trkpt>
      <trkpt lat="47.85058" lon="2.19148">
        <ele>141</ele>
        <time>2013-11-11T09:19:29.000Z</time>
      </trkpt>
      <trkpt lat="47.85058" lon="2.19148">
        <ele>141</ele>
        <time>2013-11-11T09:19:31.000Z</time>
      </trkpt>
      <trkpt lat="47.85058" lon="2.19148">
        <ele>141</ele>
        <time>2013-11-11T09:19:33.000Z</time>
      </trkpt>
      <trkpt lat="47.85058" lon="2.19148">
        <ele>141</ele>
        <time>2013-11-11T09:19:39.000Z</time>
      </trkpt>
      <trkpt lat="47.85058" lon="2.19148">
        <ele>141</ele>
        <time>2013-11-11T09:19:41.000Z</time>
      </trkpt>
      <trkpt lat="47.85058" lon="2.19148">
        <ele>141</ele>
        <time>2013-11-11T09:19:43.000Z</time>
      </trkpt>
      <trkpt lat="47.85058" lon="2.19148">
        <ele>141</ele>
        <time>2013-11-11T09:19:45.000Z</time>
      </trkpt>
      <trkpt lat="47.85058" lon="2.19148">
        <ele>141</ele>
        <time>2013-11-11T09:19:47.000Z</time>
      </trkpt>
      <trkpt lat="47.85058" lon="2.19148">
        <ele>141</ele>
        <time>2013-11-11T09:19:49.000Z</time>
      </trkpt>
      <trkpt lat="47.85058" lon="2.19148">
        <ele>141</ele>
        <time>2013-11-11T09:19:51.000Z</time>
      </trkpt>
      <trkpt lat="47.85058" lon="2.19148">
        <ele>141</ele>
        <time>2013-11-11T09:19:53.000Z</time>
      </trkpt>
      <trkpt lat="47.85044" lon="2.19067">
        <ele>144</ele>
        <time>2013-11-11T09:19:59.000Z</time>
      </trkpt>
      <trkpt lat="47.85032" lon="2.1902">
        <ele>146</ele>
        <time>2013-11-11T09:20:01.000Z</time>
      </trkpt>
      <trkpt lat="47.85022" lon="2.18991">
        <ele>149</ele>
        <time>2013-11-11T09:20:03.000Z</time>
      </trkpt>
      <trkpt lat="47.85014" lon="2.1897">
        <ele>149</ele>
        <time>2013-11-11T09:20:05.000Z</time>
      </trkpt>
      <trkpt lat="47.85004" lon="2.18953">
        <ele>147</ele>
        <time>2013-11-11T09:20:07.000Z</time>
      </trkpt>
      <trkpt lat="47.84986" lon="2.18927">
        <ele>148</ele>
        <time>2013-11-11T09:20:09.000Z</time>
      </trkpt>
      <trkpt lat="47.84974" lon="2.18909">
        <ele>146</ele>
        <time>2013-11-11T09:20:13.000Z</time>
      </trkpt>
      <trkpt lat="47.84974" lon="2.18909">
        <ele>146</ele>
        <time>2013-11-11T09:20:15.000Z</time>
      </trkpt>
      <trkpt lat="47.84974" lon="2.18909">
        <ele>146</ele>
        <time>2013-11-11T09:20:17.000Z</time>
      </trkpt>
      <trkpt lat="47.84974" lon="2.18909">
        <ele>146</ele>
        <time>2013-11-11T09:20:19.000Z</time>
      </trkpt>
      <trkpt lat="47.84974" lon="2.18909">
        <ele>146</ele>
        <time>2013-11-11T09:20:21.000Z</time>
      </trkpt>
      <trkpt lat="47.84974" lon="2.18909">
        <ele>146</ele>
        <time>2013-11-11T09:20:23.000Z</time>
      </trkpt>
      <trkpt lat="47.84943" lon="2.18838">
        <ele>146</ele>
        <time>2013-11-11T09:20:26.000Z</time>
      </trkpt>
      <trkpt lat="47.84937" lon="2.18826">
        <ele>147</ele>
        <time>2013-11-11T09:20:28.000Z</time>
      </trkpt>
      <trkpt lat="47.84932" lon="2.18811">
        <ele>146</ele>
        <time>2013-11-11T09:20:30.000Z</time>
      </trkpt>
      <trkpt lat="47.8493" lon="2.18798">
        <ele>145</ele>
        <time>2013-11-11T09:20:32.000Z</time>
      </trkpt>
      <trkpt lat="47.84925" lon="2.18782">
        <ele>144</ele>
        <time>2013-11-11T09:20:34.000Z</time>
      </trkpt>
      <trkpt lat="47.84921" lon="2.18765">
        <ele>143</ele>
        <time>2013-11-11T09:20:36.000Z</time>
      </trkpt>
      <trkpt lat="47.84914" lon="2.18747">
        <ele>142</ele>
        <time>2013-11-11T09:20:38.000Z</time>
      </trkpt>
      <trkpt lat="47.8491" lon="2.18729">
        <ele>141</ele>
        <time>2013-11-11T09:20:40.000Z</time>
      </trkpt>
      <trkpt lat="47.8491" lon="2.18729">
        <ele>141</ele>
        <time>2013-11-11T09:20:42.000Z</time>
      </trkpt>
      <trkpt lat="47.8491" lon="2.18729">
        <ele>141</ele>
        <time>2013-11-11T09:20:44.000Z</time>
      </trkpt>
      <trkpt lat="47.8491" lon="2.18729">
        <ele>141</ele>
        <time>2013-11-11T09:20:46.000Z</time>
      </trkpt>
      <trkpt lat="47.8491" lon="2.18729">
        <ele>141</ele>
        <time>2013-11-11T09:20:52.000Z</time>
      </trkpt>
      <trkpt lat="47.8491" lon="2.18729">
        <ele>141</ele>
        <time>2013-11-11T09:20:54.000Z</time>
      </trkpt>
      <trkpt lat="47.8491" lon="2.18729">
        <ele>141</ele>
        <time>2013-11-11T09:20:56.000Z</time>
      </trkpt>
      <trkpt lat="47.8491" lon="2.18729">
        <ele>141</ele>
        <time>2013-11-11T09:20:58.000Z</time>
      </trkpt>
      <trkpt lat="47.8491" lon="2.18729">
        <ele>141</ele>
        <time>2013-11-11T09:21:00.000Z</time>
      </trkpt>
      <trkpt lat="47.8491" lon="2.18729">
        <ele>141</ele>
        <time>2013-11-11T09:21:02.000Z</time>
      </trkpt>
      <trkpt lat="47.8491" lon="2.18729">
        <ele>141</ele>
        <time>2013-11-11T09:21:04.000Z</time>
      </trkpt>
      <trkpt lat="47.8491" lon="2.18729">
        <ele>141</ele>
        <time>2013-11-11T09:21:06.000Z</time>
      </trkpt>
      <trkpt lat="47.84941" lon="2.18529">
        <ele>135</ele>
        <time>2013-11-11T09:21:10.000Z</time>
      </trkpt>
      <trkpt lat="47.84948" lon="2.18499">
        <ele>138</ele>
        <time>2013-11-11T09:21:14.000Z</time>
      </trkpt>
      <trkpt lat="47.84948" lon="2.18499">
        <ele>138</ele>
        <time>2013-11-11T09:21:16.000Z</time>
      </trkpt>
      <trkpt lat="47.84948" lon="2.18499">
        <ele>138</ele>
        <time>2013-11-11T09:21:18.000Z</time>
      </trkpt>
      <trkpt lat="47.84948" lon="2.18499">
        <ele>138</ele>
        <time>2013-11-11T09:21:20.000Z</time>
      </trkpt>
      <trkpt lat="47.84951" lon="2.18429">
        <ele>140</ele>
        <time>2013-11-11T09:21:26.000Z</time>
      </trkpt>
      <trkpt lat="47.84953" lon="2.18415">
        <ele>140</ele>
        <time>2013-11-11T09:21:28.000Z</time>
      </trkpt>
      <trkpt lat="47.84956" lon="2.18402">
        <ele>141</ele>
        <time>2013-11-11T09:21:30.000Z</time>
      </trkpt>
      <trkpt lat="47.84959" lon="2.18387">
        <ele>141</ele>
        <time>2013-11-11T09:21:32.000Z</time>
      </trkpt>
      <trkpt lat="47.84961" lon="2.18373">
        <ele>141</ele>
        <time>2013-11-11T09:21:34.000Z</time>
      </trkpt>
      <trkpt lat="47.84965" lon="2.18359">
        <ele>141</ele>
        <time>2013-11-11T09:21:36.000Z</time>
      </trkpt>
      <trkpt lat="47.84969" lon="2.18346">
        <ele>141</ele>
        <time>2013-11-11T09:21:38.000Z</time>
      </trkpt>
      <trkpt lat="47.84975" lon="2.18334">
        <ele>141</ele>
        <time>2013-11-11T09:21:40.000Z</time>
      </trkpt>
      <trkpt lat="47.84976" lon="2.18318">
        <ele>142</ele>
        <time>2013-11-11T09:21:42.000Z</time>
      </trkpt>
      <trkpt lat="47.84976" lon="2.18318">
        <ele>142</ele>
        <time>2013-11-11T09:21:44.000Z</time>
      </trkpt>
      <trkpt lat="47.84982" lon="2.18293">
        <ele>143</ele>
        <time>2013-11-11T09:21:46.000Z</time>
      </trkpt>
      <trkpt lat="47.84982" lon="2.18293">
        <ele>143</ele>
        <time>2013-11-11T09:21:48.000Z</time>
      </trkpt>
      <trkpt lat="47.84982" lon="2.18293">
        <ele>143</ele>
        <time>2013-11-11T09:21:50.000Z</time>
      </trkpt>
      <trkpt lat="47.84991" lon="2.18259">
        <ele>148</ele>
        <time>2013-11-11T09:21:56.000Z</time>
      </trkpt>
      <trkpt lat="47.84999" lon="2.18236">
        <ele>149</ele>
        <time>2013-11-11T09:21:58.000Z</time>
      </trkpt>
      <trkpt lat="47.84999" lon="2.18236">
        <ele>149</ele>
        <time>2013-11-11T09:22:00.000Z</time>
      </trkpt>
      <trkpt lat="47.84999" lon="2.18236">
        <ele>149</ele>
        <time>2013-11-11T09:22:02.000Z</time>
      </trkpt>
      <trkpt lat="47.84999" lon="2.18236">
        <ele>149</ele>
        <time>2013-11-11T09:22:04.000Z</time>
      </trkpt>
      <trkpt lat="47.84999" lon="2.18236">
        <ele>149</ele>
        <time>2013-11-11T09:22:06.000Z</time>
      </trkpt>
      <trkpt lat="47.84999" lon="2.18236">
        <ele>149</ele>
        <time>2013-11-11T09:22:08.000Z</time>
      </trkpt>
      <trkpt lat="47.84999" lon="2.18236">
        <ele>149</ele>
        <time>2013-11-11T09:22:11.000Z</time>
      </trkpt>
      <trkpt lat="47.84999" lon="2.18236">
        <ele>149</ele>
        <time>2013-11-11T09:22:13.000Z</time>
      </trkpt>
      <trkpt lat="47.84999" lon="2.18236">
        <ele>149</ele>
        <time>2013-11-11T09:22:15.000Z</time>
      </trkpt>
      <trkpt lat="47.85016" lon="2.18164">
        <ele>145</ele>
        <time>2013-11-11T09:22:18.000Z</time>
      </trkpt>
      <trkpt lat="47.85028" lon="2.1812">
        <ele>145</ele>
        <time>2013-11-11T09:22:21.000Z</time>
      </trkpt>
      <trkpt lat="47.85036" lon="2.18093">
        <ele>146</ele>
        <time>2013-11-11T09:22:23.000Z</time>
      </trkpt>
      <trkpt lat="47.85036" lon="2.18093">
        <ele>146</ele>
        <time>2013-11-11T09:22:25.000Z</time>
      </trkpt>
      <trkpt lat="47.85036" lon="2.18093">
        <ele>146</ele>
        <time>2013-11-11T09:22:27.000Z</time>
      </trkpt>
      <trkpt lat="47.85036" lon="2.18093">
        <ele>146</ele>
        <time>2013-11-11T09:22:29.000Z</time>
      </trkpt>
      <trkpt lat="47.85036" lon="2.18093">
        <ele>146</ele>
        <time>2013-11-11T09:22:31.000Z</time>
      </trkpt>
      <trkpt lat="47.85036" lon="2.18093">
        <ele>146</ele>
        <time>2013-11-11T09:22:33.000Z</time>
      </trkpt>
      <trkpt lat="47.85036" lon="2.18093">
        <ele>146</ele>
        <time>2013-11-11T09:22:35.000Z</time>
      </trkpt>
      <trkpt lat="47.85036" lon="2.18093">
        <ele>146</ele>
        <time>2013-11-11T09:22:37.000Z</time>
      </trkpt>
      <trkpt lat="47.8507" lon="2.18045">
        <ele>130</ele>
        <time>2013-11-11T09:22:42.000Z</time>
      </trkpt>
      <trkpt lat="47.85091" lon="2.18016">
        <ele>130</ele>
        <time>2013-11-11T09:22:45.000Z</time>
      </trkpt>
      <trkpt lat="47.85106" lon="2.18">
        <ele>129</ele>
        <time>2013-11-11T09:22:47.000Z</time>
      </trkpt>
      <trkpt lat="47.85115" lon="2.17985">
        <ele>129</ele>
        <time>2013-11-11T09:22:49.000Z</time>
      </trkpt>
      <trkpt lat="47.85125" lon="2.17972">
        <ele>132</ele>
        <time>2013-11-11T09:22:51.000Z</time>
      </trkpt>
      <trkpt lat="47.85138" lon="2.17946">
        <ele>133</ele>
        <time>2013-11-11T09:22:53.000Z</time>
      </trkpt>
      <trkpt lat="47.85138" lon="2.17927">
        <ele>133</ele>
        <time>2013-11-11T09:22:55.000Z</time>
      </trkpt>
      <trkpt lat="47.85138" lon="2.17927">
        <ele>133</ele>
        <time>2013-11-11T09:22:57.000Z</time>
      </trkpt>
      <trkpt lat="47.85138" lon="2.17927">
        <ele>133</ele>
        <time>2013-11-11T09:23:00.000Z</time>
      </trkpt>
      <trkpt lat="47.85138" lon="2.17927">
        <ele>133</ele>
        <time>2013-11-11T09:23:02.000Z</time>
      </trkpt>
      <trkpt lat="47.85138" lon="2.17927">
        <ele>133</ele>
        <time>2013-11-11T09:23:04.000Z</time>
      </trkpt>
      <trkpt lat="47.85138" lon="2.17927">
        <ele>133</ele>
        <time>2013-11-11T09:23:06.000Z</time>
      </trkpt>
      <trkpt lat="47.85138" lon="2.17927">
        <ele>133</ele>
        <time>2013-11-11T09:23:08.000Z</time>
      </trkpt>
      <trkpt lat="47.85138" lon="2.17927">
        <ele>133</ele>
        <time>2013-11-11T09:23:10.000Z</time>
      </trkpt>
      <trkpt lat="47.85162" lon="2.17818">
        <ele>137</ele>
        <time>2013-11-11T09:23:14.000Z</time>
      </trkpt>
      <trkpt lat="47.85176" lon="2.17784">
        <ele>136</ele>
        <time>2013-11-11T09:23:19.000Z</time>
      </trkpt>
      <trkpt lat="47.85181" lon="2.17774">
        <ele>136</ele>
        <time>2013-11-11T09:23:21.000Z</time>
      </trkpt>
      <trkpt lat="47.85188" lon="2.17763">
        <ele>135</ele>
        <time>2013-11-11T09:23:23.000Z</time>
      </trkpt>
      <trkpt lat="47.85204" lon="2.17742">
        <ele>140</ele>
        <time>2013-11-11T09:23:26.000Z</time>
      </trkpt>
      <trkpt lat="47.85216" lon="2.17733">
        <ele>143</ele>
        <time>2013-11-11T09:23:29.000Z</time>
      </trkpt>
      <trkpt lat="47.85216" lon="2.17733">
        <ele>143</ele>
        <time>2013-11-11T09:23:31.000Z</time>
      </trkpt>
      <trkpt lat="47.85216" lon="2.17733">
        <ele>143</ele>
        <time>2013-11-11T09:23:33.000Z</time>
      </trkpt>
      <trkpt lat="47.85238" lon="2.17682">
        <ele>144</ele>
        <time>2013-11-11T09:23:38.000Z</time>
      </trkpt>
      <trkpt lat="47.85245" lon="2.17672">
        <ele>144</ele>
        <time>2013-11-11T09:23:40.000Z</time>
      </trkpt>
      <trkpt lat="47.85253" lon="2.1766">
        <ele>144</ele>
        <time>2013-11-11T09:23:42.000Z</time>
      </trkpt>
      <trkpt lat="47.85261" lon="2.17649">
        <ele>146</ele>
        <time>2013-11-11T09:23:44.000Z</time>
      </trkpt>
      <trkpt lat="47.85261" lon="2.17649">
        <ele>146</ele>
        <time>2013-11-11T09:23:46.000Z</time>
      </trkpt>
      <trkpt lat="47.85261" lon="2.17649">
        <ele>146</ele>
        <time>2013-11-11T09:23:48.000Z</time>
      </trkpt>
      <trkpt lat="47.85261" lon="2.17649">
        <ele>146</ele>
        <time>2013-11-11T09:23:50.000Z</time>
      </trkpt>
      <trkpt lat="47.85261" lon="2.17649">
        <ele>146</ele>
        <time>2013-11-11T09:23:52.000Z</time>
      </trkpt>
      <trkpt lat="47.85261" lon="2.17649">
        <ele>146</ele>
        <time>2013-11-11T09:23:54.000Z</time>
      </trkpt>
      <trkpt lat="47.85261" lon="2.17649">
        <ele>146</ele>
        <time>2013-11-11T09:23:56.000Z</time>
      </trkpt>
      <trkpt lat="47.85261" lon="2.17649">
        <ele>146</ele>
        <time>2013-11-11T09:23:58.000Z</time>
      </trkpt>
      <trkpt lat="47.85261" lon="2.17649">
        <ele>146</ele>
        <time>2013-11-11T09:24:00.000Z</time>
      </trkpt>
      <trkpt lat="47.85261" lon="2.17649">
        <ele>146</ele>
        <time>2013-11-11T09:24:02.000Z</time>
      </trkpt>
      <trkpt lat="47.85261" lon="2.17649">
        <ele>146</ele>
        <time>2013-11-11T09:24:04.000Z</time>
      </trkpt>
      <trkpt lat="47.85313" lon="2.17521">
        <ele>131</ele>
        <time>2013-11-11T09:24:08.000Z</time>
      </trkpt>
      <trkpt lat="47.85317" lon="2.17507">
        <ele>130</ele>
        <time>2013-11-11T09:24:10.000Z</time>
      </trkpt>
      <trkpt lat="47.85323" lon="2.17482">
        <ele>128</ele>
        <time>2013-11-11T09:24:14.000Z</time>
      </trkpt>
      <trkpt lat="47.85327" lon="2.17467">
        <ele>128</ele>
        <time>2013-11-11T09:24:16.000Z</time>
      </trkpt>
      <trkpt lat="47.85334" lon="2.17457">
        <ele>127</ele>
        <time>2013-11-11T09:24:18.000Z</time>
      </trkpt>
      <trkpt lat="47.85344" lon="2.17445">
        <ele>129</ele>
        <time>2013-11-11T09:24:20.000Z</time>
      </trkpt>
      <trkpt lat="47.85352" lon="2.17434">
        <ele>130</ele>
        <time>2013-11-11T09:24:22.000Z</time>
      </trkpt>
      <trkpt lat="47.85362" lon="2.17423">
        <ele>132</ele>
        <time>2013-11-11T09:24:24.000Z</time>
      </trkpt>
      <trkpt lat="47.85372" lon="2.17413">
        <ele>134</ele>
        <time>2013-11-11T09:24:26.000Z</time>
      </trkpt>
      <trkpt lat="47.8538" lon="2.17404">
        <ele>134</ele>
        <time>2013-11-11T09:24:28.000Z</time>
      </trkpt>
      <trkpt lat="47.8538" lon="2.17404">
        <ele>134</ele>
        <time>2013-11-11T09:24:30.000Z</time>
      </trkpt>
      <trkpt lat="47.8538" lon="2.17404">
        <ele>134</ele>
        <time>2013-11-11T09:24:32.000Z</time>
      </trkpt>
      <trkpt lat="47.8538" lon="2.17404">
        <ele>134</ele>
        <time>2013-11-11T09:24:35.000Z</time>
      </trkpt>
      <trkpt lat="47.85416" lon="2.17353">
        <ele>138</ele>
        <time>2013-11-11T09:24:37.000Z</time>
      </trkpt>
      <trkpt lat="47.85424" lon="2.17344">
        <ele>140</ele>
        <time>2013-11-11T09:24:39.000Z</time>
      </trkpt>
      <trkpt lat="47.85431" lon="2.17331">
        <ele>141</ele>
        <time>2013-11-11T09:24:41.000Z</time>
      </trkpt>
      <trkpt lat="47.85438" lon="2.17318">
        <ele>141</ele>
        <time>2013-11-11T09:24:43.000Z</time>
      </trkpt>
      <trkpt lat="47.85447" lon="2.17307">
        <ele>142</ele>
        <time>2013-11-11T09:24:45.000Z</time>
      </trkpt>
      <trkpt lat="47.85455" lon="2.17299">
        <ele>141</ele>
        <time>2013-11-11T09:24:47.000Z</time>
      </trkpt>
      <trkpt lat="47.85464" lon="2.1729">
        <ele>142</ele>
        <time>2013-11-11T09:24:49.000Z</time>
      </trkpt>
      <trkpt lat="47.85472" lon="2.17281">
        <ele>142</ele>
        <time>2013-11-11T09:24:51.000Z</time>
      </trkpt>
      <trkpt lat="47.85481" lon="2.17273">
        <ele>142</ele>
        <time>2013-11-11T09:24:53.000Z</time>
      </trkpt>
      <trkpt lat="47.85488" lon="2.17261">
        <ele>142</ele>
        <time>2013-11-11T09:24:55.000Z</time>
      </trkpt>
      <trkpt lat="47.85488" lon="2.17261">
        <ele>142</ele>
        <time>2013-11-11T09:24:57.000Z</time>
      </trkpt>
      <trkpt lat="47.85488" lon="2.17261">
        <ele>142</ele>
        <time>2013-11-11T09:24:59.000Z</time>
      </trkpt>
      <trkpt lat="47.85488" lon="2.17261">
        <ele>142</ele>
        <time>2013-11-11T09:25:01.000Z</time>
      </trkpt>
      <trkpt lat="47.85488" lon="2.17261">
        <ele>142</ele>
        <time>2013-11-11T09:25:03.000Z</time>
      </trkpt>
      <trkpt lat="47.85488" lon="2.17261">
        <ele>142</ele>
        <time>2013-11-11T09:25:07.000Z</time>
      </trkpt>
      <trkpt lat="47.85488" lon="2.17261">
        <ele>142</ele>
        <time>2013-11-11T09:25:09.000Z</time>
      </trkpt>
      <trkpt lat="47.85523" lon="2.17216">
        <ele>146</ele>
        <time>2013-11-11T09:25:13.000Z</time>
      </trkpt>
      <trkpt lat="47.85543" lon="2.17189">
        <ele>144</ele>
        <time>2013-11-11T09:25:15.000Z</time>
      </trkpt>
      <trkpt lat="47.85558" lon="2.1717">
        <ele>144</ele>
        <time>2013-11-11T09:25:17.000Z</time>
      </trkpt>
      <trkpt lat="47.85567" lon="2.17154">
        <ele>144</ele>
        <time>2013-11-11T09:25:19.000Z</time>
      </trkpt>
      <trkpt lat="47.85575" lon="2.17139">
        <ele>143</ele>
        <time>2013-11-11T09:25:21.000Z</time>
      </trkpt>
      <trkpt lat="47.85589" lon="2.17113">
        <ele>143</ele>
        <time>2013-11-11T09:25:23.000Z</time>
      </trkpt>
      <trkpt lat="47.85589" lon="2.17113">
        <ele>143</ele>
        <time>2013-11-11T09:25:25.000Z</time>
      </trkpt>
      <trkpt lat="47.85589" lon="2.17113">
        <ele>143</ele>
        <time>2013-11-11T09:25:27.000Z</time>
      </trkpt>
      <trkpt lat="47.85589" lon="2.17113">
        <ele>143</ele>
        <time>2013-11-11T09:25:29.000Z</time>
      </trkpt>
      <trkpt lat="47.85589" lon="2.17113">
        <ele>143</ele>
        <time>2013-11-11T09:25:31.000Z</time>
      </trkpt>
      <trkpt lat="47.85589" lon="2.17113">
        <ele>143</ele>
        <time>2013-11-11T09:25:33.000Z</time>
      </trkpt>
      <trkpt lat="47.85589" lon="2.17113">
        <ele>143</ele>
        <time>2013-11-11T09:25:35.000Z</time>
      </trkpt>
      <trkpt lat="47.85638" lon="2.17047">
        <ele>139</ele>
        <time>2013-11-11T09:25:41.000Z</time>
      </trkpt>
      <trkpt lat="47.8565" lon="2.17033">
        <ele>139</ele>
        <time>2013-11-11T09:25:45.000Z</time>
      </trkpt>
      <trkpt lat="47.8565" lon="2.17033">
        <ele>139</ele>
        <time>2013-11-11T09:25:47.000Z</time>
      </trkpt>
      <trkpt lat="47.85667" lon="2.17022">
        <ele>139</ele>
        <time>2013-11-11T09:25:49.000Z</time>
      </trkpt>
      <trkpt lat="47.85677" lon="2.17005">
        <ele>133</ele>
        <time>2013-11-11T09:25:53.000Z</time>
      </trkpt>
      <trkpt lat="47.85677" lon="2.17005">
        <ele>133</ele>
        <time>2013-11-11T09:25:55.000Z</time>
      </trkpt>
      <trkpt lat="47.85677" lon="2.17005">
        <ele>133</ele>
        <time>2013-11-11T09:25:57.000Z</time>
      </trkpt>
      <trkpt lat="47.85695" lon="2.16963">
        <ele>132</ele>
        <time>2013-11-11T09:26:01.000Z</time>
      </trkpt>
      <trkpt lat="47.85695" lon="2.16946">
        <ele>133</ele>
        <time>2013-11-11T09:26:03.000Z</time>
      </trkpt>
      <trkpt lat="47.85695" lon="2.16946">
        <ele>133</ele>
        <time>2013-11-11T09:26:07.000Z</time>
      </trkpt>
      <trkpt lat="47.85695" lon="2.16946">
        <ele>133</ele>
        <time>2013-11-11T09:26:09.000Z</time>
      </trkpt>
      <trkpt lat="47.85695" lon="2.16946">
        <ele>133</ele>
        <time>2013-11-11T09:26:11.000Z</time>
      </trkpt>
      <trkpt lat="47.85695" lon="2.16946">
        <ele>133</ele>
        <time>2013-11-11T09:26:13.000Z</time>
      </trkpt>
      <trkpt lat="47.85695" lon="2.16946">
        <ele>133</ele>
        <time>2013-11-11T09:26:15.000Z</time>
      </trkpt>
      <trkpt lat="47.85695" lon="2.16946">
        <ele>133</ele>
        <time>2013-11-11T09:26:17.000Z</time>
      </trkpt>
      <trkpt lat="47.85695" lon="2.16946">
        <ele>133</ele>
        <time>2013-11-11T09:26:19.000Z</time>
      </trkpt>
      <trkpt lat="47.85718" lon="2.16835">
        <ele>128</ele>
        <time>2013-11-11T09:26:21.000Z</time>
      </trkpt>
      <trkpt lat="47.85719" lon="2.1682">
        <ele>129</ele>
        <time>2013-11-11T09:26:23.000Z</time>
      </trkpt>
      <trkpt lat="47.8572" lon="2.16793">
        <ele>129</ele>
        <time>2013-11-11T09:26:27.000Z</time>
      </trkpt>
      <trkpt lat="47.85728" lon="2.16777">
        <ele>129</ele>
        <time>2013-11-11T09:26:29.000Z</time>
      </trkpt>
      <trkpt lat="47.85727" lon="2.16753">
        <ele>128</ele>
        <time>2013-11-11T09:26:33.000Z</time>
      </trkpt>
      <trkpt lat="47.85727" lon="2.16753">
        <ele>128</ele>
        <time>2013-11-11T09:26:35.000Z</time>
      </trkpt>
      <trkpt lat="47.85727" lon="2.16733">
        <ele>127</ele>
        <time>2013-11-11T09:26:37.000Z</time>
      </trkpt>
      <trkpt lat="47.85727" lon="2.16733">
        <ele>127</ele>
        <time>2013-11-11T09:26:39.000Z</time>
      </trkpt>
      <trkpt lat="47.85726" lon="2.16713">
        <ele>127</ele>
        <time>2013-11-11T09:26:41.000Z</time>
      </trkpt>
      <trkpt lat="47.85729" lon="2.16687">
        <ele>127</ele>
        <time>2013-11-11T09:26:45.000Z</time>
      </trkpt>
      <trkpt lat="47.8574" lon="2.1667">
        <ele>128</ele>
        <time>2013-11-11T09:26:49.000Z</time>
      </trkpt>
      <trkpt lat="47.85765" lon="2.16605">
        <ele>133</ele>
        <time>2013-11-11T09:26:57.000Z</time>
      </trkpt>
      <trkpt lat="47.85769" lon="2.16575">
        <ele>133</ele>
        <time>2013-11-11T09:27:01.000Z</time>
      </trkpt>
      <trkpt lat="47.8577" lon="2.16558">
        <ele>134</ele>
        <time>2013-11-11T09:27:05.000Z</time>
      </trkpt>
      <trkpt lat="47.85771" lon="2.1654">
        <ele>139</ele>
        <time>2013-11-11T09:27:07.000Z</time>
      </trkpt>
      <trkpt lat="47.85772" lon="2.16523">
        <ele>140</ele>
        <time>2013-11-11T09:27:09.000Z</time>
      </trkpt>
      <trkpt lat="47.85773" lon="2.16508">
        <ele>141</ele>
        <time>2013-11-11T09:27:11.000Z</time>
      </trkpt>
      <trkpt lat="47.85773" lon="2.16508">
        <ele>141</ele>
        <time>2013-11-11T09:27:13.000Z</time>
      </trkpt>
      <trkpt lat="47.85773" lon="2.16508">
        <ele>141</ele>
        <time>2013-11-11T09:27:15.000Z</time>
      </trkpt>
      <trkpt lat="47.85773" lon="2.16508">
        <ele>141</ele>
        <time>2013-11-11T09:27:17.000Z</time>
      </trkpt>
      <trkpt lat="47.85773" lon="2.16508">
        <ele>141</ele>
        <time>2013-11-11T09:27:19.000Z</time>
      </trkpt>
      <trkpt lat="47.85773" lon="2.16508">
        <ele>141</ele>
        <time>2013-11-11T09:27:21.000Z</time>
      </trkpt>
      <trkpt lat="47.85773" lon="2.16508">
        <ele>141</ele>
        <time>2013-11-11T09:27:23.000Z</time>
      </trkpt>
      <trkpt lat="47.85773" lon="2.16508">
        <ele>141</ele>
        <time>2013-11-11T09:27:25.000Z</time>
      </trkpt>
      <trkpt lat="47.85773" lon="2.16508">
        <ele>141</ele>
        <time>2013-11-11T09:27:27.000Z</time>
      </trkpt>
      <trkpt lat="47.85773" lon="2.16508">
        <ele>141</ele>
        <time>2013-11-11T09:27:29.000Z</time>
      </trkpt>
      <trkpt lat="47.858" lon="2.16437">
        <ele>144</ele>
        <time>2013-11-11T09:27:33.000Z</time>
      </trkpt>
      <trkpt lat="47.85816" lon="2.16377">
        <ele>144</ele>
        <time>2013-11-11T09:27:37.000Z</time>
      </trkpt>
      <trkpt lat="47.85825" lon="2.16337">
        <ele>140</ele>
        <time>2013-11-11T09:27:39.000Z</time>
      </trkpt>
      <trkpt lat="47.8583" lon="2.16295">
        <ele>140</ele>
        <time>2013-11-11T09:27:42.000Z</time>
      </trkpt>
      <trkpt lat="47.85835" lon="2.16258">
        <ele>138</ele>
        <time>2013-11-11T09:27:45.000Z</time>
      </trkpt>
      <trkpt lat="47.8584" lon="2.162">
        <ele>138</ele>
        <time>2013-11-11T09:27:47.000Z</time>
      </trkpt>
      <trkpt lat="47.85841" lon="2.1618">
        <ele>137</ele>
        <time>2013-11-11T09:27:49.000Z</time>
      </trkpt>
      <trkpt lat="47.85843" lon="2.16159">
        <ele>138</ele>
        <time>2013-11-11T09:27:51.000Z</time>
      </trkpt>
      <trkpt lat="47.85846" lon="2.1614">
        <ele>139</ele>
        <time>2013-11-11T09:27:53.000Z</time>
      </trkpt>
      <trkpt lat="47.85847" lon="2.16122">
        <ele>139</ele>
        <time>2013-11-11T09:27:55.000Z</time>
      </trkpt>
      <trkpt lat="47.85849" lon="2.16104">
        <ele>141</ele>
        <time>2013-11-11T09:27:57.000Z</time>
      </trkpt>
      <trkpt lat="47.85849" lon="2.16104">
        <ele>141</ele>
        <time>2013-11-11T09:27:59.000Z</time>
      </trkpt>
      <trkpt lat="47.85849" lon="2.16104">
        <ele>141</ele>
        <time>2013-11-11T09:28:01.000Z</time>
      </trkpt>
      <trkpt lat="47.85849" lon="2.16104">
        <ele>141</ele>
        <time>2013-11-11T09:28:03.000Z</time>
      </trkpt>
      <trkpt lat="47.85849" lon="2.16104">
        <ele>141</ele>
        <time>2013-11-11T09:28:05.000Z</time>
      </trkpt>
      <trkpt lat="47.85849" lon="2.16104">
        <ele>141</ele>
        <time>2013-11-11T09:28:09.000Z</time>
      </trkpt>
      <trkpt lat="47.85849" lon="2.16104">
        <ele>141</ele>
        <time>2013-11-11T09:28:11.000Z</time>
      </trkpt>
      <trkpt lat="47.85884" lon="2.15908">
        <ele>145</ele>
        <time>2013-11-11T09:28:21.000Z</time>
      </trkpt>
      <trkpt lat="47.85891" lon="2.15892">
        <ele>146</ele>
        <time>2013-11-11T09:28:23.000Z</time>
      </trkpt>
      <trkpt lat="47.85891" lon="2.15892">
        <ele>146</ele>
        <time>2013-11-11T09:28:25.000Z</time>
      </trkpt>
      <trkpt lat="47.85891" lon="2.15892">
        <ele>146</ele>
        <time>2013-11-11T09:28:28.000Z</time>
      </trkpt>
      <trkpt lat="47.85891" lon="2.15892">
        <ele>146</ele>
        <time>2013-11-11T09:28:35.000Z</time>
      </trkpt>
      <trkpt lat="47.85891" lon="2.15892">
        <ele>146</ele>
        <time>2013-11-11T09:28:37.000Z</time>
      </trkpt>
      <trkpt lat="47.85891" lon="2.15892">
        <ele>146</ele>
        <time>2013-11-11T09:28:39.000Z</time>
      </trkpt>
      <trkpt lat="47.85891" lon="2.15892">
        <ele>146</ele>
        <time>2013-11-11T09:28:41.000Z</time>
      </trkpt>
      <trkpt lat="47.85891" lon="2.15892">
        <ele>146</ele>
        <time>2013-11-11T09:28:43.000Z</time>
      </trkpt>
      <trkpt lat="47.85891" lon="2.15892">
        <ele>146</ele>
        <time>2013-11-11T09:28:45.000Z</time>
      </trkpt>
      <trkpt lat="47.85891" lon="2.15892">
        <ele>146</ele>
        <time>2013-11-11T09:28:47.000Z</time>
      </trkpt>
      <trkpt lat="47.85891" lon="2.15892">
        <ele>146</ele>
        <time>2013-11-11T09:28:50.000Z</time>
      </trkpt>
      <trkpt lat="47.85909" lon="2.15665">
        <ele>152</ele>
        <time>2013-11-11T09:28:56.000Z</time>
      </trkpt>
      <trkpt lat="47.85909" lon="2.15651">
        <ele>151</ele>
        <time>2013-11-11T09:28:58.000Z</time>
      </trkpt>
      <trkpt lat="47.85916" lon="2.15636">
        <ele>152</ele>
        <time>2013-11-11T09:29:00.000Z</time>
      </trkpt>
      <trkpt lat="47.85918" lon="2.15609">
        <ele>149</ele>
        <time>2013-11-11T09:29:04.000Z</time>
      </trkpt>
      <trkpt lat="47.85911" lon="2.15598">
        <ele>140</ele>
        <time>2013-11-11T09:29:06.000Z</time>
      </trkpt>
      <trkpt lat="47.85915" lon="2.15582">
        <ele>139</ele>
        <time>2013-11-11T09:29:08.000Z</time>
      </trkpt>
      <trkpt lat="47.85918" lon="2.15568">
        <ele>139</ele>
        <time>2013-11-11T09:29:10.000Z</time>
      </trkpt>
      <trkpt lat="47.8592" lon="2.15553">
        <ele>140</ele>
        <time>2013-11-11T09:29:12.000Z</time>
      </trkpt>
      <trkpt lat="47.8592" lon="2.15553">
        <ele>140</ele>
        <time>2013-11-11T09:29:14.000Z</time>
      </trkpt>
      <trkpt lat="47.8592" lon="2.15553">
        <ele>140</ele>
        <time>2013-11-11T09:29:16.000Z</time>
      </trkpt>
      <trkpt lat="47.8592" lon="2.15553">
        <ele>140</ele>
        <time>2013-11-11T09:29:18.000Z</time>
      </trkpt>
      <trkpt lat="47.85939" lon="2.15495">
        <ele>140</ele>
        <time>2013-11-11T09:29:21.000Z</time>
      </trkpt>
      <trkpt lat="47.85942" lon="2.15482">
        <ele>138</ele>
        <time>2013-11-11T09:29:23.000Z</time>
      </trkpt>
      <trkpt lat="47.85949" lon="2.1547">
        <ele>137</ele>
        <time>2013-11-11T09:29:25.000Z</time>
      </trkpt>
      <trkpt lat="47.85955" lon="2.15455">
        <ele>136</ele>
        <time>2013-11-11T09:29:27.000Z</time>
      </trkpt>
      <trkpt lat="47.85955" lon="2.15455">
        <ele>136</ele>
        <time>2013-11-11T09:29:29.000Z</time>
      </trkpt>
      <trkpt lat="47.85966" lon="2.15429">
        <ele>135</ele>
        <time>2013-11-11T09:29:31.000Z</time>
      </trkpt>
      <trkpt lat="47.8598" lon="2.1542">
        <ele>131</ele>
        <time>2013-11-11T09:29:33.000Z</time>
      </trkpt>
      <trkpt lat="47.85991" lon="2.15404">
        <ele>133</ele>
        <time>2013-11-11T09:29:36.000Z</time>
      </trkpt>
      <trkpt lat="47.85991" lon="2.15404">
        <ele>133</ele>
        <time>2013-11-11T09:29:38.000Z</time>
      </trkpt>
      <trkpt lat="47.85991" lon="2.15404">
        <ele>133</ele>
        <time>2013-11-11T09:29:41.000Z</time>
      </trkpt>
      <trkpt lat="47.85991" lon="2.15404">
        <ele>133</ele>
        <time>2013-11-11T09:29:43.000Z</time>
      </trkpt>
      <trkpt lat="47.85991" lon="2.15404">
        <ele>133</ele>
        <time>2013-11-11T09:29:45.000Z</time>
      </trkpt>
      <trkpt lat="47.85991" lon="2.15404">
        <ele>133</ele>
        <time>2013-11-11T09:29:47.000Z</time>
      </trkpt>
      <trkpt lat="47.85991" lon="2.15404">
        <ele>133</ele>
        <time>2013-11-11T09:29:49.000Z</time>
      </trkpt>
      <trkpt lat="47.85991" lon="2.15404">
        <ele>133</ele>
        <time>2013-11-11T09:29:51.000Z</time>
      </trkpt>
      <trkpt lat="47.85991" lon="2.15404">
        <ele>133</ele>
        <time>2013-11-11T09:29:55.000Z</time>
      </trkpt>
      <trkpt lat="47.85991" lon="2.15404">
        <ele>133</ele>
        <time>2013-11-11T09:29:57.000Z</time>
      </trkpt>
      <trkpt lat="47.85991" lon="2.15404">
        <ele>133</ele>
        <time>2013-11-11T09:29:59.000Z</time>
      </trkpt>
      <trkpt lat="47.85991" lon="2.15404">
        <ele>133</ele>
        <time>2013-11-11T09:30:01.000Z</time>
      </trkpt>
      <trkpt lat="47.85991" lon="2.15404">
        <ele>133</ele>
        <time>2013-11-11T09:30:03.000Z</time>
      </trkpt>
      <trkpt lat="47.85991" lon="2.15404">
        <ele>133</ele>
        <time>2013-11-11T09:30:05.000Z</time>
      </trkpt>
      <trkpt lat="47.85991" lon="2.15404">
        <ele>133</ele>
        <time>2013-11-11T09:30:07.000Z</time>
      </trkpt>
      <trkpt lat="47.85991" lon="2.15404">
        <ele>133</ele>
        <time>2013-11-11T09:30:09.000Z</time>
      </trkpt>
      <trkpt lat="47.85991" lon="2.15404">
        <ele>133</ele>
        <time>2013-11-11T09:30:11.000Z</time>
      </trkpt>
      <trkpt lat="47.85991" lon="2.15404">
        <ele>133</ele>
        <time>2013-11-11T09:30:13.000Z</time>
      </trkpt>
      <trkpt lat="47.85991" lon="2.15404">
        <ele>133</ele>
        <time>2013-11-11T09:30:15.000Z</time>
      </trkpt>
      <trkpt lat="47.86013" lon="2.15285">
        <ele>143</ele>
        <time>2013-11-11T09:30:18.000Z</time>
      </trkpt>
      <trkpt lat="47.86024" lon="2.15218">
        <ele>141</ele>
        <time>2013-11-11T09:30:20.000Z</time>
      </trkpt>
      <trkpt lat="47.86031" lon="2.15178">
        <ele>141</ele>
        <time>2013-11-11T09:30:22.000Z</time>
      </trkpt>
      <trkpt lat="47.86035" lon="2.15153">
        <ele>142</ele>
        <time>2013-11-11T09:30:24.000Z</time>
      </trkpt>
      <trkpt lat="47.86038" lon="2.15136">
        <ele>141</ele>
        <time>2013-11-11T09:30:26.000Z</time>
      </trkpt>
      <trkpt lat="47.86038" lon="2.15136">
        <ele>141</ele>
        <time>2013-11-11T09:30:28.000Z</time>
      </trkpt>
      <trkpt lat="47.86038" lon="2.15136">
        <ele>141</ele>
        <time>2013-11-11T09:30:30.000Z</time>
      </trkpt>
      <trkpt lat="47.86038" lon="2.15136">
        <ele>141</ele>
        <time>2013-11-11T09:30:32.000Z</time>
      </trkpt>
      <trkpt lat="47.86038" lon="2.15136">
        <ele>141</ele>
        <time>2013-11-11T09:30:34.000Z</time>
      </trkpt>
      <trkpt lat="47.86047" lon="2.15062">
        <ele>136</ele>
        <time>2013-11-11T09:30:36.000Z</time>
      </trkpt>
      <trkpt lat="47.8605" lon="2.15049">
        <ele>135</ele>
        <time>2013-11-11T09:30:38.000Z</time>
      </trkpt>
      <trkpt lat="47.86053" lon="2.15027">
        <ele>135</ele>
        <time>2013-11-11T09:30:42.000Z</time>
      </trkpt>
      <trkpt lat="47.86053" lon="2.15027">
        <ele>135</ele>
        <time>2013-11-11T09:30:44.000Z</time>
      </trkpt>
      <trkpt lat="47.86053" lon="2.15027">
        <ele>135</ele>
        <time>2013-11-11T09:30:46.000Z</time>
      </trkpt>
      <trkpt lat="47.86053" lon="2.15027">
        <ele>135</ele>
        <time>2013-11-11T09:30:49.000Z</time>
      </trkpt>
      <trkpt lat="47.86053" lon="2.15027">
        <ele>135</ele>
        <time>2013-11-11T09:30:51.000Z</time>
      </trkpt>
      <trkpt lat="47.86053" lon="2.15027">
        <ele>135</ele>
        <time>2013-11-11T09:30:53.000Z</time>
      </trkpt>
      <trkpt lat="47.86115" lon="2.14939">
        <ele>139</ele>
        <time>2013-11-11T09:31:02.000Z</time>
      </trkpt>
      <trkpt lat="47.86126" lon="2.14921">
        <ele>140</ele>
        <time>2013-11-11T09:31:06.000Z</time>
      </trkpt>
      <trkpt lat="47.86135" lon="2.14913">
        <ele>142</ele>
        <time>2013-11-11T09:31:08.000Z</time>
      </trkpt>
      <trkpt lat="47.86147" lon="2.14906">
        <ele>135</ele>
        <time>2013-11-11T09:31:10.000Z</time>
      </trkpt>
      <trkpt lat="47.8616" lon="2.14891">
        <ele>137</ele>
        <time>2013-11-11T09:31:14.000Z</time>
      </trkpt>
      <trkpt lat="47.8617" lon="2.14885">
        <ele>132</ele>
        <time>2013-11-11T09:31:16.000Z</time>
      </trkpt>
      <trkpt lat="47.8617" lon="2.14885">
        <ele>132</ele>
        <time>2013-11-11T09:31:18.000Z</time>
      </trkpt>
      <trkpt lat="47.86171" lon="2.14858">
        <ele>133</ele>
        <time>2013-11-11T09:31:20.000Z</time>
      </trkpt>
      <trkpt lat="47.86171" lon="2.14858">
        <ele>133</ele>
        <time>2013-11-11T09:31:22.000Z</time>
      </trkpt>
      <trkpt lat="47.86171" lon="2.14858">
        <ele>133</ele>
        <time>2013-11-11T09:31:24.000Z</time>
      </trkpt>
      <trkpt lat="47.86171" lon="2.14858">
        <ele>133</ele>
        <time>2013-11-11T09:31:26.000Z</time>
      </trkpt>
      <trkpt lat="47.86171" lon="2.14858">
        <ele>133</ele>
        <time>2013-11-11T09:31:28.000Z</time>
      </trkpt>
      <trkpt lat="47.86171" lon="2.14858">
        <ele>133</ele>
        <time>2013-11-11T09:31:30.000Z</time>
      </trkpt>
      <trkpt lat="47.86171" lon="2.14858">
        <ele>133</ele>
        <time>2013-11-11T09:31:32.000Z</time>
      </trkpt>
      <trkpt lat="47.86171" lon="2.14858">
        <ele>133</ele>
        <time>2013-11-11T09:31:39.000Z</time>
      </trkpt>
      <trkpt lat="47.86171" lon="2.14858">
        <ele>133</ele>
        <time>2013-11-11T09:31:41.000Z</time>
      </trkpt>
      <trkpt lat="47.86194" lon="2.14728">
        <ele>144</ele>
        <time>2013-11-11T09:31:47.000Z</time>
      </trkpt>
      <trkpt lat="47.86198" lon="2.1471">
        <ele>146</ele>
        <time>2013-11-11T09:31:49.000Z</time>
      </trkpt>
      <trkpt lat="47.86203" lon="2.1469">
        <ele>145</ele>
        <time>2013-11-11T09:31:51.000Z</time>
      </trkpt>
      <trkpt lat="47.86208" lon="2.14672">
        <ele>144</ele>
        <time>2013-11-11T09:31:53.000Z</time>
      </trkpt>
      <trkpt lat="47.86213" lon="2.14652">
        <ele>144</ele>
        <time>2013-11-11T09:31:55.000Z</time>
      </trkpt>
      <trkpt lat="47.86217" lon="2.14635">
        <ele>144</ele>
        <time>2013-11-11T09:31:57.000Z</time>
      </trkpt>
      <trkpt lat="47.86226" lon="2.14622">
        <ele>143</ele>
        <time>2013-11-11T09:31:59.000Z</time>
      </trkpt>
      <trkpt lat="47.86233" lon="2.14614">
        <ele>144</ele>
        <time>2013-11-11T09:32:01.000Z</time>
      </trkpt>
      <trkpt lat="47.86233" lon="2.14614">
        <ele>144</ele>
        <time>2013-11-11T09:32:03.000Z</time>
      </trkpt>
      <trkpt lat="47.86233" lon="2.14614">
        <ele>144</ele>
        <time>2013-11-11T09:32:05.000Z</time>
      </trkpt>
      <trkpt lat="47.86233" lon="2.14614">
        <ele>144</ele>
        <time>2013-11-11T09:32:07.000Z</time>
      </trkpt>
      <trkpt lat="47.86233" lon="2.14614">
        <ele>144</ele>
        <time>2013-11-11T09:32:09.000Z</time>
      </trkpt>
      <trkpt lat="47.86255" lon="2.14574">
        <ele>145</ele>
        <time>2013-11-11T09:32:15.000Z</time>
      </trkpt>
      <trkpt lat="47.86268" lon="2.14548">
        <ele>146</ele>
        <time>2013-11-11T09:32:17.000Z</time>
      </trkpt>
      <trkpt lat="47.86277" lon="2.14528">
        <ele>145</ele>
        <time>2013-11-11T09:32:19.000Z</time>
      </trkpt>
      <trkpt lat="47.86284" lon="2.14512">
        <ele>145</ele>
        <time>2013-11-11T09:32:21.000Z</time>
      </trkpt>
      <trkpt lat="47.86289" lon="2.14496">
        <ele>145</ele>
        <time>2013-11-11T09:32:23.000Z</time>
      </trkpt>
      <trkpt lat="47.86289" lon="2.14496">
        <ele>145</ele>
        <time>2013-11-11T09:32:25.000Z</time>
      </trkpt>
      <trkpt lat="47.86316" lon="2.14428">
        <ele>144</ele>
        <time>2013-11-11T09:32:31.000Z</time>
      </trkpt>
      <trkpt lat="47.86321" lon="2.14416">
        <ele>145</ele>
        <time>2013-11-11T09:32:33.000Z</time>
      </trkpt>
      <trkpt lat="47.86327" lon="2.144">
        <ele>146</ele>
        <time>2013-11-11T09:32:35.000Z</time>
      </trkpt>
      <trkpt lat="47.86332" lon="2.14386">
        <ele>146</ele>
        <time>2013-11-11T09:32:37.000Z</time>
      </trkpt>
      <trkpt lat="47.86336" lon="2.14373">
        <ele>146</ele>
        <time>2013-11-11T09:32:39.000Z</time>
      </trkpt>
      <trkpt lat="47.8634" lon="2.14358">
        <ele>146</ele>
        <time>2013-11-11T09:32:41.000Z</time>
      </trkpt>
      <trkpt lat="47.8634" lon="2.14358">
        <ele>146</ele>
        <time>2013-11-11T09:32:43.000Z</time>
      </trkpt>
      <trkpt lat="47.8634" lon="2.14358">
        <ele>146</ele>
        <time>2013-11-11T09:32:45.000Z</time>
      </trkpt>
      <trkpt lat="47.8634" lon="2.14358">
        <ele>146</ele>
        <time>2013-11-11T09:32:47.000Z</time>
      </trkpt>
      <trkpt lat="47.8634" lon="2.14358">
        <ele>146</ele>
        <time>2013-11-11T09:32:49.000Z</time>
      </trkpt>
      <trkpt lat="47.86374" lon="2.1428">
        <ele>147</ele>
        <time>2013-11-11T09:32:53.000Z</time>
      </trkpt>
      <trkpt lat="47.86377" lon="2.14265">
        <ele>146</ele>
        <time>2013-11-11T09:32:55.000Z</time>
      </trkpt>
      <trkpt lat="47.86383" lon="2.14252">
        <ele>147</ele>
        <time>2013-11-11T09:32:57.000Z</time>
      </trkpt>
      <trkpt lat="47.86387" lon="2.1424">
        <ele>146</ele>
        <time>2013-11-11T09:32:59.000Z</time>
      </trkpt>
      <trkpt lat="47.86387" lon="2.1424">
        <ele>146</ele>
        <time>2013-11-11T09:33:01.000Z</time>
      </trkpt>
      <trkpt lat="47.86412" lon="2.14167">
        <ele>147</ele>
        <time>2013-11-11T09:33:09.000Z</time>
      </trkpt>
      <trkpt lat="47.86419" lon="2.14153">
        <ele>146</ele>
        <time>2013-11-11T09:33:11.000Z</time>
      </trkpt>
      <trkpt lat="47.86424" lon="2.14138">
        <ele>146</ele>
        <time>2013-11-11T09:33:13.000Z</time>
      </trkpt>
      <trkpt lat="47.86431" lon="2.14121">
        <ele>146</ele>
        <time>2013-11-11T09:33:15.000Z</time>
      </trkpt>
      <trkpt lat="47.86437" lon="2.14105">
        <ele>146</ele>
        <time>2013-11-11T09:33:17.000Z</time>
      </trkpt>
      <trkpt lat="47.86442" lon="2.14091">
        <ele>146</ele>
        <time>2013-11-11T09:33:19.000Z</time>
      </trkpt>
      <trkpt lat="47.86448" lon="2.14077">
        <ele>146</ele>
        <time>2013-11-11T09:33:21.000Z</time>
      </trkpt>
      <trkpt lat="47.86452" lon="2.14062">
        <ele>146</ele>
        <time>2013-11-11T09:33:23.000Z</time>
      </trkpt>
      <trkpt lat="47.86456" lon="2.14046">
        <ele>146</ele>
        <time>2013-11-11T09:33:25.000Z</time>
      </trkpt>
      <trkpt lat="47.86462" lon="2.14033">
        <ele>146</ele>
        <time>2013-11-11T09:33:27.000Z</time>
      </trkpt>
      <trkpt lat="47.86462" lon="2.14033">
        <ele>146</ele>
        <time>2013-11-11T09:33:29.000Z</time>
      </trkpt>
      <trkpt lat="47.86462" lon="2.14033">
        <ele>146</ele>
        <time>2013-11-11T09:33:31.000Z</time>
      </trkpt>
      <trkpt lat="47.86462" lon="2.14033">
        <ele>146</ele>
        <time>2013-11-11T09:33:33.000Z</time>
      </trkpt>
      <trkpt lat="47.86462" lon="2.14033">
        <ele>146</ele>
        <time>2013-11-11T09:33:35.000Z</time>
      </trkpt>
      <trkpt lat="47.86462" lon="2.14033">
        <ele>146</ele>
        <time>2013-11-11T09:33:37.000Z</time>
      </trkpt>
      <trkpt lat="47.86462" lon="2.14033">
        <ele>146</ele>
        <time>2013-11-11T09:33:39.000Z</time>
      </trkpt>
      <trkpt lat="47.86462" lon="2.14033">
        <ele>146</ele>
        <time>2013-11-11T09:33:41.000Z</time>
      </trkpt>
      <trkpt lat="47.86462" lon="2.14033">
        <ele>146</ele>
        <time>2013-11-11T09:33:43.000Z</time>
      </trkpt>
      <trkpt lat="47.86462" lon="2.14033">
        <ele>146</ele>
        <time>2013-11-11T09:33:51.000Z</time>
      </trkpt>
      <trkpt lat="47.86462" lon="2.14033">
        <ele>146</ele>
        <time>2013-11-11T09:33:53.000Z</time>
      </trkpt>
      <trkpt lat="47.86554" lon="2.13863">
        <ele>138</ele>
        <time>2013-11-11T09:33:58.000Z</time>
      </trkpt>
      <trkpt lat="47.86567" lon="2.13854">
        <ele>135</ele>
        <time>2013-11-11T09:34:00.000Z</time>
      </trkpt>
      <trkpt lat="47.86576" lon="2.13836">
        <ele>135</ele>
        <time>2013-11-11T09:34:02.000Z</time>
      </trkpt>
      <trkpt lat="47.8658" lon="2.13817">
        <ele>136</ele>
        <time>2013-11-11T09:34:04.000Z</time>
      </trkpt>
      <trkpt lat="47.86587" lon="2.13795">
        <ele>141</ele>
        <time>2013-11-11T09:34:06.000Z</time>
      </trkpt>
      <trkpt lat="47.86589" lon="2.13776">
        <ele>143</ele>
        <time>2013-11-11T09:34:08.000Z</time>
      </trkpt>
      <trkpt lat="47.86596" lon="2.13767">
        <ele>144</ele>
        <time>2013-11-11T09:34:10.000Z</time>
      </trkpt>
      <trkpt lat="47.86596" lon="2.13767">
        <ele>144</ele>
        <time>2013-11-11T09:34:12.000Z</time>
      </trkpt>
      <trkpt lat="47.86596" lon="2.13767">
        <ele>144</ele>
        <time>2013-11-11T09:34:14.000Z</time>
      </trkpt>
      <trkpt lat="47.86596" lon="2.13767">
        <ele>144</ele>
        <time>2013-11-11T09:34:16.000Z</time>
      </trkpt>
      <trkpt lat="47.86596" lon="2.13767">
        <ele>144</ele>
        <time>2013-11-11T09:34:18.000Z</time>
      </trkpt>
      <trkpt lat="47.86596" lon="2.13767">
        <ele>144</ele>
        <time>2013-11-11T09:34:20.000Z</time>
      </trkpt>
      <trkpt lat="47.86596" lon="2.13767">
        <ele>144</ele>
        <time>2013-11-11T09:34:22.000Z</time>
      </trkpt>
      <trkpt lat="47.86596" lon="2.13767">
        <ele>144</ele>
        <time>2013-11-11T09:34:24.000Z</time>
      </trkpt>
      <trkpt lat="47.86596" lon="2.13767">
        <ele>144</ele>
        <time>2013-11-11T09:34:26.000Z</time>
      </trkpt>
      <trkpt lat="47.86596" lon="2.13767">
        <ele>144</ele>
        <time>2013-11-11T09:34:28.000Z</time>
      </trkpt>
      <trkpt lat="47.86596" lon="2.13767">
        <ele>144</ele>
        <time>2013-11-11T09:34:30.000Z</time>
      </trkpt>
      <trkpt lat="47.86596" lon="2.13767">
        <ele>144</ele>
        <time>2013-11-11T09:34:32.000Z</time>
      </trkpt>
      <trkpt lat="47.86596" lon="2.13767">
        <ele>144</ele>
        <time>2013-11-11T09:34:34.000Z</time>
      </trkpt>
      <trkpt lat="47.86596" lon="2.13767">
        <ele>144</ele>
        <time>2013-11-11T09:34:36.000Z</time>
      </trkpt>
      <trkpt lat="47.86635" lon="2.13698">
        <ele>130</ele>
        <time>2013-11-11T09:34:39.000Z</time>
      </trkpt>
      <trkpt lat="47.86661" lon="2.13659">
        <ele>127</ele>
        <time>2013-11-11T09:34:42.000Z</time>
      </trkpt>
      <trkpt lat="47.86676" lon="2.13637">
        <ele>126</ele>
        <time>2013-11-11T09:34:44.000Z</time>
      </trkpt>
      <trkpt lat="47.86686" lon="2.13621">
        <ele>125</ele>
        <time>2013-11-11T09:34:46.000Z</time>
      </trkpt>
      <trkpt lat="47.86686" lon="2.13621">
        <ele>125</ele>
        <time>2013-11-11T09:34:48.000Z</time>
      </trkpt>
      <trkpt lat="47.86686" lon="2.13621">
        <ele>125</ele>
        <time>2013-11-11T09:34:51.000Z</time>
      </trkpt>
      <trkpt lat="47.86695" lon="2.13585">
        <ele>131</ele>
        <time>2013-11-11T09:34:53.000Z</time>
      </trkpt>
      <trkpt lat="47.86701" lon="2.13561">
        <ele>134</ele>
        <time>2013-11-11T09:34:55.000Z</time>
      </trkpt>
      <trkpt lat="47.86704" lon="2.13541">
        <ele>136</ele>
        <time>2013-11-11T09:34:57.000Z</time>
      </trkpt>
      <trkpt lat="47.8671" lon="2.13526">
        <ele>140</ele>
        <time>2013-11-11T09:34:59.000Z</time>
      </trkpt>
      <trkpt lat="47.86715" lon="2.13514">
        <ele>141</ele>
        <time>2013-11-11T09:35:01.000Z</time>
      </trkpt>
      <trkpt lat="47.86722" lon="2.13492">
        <ele>139</ele>
        <time>2013-11-11T09:35:03.000Z</time>
      </trkpt>
      <trkpt lat="47.86725" lon="2.13465">
        <ele>147</ele>
        <time>2013-11-11T09:35:06.000Z</time>
      </trkpt>
      <trkpt lat="47.86729" lon="2.13451">
        <ele>150</ele>
        <time>2013-11-11T09:35:08.000Z</time>
      </trkpt>
      <trkpt lat="47.86739" lon="2.13427">
        <ele>152</ele>
        <time>2013-11-11T09:35:12.000Z</time>
      </trkpt>
      <trkpt lat="47.86739" lon="2.13427">
        <ele>152</ele>
        <time>2013-11-11T09:35:14.000Z</time>
      </trkpt>
      <trkpt lat="47.86739" lon="2.13427">
        <ele>152</ele>
        <time>2013-11-11T09:35:16.000Z</time>
      </trkpt>
      <trkpt lat="47.86739" lon="2.13427">
        <ele>152</ele>
        <time>2013-11-11T09:35:18.000Z</time>
      </trkpt>
      <trkpt lat="47.86739" lon="2.13427">
        <ele>152</ele>
        <time>2013-11-11T09:35:20.000Z</time>
      </trkpt>
      <trkpt lat="47.86739" lon="2.13427">
        <ele>152</ele>
        <time>2013-11-11T09:35:22.000Z</time>
      </trkpt>
      <trkpt lat="47.86739" lon="2.13427">
        <ele>152</ele>
        <time>2013-11-11T09:35:24.000Z</time>
      </trkpt>
      <trkpt lat="47.86739" lon="2.13427">
        <ele>152</ele>
        <time>2013-11-11T09:35:26.000Z</time>
      </trkpt>
      <trkpt lat="47.86739" lon="2.13427">
        <ele>152</ele>
        <time>2013-11-11T09:35:28.000Z</time>
      </trkpt>
      <trkpt lat="47.86739" lon="2.13427">
        <ele>152</ele>
        <time>2013-11-11T09:35:30.000Z</time>
      </trkpt>
      <trkpt lat="47.8677" lon="2.13337">
        <ele>154</ele>
        <time>2013-11-11T09:35:36.000Z</time>
      </trkpt>
      <trkpt lat="47.8677" lon="2.13337">
        <ele>154</ele>
        <time>2013-11-11T09:35:38.000Z</time>
      </trkpt>
      <trkpt lat="47.8677" lon="2.13337">
        <ele>154</ele>
        <time>2013-11-11T09:35:40.000Z</time>
      </trkpt>
      <trkpt lat="47.8677" lon="2.13337">
        <ele>154</ele>
        <time>2013-11-11T09:35:42.000Z</time>
      </trkpt>
      <trkpt lat="47.8677" lon="2.13337">
        <ele>154</ele>
        <time>2013-11-11T09:35:44.000Z</time>
      </trkpt>
      <trkpt lat="47.86785" lon="2.13286">
        <ele>152</ele>
        <time>2013-11-11T09:35:50.000Z</time>
      </trkpt>
      <trkpt lat="47.8679" lon="2.1327">
        <ele>151</ele>
        <time>2013-11-11T09:35:54.000Z</time>
      </trkpt>
      <trkpt lat="47.8679" lon="2.1327">
        <ele>151</ele>
        <time>2013-11-11T09:35:56.000Z</time>
      </trkpt>
      <trkpt lat="47.86798" lon="2.13255">
        <ele>151</ele>
        <time>2013-11-11T09:35:58.000Z</time>
      </trkpt>
      <trkpt lat="47.86804" lon="2.13224">
        <ele>150</ele>
        <time>2013-11-11T09:36:03.000Z</time>
      </trkpt>
      <trkpt lat="47.8681" lon="2.13212">
        <ele>149</ele>
        <time>2013-11-11T09:36:05.000Z</time>
      </trkpt>
      <trkpt lat="47.86813" lon="2.13195">
        <ele>153</ele>
        <time>2013-11-11T09:36:09.000Z</time>
      </trkpt>
      <trkpt lat="47.86813" lon="2.13195">
        <ele>153</ele>
        <time>2013-11-11T09:36:11.000Z</time>
      </trkpt>
      <trkpt lat="47.86813" lon="2.13195">
        <ele>153</ele>
        <time>2013-11-11T09:36:13.000Z</time>
      </trkpt>
      <trkpt lat="47.86813" lon="2.13195">
        <ele>153</ele>
        <time>2013-11-11T09:36:15.000Z</time>
      </trkpt>
      <trkpt lat="47.86834" lon="2.13162">
        <ele>153</ele>
        <time>2013-11-11T09:36:19.000Z</time>
      </trkpt>
      <trkpt lat="47.86837" lon="2.13149">
        <ele>153</ele>
        <time>2013-11-11T09:36:21.000Z</time>
      </trkpt>
      <trkpt lat="47.86844" lon="2.13127">
        <ele>152</ele>
        <time>2013-11-11T09:36:25.000Z</time>
      </trkpt>
      <trkpt lat="47.86853" lon="2.13106">
        <ele>154</ele>
        <time>2013-11-11T09:36:28.000Z</time>
      </trkpt>
      <trkpt lat="47.86863" lon="2.13085">
        <ele>153</ele>
        <time>2013-11-11T09:36:32.000Z</time>
      </trkpt>
      <trkpt lat="47.86872" lon="2.13063">
        <ele>152</ele>
        <time>2013-11-11T09:36:36.000Z</time>
      </trkpt>
      <trkpt lat="47.86878" lon="2.1305">
        <ele>153</ele>
        <time>2013-11-11T09:36:38.000Z</time>
      </trkpt>
      <trkpt lat="47.86881" lon="2.13038">
        <ele>152</ele>
        <time>2013-11-11T09:36:42.000Z</time>
      </trkpt>
      <trkpt lat="47.86885" lon="2.13027">
        <ele>152</ele>
        <time>2013-11-11T09:36:44.000Z</time>
      </trkpt>
      <trkpt lat="47.86885" lon="2.13027">
        <ele>152</ele>
        <time>2013-11-11T09:36:46.000Z</time>
      </trkpt>
      <trkpt lat="47.86885" lon="2.13027">
        <ele>152</ele>
        <time>2013-11-11T09:36:48.000Z</time>
      </trkpt>
      <trkpt lat="47.86885" lon="2.13027">
        <ele>152</ele>
        <time>2013-11-11T09:36:50.000Z</time>
      </trkpt>
      <trkpt lat="47.86885" lon="2.13027">
        <ele>152</ele>
        <time>2013-11-11T09:36:52.000Z</time>
      </trkpt>
      <trkpt lat="47.86885" lon="2.13027">
        <ele>152</ele>
        <time>2013-11-11T09:36:54.000Z</time>
      </trkpt>
      <trkpt lat="47.86901" lon="2.12987">
        <ele>153</ele>
        <time>2013-11-11T09:36:56.000Z</time>
      </trkpt>
      <trkpt lat="47.86913" lon="2.12961">
        <ele>154</ele>
        <time>2013-11-11T09:36:58.000Z</time>
      </trkpt>
      <trkpt lat="47.86921" lon="2.12942">
        <ele>154</ele>
        <time>2013-11-11T09:37:00.000Z</time>
      </trkpt>
      <trkpt lat="47.86927" lon="2.12926">
        <ele>154</ele>
        <time>2013-11-11T09:37:02.000Z</time>
      </trkpt>
      <trkpt lat="47.86931" lon="2.12912">
        <ele>154</ele>
        <time>2013-11-11T09:37:04.000Z</time>
      </trkpt>
      <trkpt lat="47.86943" lon="2.12886">
        <ele>152</ele>
        <time>2013-11-11T09:37:06.000Z</time>
      </trkpt>
      <trkpt lat="47.86943" lon="2.12886">
        <ele>152</ele>
        <time>2013-11-11T09:37:08.000Z</time>
      </trkpt>
      <trkpt lat="47.86943" lon="2.12886">
        <ele>152</ele>
        <time>2013-11-11T09:37:10.000Z</time>
      </trkpt>
      <trkpt lat="47.86943" lon="2.12886">
        <ele>152</ele>
        <time>2013-11-11T09:37:12.000Z</time>
      </trkpt>
      <trkpt lat="47.86943" lon="2.12886">
        <ele>152</ele>
        <time>2013-11-11T09:37:16.000Z</time>
      </trkpt>
      <trkpt lat="47.86943" lon="2.12886">
        <ele>152</ele>
        <time>2013-11-11T09:37:18.000Z</time>
      </trkpt>
      <trkpt lat="47.86943" lon="2.12886">
        <ele>152</ele>
        <time>2013-11-11T09:37:20.000Z</time>
      </trkpt>
      <trkpt lat="47.86977" lon="2.12793">
        <ele>151</ele>
        <time>2013-11-11T09:37:22.000Z</time>
      </trkpt>
      <trkpt lat="47.86983" lon="2.1278">
        <ele>151</ele>
        <time>2013-11-11T09:37:24.000Z</time>
      </trkpt>
      <trkpt lat="47.8699" lon="2.12771">
        <ele>150</ele>
        <time>2013-11-11T09:37:26.000Z</time>
      </trkpt>
      <trkpt lat="47.86995" lon="2.12759">
        <ele>149</ele>
        <time>2013-11-11T09:37:28.000Z</time>
      </trkpt>
      <trkpt lat="47.87" lon="2.12746">
        <ele>149</ele>
        <time>2013-11-11T09:37:30.000Z</time>
      </trkpt>
      <trkpt lat="47.87006" lon="2.12735">
        <ele>149</ele>
        <time>2013-11-11T09:37:32.000Z</time>
      </trkpt>
      <trkpt lat="47.87006" lon="2.12735">
        <ele>149</ele>
        <time>2013-11-11T09:37:34.000Z</time>
      </trkpt>
      <trkpt lat="47.87006" lon="2.12735">
        <ele>149</ele>
        <time>2013-11-11T09:37:36.000Z</time>
      </trkpt>
      <trkpt lat="47.87006" lon="2.12735">
        <ele>149</ele>
        <time>2013-11-11T09:37:38.000Z</time>
      </trkpt>
      <trkpt lat="47.87006" lon="2.12735">
        <ele>149</ele>
        <time>2013-11-11T09:37:40.000Z</time>
      </trkpt>
      <trkpt lat="47.87006" lon="2.12735">
        <ele>149</ele>
        <time>2013-11-11T09:37:42.000Z</time>
      </trkpt>
      <trkpt lat="47.87006" lon="2.12735">
        <ele>149</ele>
        <time>2013-11-11T09:37:44.000Z</time>
      </trkpt>
      <trkpt lat="47.87006" lon="2.12735">
        <ele>149</ele>
        <time>2013-11-11T09:37:50.000Z</time>
      </trkpt>
      <trkpt lat="47.87006" lon="2.12735">
        <ele>149</ele>
        <time>2013-11-11T09:37:52.000Z</time>
      </trkpt>
      <trkpt lat="47.87006" lon="2.12735">
        <ele>149</ele>
        <time>2013-11-11T09:37:54.000Z</time>
      </trkpt>
      <trkpt lat="47.87006" lon="2.12735">
        <ele>149</ele>
        <time>2013-11-11T09:37:56.000Z</time>
      </trkpt>
      <trkpt lat="47.87006" lon="2.12735">
        <ele>149</ele>
        <time>2013-11-11T09:37:58.000Z</time>
      </trkpt>
      <trkpt lat="47.87006" lon="2.12735">
        <ele>149</ele>
        <time>2013-11-11T09:38:00.000Z</time>
      </trkpt>
      <trkpt lat="47.87004" lon="2.12574">
        <ele>150</ele>
        <time>2013-11-11T09:38:04.000Z</time>
      </trkpt>
      <trkpt lat="47.86995" lon="2.12569">
        <ele>151</ele>
        <time>2013-11-11T09:38:06.000Z</time>
      </trkpt>
      <trkpt lat="47.86986" lon="2.12564">
        <ele>151</ele>
        <time>2013-11-11T09:38:08.000Z</time>
      </trkpt>
      <trkpt lat="47.86977" lon="2.12557">
        <ele>152</ele>
        <time>2013-11-11T09:38:10.000Z</time>
      </trkpt>
      <trkpt lat="47.86959" lon="2.12548">
        <ele>152</ele>
        <time>2013-11-11T09:38:14.000Z</time>
      </trkpt>
      <trkpt lat="47.8695" lon="2.12543">
        <ele>152</ele>
        <time>2013-11-11T09:38:16.000Z</time>
      </trkpt>
      <trkpt lat="47.86935" lon="2.12534">
        <ele>152</ele>
        <time>2013-11-11T09:38:20.000Z</time>
      </trkpt>
      <trkpt lat="47.86935" lon="2.12534">
        <ele>152</ele>
        <time>2013-11-11T09:38:22.000Z</time>
      </trkpt>
      <trkpt lat="47.86935" lon="2.12534">
        <ele>152</ele>
        <time>2013-11-11T09:38:24.000Z</time>
      </trkpt>
      <trkpt lat="47.86906" lon="2.12515">
        <ele>153</ele>
        <time>2013-11-11T09:38:26.000Z</time>
      </trkpt>
      <trkpt lat="47.86896" lon="2.1251">
        <ele>154</ele>
        <time>2013-11-11T09:38:28.000Z</time>
      </trkpt>
      <trkpt lat="47.86885" lon="2.12504">
        <ele>154</ele>
        <time>2013-11-11T09:38:30.000Z</time>
      </trkpt>
      <trkpt lat="47.86876" lon="2.12498">
        <ele>154</ele>
        <time>2013-11-11T09:38:32.000Z</time>
      </trkpt>
      <trkpt lat="47.86866" lon="2.12491">
        <ele>153</ele>
        <time>2013-11-11T09:38:34.000Z</time>
      </trkpt>
      <trkpt lat="47.86855" lon="2.12486">
        <ele>153</ele>
        <time>2013-11-11T09:38:36.000Z</time>
      </trkpt>
      <trkpt lat="47.86855" lon="2.12486">
        <ele>153</ele>
        <time>2013-11-11T09:38:38.000Z</time>
      </trkpt>
      <trkpt lat="47.86824" lon="2.12472">
        <ele>153</ele>
        <time>2013-11-11T09:38:42.000Z</time>
      </trkpt>
      <trkpt lat="47.86814" lon="2.12465">
        <ele>152</ele>
        <time>2013-11-11T09:38:44.000Z</time>
      </trkpt>
      <trkpt lat="47.86803" lon="2.1246">
        <ele>153</ele>
        <time>2013-11-11T09:38:46.000Z</time>
      </trkpt>
      <trkpt lat="47.86792" lon="2.12455">
        <ele>154</ele>
        <time>2013-11-11T09:38:48.000Z</time>
      </trkpt>
      <trkpt lat="47.86781" lon="2.12448">
        <ele>154</ele>
        <time>2013-11-11T09:38:50.000Z</time>
      </trkpt>
      <trkpt lat="47.86769" lon="2.12441">
        <ele>153</ele>
        <time>2013-11-11T09:38:52.000Z</time>
      </trkpt>
      <trkpt lat="47.86759" lon="2.12436">
        <ele>153</ele>
        <time>2013-11-11T09:38:54.000Z</time>
      </trkpt>
      <trkpt lat="47.86759" lon="2.12436">
        <ele>153</ele>
        <time>2013-11-11T09:38:56.000Z</time>
      </trkpt>
      <trkpt lat="47.86759" lon="2.12436">
        <ele>153</ele>
        <time>2013-11-11T09:38:58.000Z</time>
      </trkpt>
      <trkpt lat="47.86759" lon="2.12436">
        <ele>153</ele>
        <time>2013-11-11T09:39:00.000Z</time>
      </trkpt>
      <trkpt lat="47.86759" lon="2.12436">
        <ele>153</ele>
        <time>2013-11-11T09:39:02.000Z</time>
      </trkpt>
      <trkpt lat="47.86759" lon="2.12436">
        <ele>153</ele>
        <time>2013-11-11T09:39:04.000Z</time>
      </trkpt>
      <trkpt lat="47.86759" lon="2.12436">
        <ele>153</ele>
        <time>2013-11-11T09:39:06.000Z</time>
      </trkpt>
      <trkpt lat="47.86746" lon="2.12416">
        <ele>146</ele>
        <time>2013-11-11T09:39:38.000Z</time>
      </trkpt>
      <trkpt lat="47.86756" lon="2.12419">
        <ele>148</ele>
        <time>2013-11-11T09:39:41.000Z</time>
      </trkpt>
      <trkpt lat="47.86763" lon="2.12402">
        <ele>148</ele>
        <time>2013-11-11T09:39:47.000Z</time>
      </trkpt>
      <trkpt lat="47.86765" lon="2.12386">
        <ele>147</ele>
        <time>2013-11-11T09:39:51.000Z</time>
      </trkpt>
      <trkpt lat="47.86767" lon="2.12368">
        <ele>145</ele>
        <time>2013-11-11T09:39:55.000Z</time>
      </trkpt>
      <trkpt lat="47.86769" lon="2.12353">
        <ele>144</ele>
        <time>2013-11-11T09:39:59.000Z</time>
      </trkpt>
      <trkpt lat="47.86769" lon="2.12353">
        <ele>144</ele>
        <time>2013-11-11T09:40:01.000Z</time>
      </trkpt>
      <trkpt lat="47.86771" lon="2.12333">
        <ele>145</ele>
        <time>2013-11-11T09:40:03.000Z</time>
      </trkpt>
      <trkpt lat="47.86772" lon="2.12307">
        <ele>145</ele>
        <time>2013-11-11T09:40:07.000Z</time>
      </trkpt>
      <trkpt lat="47.86773" lon="2.12288">
        <ele>145</ele>
        <time>2013-11-11T09:40:11.000Z</time>
      </trkpt>
      <trkpt lat="47.86776" lon="2.1226">
        <ele>147</ele>
        <time>2013-11-11T09:40:15.000Z</time>
      </trkpt>
      <trkpt lat="47.86781" lon="2.12247">
        <ele>147</ele>
        <time>2013-11-11T09:40:17.000Z</time>
      </trkpt>
      <trkpt lat="47.86788" lon="2.12227">
        <ele>147</ele>
        <time>2013-11-11T09:40:21.000Z</time>
      </trkpt>
      <trkpt lat="47.86788" lon="2.12227">
        <ele>147</ele>
        <time>2013-11-11T09:40:23.000Z</time>
      </trkpt>
      <trkpt lat="47.86788" lon="2.12227">
        <ele>147</ele>
        <time>2013-11-11T09:40:25.000Z</time>
      </trkpt>
      <trkpt lat="47.86795" lon="2.12182">
        <ele>146</ele>
        <time>2013-11-11T09:40:28.000Z</time>
      </trkpt>
      <trkpt lat="47.868" lon="2.12167">
        <ele>145</ele>
        <time>2013-11-11T09:40:30.000Z</time>
      </trkpt>
      <trkpt lat="47.86803" lon="2.12152">
        <ele>146</ele>
        <time>2013-11-11T09:40:32.000Z</time>
      </trkpt>
      <trkpt lat="47.86807" lon="2.12138">
        <ele>145</ele>
        <time>2013-11-11T09:40:34.000Z</time>
      </trkpt>
      <trkpt lat="47.86809" lon="2.12121">
        <ele>146</ele>
        <time>2013-11-11T09:40:36.000Z</time>
      </trkpt>
      <trkpt lat="47.86809" lon="2.12121">
        <ele>146</ele>
        <time>2013-11-11T09:40:38.000Z</time>
      </trkpt>
      <trkpt lat="47.86809" lon="2.12121">
        <ele>146</ele>
        <time>2013-11-11T09:40:40.000Z</time>
      </trkpt>
      <trkpt lat="47.86809" lon="2.12121">
        <ele>146</ele>
        <time>2013-11-11T09:40:42.000Z</time>
      </trkpt>
      <trkpt lat="47.86809" lon="2.12121">
        <ele>146</ele>
        <time>2013-11-11T09:40:44.000Z</time>
      </trkpt>
      <trkpt lat="47.86809" lon="2.12121">
        <ele>146</ele>
        <time>2013-11-11T09:40:50.000Z</time>
      </trkpt>
      <trkpt lat="47.86809" lon="2.12121">
        <ele>146</ele>
        <time>2013-11-11T09:40:52.000Z</time>
      </trkpt>
      <trkpt lat="47.86809" lon="2.12121">
        <ele>146</ele>
        <time>2013-11-11T09:40:54.000Z</time>
      </trkpt>
      <trkpt lat="47.86809" lon="2.12121">
        <ele>146</ele>
        <time>2013-11-11T09:40:58.000Z</time>
      </trkpt>
      <trkpt lat="47.86809" lon="2.12121">
        <ele>146</ele>
        <time>2013-11-11T09:41:00.000Z</time>
      </trkpt>
      <trkpt lat="47.86809" lon="2.12121">
        <ele>146</ele>
        <time>2013-11-11T09:41:02.000Z</time>
      </trkpt>
      <trkpt lat="47.86809" lon="2.12121">
        <ele>146</ele>
        <time>2013-11-11T09:41:04.000Z</time>
      </trkpt>
      <trkpt lat="47.86809" lon="2.12121">
        <ele>146</ele>
        <time>2013-11-11T09:41:10.000Z</time>
      </trkpt>
      <trkpt lat="47.86809" lon="2.12121">
        <ele>146</ele>
        <time>2013-11-11T09:41:12.000Z</time>
      </trkpt>
      <trkpt lat="47.86809" lon="2.12121">
        <ele>146</ele>
        <time>2013-11-11T09:41:14.000Z</time>
      </trkpt>
      <trkpt lat="47.86831" lon="2.11994">
        <ele>142</ele>
        <time>2013-11-11T09:41:18.000Z</time>
      </trkpt>
      <trkpt lat="47.86843" lon="2.11925">
        <ele>141</ele>
        <time>2013-11-11T09:41:20.000Z</time>
      </trkpt>
      <trkpt lat="47.86854" lon="2.11886">
        <ele>141</ele>
        <time>2013-11-11T09:41:22.000Z</time>
      </trkpt>
      <trkpt lat="47.86863" lon="2.11861">
        <ele>142</ele>
        <time>2013-11-11T09:41:24.000Z</time>
      </trkpt>
      <trkpt lat="47.86868" lon="2.11842">
        <ele>144</ele>
        <time>2013-11-11T09:41:26.000Z</time>
      </trkpt>
      <trkpt lat="47.86868" lon="2.11842">
        <ele>144</ele>
        <time>2013-11-11T09:41:28.000Z</time>
      </trkpt>
      <trkpt lat="47.86868" lon="2.11842">
        <ele>144</ele>
        <time>2013-11-11T09:41:30.000Z</time>
      </trkpt>
      <trkpt lat="47.86868" lon="2.11842">
        <ele>144</ele>
        <time>2013-11-11T09:41:32.000Z</time>
      </trkpt>
      <trkpt lat="47.86868" lon="2.11842">
        <ele>144</ele>
        <time>2013-11-11T09:41:34.000Z</time>
      </trkpt>
      <trkpt lat="47.86868" lon="2.11842">
        <ele>144</ele>
        <time>2013-11-11T09:41:36.000Z</time>
      </trkpt>
      <trkpt lat="47.86868" lon="2.11842">
        <ele>144</ele>
        <time>2013-11-11T09:41:38.000Z</time>
      </trkpt>
      <trkpt lat="47.86868" lon="2.11842">
        <ele>144</ele>
        <time>2013-11-11T09:41:40.000Z</time>
      </trkpt>
      <trkpt lat="47.86868" lon="2.11842">
        <ele>144</ele>
        <time>2013-11-11T09:41:42.000Z</time>
      </trkpt>
      <trkpt lat="47.86895" lon="2.11746">
        <ele>139</ele>
        <time>2013-11-11T09:41:48.000Z</time>
      </trkpt>
      <trkpt lat="47.86902" lon="2.11728">
        <ele>138</ele>
        <time>2013-11-11T09:41:52.000Z</time>
      </trkpt>
      <trkpt lat="47.86907" lon="2.11715">
        <ele>138</ele>
        <time>2013-11-11T09:41:54.000Z</time>
      </trkpt>
      <trkpt lat="47.86913" lon="2.11703">
        <ele>137</ele>
        <time>2013-11-11T09:41:56.000Z</time>
      </trkpt>
      <trkpt lat="47.86917" lon="2.11687">
        <ele>137</ele>
        <time>2013-11-11T09:41:58.000Z</time>
      </trkpt>
      <trkpt lat="47.86921" lon="2.11674">
        <ele>136</ele>
        <time>2013-11-11T09:42:00.000Z</time>
      </trkpt>
      <trkpt lat="47.8693" lon="2.11647">
        <ele>139</ele>
        <time>2013-11-11T09:42:03.000Z</time>
      </trkpt>
      <trkpt lat="47.86936" lon="2.11636">
        <ele>141</ele>
        <time>2013-11-11T09:42:05.000Z</time>
      </trkpt>
      <trkpt lat="47.86946" lon="2.11618">
        <ele>142</ele>
        <time>2013-11-11T09:42:09.000Z</time>
      </trkpt>
      <trkpt lat="47.8695" lon="2.11605">
        <ele>139</ele>
        <time>2013-11-11T09:42:11.000Z</time>
      </trkpt>
      <trkpt lat="47.8695" lon="2.11589">
        <ele>136</ele>
        <time>2013-11-11T09:42:13.000Z</time>
      </trkpt>
      <trkpt lat="47.86953" lon="2.11574">
        <ele>134</ele>
        <time>2013-11-11T09:42:15.000Z</time>
      </trkpt>
      <trkpt lat="47.86953" lon="2.11538">
        <ele>140</ele>
        <time>2013-11-11T09:42:18.000Z</time>
      </trkpt>
      <trkpt lat="47.86953" lon="2.11538">
        <ele>140</ele>
        <time>2013-11-11T09:42:22.000Z</time>
      </trkpt>
      <trkpt lat="47.86953" lon="2.11538">
        <ele>140</ele>
        <time>2013-11-11T09:42:24.000Z</time>
      </trkpt>
      <trkpt lat="47.86953" lon="2.11538">
        <ele>140</ele>
        <time>2013-11-11T09:42:26.000Z</time>
      </trkpt>
      <trkpt lat="47.86963" lon="2.11432">
        <ele>140</ele>
        <time>2013-11-11T09:42:33.000Z</time>
      </trkpt>
      <trkpt lat="47.86964" lon="2.11415">
        <ele>138</ele>
        <time>2013-11-11T09:42:35.000Z</time>
      </trkpt>
      <trkpt lat="47.86965" lon="2.11389">
        <ele>137</ele>
        <time>2013-11-11T09:42:39.000Z</time>
      </trkpt>
      <trkpt lat="47.86965" lon="2.11389">
        <ele>137</ele>
        <time>2013-11-11T09:42:41.000Z</time>
      </trkpt>
      <trkpt lat="47.86972" lon="2.11335">
        <ele>133</ele>
        <time>2013-11-11T09:42:47.000Z</time>
      </trkpt>
      <trkpt lat="47.86972" lon="2.11335">
        <ele>133</ele>
        <time>2013-11-11T09:42:49.000Z</time>
      </trkpt>
      <trkpt lat="47.86972" lon="2.11335">
        <ele>133</ele>
        <time>2013-11-11T09:42:51.000Z</time>
      </trkpt>
      <trkpt lat="47.86972" lon="2.11335">
        <ele>133</ele>
        <time>2013-11-11T09:42:53.000Z</time>
      </trkpt>
      <trkpt lat="47.86982" lon="2.11258">
        <ele>132</ele>
        <time>2013-11-11T09:42:59.000Z</time>
      </trkpt>
      <trkpt lat="47.86982" lon="2.11231">
        <ele>135</ele>
        <time>2013-11-11T09:43:03.000Z</time>
      </trkpt>
      <trkpt lat="47.86982" lon="2.11231">
        <ele>135</ele>
        <time>2013-11-11T09:43:05.000Z</time>
      </trkpt>
      <trkpt lat="47.86982" lon="2.11231">
        <ele>135</ele>
        <time>2013-11-11T09:43:07.000Z</time>
      </trkpt>
      <trkpt lat="47.86982" lon="2.11231">
        <ele>135</ele>
        <time>2013-11-11T09:43:09.000Z</time>
      </trkpt>
      <trkpt lat="47.86982" lon="2.11231">
        <ele>135</ele>
        <time>2013-11-11T09:43:11.000Z</time>
      </trkpt>
      <trkpt lat="47.86982" lon="2.11231">
        <ele>135</ele>
        <time>2013-11-11T09:43:13.000Z</time>
      </trkpt>
      <trkpt lat="47.86987" lon="2.1118">
        <ele>138</ele>
        <time>2013-11-11T09:43:19.000Z</time>
      </trkpt>
      <trkpt lat="47.86984" lon="2.11149">
        <ele>131</ele>
        <time>2013-11-11T09:43:21.000Z</time>
      </trkpt>
      <trkpt lat="47.86984" lon="2.11149">
        <ele>131</ele>
        <time>2013-11-11T09:43:24.000Z</time>
      </trkpt>
      <trkpt lat="47.86984" lon="2.11149">
        <ele>131</ele>
        <time>2013-11-11T09:43:26.000Z</time>
      </trkpt>
      <trkpt lat="47.86984" lon="2.11149">
        <ele>131</ele>
        <time>2013-11-11T09:43:28.000Z</time>
      </trkpt>
      <trkpt lat="47.86988" lon="2.11103">
        <ele>126</ele>
        <time>2013-11-11T09:43:34.000Z</time>
      </trkpt>
      <trkpt lat="47.8699" lon="2.11073">
        <ele>126</ele>
        <time>2013-11-11T09:43:36.000Z</time>
      </trkpt>
      <trkpt lat="47.8699" lon="2.11053">
        <ele>128</ele>
        <time>2013-11-11T09:43:38.000Z</time>
      </trkpt>
      <trkpt lat="47.86989" lon="2.11037">
        <ele>127</ele>
        <time>2013-11-11T09:43:40.000Z</time>
      </trkpt>
      <trkpt lat="47.8699" lon="2.11019">
        <ele>129</ele>
        <time>2013-11-11T09:43:42.000Z</time>
      </trkpt>
      <trkpt lat="47.86991" lon="2.10988">
        <ele>129</ele>
        <time>2013-11-11T09:43:44.000Z</time>
      </trkpt>
      <trkpt lat="47.86993" lon="2.10972">
        <ele>132</ele>
        <time>2013-11-11T09:43:46.000Z</time>
      </trkpt>
      <trkpt lat="47.86993" lon="2.10972">
        <ele>132</ele>
        <time>2013-11-11T09:43:48.000Z</time>
      </trkpt>
      <trkpt lat="47.86996" lon="2.10951">
        <ele>135</ele>
        <time>2013-11-11T09:43:50.000Z</time>
      </trkpt>
      <trkpt lat="47.86996" lon="2.10951">
        <ele>135</ele>
        <time>2013-11-11T09:43:52.000Z</time>
      </trkpt>
      <trkpt lat="47.86996" lon="2.10951">
        <ele>135</ele>
        <time>2013-11-11T09:43:54.000Z</time>
      </trkpt>
      <trkpt lat="47.87003" lon="2.10898">
        <ele>137</ele>
        <time>2013-11-11T09:44:00.000Z</time>
      </trkpt>
      <trkpt lat="47.87003" lon="2.10898">
        <ele>137</ele>
        <time>2013-11-11T09:44:02.000Z</time>
      </trkpt>
      <trkpt lat="47.87003" lon="2.10898">
        <ele>137</ele>
        <time>2013-11-11T09:44:04.000Z</time>
      </trkpt>
      <trkpt lat="47.87003" lon="2.10898">
        <ele>137</ele>
        <time>2013-11-11T09:44:06.000Z</time>
      </trkpt>
      <trkpt lat="47.87003" lon="2.10898">
        <ele>137</ele>
        <time>2013-11-11T09:44:08.000Z</time>
      </trkpt>
      <trkpt lat="47.87003" lon="2.10898">
        <ele>137</ele>
        <time>2013-11-11T09:44:10.000Z</time>
      </trkpt>
      <trkpt lat="47.87003" lon="2.10898">
        <ele>137</ele>
        <time>2013-11-11T09:44:12.000Z</time>
      </trkpt>
      <trkpt lat="47.87003" lon="2.10898">
        <ele>137</ele>
        <time>2013-11-11T09:44:14.000Z</time>
      </trkpt>
      <trkpt lat="47.87003" lon="2.10898">
        <ele>137</ele>
        <time>2013-11-11T09:44:16.000Z</time>
      </trkpt>
      <trkpt lat="47.87" lon="2.10803">
        <ele>124</ele>
        <time>2013-11-11T09:44:22.000Z</time>
      </trkpt>
      <trkpt lat="47.87" lon="2.10803">
        <ele>124</ele>
        <time>2013-11-11T09:44:24.000Z</time>
      </trkpt>
      <trkpt lat="47.87001" lon="2.10783">
        <ele>124</ele>
        <time>2013-11-11T09:44:26.000Z</time>
      </trkpt>
      <trkpt lat="47.87007" lon="2.10763">
        <ele>125</ele>
        <time>2013-11-11T09:44:30.000Z</time>
      </trkpt>
      <trkpt lat="47.87009" lon="2.10734">
        <ele>124</ele>
        <time>2013-11-11T09:44:34.000Z</time>
      </trkpt>
      <trkpt lat="47.87008" lon="2.10702">
        <ele>122</ele>
        <time>2013-11-11T09:44:38.000Z</time>
      </trkpt>
      <trkpt lat="47.87012" lon="2.10673">
        <ele>126</ele>
        <time>2013-11-11T09:44:42.000Z</time>
      </trkpt>
      <trkpt lat="47.87017" lon="2.10657">
        <ele>129</ele>
        <time>2013-11-11T09:44:44.000Z</time>
      </trkpt>
      <trkpt lat="47.87022" lon="2.10634">
        <ele>120</ele>
        <time>2013-11-11T09:44:48.000Z</time>
      </trkpt>
      <trkpt lat="47.87022" lon="2.10634">
        <ele>120</ele>
        <time>2013-11-11T09:44:50.000Z</time>
      </trkpt>
      <trkpt lat="47.87022" lon="2.10634">
        <ele>120</ele>
        <time>2013-11-11T09:44:52.000Z</time>
      </trkpt>
      <trkpt lat="47.87022" lon="2.10634">
        <ele>120</ele>
        <time>2013-11-11T09:44:54.000Z</time>
      </trkpt>
      <trkpt lat="47.87022" lon="2.10634">
        <ele>120</ele>
        <time>2013-11-11T09:44:56.000Z</time>
      </trkpt>
      <trkpt lat="47.87022" lon="2.10634">
        <ele>120</ele>
        <time>2013-11-11T09:44:58.000Z</time>
      </trkpt>
      <trkpt lat="47.87022" lon="2.10634">
        <ele>120</ele>
        <time>2013-11-11T09:45:00.000Z</time>
      </trkpt>
      <trkpt lat="47.87022" lon="2.10634">
        <ele>120</ele>
        <time>2013-11-11T09:45:02.000Z</time>
      </trkpt>
      <trkpt lat="47.87022" lon="2.10634">
        <ele>120</ele>
        <time>2013-11-11T09:45:04.000Z</time>
      </trkpt>
      <trkpt lat="47.87022" lon="2.10634">
        <ele>120</ele>
        <time>2013-11-11T09:45:06.000Z</time>
      </trkpt>
      <trkpt lat="47.87025" lon="2.10563">
        <ele>126</ele>
        <time>2013-11-11T09:45:08.000Z</time>
      </trkpt>
      <trkpt lat="47.87026" lon="2.1052">
        <ele>125</ele>
        <time>2013-11-11T09:45:10.000Z</time>
      </trkpt>
      <trkpt lat="47.87029" lon="2.10489">
        <ele>124</ele>
        <time>2013-11-11T09:45:12.000Z</time>
      </trkpt>
      <trkpt lat="47.87029" lon="2.10465">
        <ele>124</ele>
        <time>2013-11-11T09:45:14.000Z</time>
      </trkpt>
      <trkpt lat="47.87028" lon="2.10443">
        <ele>121</ele>
        <time>2013-11-11T09:45:16.000Z</time>
      </trkpt>
      <trkpt lat="47.87027" lon="2.10406">
        <ele>119</ele>
        <time>2013-11-11T09:45:18.000Z</time>
      </trkpt>
      <trkpt lat="47.87025" lon="2.10391">
        <ele>118</ele>
        <time>2013-11-11T09:45:20.000Z</time>
      </trkpt>
      <trkpt lat="47.87021" lon="2.1037">
        <ele>119</ele>
        <time>2013-11-11T09:45:22.000Z</time>
      </trkpt>
      <trkpt lat="47.87018" lon="2.10352">
        <ele>118</ele>
        <time>2013-11-11T09:45:24.000Z</time>
      </trkpt>
      <trkpt lat="47.87019" lon="2.10316">
        <ele>120</ele>
        <time>2013-11-11T09:45:28.000Z</time>
      </trkpt>
      <trkpt lat="47.87021" lon="2.10302">
        <ele>122</ele>
        <time>2013-11-11T09:45:30.000Z</time>
      </trkpt>
      <trkpt lat="47.87021" lon="2.10302">
        <ele>122</ele>
        <time>2013-11-11T09:45:32.000Z</time>
      </trkpt>
      <trkpt lat="47.87021" lon="2.10302">
        <ele>122</ele>
        <time>2013-11-11T09:45:34.000Z</time>
      </trkpt>
      <trkpt lat="47.87022" lon="2.10218">
        <ele>124</ele>
        <time>2013-11-11T09:45:40.000Z</time>
      </trkpt>
      <trkpt lat="47.87018" lon="2.10198">
        <ele>124</ele>
        <time>2013-11-11T09:45:42.000Z</time>
      </trkpt>
      <trkpt lat="47.87015" lon="2.10171">
        <ele>125</ele>
        <time>2013-11-11T09:45:44.000Z</time>
      </trkpt>
      <trkpt lat="47.87013" lon="2.10147">
        <ele>131</ele>
        <time>2013-11-11T09:45:46.000Z</time>
      </trkpt>
      <trkpt lat="47.87009" lon="2.10128">
        <ele>132</ele>
        <time>2013-11-11T09:45:48.000Z</time>
      </trkpt>
      <trkpt lat="47.87009" lon="2.10128">
        <ele>132</ele>
        <time>2013-11-11T09:45:50.000Z</time>
      </trkpt>
      <trkpt lat="47.87009" lon="2.10128">
        <ele>132</ele>
        <time>2013-11-11T09:45:52.000Z</time>
      </trkpt>
      <trkpt lat="47.87009" lon="2.10128">
        <ele>132</ele>
        <time>2013-11-11T09:45:54.000Z</time>
      </trkpt>
      <trkpt lat="47.87009" lon="2.10128">
        <ele>132</ele>
        <time>2013-11-11T09:45:56.000Z</time>
      </trkpt>
      <trkpt lat="47.87009" lon="2.10128">
        <ele>132</ele>
        <time>2013-11-11T09:45:58.000Z</time>
      </trkpt>
      <trkpt lat="47.87007" lon="2.10032">
        <ele>136</ele>
        <time>2013-11-11T09:46:04.000Z</time>
      </trkpt>
      <trkpt lat="47.87006" lon="2.10015">
        <ele>137</ele>
        <time>2013-11-11T09:46:06.000Z</time>
      </trkpt>
      <trkpt lat="47.87007" lon="2.09991">
        <ele>138</ele>
        <time>2013-11-11T09:46:10.000Z</time>
      </trkpt>
      <trkpt lat="47.87007" lon="2.09991">
        <ele>138</ele>
        <time>2013-11-11T09:46:12.000Z</time>
      </trkpt>
      <trkpt lat="47.87006" lon="2.09965">
        <ele>138</ele>
        <time>2013-11-11T09:46:14.000Z</time>
      </trkpt>
      <trkpt lat="47.87006" lon="2.09965">
        <ele>138</ele>
        <time>2013-11-11T09:46:18.000Z</time>
      </trkpt>
      <trkpt lat="47.87006" lon="2.09965">
        <ele>138</ele>
        <time>2013-11-11T09:46:20.000Z</time>
      </trkpt>
      <trkpt lat="47.87006" lon="2.09965">
        <ele>138</ele>
        <time>2013-11-11T09:46:22.000Z</time>
      </trkpt>
      <trkpt lat="47.87006" lon="2.09965">
        <ele>138</ele>
        <time>2013-11-11T09:46:24.000Z</time>
      </trkpt>
      <trkpt lat="47.87006" lon="2.09965">
        <ele>138</ele>
        <time>2013-11-11T09:46:26.000Z</time>
      </trkpt>
      <trkpt lat="47.87006" lon="2.09965">
        <ele>138</ele>
        <time>2013-11-11T09:46:28.000Z</time>
      </trkpt>
      <trkpt lat="47.87006" lon="2.09965">
        <ele>138</ele>
        <time>2013-11-11T09:46:30.000Z</time>
      </trkpt>
      <trkpt lat="47.87006" lon="2.09965">
        <ele>138</ele>
        <time>2013-11-11T09:46:32.000Z</time>
      </trkpt>
      <trkpt lat="47.87006" lon="2.09965">
        <ele>138</ele>
        <time>2013-11-11T09:46:34.000Z</time>
      </trkpt>
      <trkpt lat="47.8699" lon="2.09897">
        <ele>141</ele>
        <time>2013-11-11T09:46:58.000Z</time>
      </trkpt>
      <trkpt lat="47.86991" lon="2.09875">
        <ele>143</ele>
        <time>2013-11-11T09:47:02.000Z</time>
      </trkpt>
      <trkpt lat="47.8699" lon="2.09851">
        <ele>144</ele>
        <time>2013-11-11T09:47:06.000Z</time>
      </trkpt>
      <trkpt lat="47.86988" lon="2.09824">
        <ele>144</ele>
        <time>2013-11-11T09:47:10.000Z</time>
      </trkpt>
      <trkpt lat="47.86984" lon="2.09808">
        <ele>147</ele>
        <time>2013-11-11T09:47:12.000Z</time>
      </trkpt>
      <trkpt lat="47.8698" lon="2.0979">
        <ele>148</ele>
        <time>2013-11-11T09:47:14.000Z</time>
      </trkpt>
      <trkpt lat="47.86985" lon="2.09776">
        <ele>146</ele>
        <time>2013-11-11T09:47:17.000Z</time>
      </trkpt>
      <trkpt lat="47.86985" lon="2.09776">
        <ele>146</ele>
        <time>2013-11-11T09:47:19.000Z</time>
      </trkpt>
      <trkpt lat="47.86985" lon="2.09776">
        <ele>146</ele>
        <time>2013-11-11T09:47:21.000Z</time>
      </trkpt>
      <trkpt lat="47.86985" lon="2.09776">
        <ele>146</ele>
        <time>2013-11-11T09:47:23.000Z</time>
      </trkpt>
      <trkpt lat="47.86985" lon="2.09776">
        <ele>146</ele>
        <time>2013-11-11T09:47:25.000Z</time>
      </trkpt>
      <trkpt lat="47.86985" lon="2.09776">
        <ele>146</ele>
        <time>2013-11-11T09:47:27.000Z</time>
      </trkpt>
      <trkpt lat="47.86985" lon="2.09776">
        <ele>146</ele>
        <time>2013-11-11T09:47:29.000Z</time>
      </trkpt>
      <trkpt lat="47.8699" lon="2.09783">
        <ele>149</ele>
        <time>2013-11-11T09:47:59.000Z</time>
      </trkpt>
      <trkpt lat="47.8699" lon="2.09799">
        <ele>150</ele>
        <time>2013-11-11T09:48:02.000Z</time>
      </trkpt>
      <trkpt lat="47.86988" lon="2.09819">
        <ele>148</ele>
        <time>2013-11-11T09:48:06.000Z</time>
      </trkpt>
      <trkpt lat="47.86988" lon="2.09819">
        <ele>148</ele>
        <time>2013-11-11T09:48:08.000Z</time>
      </trkpt>
      <trkpt lat="47.8699" lon="2.09839">
        <ele>148</ele>
        <time>2013-11-11T09:48:10.000Z</time>
      </trkpt>
      <trkpt lat="47.86992" lon="2.09862">
        <ele>146</ele>
        <time>2013-11-11T09:48:14.000Z</time>
      </trkpt>
      <trkpt lat="47.86992" lon="2.09876">
        <ele>146</ele>
        <time>2013-11-11T09:48:16.000Z</time>
      </trkpt>
      <trkpt lat="47.8699" lon="2.09899">
        <ele>144</ele>
        <time>2013-11-11T09:48:20.000Z</time>
      </trkpt>
      <trkpt lat="47.8699" lon="2.09899">
        <ele>144</ele>
        <time>2013-11-11T09:48:22.000Z</time>
      </trkpt>
      <trkpt lat="47.86982" lon="2.0992">
        <ele>143</ele>
        <time>2013-11-11T09:48:24.000Z</time>
      </trkpt>
      <trkpt lat="47.86982" lon="2.0992">
        <ele>143</ele>
        <time>2013-11-11T09:48:26.000Z</time>
      </trkpt>
      <trkpt lat="47.86953" lon="2.09926">
        <ele>142</ele>
        <time>2013-11-11T09:48:30.000Z</time>
      </trkpt>
      <trkpt lat="47.86943" lon="2.09928">
        <ele>141</ele>
        <time>2013-11-11T09:48:32.000Z</time>
      </trkpt>
      <trkpt lat="47.86934" lon="2.09931">
        <ele>141</ele>
        <time>2013-11-11T09:48:34.000Z</time>
      </trkpt>
      <trkpt lat="47.86926" lon="2.09938">
        <ele>141</ele>
        <time>2013-11-11T09:48:36.000Z</time>
      </trkpt>
      <trkpt lat="47.86928" lon="2.09959">
        <ele>141</ele>
        <time>2013-11-11T09:48:38.000Z</time>
      </trkpt>
      <trkpt lat="47.86927" lon="2.09975">
        <ele>143</ele>
        <time>2013-11-11T09:48:40.000Z</time>
      </trkpt>
      <trkpt lat="47.86927" lon="2.09975">
        <ele>143</ele>
        <time>2013-11-11T09:48:43.000Z</time>
      </trkpt>
      <trkpt lat="47.86927" lon="2.09975">
        <ele>143</ele>
        <time>2013-11-11T09:48:45.000Z</time>
      </trkpt>
      <trkpt lat="47.86927" lon="2.09975">
        <ele>143</ele>
        <time>2013-11-11T09:48:47.000Z</time>
      </trkpt>
      <trkpt lat="47.86896" lon="2.09968">
        <ele>141</ele>
        <time>2013-11-11T09:48:51.000Z</time>
      </trkpt>
      <trkpt lat="47.86885" lon="2.09967">
        <ele>141</ele>
        <time>2013-11-11T09:48:53.000Z</time>
      </trkpt>
      <trkpt lat="47.86874" lon="2.09964">
        <ele>141</ele>
        <time>2013-11-11T09:48:55.000Z</time>
      </trkpt>
      <trkpt lat="47.86864" lon="2.09966">
        <ele>140</ele>
        <time>2013-11-11T09:48:57.000Z</time>
      </trkpt>
      <trkpt lat="47.86853" lon="2.09967">
        <ele>140</ele>
        <time>2013-11-11T09:48:59.000Z</time>
      </trkpt>
      <trkpt lat="47.86853" lon="2.09967">
        <ele>140</ele>
        <time>2013-11-11T09:49:01.000Z</time>
      </trkpt>
      <trkpt lat="47.86853" lon="2.09967">
        <ele>140</ele>
        <time>2013-11-11T09:49:03.000Z</time>
      </trkpt>
      <trkpt lat="47.86853" lon="2.09967">
        <ele>140</ele>
        <time>2013-11-11T09:49:05.000Z</time>
      </trkpt>
      <trkpt lat="47.86792" lon="2.09962">
        <ele>142</ele>
        <time>2013-11-11T09:49:11.000Z</time>
      </trkpt>
      <trkpt lat="47.86782" lon="2.09964">
        <ele>141</ele>
        <time>2013-11-11T09:49:13.000Z</time>
      </trkpt>
      <trkpt lat="47.86782" lon="2.09964">
        <ele>141</ele>
        <time>2013-11-11T09:49:15.000Z</time>
      </trkpt>
      <trkpt lat="47.86782" lon="2.09964">
        <ele>141</ele>
        <time>2013-11-11T09:49:17.000Z</time>
      </trkpt>
      <trkpt lat="47.86782" lon="2.09964">
        <ele>141</ele>
        <time>2013-11-11T09:49:19.000Z</time>
      </trkpt>
      <trkpt lat="47.86782" lon="2.09964">
        <ele>141</ele>
        <time>2013-11-11T09:49:21.000Z</time>
      </trkpt>
      <trkpt lat="47.86782" lon="2.09964">
        <ele>141</ele>
        <time>2013-11-11T09:49:23.000Z</time>
      </trkpt>
      <trkpt lat="47.86694" lon="2.09971">
        <ele>142</ele>
        <time>2013-11-11T09:49:30.000Z</time>
      </trkpt>
      <trkpt lat="47.86684" lon="2.09971">
        <ele>142</ele>
        <time>2013-11-11T09:49:32.000Z</time>
      </trkpt>
      <trkpt lat="47.86674" lon="2.09972">
        <ele>142</ele>
        <time>2013-11-11T09:49:34.000Z</time>
      </trkpt>
      <trkpt lat="47.86664" lon="2.09973">
        <ele>142</ele>
        <time>2013-11-11T09:49:36.000Z</time>
      </trkpt>
      <trkpt lat="47.86652" lon="2.09972">
        <ele>144</ele>
        <time>2013-11-11T09:49:38.000Z</time>
      </trkpt>
      <trkpt lat="47.8664" lon="2.09972">
        <ele>145</ele>
        <time>2013-11-11T09:49:40.000Z</time>
      </trkpt>
      <trkpt lat="47.86629" lon="2.09971">
        <ele>145</ele>
        <time>2013-11-11T09:49:42.000Z</time>
      </trkpt>
      <trkpt lat="47.86618" lon="2.09968">
        <ele>141</ele>
        <time>2013-11-11T09:49:44.000Z</time>
      </trkpt>
      <trkpt lat="47.86607" lon="2.09965">
        <ele>141</ele>
        <time>2013-11-11T09:49:46.000Z</time>
      </trkpt>
      <trkpt lat="47.86596" lon="2.09963">
        <ele>140</ele>
        <time>2013-11-11T09:49:48.000Z</time>
      </trkpt>
      <trkpt lat="47.86585" lon="2.09961">
        <ele>140</ele>
        <time>2013-11-11T09:49:50.000Z</time>
      </trkpt>
      <trkpt lat="47.86575" lon="2.09956">
        <ele>140</ele>
        <time>2013-11-11T09:49:52.000Z</time>
      </trkpt>
      <trkpt lat="47.86564" lon="2.09954">
        <ele>142</ele>
        <time>2013-11-11T09:49:54.000Z</time>
      </trkpt>
      <trkpt lat="47.86554" lon="2.09951">
        <ele>142</ele>
        <time>2013-11-11T09:49:56.000Z</time>
      </trkpt>
      <trkpt lat="47.86543" lon="2.09947">
        <ele>141</ele>
        <time>2013-11-11T09:49:58.000Z</time>
      </trkpt>
      <trkpt lat="47.86533" lon="2.09944">
        <ele>142</ele>
        <time>2013-11-11T09:50:00.000Z</time>
      </trkpt>
      <trkpt lat="47.86522" lon="2.0994">
        <ele>142</ele>
        <time>2013-11-11T09:50:02.000Z</time>
      </trkpt>
      <trkpt lat="47.8651" lon="2.09937">
        <ele>144</ele>
        <time>2013-11-11T09:50:04.000Z</time>
      </trkpt>
      <trkpt lat="47.86501" lon="2.09935">
        <ele>144</ele>
        <time>2013-11-11T09:50:06.000Z</time>
      </trkpt>
      <trkpt lat="47.86489" lon="2.09933">
        <ele>144</ele>
        <time>2013-11-11T09:50:08.000Z</time>
      </trkpt>
      <trkpt lat="47.86478" lon="2.09933">
        <ele>145</ele>
        <time>2013-11-11T09:50:10.000Z</time>
      </trkpt>
      <trkpt lat="47.86468" lon="2.09932">
        <ele>145</ele>
        <time>2013-11-11T09:50:12.000Z</time>
      </trkpt>
      <trkpt lat="47.86456" lon="2.09929">
        <ele>145</ele>
        <time>2013-11-11T09:50:14.000Z</time>
      </trkpt>
      <trkpt lat="47.86446" lon="2.09929">
        <ele>147</ele>
        <time>2013-11-11T09:50:16.000Z</time>
      </trkpt>
      <trkpt lat="47.86435" lon="2.09929">
        <ele>147</ele>
        <time>2013-11-11T09:50:18.000Z</time>
      </trkpt>
      <trkpt lat="47.86425" lon="2.09928">
        <ele>147</ele>
        <time>2013-11-11T09:50:20.000Z</time>
      </trkpt>
      <trkpt lat="47.86425" lon="2.09928">
        <ele>147</ele>
        <time>2013-11-11T09:50:22.000Z</time>
      </trkpt>
      <trkpt lat="47.86425" lon="2.09928">
        <ele>147</ele>
        <time>2013-11-11T09:50:24.000Z</time>
      </trkpt>
      <trkpt lat="47.86425" lon="2.09928">
        <ele>147</ele>
        <time>2013-11-11T09:50:26.000Z</time>
      </trkpt>
      <trkpt lat="47.86425" lon="2.09928">
        <ele>147</ele>
        <time>2013-11-11T09:50:28.000Z</time>
      </trkpt>
      <trkpt lat="47.86425" lon="2.09928">
        <ele>147</ele>
        <time>2013-11-11T09:50:30.000Z</time>
      </trkpt>
      <trkpt lat="47.86425" lon="2.09928">
        <ele>147</ele>
        <time>2013-11-11T09:50:32.000Z</time>
      </trkpt>
      <trkpt lat="47.86425" lon="2.09928">
        <ele>147</ele>
        <time>2013-11-11T09:50:34.000Z</time>
      </trkpt>
      <trkpt lat="47.86425" lon="2.09928">
        <ele>147</ele>
        <time>2013-11-11T09:50:36.000Z</time>
      </trkpt>
      <trkpt lat="47.86425" lon="2.09928">
        <ele>147</ele>
        <time>2013-11-11T09:50:38.000Z</time>
      </trkpt>
      <trkpt lat="47.86425" lon="2.09928">
        <ele>147</ele>
        <time>2013-11-11T09:50:40.000Z</time>
      </trkpt>
      <trkpt lat="47.86425" lon="2.09928">
        <ele>147</ele>
        <time>2013-11-11T09:50:42.000Z</time>
      </trkpt>
      <trkpt lat="47.86425" lon="2.09928">
        <ele>147</ele>
        <time>2013-11-11T09:50:48.000Z</time>
      </trkpt>
      <trkpt lat="47.86425" lon="2.09928">
        <ele>147</ele>
        <time>2013-11-11T09:50:50.000Z</time>
      </trkpt>
      <trkpt lat="47.86359" lon="2.09952">
        <ele>145</ele>
        <time>2013-11-11T09:50:54.000Z</time>
      </trkpt>
      <trkpt lat="47.86321" lon="2.09965">
        <ele>146</ele>
        <time>2013-11-11T09:50:56.000Z</time>
      </trkpt>
      <trkpt lat="47.86298" lon="2.0997">
        <ele>145</ele>
        <time>2013-11-11T09:50:58.000Z</time>
      </trkpt>
      <trkpt lat="47.86282" lon="2.09975">
        <ele>148</ele>
        <time>2013-11-11T09:51:00.000Z</time>
      </trkpt>
      <trkpt lat="47.86269" lon="2.09978">
        <ele>148</ele>
        <time>2013-11-11T09:51:02.000Z</time>
      </trkpt>
      <trkpt lat="47.86246" lon="2.09983">
        <ele>146</ele>
        <time>2013-11-11T09:51:04.000Z</time>
      </trkpt>
      <trkpt lat="47.86236" lon="2.09985">
        <ele>148</ele>
        <time>2013-11-11T09:51:06.000Z</time>
      </trkpt>
      <trkpt lat="47.86226" lon="2.09986">
        <ele>148</ele>
        <time>2013-11-11T09:51:08.000Z</time>
      </trkpt>
      <trkpt lat="47.86215" lon="2.09987">
        <ele>147</ele>
        <time>2013-11-11T09:51:10.000Z</time>
      </trkpt>
      <trkpt lat="47.86215" lon="2.09987">
        <ele>147</ele>
        <time>2013-11-11T09:51:12.000Z</time>
      </trkpt>
      <trkpt lat="47.86184" lon="2.09987">
        <ele>144</ele>
        <time>2013-11-11T09:51:16.000Z</time>
      </trkpt>
      <trkpt lat="47.86174" lon="2.09988">
        <ele>144</ele>
        <time>2013-11-11T09:51:18.000Z</time>
      </trkpt>
      <trkpt lat="47.86163" lon="2.09986">
        <ele>144</ele>
        <time>2013-11-11T09:51:20.000Z</time>
      </trkpt>
      <trkpt lat="47.86153" lon="2.09985">
        <ele>144</ele>
        <time>2013-11-11T09:51:22.000Z</time>
      </trkpt>
      <trkpt lat="47.86142" lon="2.09984">
        <ele>143</ele>
        <time>2013-11-11T09:51:24.000Z</time>
      </trkpt>
      <trkpt lat="47.86131" lon="2.09982">
        <ele>145</ele>
        <time>2013-11-11T09:51:26.000Z</time>
      </trkpt>
      <trkpt lat="47.8612" lon="2.0998">
        <ele>145</ele>
        <time>2013-11-11T09:51:28.000Z</time>
      </trkpt>
      <trkpt lat="47.8611" lon="2.09978">
        <ele>145</ele>
        <time>2013-11-11T09:51:30.000Z</time>
      </trkpt>
      <trkpt lat="47.86099" lon="2.09977">
        <ele>144</ele>
        <time>2013-11-11T09:51:32.000Z</time>
      </trkpt>
      <trkpt lat="47.86088" lon="2.09975">
        <ele>144</ele>
        <time>2013-11-11T09:51:34.000Z</time>
      </trkpt>
      <trkpt lat="47.86076" lon="2.09974">
        <ele>143</ele>
        <time>2013-11-11T09:51:36.000Z</time>
      </trkpt>
      <trkpt lat="47.86066" lon="2.09972">
        <ele>143</ele>
        <time>2013-11-11T09:51:38.000Z</time>
      </trkpt>
      <trkpt lat="47.86054" lon="2.0997">
        <ele>144</ele>
        <time>2013-11-11T09:51:40.000Z</time>
      </trkpt>
      <trkpt lat="47.86044" lon="2.09966">
        <ele>142</ele>
        <time>2013-11-11T09:51:42.000Z</time>
      </trkpt>
      <trkpt lat="47.86034" lon="2.09962">
        <ele>142</ele>
        <time>2013-11-11T09:51:44.000Z</time>
      </trkpt>
      <trkpt lat="47.86034" lon="2.09962">
        <ele>142</ele>
        <time>2013-11-11T09:51:46.000Z</time>
      </trkpt>
      <trkpt lat="47.86013" lon="2.0996">
        <ele>146</ele>
        <time>2013-11-11T09:51:48.000Z</time>
      </trkpt>
      <trkpt lat="47.86002" lon="2.09957">
        <ele>149</ele>
        <time>2013-11-11T09:51:50.000Z</time>
      </trkpt>
      <trkpt lat="47.85991" lon="2.09954">
        <ele>150</ele>
        <time>2013-11-11T09:51:52.000Z</time>
      </trkpt>
      <trkpt lat="47.85979" lon="2.09951">
        <ele>151</ele>
        <time>2013-11-11T09:51:54.000Z</time>
      </trkpt>
      <trkpt lat="47.85969" lon="2.09949">
        <ele>151</ele>
        <time>2013-11-11T09:51:56.000Z</time>
      </trkpt>
      <trkpt lat="47.85958" lon="2.09945">
        <ele>152</ele>
        <time>2013-11-11T09:51:58.000Z</time>
      </trkpt>
      <trkpt lat="47.85947" lon="2.09943">
        <ele>151</ele>
        <time>2013-11-11T09:52:00.000Z</time>
      </trkpt>
      <trkpt lat="47.85937" lon="2.0994">
        <ele>151</ele>
        <time>2013-11-11T09:52:02.000Z</time>
      </trkpt>
      <trkpt lat="47.85926" lon="2.09936">
        <ele>151</ele>
        <time>2013-11-11T09:52:04.000Z</time>
      </trkpt>
      <trkpt lat="47.85916" lon="2.09932">
        <ele>151</ele>
        <time>2013-11-11T09:52:06.000Z</time>
      </trkpt>
      <trkpt lat="47.85903" lon="2.09927">
        <ele>150</ele>
        <time>2013-11-11T09:52:08.000Z</time>
      </trkpt>
      <trkpt lat="47.85892" lon="2.09924">
        <ele>151</ele>
        <time>2013-11-11T09:52:10.000Z</time>
      </trkpt>
      <trkpt lat="47.85881" lon="2.09919">
        <ele>151</ele>
        <time>2013-11-11T09:52:12.000Z</time>
      </trkpt>
      <trkpt lat="47.85869" lon="2.09916">
        <ele>151</ele>
        <time>2013-11-11T09:52:14.000Z</time>
      </trkpt>
      <trkpt lat="47.85857" lon="2.09912">
        <ele>153</ele>
        <time>2013-11-11T09:52:16.000Z</time>
      </trkpt>
      <trkpt lat="47.85847" lon="2.09906">
        <ele>153</ele>
        <time>2013-11-11T09:52:18.000Z</time>
      </trkpt>
      <trkpt lat="47.85836" lon="2.09903">
        <ele>154</ele>
        <time>2013-11-11T09:52:20.000Z</time>
      </trkpt>
      <trkpt lat="47.85824" lon="2.09901">
        <ele>153</ele>
        <time>2013-11-11T09:52:22.000Z</time>
      </trkpt>
      <trkpt lat="47.85813" lon="2.09901">
        <ele>154</ele>
        <time>2013-11-11T09:52:24.000Z</time>
      </trkpt>
      <trkpt lat="47.85802" lon="2.099">
        <ele>156</ele>
        <time>2013-11-11T09:52:26.000Z</time>
      </trkpt>
      <trkpt lat="47.85793" lon="2.09897">
        <ele>156</ele>
        <time>2013-11-11T09:52:28.000Z</time>
      </trkpt>
      <trkpt lat="47.85793" lon="2.09897">
        <ele>156</ele>
        <time>2013-11-11T09:52:30.000Z</time>
      </trkpt>
      <trkpt lat="47.85793" lon="2.09897">
        <ele>156</ele>
        <time>2013-11-11T09:52:32.000Z</time>
      </trkpt>
      <trkpt lat="47.85793" lon="2.09897">
        <ele>156</ele>
        <time>2013-11-11T09:52:34.000Z</time>
      </trkpt>
      <trkpt lat="47.85793" lon="2.09897">
        <ele>156</ele>
        <time>2013-11-11T09:52:36.000Z</time>
      </trkpt>
      <trkpt lat="47.85793" lon="2.09897">
        <ele>156</ele>
        <time>2013-11-11T09:52:40.000Z</time>
      </trkpt>
      <trkpt lat="47.85793" lon="2.09897">
        <ele>156</ele>
        <time>2013-11-11T09:52:42.000Z</time>
      </trkpt>
      <trkpt lat="47.85725" lon="2.09892">
        <ele>143</ele>
        <time>2013-11-11T09:53:09.000Z</time>
      </trkpt>
      <trkpt lat="47.85712" lon="2.09894">
        <ele>145</ele>
        <time>2013-11-11T09:53:13.000Z</time>
      </trkpt>
      <trkpt lat="47.85696" lon="2.09892">
        <ele>143</ele>
        <time>2013-11-11T09:53:17.000Z</time>
      </trkpt>
      <trkpt lat="47.8568" lon="2.0989">
        <ele>143</ele>
        <time>2013-11-11T09:53:21.000Z</time>
      </trkpt>
      <trkpt lat="47.85669" lon="2.09892">
        <ele>146</ele>
        <time>2013-11-11T09:53:23.000Z</time>
      </trkpt>
      <trkpt lat="47.8566" lon="2.09893">
        <ele>146</ele>
        <time>2013-11-11T09:53:25.000Z</time>
      </trkpt>
      <trkpt lat="47.85643" lon="2.09893">
        <ele>148</ele>
        <time>2013-11-11T09:53:29.000Z</time>
      </trkpt>
      <trkpt lat="47.85634" lon="2.09895">
        <ele>148</ele>
        <time>2013-11-11T09:53:31.000Z</time>
      </trkpt>
      <trkpt lat="47.85634" lon="2.09895">
        <ele>148</ele>
        <time>2013-11-11T09:53:33.000Z</time>
      </trkpt>
      <trkpt lat="47.85634" lon="2.09895">
        <ele>148</ele>
        <time>2013-11-11T09:53:35.000Z</time>
      </trkpt>
      <trkpt lat="47.85634" lon="2.09895">
        <ele>148</ele>
        <time>2013-11-11T09:53:43.000Z</time>
      </trkpt>
      <trkpt lat="47.85634" lon="2.09895">
        <ele>148</ele>
        <time>2013-11-11T09:53:45.000Z</time>
      </trkpt>
      <trkpt lat="47.85634" lon="2.09895">
        <ele>148</ele>
        <time>2013-11-11T09:53:47.000Z</time>
      </trkpt>
      <trkpt lat="47.85634" lon="2.09895">
        <ele>148</ele>
        <time>2013-11-11T09:53:53.000Z</time>
      </trkpt>
      <trkpt lat="47.85634" lon="2.09895">
        <ele>148</ele>
        <time>2013-11-11T09:53:55.000Z</time>
      </trkpt>
      <trkpt lat="47.85522" lon="2.09924">
        <ele>155</ele>
        <time>2013-11-11T09:53:57.000Z</time>
      </trkpt>
      <trkpt lat="47.8551" lon="2.09926">
        <ele>153</ele>
        <time>2013-11-11T09:53:59.000Z</time>
      </trkpt>
      <trkpt lat="47.85501" lon="2.0993">
        <ele>152</ele>
        <time>2013-11-11T09:54:01.000Z</time>
      </trkpt>
      <trkpt lat="47.85492" lon="2.09934">
        <ele>151</ele>
        <time>2013-11-11T09:54:03.000Z</time>
      </trkpt>
      <trkpt lat="47.8548" lon="2.09937">
        <ele>151</ele>
        <time>2013-11-11T09:54:05.000Z</time>
      </trkpt>
      <trkpt lat="47.85471" lon="2.09937">
        <ele>151</ele>
        <time>2013-11-11T09:54:07.000Z</time>
      </trkpt>
      <trkpt lat="47.85458" lon="2.09942">
        <ele>151</ele>
        <time>2013-11-11T09:54:09.000Z</time>
      </trkpt>
      <trkpt lat="47.85447" lon="2.09945">
        <ele>152</ele>
        <time>2013-11-11T09:54:11.000Z</time>
      </trkpt>
      <trkpt lat="47.85435" lon="2.0995">
        <ele>152</ele>
        <time>2013-11-11T09:54:13.000Z</time>
      </trkpt>
      <trkpt lat="47.85423" lon="2.09953">
        <ele>151</ele>
        <time>2013-11-11T09:54:15.000Z</time>
      </trkpt>
      <trkpt lat="47.8541" lon="2.09956">
        <ele>151</ele>
        <time>2013-11-11T09:54:17.000Z</time>
      </trkpt>
      <trkpt lat="47.85397" lon="2.09957">
        <ele>149</ele>
        <time>2013-11-11T09:54:19.000Z</time>
      </trkpt>
      <trkpt lat="47.85385" lon="2.09959">
        <ele>149</ele>
        <time>2013-11-11T09:54:21.000Z</time>
      </trkpt>
      <trkpt lat="47.85373" lon="2.09958">
        <ele>149</ele>
        <time>2013-11-11T09:54:23.000Z</time>
      </trkpt>
      <trkpt lat="47.85361" lon="2.09957">
        <ele>148</ele>
        <time>2013-11-11T09:54:25.000Z</time>
      </trkpt>
      <trkpt lat="47.8535" lon="2.09957">
        <ele>148</ele>
        <time>2013-11-11T09:54:27.000Z</time>
      </trkpt>
      <trkpt lat="47.85337" lon="2.09956">
        <ele>148</ele>
        <time>2013-11-11T09:54:29.000Z</time>
      </trkpt>
      <trkpt lat="47.85325" lon="2.09954">
        <ele>149</ele>
        <time>2013-11-11T09:54:31.000Z</time>
      </trkpt>
      <trkpt lat="47.85315" lon="2.09952">
        <ele>147</ele>
        <time>2013-11-11T09:54:33.000Z</time>
      </trkpt>
      <trkpt lat="47.85305" lon="2.09949">
        <ele>147</ele>
        <time>2013-11-11T09:54:35.000Z</time>
      </trkpt>
      <trkpt lat="47.85295" lon="2.09945">
        <ele>146</ele>
        <time>2013-11-11T09:54:37.000Z</time>
      </trkpt>
      <trkpt lat="47.85295" lon="2.09945">
        <ele>146</ele>
        <time>2013-11-11T09:54:39.000Z</time>
      </trkpt>
      <trkpt lat="47.85295" lon="2.09945">
        <ele>146</ele>
        <time>2013-11-11T09:54:41.000Z</time>
      </trkpt>
      <trkpt lat="47.85295" lon="2.09945">
        <ele>146</ele>
        <time>2013-11-11T09:54:43.000Z</time>
      </trkpt>
      <trkpt lat="47.85242" lon="2.09929">
        <ele>145</ele>
        <time>2013-11-11T09:54:47.000Z</time>
      </trkpt>
      <trkpt lat="47.85231" lon="2.09925">
        <ele>144</ele>
        <time>2013-11-11T09:54:49.000Z</time>
      </trkpt>
      <trkpt lat="47.8522" lon="2.0992">
        <ele>143</ele>
        <time>2013-11-11T09:54:51.000Z</time>
      </trkpt>
      <trkpt lat="47.85209" lon="2.09916">
        <ele>144</ele>
        <time>2013-11-11T09:54:53.000Z</time>
      </trkpt>
      <trkpt lat="47.85196" lon="2.09914">
        <ele>143</ele>
        <time>2013-11-11T09:54:55.000Z</time>
      </trkpt>
      <trkpt lat="47.85184" lon="2.09913">
        <ele>143</ele>
        <time>2013-11-11T09:54:57.000Z</time>
      </trkpt>
      <trkpt lat="47.85174" lon="2.09909">
        <ele>143</ele>
        <time>2013-11-11T09:54:59.000Z</time>
      </trkpt>
      <trkpt lat="47.85164" lon="2.09906">
        <ele>142</ele>
        <time>2013-11-11T09:55:01.000Z</time>
      </trkpt>
      <trkpt lat="47.85164" lon="2.09906">
        <ele>142</ele>
        <time>2013-11-11T09:55:03.000Z</time>
      </trkpt>
      <trkpt lat="47.85164" lon="2.09906">
        <ele>142</ele>
        <time>2013-11-11T09:55:05.000Z</time>
      </trkpt>
      <trkpt lat="47.85164" lon="2.09906">
        <ele>142</ele>
        <time>2013-11-11T09:55:07.000Z</time>
      </trkpt>
      <trkpt lat="47.85164" lon="2.09906">
        <ele>142</ele>
        <time>2013-11-11T09:55:09.000Z</time>
      </trkpt>
      <trkpt lat="47.85164" lon="2.09906">
        <ele>142</ele>
        <time>2013-11-11T09:55:11.000Z</time>
      </trkpt>
      <trkpt lat="47.85142" lon="2.09961">
        <ele>140</ele>
        <time>2013-11-11T09:55:19.000Z</time>
      </trkpt>
      <trkpt lat="47.85138" lon="2.0998">
        <ele>140</ele>
        <time>2013-11-11T09:55:23.000Z</time>
      </trkpt>
      <trkpt lat="47.85136" lon="2.09991">
        <ele>140</ele>
        <time>2013-11-11T09:55:27.000Z</time>
      </trkpt>
      <trkpt lat="47.85133" lon="2.10001">
        <ele>140</ele>
        <time>2013-11-11T09:55:29.000Z</time>
      </trkpt>
      <trkpt lat="47.85131" lon="2.10011">
        <ele>140</ele>
        <time>2013-11-11T09:55:31.000Z</time>
      </trkpt>
      <trkpt lat="47.85128" lon="2.10022">
        <ele>140</ele>
        <time>2013-11-11T09:55:33.000Z</time>
      </trkpt>
      <trkpt lat="47.85126" lon="2.10034">
        <ele>141</ele>
        <time>2013-11-11T09:55:35.000Z</time>
      </trkpt>
      <trkpt lat="47.85121" lon="2.10057">
        <ele>141</ele>
        <time>2013-11-11T09:55:37.000Z</time>
      </trkpt>
      <trkpt lat="47.85116" lon="2.10083">
        <ele>140</ele>
        <time>2013-11-11T09:55:41.000Z</time>
      </trkpt>
      <trkpt lat="47.85114" lon="2.10096">
        <ele>140</ele>
        <time>2013-11-11T09:55:43.000Z</time>
      </trkpt>
      <trkpt lat="47.85111" lon="2.10109">
        <ele>140</ele>
        <time>2013-11-11T09:55:45.000Z</time>
      </trkpt>
      <trkpt lat="47.85109" lon="2.10122">
        <ele>140</ele>
        <time>2013-11-11T09:55:47.000Z</time>
      </trkpt>
      <trkpt lat="47.85107" lon="2.10135">
        <ele>140</ele>
        <time>2013-11-11T09:55:49.000Z</time>
      </trkpt>
      <trkpt lat="47.85105" lon="2.10148">
        <ele>140</ele>
        <time>2013-11-11T09:55:51.000Z</time>
      </trkpt>
      <trkpt lat="47.85102" lon="2.10161">
        <ele>140</ele>
        <time>2013-11-11T09:55:53.000Z</time>
      </trkpt>
      <trkpt lat="47.85102" lon="2.10161">
        <ele>140</ele>
        <time>2013-11-11T09:55:55.000Z</time>
      </trkpt>
      <trkpt lat="47.85102" lon="2.10161">
        <ele>140</ele>
        <time>2013-11-11T09:55:57.000Z</time>
      </trkpt>
      <trkpt lat="47.85102" lon="2.10161">
        <ele>140</ele>
        <time>2013-11-11T09:55:59.000Z</time>
      </trkpt>
      <trkpt lat="47.85102" lon="2.10161">
        <ele>140</ele>
        <time>2013-11-11T09:56:01.000Z</time>
      </trkpt>
      <trkpt lat="47.85102" lon="2.10161">
        <ele>140</ele>
        <time>2013-11-11T09:56:03.000Z</time>
      </trkpt>
      <trkpt lat="47.85102" lon="2.10161">
        <ele>140</ele>
        <time>2013-11-11T09:56:05.000Z</time>
      </trkpt>
      <trkpt lat="47.85102" lon="2.10161">
        <ele>140</ele>
        <time>2013-11-11T09:56:07.000Z</time>
      </trkpt>
      <trkpt lat="47.85102" lon="2.10161">
        <ele>140</ele>
        <time>2013-11-11T09:56:09.000Z</time>
      </trkpt>
      <trkpt lat="47.85102" lon="2.10161">
        <ele>140</ele>
        <time>2013-11-11T09:56:11.000Z</time>
      </trkpt>
      <trkpt lat="47.85102" lon="2.10161">
        <ele>140</ele>
        <time>2013-11-11T09:56:13.000Z</time>
      </trkpt>
      <trkpt lat="47.85102" lon="2.10161">
        <ele>140</ele>
        <time>2013-11-11T09:56:15.000Z</time>
      </trkpt>
      <trkpt lat="47.85102" lon="2.10161">
        <ele>140</ele>
        <time>2013-11-11T09:56:21.000Z</time>
      </trkpt>
      <trkpt lat="47.85102" lon="2.10161">
        <ele>140</ele>
        <time>2013-11-11T09:56:23.000Z</time>
      </trkpt>
      <trkpt lat="47.85102" lon="2.10161">
        <ele>140</ele>
        <time>2013-11-11T09:56:25.000Z</time>
      </trkpt>
      <trkpt lat="47.85056" lon="2.10381">
        <ele>137</ele>
        <time>2013-11-11T09:56:33.000Z</time>
      </trkpt>
      <trkpt lat="47.85049" lon="2.10413">
        <ele>136</ele>
        <time>2013-11-11T09:56:39.000Z</time>
      </trkpt>
      <trkpt lat="47.85046" lon="2.10435">
        <ele>135</ele>
        <time>2013-11-11T09:56:43.000Z</time>
      </trkpt>
      <trkpt lat="47.8504" lon="2.10458">
        <ele>135</ele>
        <time>2013-11-11T09:56:47.000Z</time>
      </trkpt>
      <trkpt lat="47.8504" lon="2.10458">
        <ele>135</ele>
        <time>2013-11-11T09:56:49.000Z</time>
      </trkpt>
      <trkpt lat="47.8504" lon="2.10458">
        <ele>135</ele>
        <time>2013-11-11T09:56:51.000Z</time>
      </trkpt>
      <trkpt lat="47.8504" lon="2.10458">
        <ele>135</ele>
        <time>2013-11-11T09:56:53.000Z</time>
      </trkpt>
      <trkpt lat="47.8504" lon="2.10458">
        <ele>135</ele>
        <time>2013-11-11T09:56:55.000Z</time>
      </trkpt>
      <trkpt lat="47.8504" lon="2.10458">
        <ele>135</ele>
        <time>2013-11-11T09:56:57.000Z</time>
      </trkpt>
      <trkpt lat="47.85019" lon="2.10469">
        <ele>136</ele>
        <time>2013-11-11T09:57:01.000Z</time>
      </trkpt>
      <trkpt lat="47.85004" lon="2.10474">
        <ele>136</ele>
        <time>2013-11-11T09:57:03.000Z</time>
      </trkpt>
      <trkpt lat="47.84991" lon="2.10476">
        <ele>138</ele>
        <time>2013-11-11T09:57:05.000Z</time>
      </trkpt>
      <trkpt lat="47.84981" lon="2.10477">
        <ele>139</ele>
        <time>2013-11-11T09:57:07.000Z</time>
      </trkpt>
      <trkpt lat="47.84971" lon="2.10475">
        <ele>140</ele>
        <time>2013-11-11T09:57:09.000Z</time>
      </trkpt>
      <trkpt lat="47.84952" lon="2.10467">
        <ele>138</ele>
        <time>2013-11-11T09:57:11.000Z</time>
      </trkpt>
      <trkpt lat="47.84952" lon="2.10467">
        <ele>138</ele>
        <time>2013-11-11T09:57:13.000Z</time>
      </trkpt>
      <trkpt lat="47.84952" lon="2.10467">
        <ele>138</ele>
        <time>2013-11-11T09:57:15.000Z</time>
      </trkpt>
      <trkpt lat="47.84952" lon="2.10467">
        <ele>138</ele>
        <time>2013-11-11T09:57:17.000Z</time>
      </trkpt>
      <trkpt lat="47.84952" lon="2.10467">
        <ele>138</ele>
        <time>2013-11-11T09:57:19.000Z</time>
      </trkpt>
      <trkpt lat="47.84896" lon="2.10426">
        <ele>140</ele>
        <time>2013-11-11T09:57:25.000Z</time>
      </trkpt>
      <trkpt lat="47.84896" lon="2.10426">
        <ele>140</ele>
        <time>2013-11-11T09:57:27.000Z</time>
      </trkpt>
      <trkpt lat="47.84896" lon="2.10426">
        <ele>140</ele>
        <time>2013-11-11T09:57:29.000Z</time>
      </trkpt>
      <trkpt lat="47.84896" lon="2.10426">
        <ele>140</ele>
        <time>2013-11-11T09:57:31.000Z</time>
      </trkpt>
      <trkpt lat="47.84896" lon="2.10426">
        <ele>140</ele>
        <time>2013-11-11T09:57:33.000Z</time>
      </trkpt>
      <trkpt lat="47.84896" lon="2.10426">
        <ele>140</ele>
        <time>2013-11-11T09:57:35.000Z</time>
      </trkpt>
      <trkpt lat="47.84896" lon="2.10426">
        <ele>140</ele>
        <time>2013-11-11T09:57:37.000Z</time>
      </trkpt>
      <trkpt lat="47.84834" lon="2.10381">
        <ele>140</ele>
        <time>2013-11-11T09:57:41.000Z</time>
      </trkpt>
      <trkpt lat="47.84819" lon="2.10368">
        <ele>140</ele>
        <time>2013-11-11T09:57:45.000Z</time>
      </trkpt>
      <trkpt lat="47.84819" lon="2.10368">
        <ele>140</ele>
        <time>2013-11-11T09:57:47.000Z</time>
      </trkpt>
      <trkpt lat="47.84819" lon="2.10368">
        <ele>140</ele>
        <time>2013-11-11T09:57:49.000Z</time>
      </trkpt>
      <trkpt lat="47.84819" lon="2.10368">
        <ele>140</ele>
        <time>2013-11-11T09:57:51.000Z</time>
      </trkpt>
      <trkpt lat="47.84819" lon="2.10368">
        <ele>140</ele>
        <time>2013-11-11T09:57:53.000Z</time>
      </trkpt>
      <trkpt lat="47.84776" lon="2.10329">
        <ele>139</ele>
        <time>2013-11-11T09:57:57.000Z</time>
      </trkpt>
      <trkpt lat="47.84776" lon="2.10329">
        <ele>139</ele>
        <time>2013-11-11T09:57:59.000Z</time>
      </trkpt>
      <trkpt lat="47.84776" lon="2.10329">
        <ele>139</ele>
        <time>2013-11-11T09:58:01.000Z</time>
      </trkpt>
      <trkpt lat="47.84776" lon="2.10329">
        <ele>139</ele>
        <time>2013-11-11T09:58:03.000Z</time>
      </trkpt>
      <trkpt lat="47.84732" lon="2.10294">
        <ele>137</ele>
        <time>2013-11-11T09:58:09.000Z</time>
      </trkpt>
      <trkpt lat="47.84718" lon="2.10283">
        <ele>138</ele>
        <time>2013-11-11T09:58:13.000Z</time>
      </trkpt>
      <trkpt lat="47.84702" lon="2.10273">
        <ele>138</ele>
        <time>2013-11-11T09:58:17.000Z</time>
      </trkpt>
      <trkpt lat="47.84702" lon="2.10273">
        <ele>138</ele>
        <time>2013-11-11T09:58:19.000Z</time>
      </trkpt>
      <trkpt lat="47.84702" lon="2.10273">
        <ele>138</ele>
        <time>2013-11-11T09:58:21.000Z</time>
      </trkpt>
      <trkpt lat="47.84702" lon="2.10273">
        <ele>138</ele>
        <time>2013-11-11T09:58:23.000Z</time>
      </trkpt>
      <trkpt lat="47.84678" lon="2.10259">
        <ele>137</ele>
        <time>2013-11-11T09:58:29.000Z</time>
      </trkpt>
      <trkpt lat="47.84661" lon="2.10252">
        <ele>141</ele>
        <time>2013-11-11T09:58:31.000Z</time>
      </trkpt>
      <trkpt lat="47.84649" lon="2.10247">
        <ele>140</ele>
        <time>2013-11-11T09:58:33.000Z</time>
      </trkpt>
      <trkpt lat="47.84639" lon="2.10243">
        <ele>140</ele>
        <time>2013-11-11T09:58:35.000Z</time>
      </trkpt>
      <trkpt lat="47.84629" lon="2.10239">
        <ele>140</ele>
        <time>2013-11-11T09:58:37.000Z</time>
      </trkpt>
      <trkpt lat="47.84609" lon="2.10231">
        <ele>139</ele>
        <time>2013-11-11T09:58:39.000Z</time>
      </trkpt>
      <trkpt lat="47.84594" lon="2.10222">
        <ele>140</ele>
        <time>2013-11-11T09:58:43.000Z</time>
      </trkpt>
      <trkpt lat="47.84594" lon="2.10222">
        <ele>140</ele>
        <time>2013-11-11T09:58:45.000Z</time>
      </trkpt>
      <trkpt lat="47.84594" lon="2.10222">
        <ele>140</ele>
        <time>2013-11-11T09:58:47.000Z</time>
      </trkpt>
      <trkpt lat="47.84594" lon="2.10222">
        <ele>140</ele>
        <time>2013-11-11T09:58:49.000Z</time>
      </trkpt>
      <trkpt lat="47.84594" lon="2.10222">
        <ele>140</ele>
        <time>2013-11-11T09:58:51.000Z</time>
      </trkpt>
      <trkpt lat="47.84539" lon="2.10194">
        <ele>143</ele>
        <time>2013-11-11T09:58:57.000Z</time>
      </trkpt>
      <trkpt lat="47.84539" lon="2.10194">
        <ele>143</ele>
        <time>2013-11-11T09:58:59.000Z</time>
      </trkpt>
      <trkpt lat="47.84539" lon="2.10194">
        <ele>143</ele>
        <time>2013-11-11T09:59:01.000Z</time>
      </trkpt>
      <trkpt lat="47.84505" lon="2.10176">
        <ele>140</ele>
        <time>2013-11-11T09:59:05.000Z</time>
      </trkpt>
      <trkpt lat="47.84489" lon="2.1017">
        <ele>139</ele>
        <time>2013-11-11T09:59:09.000Z</time>
      </trkpt>
      <trkpt lat="47.84472" lon="2.10163">
        <ele>138</ele>
        <time>2013-11-11T09:59:13.000Z</time>
      </trkpt>
      <trkpt lat="47.84472" lon="2.10163">
        <ele>138</ele>
        <time>2013-11-11T09:59:15.000Z</time>
      </trkpt>
      <trkpt lat="47.84454" lon="2.10159">
        <ele>138</ele>
        <time>2013-11-11T09:59:17.000Z</time>
      </trkpt>
      <trkpt lat="47.84438" lon="2.10151">
        <ele>138</ele>
        <time>2013-11-11T09:59:21.000Z</time>
      </trkpt>
      <trkpt lat="47.84438" lon="2.10151">
        <ele>138</ele>
        <time>2013-11-11T09:59:23.000Z</time>
      </trkpt>
      <trkpt lat="47.84438" lon="2.10151">
        <ele>138</ele>
        <time>2013-11-11T09:59:25.000Z</time>
      </trkpt>
      <trkpt lat="47.84438" lon="2.10151">
        <ele>138</ele>
        <time>2013-11-11T09:59:27.000Z</time>
      </trkpt>
      <trkpt lat="47.84438" lon="2.10151">
        <ele>138</ele>
        <time>2013-11-11T09:59:29.000Z</time>
      </trkpt>
      <trkpt lat="47.84438" lon="2.10151">
        <ele>138</ele>
        <time>2013-11-11T09:59:31.000Z</time>
      </trkpt>
      <trkpt lat="47.84384" lon="2.10125">
        <ele>137</ele>
        <time>2013-11-11T09:59:35.000Z</time>
      </trkpt>
      <trkpt lat="47.84375" lon="2.1012">
        <ele>137</ele>
        <time>2013-11-11T09:59:37.000Z</time>
      </trkpt>
      <trkpt lat="47.84366" lon="2.10115">
        <ele>136</ele>
        <time>2013-11-11T09:59:39.000Z</time>
      </trkpt>
      <trkpt lat="47.84357" lon="2.10109">
        <ele>137</ele>
        <time>2013-11-11T09:59:41.000Z</time>
      </trkpt>
      <trkpt lat="47.84348" lon="2.10104">
        <ele>137</ele>
        <time>2013-11-11T09:59:43.000Z</time>
      </trkpt>
      <trkpt lat="47.84338" lon="2.10099">
        <ele>137</ele>
        <time>2013-11-11T09:59:45.000Z</time>
      </trkpt>
      <trkpt lat="47.84321" lon="2.10089">
        <ele>136</ele>
        <time>2013-11-11T09:59:49.000Z</time>
      </trkpt>
      <trkpt lat="47.84313" lon="2.10084">
        <ele>137</ele>
        <time>2013-11-11T09:59:51.000Z</time>
      </trkpt>
      <trkpt lat="47.84313" lon="2.10084">
        <ele>137</ele>
        <time>2013-11-11T09:59:53.000Z</time>
      </trkpt>
      <trkpt lat="47.84313" lon="2.10084">
        <ele>137</ele>
        <time>2013-11-11T09:59:55.000Z</time>
      </trkpt>
      <trkpt lat="47.84313" lon="2.10084">
        <ele>137</ele>
        <time>2013-11-11T09:59:57.000Z</time>
      </trkpt>
      <trkpt lat="47.84313" lon="2.10084">
        <ele>137</ele>
        <time>2013-11-11T09:59:59.000Z</time>
      </trkpt>
      <trkpt lat="47.84313" lon="2.10084">
        <ele>137</ele>
        <time>2013-11-11T10:00:01.000Z</time>
      </trkpt>
      <trkpt lat="47.84313" lon="2.10084">
        <ele>137</ele>
        <time>2013-11-11T10:00:03.000Z</time>
      </trkpt>
      <trkpt lat="47.84254" lon="2.10051">
        <ele>137</ele>
        <time>2013-11-11T10:00:05.000Z</time>
      </trkpt>
      <trkpt lat="47.84254" lon="2.10051">
        <ele>137</ele>
        <time>2013-11-11T10:00:07.000Z</time>
      </trkpt>
      <trkpt lat="47.84254" lon="2.10051">
        <ele>137</ele>
        <time>2013-11-11T10:00:09.000Z</time>
      </trkpt>
      <trkpt lat="47.84254" lon="2.10051">
        <ele>137</ele>
        <time>2013-11-11T10:00:11.000Z</time>
      </trkpt>
      <trkpt lat="47.84238" lon="2.10041">
        <ele>137</ele>
        <time>2013-11-11T10:00:13.000Z</time>
      </trkpt>
      <trkpt lat="47.84238" lon="2.10041">
        <ele>137</ele>
        <time>2013-11-11T10:00:15.000Z</time>
      </trkpt>
      <trkpt lat="47.84238" lon="2.10041">
        <ele>137</ele>
        <time>2013-11-11T10:00:17.000Z</time>
      </trkpt>
      <trkpt lat="47.84238" lon="2.10041">
        <ele>137</ele>
        <time>2013-11-11T10:00:19.000Z</time>
      </trkpt>
      <trkpt lat="47.84238" lon="2.10041">
        <ele>137</ele>
        <time>2013-11-11T10:00:21.000Z</time>
      </trkpt>
      <trkpt lat="47.84238" lon="2.10041">
        <ele>137</ele>
        <time>2013-11-11T10:00:23.000Z</time>
      </trkpt>
      <trkpt lat="47.84238" lon="2.10041">
        <ele>137</ele>
        <time>2013-11-11T10:00:25.000Z</time>
      </trkpt>
      <trkpt lat="47.842" lon="2.1002">
        <ele>135</ele>
        <time>2013-11-11T10:00:29.000Z</time>
      </trkpt>
      <trkpt lat="47.84178" lon="2.10007">
        <ele>135</ele>
        <time>2013-11-11T10:00:31.000Z</time>
      </trkpt>
      <trkpt lat="47.84163" lon="2.09998">
        <ele>135</ele>
        <time>2013-11-11T10:00:33.000Z</time>
      </trkpt>
      <trkpt lat="47.84163" lon="2.09998">
        <ele>135</ele>
        <time>2013-11-11T10:00:35.000Z</time>
      </trkpt>
      <trkpt lat="47.84163" lon="2.09998">
        <ele>135</ele>
        <time>2013-11-11T10:00:37.000Z</time>
      </trkpt>
      <trkpt lat="47.84163" lon="2.09998">
        <ele>135</ele>
        <time>2013-11-11T10:00:39.000Z</time>
      </trkpt>
      <trkpt lat="47.84163" lon="2.09998">
        <ele>135</ele>
        <time>2013-11-11T10:00:41.000Z</time>
      </trkpt>
      <trkpt lat="47.84163" lon="2.09998">
        <ele>135</ele>
        <time>2013-11-11T10:00:43.000Z</time>
      </trkpt>
      <trkpt lat="47.84163" lon="2.09998">
        <ele>135</ele>
        <time>2013-11-11T10:00:45.000Z</time>
      </trkpt>
      <trkpt lat="47.84141" lon="2.10008">
        <ele>133</ele>
        <time>2013-11-11T10:00:49.000Z</time>
      </trkpt>
      <trkpt lat="47.84129" lon="2.10019">
        <ele>133</ele>
        <time>2013-11-11T10:00:51.000Z</time>
      </trkpt>
      <trkpt lat="47.84122" lon="2.10029">
        <ele>132</ele>
        <time>2013-11-11T10:00:53.000Z</time>
      </trkpt>
      <trkpt lat="47.84118" lon="2.1004">
        <ele>130</ele>
        <time>2013-11-11T10:00:55.000Z</time>
      </trkpt>
      <trkpt lat="47.84114" lon="2.10052">
        <ele>131</ele>
        <time>2013-11-11T10:00:57.000Z</time>
      </trkpt>
      <trkpt lat="47.84109" lon="2.10075">
        <ele>132</ele>
        <time>2013-11-11T10:00:59.000Z</time>
      </trkpt>
      <trkpt lat="47.84109" lon="2.101">
        <ele>133</ele>
        <time>2013-11-11T10:01:03.000Z</time>
      </trkpt>
      <trkpt lat="47.84107" lon="2.10114">
        <ele>133</ele>
        <time>2013-11-11T10:01:05.000Z</time>
      </trkpt>
      <trkpt lat="47.84105" lon="2.10128">
        <ele>134</ele>
        <time>2013-11-11T10:01:07.000Z</time>
      </trkpt>
      <trkpt lat="47.84101" lon="2.10154">
        <ele>133</ele>
        <time>2013-11-11T10:01:11.000Z</time>
      </trkpt>
      <trkpt lat="47.84101" lon="2.10154">
        <ele>133</ele>
        <time>2013-11-11T10:01:13.000Z</time>
      </trkpt>
      <trkpt lat="47.84098" lon="2.10179">
        <ele>132</ele>
        <time>2013-11-11T10:01:15.000Z</time>
      </trkpt>
      <trkpt lat="47.84096" lon="2.10192">
        <ele>135</ele>
        <time>2013-11-11T10:01:17.000Z</time>
      </trkpt>
      <trkpt lat="47.84093" lon="2.10204">
        <ele>135</ele>
        <time>2013-11-11T10:01:19.000Z</time>
      </trkpt>
      <trkpt lat="47.84089" lon="2.10229">
        <ele>134</ele>
        <time>2013-11-11T10:01:23.000Z</time>
      </trkpt>
      <trkpt lat="47.84088" lon="2.10243">
        <ele>135</ele>
        <time>2013-11-11T10:01:25.000Z</time>
      </trkpt>
      <trkpt lat="47.84088" lon="2.10243">
        <ele>135</ele>
        <time>2013-11-11T10:01:27.000Z</time>
      </trkpt>
      <trkpt lat="47.84084" lon="2.10269">
        <ele>135</ele>
        <time>2013-11-11T10:01:29.000Z</time>
      </trkpt>
      <trkpt lat="47.84083" lon="2.10284">
        <ele>136</ele>
        <time>2013-11-11T10:01:31.000Z</time>
      </trkpt>
      <trkpt lat="47.84081" lon="2.10298">
        <ele>136</ele>
        <time>2013-11-11T10:01:33.000Z</time>
      </trkpt>
      <trkpt lat="47.84079" lon="2.10313">
        <ele>137</ele>
        <time>2013-11-11T10:01:35.000Z</time>
      </trkpt>
      <trkpt lat="47.84077" lon="2.10328">
        <ele>137</ele>
        <time>2013-11-11T10:01:37.000Z</time>
      </trkpt>
      <trkpt lat="47.84076" lon="2.10343">
        <ele>137</ele>
        <time>2013-11-11T10:01:39.000Z</time>
      </trkpt>
      <trkpt lat="47.84073" lon="2.10357">
        <ele>136</ele>
        <time>2013-11-11T10:01:41.000Z</time>
      </trkpt>
      <trkpt lat="47.84071" lon="2.10371">
        <ele>135</ele>
        <time>2013-11-11T10:01:43.000Z</time>
      </trkpt>
      <trkpt lat="47.84068" lon="2.10386">
        <ele>136</ele>
        <time>2013-11-11T10:01:45.000Z</time>
      </trkpt>
      <trkpt lat="47.84068" lon="2.10386">
        <ele>136</ele>
        <time>2013-11-11T10:01:47.000Z</time>
      </trkpt>
      <trkpt lat="47.84068" lon="2.10386">
        <ele>136</ele>
        <time>2013-11-11T10:01:49.000Z</time>
      </trkpt>
      <trkpt lat="47.84068" lon="2.10386">
        <ele>136</ele>
        <time>2013-11-11T10:01:51.000Z</time>
      </trkpt>
      <trkpt lat="47.84068" lon="2.10386">
        <ele>136</ele>
        <time>2013-11-11T10:01:53.000Z</time>
      </trkpt>
      <trkpt lat="47.84068" lon="2.10386">
        <ele>136</ele>
        <time>2013-11-11T10:01:55.000Z</time>
      </trkpt>
      <trkpt lat="47.84068" lon="2.10386">
        <ele>136</ele>
        <time>2013-11-11T10:01:57.000Z</time>
      </trkpt>
      <trkpt lat="47.84068" lon="2.10386">
        <ele>136</ele>
        <time>2013-11-11T10:01:59.000Z</time>
      </trkpt>
      <trkpt lat="47.84068" lon="2.10386">
        <ele>136</ele>
        <time>2013-11-11T10:02:01.000Z</time>
      </trkpt>
      <trkpt lat="47.8404" lon="2.10471">
        <ele>140</ele>
        <time>2013-11-11T10:02:36.000Z</time>
      </trkpt>
      <trkpt lat="47.84034" lon="2.10483">
        <ele>138</ele>
        <time>2013-11-11T10:02:39.000Z</time>
      </trkpt>
      <trkpt lat="47.84026" lon="2.10502">
        <ele>138</ele>
        <time>2013-11-11T10:02:43.000Z</time>
      </trkpt>
      <trkpt lat="47.84017" lon="2.10525">
        <ele>136</ele>
        <time>2013-11-11T10:02:47.000Z</time>
      </trkpt>
      <trkpt lat="47.84012" lon="2.10538">
        <ele>136</ele>
        <time>2013-11-11T10:02:49.000Z</time>
      </trkpt>
      <trkpt lat="47.84007" lon="2.10552">
        <ele>137</ele>
        <time>2013-11-11T10:02:51.000Z</time>
      </trkpt>
      <trkpt lat="47.84002" lon="2.10564">
        <ele>137</ele>
        <time>2013-11-11T10:02:53.000Z</time>
      </trkpt>
      <trkpt lat="47.83997" lon="2.10576">
        <ele>137</ele>
        <time>2013-11-11T10:02:55.000Z</time>
      </trkpt>
      <trkpt lat="47.83992" lon="2.10589">
        <ele>137</ele>
        <time>2013-11-11T10:02:57.000Z</time>
      </trkpt>
      <trkpt lat="47.83987" lon="2.10602">
        <ele>137</ele>
        <time>2013-11-11T10:02:59.000Z</time>
      </trkpt>
      <trkpt lat="47.83983" lon="2.10614">
        <ele>136</ele>
        <time>2013-11-11T10:03:01.000Z</time>
      </trkpt>
      <trkpt lat="47.83978" lon="2.10627">
        <ele>136</ele>
        <time>2013-11-11T10:03:03.000Z</time>
      </trkpt>
      <trkpt lat="47.83973" lon="2.1064">
        <ele>138</ele>
        <time>2013-11-11T10:03:05.000Z</time>
      </trkpt>
      <trkpt lat="47.83967" lon="2.10651">
        <ele>136</ele>
        <time>2013-11-11T10:03:07.000Z</time>
      </trkpt>
      <trkpt lat="47.83962" lon="2.10664">
        <ele>137</ele>
        <time>2013-11-11T10:03:09.000Z</time>
      </trkpt>
      <trkpt lat="47.83956" lon="2.10676">
        <ele>137</ele>
        <time>2013-11-11T10:03:11.000Z</time>
      </trkpt>
      <trkpt lat="47.8395" lon="2.1069">
        <ele>137</ele>
        <time>2013-11-11T10:03:13.000Z</time>
      </trkpt>
      <trkpt lat="47.83944" lon="2.10702">
        <ele>137</ele>
        <time>2013-11-11T10:03:15.000Z</time>
      </trkpt>
      <trkpt lat="47.83939" lon="2.10714">
        <ele>138</ele>
        <time>2013-11-11T10:03:17.000Z</time>
      </trkpt>
      <trkpt lat="47.83939" lon="2.10714">
        <ele>138</ele>
        <time>2013-11-11T10:03:19.000Z</time>
      </trkpt>
      <trkpt lat="47.83939" lon="2.10714">
        <ele>138</ele>
        <time>2013-11-11T10:03:21.000Z</time>
      </trkpt>
      <trkpt lat="47.83939" lon="2.10714">
        <ele>138</ele>
        <time>2013-11-11T10:03:23.000Z</time>
      </trkpt>
      <trkpt lat="47.83939" lon="2.10714">
        <ele>138</ele>
        <time>2013-11-11T10:03:25.000Z</time>
      </trkpt>
      <trkpt lat="47.83939" lon="2.10714">
        <ele>138</ele>
        <time>2013-11-11T10:03:27.000Z</time>
      </trkpt>
      <trkpt lat="47.83939" lon="2.10714">
        <ele>138</ele>
        <time>2013-11-11T10:03:29.000Z</time>
      </trkpt>
      <trkpt lat="47.83939" lon="2.10714">
        <ele>138</ele>
        <time>2013-11-11T10:03:31.000Z</time>
      </trkpt>
      <trkpt lat="47.83939" lon="2.10714">
        <ele>138</ele>
        <time>2013-11-11T10:03:33.000Z</time>
      </trkpt>
      <trkpt lat="47.83939" lon="2.10714">
        <ele>138</ele>
        <time>2013-11-11T10:03:35.000Z</time>
      </trkpt>
      <trkpt lat="47.83939" lon="2.10714">
        <ele>138</ele>
        <time>2013-11-11T10:03:37.000Z</time>
      </trkpt>
      <trkpt lat="47.83939" lon="2.10714">
        <ele>138</ele>
        <time>2013-11-11T10:03:39.000Z</time>
      </trkpt>
      <trkpt lat="47.83939" lon="2.10714">
        <ele>138</ele>
        <time>2013-11-11T10:03:41.000Z</time>
      </trkpt>
      <trkpt lat="47.83939" lon="2.10714">
        <ele>138</ele>
        <time>2013-11-11T10:03:43.000Z</time>
      </trkpt>
      <trkpt lat="47.83832" lon="2.10855">
        <ele>138</ele>
        <time>2013-11-11T10:03:47.000Z</time>
      </trkpt>
      <trkpt lat="47.83822" lon="2.1086">
        <ele>138</ele>
        <time>2013-11-11T10:03:49.000Z</time>
      </trkpt>
      <trkpt lat="47.83812" lon="2.10866">
        <ele>137</ele>
        <time>2013-11-11T10:03:51.000Z</time>
      </trkpt>
      <trkpt lat="47.83802" lon="2.10868">
        <ele>138</ele>
        <time>2013-11-11T10:03:53.000Z</time>
      </trkpt>
      <trkpt lat="47.83791" lon="2.10869">
        <ele>137</ele>
        <time>2013-11-11T10:03:55.000Z</time>
      </trkpt>
      <trkpt lat="47.83781" lon="2.1087">
        <ele>137</ele>
        <time>2013-11-11T10:03:57.000Z</time>
      </trkpt>
      <trkpt lat="47.83771" lon="2.1087">
        <ele>137</ele>
        <time>2013-11-11T10:03:59.000Z</time>
      </trkpt>
      <trkpt lat="47.83761" lon="2.1087">
        <ele>139</ele>
        <time>2013-11-11T10:04:01.000Z</time>
      </trkpt>
      <trkpt lat="47.83761" lon="2.1087">
        <ele>139</ele>
        <time>2013-11-11T10:04:03.000Z</time>
      </trkpt>
      <trkpt lat="47.83761" lon="2.1087">
        <ele>139</ele>
        <time>2013-11-11T10:04:05.000Z</time>
      </trkpt>
      <trkpt lat="47.83723" lon="2.10879">
        <ele>136</ele>
        <time>2013-11-11T10:04:09.000Z</time>
      </trkpt>
      <trkpt lat="47.83714" lon="2.10882">
        <ele>135</ele>
        <time>2013-11-11T10:04:11.000Z</time>
      </trkpt>
      <trkpt lat="47.83705" lon="2.10885">
        <ele>135</ele>
        <time>2013-11-11T10:04:13.000Z</time>
      </trkpt>
      <trkpt lat="47.83705" lon="2.10885">
        <ele>135</ele>
        <time>2013-11-11T10:04:15.000Z</time>
      </trkpt>
      <trkpt lat="47.83684" lon="2.10898">
        <ele>134</ele>
        <time>2013-11-11T10:04:17.000Z</time>
      </trkpt>
      <trkpt lat="47.83675" lon="2.10905">
        <ele>133</ele>
        <time>2013-11-11T10:04:19.000Z</time>
      </trkpt>
      <trkpt lat="47.83675" lon="2.10905">
        <ele>133</ele>
        <time>2013-11-11T10:04:21.000Z</time>
      </trkpt>
      <trkpt lat="47.83675" lon="2.10905">
        <ele>133</ele>
        <time>2013-11-11T10:04:23.000Z</time>
      </trkpt>
      <trkpt lat="47.83675" lon="2.10905">
        <ele>133</ele>
        <time>2013-11-11T10:04:25.000Z</time>
      </trkpt>
      <trkpt lat="47.83675" lon="2.10905">
        <ele>133</ele>
        <time>2013-11-11T10:04:27.000Z</time>
      </trkpt>
      <trkpt lat="47.83675" lon="2.10905">
        <ele>133</ele>
        <time>2013-11-11T10:04:29.000Z</time>
      </trkpt>
      <trkpt lat="47.83675" lon="2.10905">
        <ele>133</ele>
        <time>2013-11-11T10:04:31.000Z</time>
      </trkpt>
      <trkpt lat="47.83675" lon="2.10905">
        <ele>133</ele>
        <time>2013-11-11T10:04:33.000Z</time>
      </trkpt>
      <trkpt lat="47.83675" lon="2.10905">
        <ele>133</ele>
        <time>2013-11-11T10:04:35.000Z</time>
      </trkpt>
      <trkpt lat="47.83675" lon="2.10905">
        <ele>133</ele>
        <time>2013-11-11T10:04:37.000Z</time>
      </trkpt>
      <trkpt lat="47.83675" lon="2.10905">
        <ele>133</ele>
        <time>2013-11-11T10:04:39.000Z</time>
      </trkpt>
      <trkpt lat="47.83675" lon="2.10905">
        <ele>133</ele>
        <time>2013-11-11T10:04:41.000Z</time>
      </trkpt>
      <trkpt lat="47.83633" lon="2.10928">
        <ele>138</ele>
        <time>2013-11-11T10:04:44.000Z</time>
      </trkpt>
      <trkpt lat="47.83607" lon="2.10939">
        <ele>137</ele>
        <time>2013-11-11T10:04:46.000Z</time>
      </trkpt>
      <trkpt lat="47.8359" lon="2.10943">
        <ele>137</ele>
        <time>2013-11-11T10:04:48.000Z</time>
      </trkpt>
      <trkpt lat="47.83576" lon="2.10944">
        <ele>137</ele>
        <time>2013-11-11T10:04:50.000Z</time>
      </trkpt>
      <trkpt lat="47.83565" lon="2.10943">
        <ele>136</ele>
        <time>2013-11-11T10:04:52.000Z</time>
      </trkpt>
      <trkpt lat="47.83548" lon="2.10942">
        <ele>136</ele>
        <time>2013-11-11T10:04:54.000Z</time>
      </trkpt>
      <trkpt lat="47.83539" lon="2.10939">
        <ele>134</ele>
        <time>2013-11-11T10:04:56.000Z</time>
      </trkpt>
      <trkpt lat="47.83524" lon="2.10935">
        <ele>134</ele>
        <time>2013-11-11T10:05:00.000Z</time>
      </trkpt>
      <trkpt lat="47.83524" lon="2.10935">
        <ele>134</ele>
        <time>2013-11-11T10:05:02.000Z</time>
      </trkpt>
      <trkpt lat="47.83524" lon="2.10935">
        <ele>134</ele>
        <time>2013-11-11T10:05:04.000Z</time>
      </trkpt>
      <trkpt lat="47.83524" lon="2.10935">
        <ele>134</ele>
        <time>2013-11-11T10:05:06.000Z</time>
      </trkpt>
      <trkpt lat="47.83524" lon="2.10935">
        <ele>134</ele>
        <time>2013-11-11T10:05:08.000Z</time>
      </trkpt>
      <trkpt lat="47.83509" lon="2.10989">
        <ele>131</ele>
        <time>2013-11-11T10:05:12.000Z</time>
      </trkpt>
      <trkpt lat="47.83509" lon="2.11002">
        <ele>131</ele>
        <time>2013-11-11T10:05:14.000Z</time>
      </trkpt>
      <trkpt lat="47.83509" lon="2.11017">
        <ele>131</ele>
        <time>2013-11-11T10:05:16.000Z</time>
      </trkpt>
      <trkpt lat="47.83509" lon="2.11043">
        <ele>131</ele>
        <time>2013-11-11T10:05:20.000Z</time>
      </trkpt>
      <trkpt lat="47.83509" lon="2.11069">
        <ele>132</ele>
        <time>2013-11-11T10:05:24.000Z</time>
      </trkpt>
      <trkpt lat="47.83509" lon="2.11069">
        <ele>132</ele>
        <time>2013-11-11T10:05:26.000Z</time>
      </trkpt>
      <trkpt lat="47.83509" lon="2.11069">
        <ele>132</ele>
        <time>2013-11-11T10:05:28.000Z</time>
      </trkpt>
      <trkpt lat="47.83509" lon="2.11069">
        <ele>132</ele>
        <time>2013-11-11T10:05:30.000Z</time>
      </trkpt>
      <trkpt lat="47.83509" lon="2.11069">
        <ele>132</ele>
        <time>2013-11-11T10:05:32.000Z</time>
      </trkpt>
      <trkpt lat="47.83509" lon="2.11069">
        <ele>132</ele>
        <time>2013-11-11T10:05:34.000Z</time>
      </trkpt>
      <trkpt lat="47.83509" lon="2.11069">
        <ele>132</ele>
        <time>2013-11-11T10:05:36.000Z</time>
      </trkpt>
      <trkpt lat="47.83509" lon="2.11069">
        <ele>132</ele>
        <time>2013-11-11T10:05:38.000Z</time>
      </trkpt>
      <trkpt lat="47.83509" lon="2.11069">
        <ele>132</ele>
        <time>2013-11-11T10:05:40.000Z</time>
      </trkpt>
      <trkpt lat="47.83467" lon="2.11141">
        <ele>132</ele>
        <time>2013-11-11T10:05:42.000Z</time>
      </trkpt>
      <trkpt lat="47.83459" lon="2.11148">
        <ele>133</ele>
        <time>2013-11-11T10:05:44.000Z</time>
      </trkpt>
      <trkpt lat="47.83451" lon="2.11155">
        <ele>132</ele>
        <time>2013-11-11T10:05:46.000Z</time>
      </trkpt>
      <trkpt lat="47.83434" lon="2.11164">
        <ele>130</ele>
        <time>2013-11-11T10:05:50.000Z</time>
      </trkpt>
      <trkpt lat="47.83425" lon="2.11162">
        <ele>131</ele>
        <time>2013-11-11T10:05:52.000Z</time>
      </trkpt>
      <trkpt lat="47.83402" lon="2.11144">
        <ele>132</ele>
        <time>2013-11-11T10:05:58.000Z</time>
      </trkpt>
      <trkpt lat="47.83402" lon="2.11144">
        <ele>132</ele>
        <time>2013-11-11T10:06:00.000Z</time>
      </trkpt>
      <trkpt lat="47.83387" lon="2.11131">
        <ele>135</ele>
        <time>2013-11-11T10:06:02.000Z</time>
      </trkpt>
      <trkpt lat="47.83378" lon="2.11124">
        <ele>133</ele>
        <time>2013-11-11T10:06:04.000Z</time>
      </trkpt>
      <trkpt lat="47.83371" lon="2.11116">
        <ele>132</ele>
        <time>2013-11-11T10:06:06.000Z</time>
      </trkpt>
      <trkpt lat="47.83362" lon="2.11109">
        <ele>132</ele>
        <time>2013-11-11T10:06:08.000Z</time>
      </trkpt>
      <trkpt lat="47.83362" lon="2.11109">
        <ele>132</ele>
        <time>2013-11-11T10:06:10.000Z</time>
      </trkpt>
      <trkpt lat="47.83362" lon="2.11109">
        <ele>132</ele>
        <time>2013-11-11T10:06:12.000Z</time>
      </trkpt>
      <trkpt lat="47.83362" lon="2.11109">
        <ele>132</ele>
        <time>2013-11-11T10:06:14.000Z</time>
      </trkpt>
      <trkpt lat="47.83323" lon="2.11074">
        <ele>137</ele>
        <time>2013-11-11T10:06:18.000Z</time>
      </trkpt>
      <trkpt lat="47.83307" lon="2.11058">
        <ele>138</ele>
        <time>2013-11-11T10:06:22.000Z</time>
      </trkpt>
      <trkpt lat="47.83298" lon="2.11049">
        <ele>139</ele>
        <time>2013-11-11T10:06:24.000Z</time>
      </trkpt>
      <trkpt lat="47.8329" lon="2.1104">
        <ele>138</ele>
        <time>2013-11-11T10:06:26.000Z</time>
      </trkpt>
      <trkpt lat="47.83281" lon="2.11033">
        <ele>138</ele>
        <time>2013-11-11T10:06:28.000Z</time>
      </trkpt>
      <trkpt lat="47.83273" lon="2.11026">
        <ele>139</ele>
        <time>2013-11-11T10:06:30.000Z</time>
      </trkpt>
      <trkpt lat="47.83265" lon="2.11018">
        <ele>139</ele>
        <time>2013-11-11T10:06:32.000Z</time>
      </trkpt>
      <trkpt lat="47.83257" lon="2.1101">
        <ele>139</ele>
        <time>2013-11-11T10:06:34.000Z</time>
      </trkpt>
      <trkpt lat="47.83248" lon="2.11001">
        <ele>138</ele>
        <time>2013-11-11T10:06:36.000Z</time>
      </trkpt>
      <trkpt lat="47.83239" lon="2.1099">
        <ele>137</ele>
        <time>2013-11-11T10:06:38.000Z</time>
      </trkpt>
      <trkpt lat="47.83231" lon="2.1098">
        <ele>137</ele>
        <time>2013-11-11T10:06:40.000Z</time>
      </trkpt>
      <trkpt lat="47.83221" lon="2.10972">
        <ele>137</ele>
        <time>2013-11-11T10:06:42.000Z</time>
      </trkpt>
      <trkpt lat="47.83214" lon="2.10964">
        <ele>138</ele>
        <time>2013-11-11T10:06:44.000Z</time>
      </trkpt>
      <trkpt lat="47.83214" lon="2.10964">
        <ele>138</ele>
        <time>2013-11-11T10:06:46.000Z</time>
      </trkpt>
      <trkpt lat="47.83214" lon="2.10964">
        <ele>138</ele>
        <time>2013-11-11T10:06:48.000Z</time>
      </trkpt>
      <trkpt lat="47.83214" lon="2.10964">
        <ele>138</ele>
        <time>2013-11-11T10:06:50.000Z</time>
      </trkpt>
      <trkpt lat="47.83214" lon="2.10964">
        <ele>138</ele>
        <time>2013-11-11T10:06:52.000Z</time>
      </trkpt>
      <trkpt lat="47.83181" lon="2.10964">
        <ele>138</ele>
        <time>2013-11-11T10:06:58.000Z</time>
      </trkpt>
      <trkpt lat="47.83181" lon="2.10964">
        <ele>138</ele>
        <time>2013-11-11T10:07:00.000Z</time>
      </trkpt>
      <trkpt lat="47.83181" lon="2.10964">
        <ele>138</ele>
        <time>2013-11-11T10:07:02.000Z</time>
      </trkpt>
      <trkpt lat="47.83181" lon="2.10964">
        <ele>138</ele>
        <time>2013-11-11T10:07:04.000Z</time>
      </trkpt>
      <trkpt lat="47.83181" lon="2.10964">
        <ele>138</ele>
        <time>2013-11-11T10:07:06.000Z</time>
      </trkpt>
      <trkpt lat="47.83181" lon="2.10964">
        <ele>138</ele>
        <time>2013-11-11T10:07:08.000Z</time>
      </trkpt>
      <trkpt lat="47.83131" lon="2.10974">
        <ele>136</ele>
        <time>2013-11-11T10:07:12.000Z</time>
      </trkpt>
      <trkpt lat="47.83101" lon="2.10979">
        <ele>135</ele>
        <time>2013-11-11T10:07:14.000Z</time>
      </trkpt>
      <trkpt lat="47.83101" lon="2.10979">
        <ele>135</ele>
        <time>2013-11-11T10:07:16.000Z</time>
      </trkpt>
      <trkpt lat="47.83101" lon="2.10979">
        <ele>135</ele>
        <time>2013-11-11T10:07:18.000Z</time>
      </trkpt>
      <trkpt lat="47.83101" lon="2.10979">
        <ele>135</ele>
        <time>2013-11-11T10:07:20.000Z</time>
      </trkpt>
      <trkpt lat="47.83101" lon="2.10979">
        <ele>135</ele>
        <time>2013-11-11T10:07:22.000Z</time>
      </trkpt>
      <trkpt lat="47.83101" lon="2.10979">
        <ele>135</ele>
        <time>2013-11-11T10:07:24.000Z</time>
      </trkpt>
      <trkpt lat="47.83101" lon="2.10979">
        <ele>135</ele>
        <time>2013-11-11T10:07:26.000Z</time>
      </trkpt>
      <trkpt lat="47.83101" lon="2.10979">
        <ele>135</ele>
        <time>2013-11-11T10:07:28.000Z</time>
      </trkpt>
      <trkpt lat="47.83101" lon="2.10979">
        <ele>135</ele>
        <time>2013-11-11T10:07:30.000Z</time>
      </trkpt>
      <trkpt lat="47.83101" lon="2.10979">
        <ele>135</ele>
        <time>2013-11-11T10:07:32.000Z</time>
      </trkpt>
      <trkpt lat="47.83101" lon="2.10979">
        <ele>135</ele>
        <time>2013-11-11T10:07:34.000Z</time>
      </trkpt>
      <trkpt lat="47.83033" lon="2.11001">
        <ele>134</ele>
        <time>2013-11-11T10:07:38.000Z</time>
      </trkpt>
      <trkpt lat="47.82994" lon="2.11012">
        <ele>134</ele>
        <time>2013-11-11T10:07:40.000Z</time>
      </trkpt>
      <trkpt lat="47.82971" lon="2.11017">
        <ele>135</ele>
        <time>2013-11-11T10:07:42.000Z</time>
      </trkpt>
      <trkpt lat="47.82955" lon="2.1102">
        <ele>135</ele>
        <time>2013-11-11T10:07:44.000Z</time>
      </trkpt>
      <trkpt lat="47.82955" lon="2.1102">
        <ele>135</ele>
        <time>2013-11-11T10:07:46.000Z</time>
      </trkpt>
      <trkpt lat="47.82955" lon="2.1102">
        <ele>135</ele>
        <time>2013-11-11T10:07:48.000Z</time>
      </trkpt>
      <trkpt lat="47.82955" lon="2.1102">
        <ele>135</ele>
        <time>2013-11-11T10:07:50.000Z</time>
      </trkpt>
      <trkpt lat="47.82955" lon="2.1102">
        <ele>135</ele>
        <time>2013-11-11T10:07:52.000Z</time>
      </trkpt>
      <trkpt lat="47.82955" lon="2.1102">
        <ele>135</ele>
        <time>2013-11-11T10:07:54.000Z</time>
      </trkpt>
      <trkpt lat="47.82919" lon="2.11026">
        <ele>137</ele>
        <time>2013-11-11T10:07:58.000Z</time>
      </trkpt>
      <trkpt lat="47.82919" lon="2.11026">
        <ele>137</ele>
        <time>2013-11-11T10:08:00.000Z</time>
      </trkpt>
      <trkpt lat="47.82919" lon="2.11026">
        <ele>137</ele>
        <time>2013-11-11T10:08:02.000Z</time>
      </trkpt>
      <trkpt lat="47.82919" lon="2.11026">
        <ele>137</ele>
        <time>2013-11-11T10:08:04.000Z</time>
      </trkpt>
      <trkpt lat="47.82919" lon="2.11026">
        <ele>137</ele>
        <time>2013-11-11T10:08:06.000Z</time>
      </trkpt>
      <trkpt lat="47.82919" lon="2.11026">
        <ele>137</ele>
        <time>2013-11-11T10:08:08.000Z</time>
      </trkpt>
      <trkpt lat="47.82919" lon="2.11026">
        <ele>137</ele>
        <time>2013-11-11T10:08:10.000Z</time>
      </trkpt>
      <trkpt lat="47.82873" lon="2.11031">
        <ele>137</ele>
        <time>2013-11-11T10:08:14.000Z</time>
      </trkpt>
      <trkpt lat="47.82873" lon="2.11031">
        <ele>137</ele>
        <time>2013-11-11T10:08:16.000Z</time>
      </trkpt>
      <trkpt lat="47.82873" lon="2.11031">
        <ele>137</ele>
        <time>2013-11-11T10:08:18.000Z</time>
      </trkpt>
      <trkpt lat="47.82873" lon="2.11031">
        <ele>137</ele>
        <time>2013-11-11T10:08:20.000Z</time>
      </trkpt>
      <trkpt lat="47.82873" lon="2.11031">
        <ele>137</ele>
        <time>2013-11-11T10:08:22.000Z</time>
      </trkpt>
      <trkpt lat="47.82873" lon="2.11031">
        <ele>137</ele>
        <time>2013-11-11T10:08:24.000Z</time>
      </trkpt>
      <trkpt lat="47.82873" lon="2.11031">
        <ele>137</ele>
        <time>2013-11-11T10:08:26.000Z</time>
      </trkpt>
      <trkpt lat="47.82873" lon="2.11031">
        <ele>137</ele>
        <time>2013-11-11T10:08:28.000Z</time>
      </trkpt>
      <trkpt lat="47.82816" lon="2.11042">
        <ele>137</ele>
        <time>2013-11-11T10:08:53.000Z</time>
      </trkpt>
      <trkpt lat="47.82816" lon="2.11042">
        <ele>137</ele>
        <time>2013-11-11T10:08:55.000Z</time>
      </trkpt>
      <trkpt lat="47.82798" lon="2.11044">
        <ele>137</ele>
        <time>2013-11-11T10:08:59.000Z</time>
      </trkpt>
      <trkpt lat="47.82783" lon="2.1105">
        <ele>137</ele>
        <time>2013-11-11T10:09:03.000Z</time>
      </trkpt>
      <trkpt lat="47.82768" lon="2.11056">
        <ele>137</ele>
        <time>2013-11-11T10:09:07.000Z</time>
      </trkpt>
      <trkpt lat="47.82754" lon="2.11064">
        <ele>136</ele>
        <time>2013-11-11T10:09:11.000Z</time>
      </trkpt>
      <trkpt lat="47.82754" lon="2.11064">
        <ele>136</ele>
        <time>2013-11-11T10:09:13.000Z</time>
      </trkpt>
      <trkpt lat="47.82738" lon="2.11072">
        <ele>135</ele>
        <time>2013-11-11T10:09:15.000Z</time>
      </trkpt>
      <trkpt lat="47.82721" lon="2.1108">
        <ele>135</ele>
        <time>2013-11-11T10:09:19.000Z</time>
      </trkpt>
      <trkpt lat="47.82705" lon="2.11088">
        <ele>135</ele>
        <time>2013-11-11T10:09:23.000Z</time>
      </trkpt>
      <trkpt lat="47.82695" lon="2.11092">
        <ele>134</ele>
        <time>2013-11-11T10:09:25.000Z</time>
      </trkpt>
      <trkpt lat="47.82685" lon="2.11097">
        <ele>134</ele>
        <time>2013-11-11T10:09:27.000Z</time>
      </trkpt>
      <trkpt lat="47.82675" lon="2.11101">
        <ele>135</ele>
        <time>2013-11-11T10:09:29.000Z</time>
      </trkpt>
      <trkpt lat="47.82665" lon="2.11105">
        <ele>135</ele>
        <time>2013-11-11T10:09:31.000Z</time>
      </trkpt>
      <trkpt lat="47.82656" lon="2.11109">
        <ele>136</ele>
        <time>2013-11-11T10:09:33.000Z</time>
      </trkpt>
      <trkpt lat="47.82646" lon="2.11113">
        <ele>137</ele>
        <time>2013-11-11T10:09:35.000Z</time>
      </trkpt>
      <trkpt lat="47.82636" lon="2.11116">
        <ele>136</ele>
        <time>2013-11-11T10:09:37.000Z</time>
      </trkpt>
      <trkpt lat="47.82626" lon="2.11119">
        <ele>136</ele>
        <time>2013-11-11T10:09:39.000Z</time>
      </trkpt>
      <trkpt lat="47.82617" lon="2.11121">
        <ele>136</ele>
        <time>2013-11-11T10:09:41.000Z</time>
      </trkpt>
      <trkpt lat="47.82606" lon="2.11123">
        <ele>136</ele>
        <time>2013-11-11T10:09:43.000Z</time>
      </trkpt>
      <trkpt lat="47.82595" lon="2.11125">
        <ele>136</ele>
        <time>2013-11-11T10:09:45.000Z</time>
      </trkpt>
      <trkpt lat="47.82586" lon="2.11126">
        <ele>136</ele>
        <time>2013-11-11T10:09:47.000Z</time>
      </trkpt>
      <trkpt lat="47.82576" lon="2.11126">
        <ele>136</ele>
        <time>2013-11-11T10:09:49.000Z</time>
      </trkpt>
      <trkpt lat="47.82566" lon="2.11125">
        <ele>137</ele>
        <time>2013-11-11T10:09:51.000Z</time>
      </trkpt>
      <trkpt lat="47.82566" lon="2.11125">
        <ele>137</ele>
        <time>2013-11-11T10:09:53.000Z</time>
      </trkpt>
      <trkpt lat="47.82566" lon="2.11125">
        <ele>137</ele>
        <time>2013-11-11T10:09:55.000Z</time>
      </trkpt>
      <trkpt lat="47.82526" lon="2.11116">
        <ele>137</ele>
        <time>2013-11-11T10:09:59.000Z</time>
      </trkpt>
      <trkpt lat="47.82516" lon="2.11114">
        <ele>137</ele>
        <time>2013-11-11T10:10:01.000Z</time>
      </trkpt>
      <trkpt lat="47.82516" lon="2.11114">
        <ele>137</ele>
        <time>2013-11-11T10:10:03.000Z</time>
      </trkpt>
      <trkpt lat="47.82516" lon="2.11114">
        <ele>137</ele>
        <time>2013-11-11T10:10:05.000Z</time>
      </trkpt>
      <trkpt lat="47.82516" lon="2.11114">
        <ele>137</ele>
        <time>2013-11-11T10:10:07.000Z</time>
      </trkpt>
      <trkpt lat="47.82516" lon="2.11114">
        <ele>137</ele>
        <time>2013-11-11T10:10:09.000Z</time>
      </trkpt>
      <trkpt lat="47.82516" lon="2.11114">
        <ele>137</ele>
        <time>2013-11-11T10:10:11.000Z</time>
      </trkpt>
      <trkpt lat="47.82516" lon="2.11114">
        <ele>137</ele>
        <time>2013-11-11T10:10:13.000Z</time>
      </trkpt>
      <trkpt lat="47.82516" lon="2.11114">
        <ele>137</ele>
        <time>2013-11-11T10:10:15.000Z</time>
      </trkpt>
      <trkpt lat="47.82426" lon="2.11107">
        <ele>137</ele>
        <time>2013-11-11T10:10:21.000Z</time>
      </trkpt>
      <trkpt lat="47.82426" lon="2.11107">
        <ele>137</ele>
        <time>2013-11-11T10:10:23.000Z</time>
      </trkpt>
      <trkpt lat="47.82426" lon="2.11107">
        <ele>137</ele>
        <time>2013-11-11T10:10:25.000Z</time>
      </trkpt>
      <trkpt lat="47.82426" lon="2.11107">
        <ele>137</ele>
        <time>2013-11-11T10:10:27.000Z</time>
      </trkpt>
      <trkpt lat="47.82426" lon="2.11107">
        <ele>137</ele>
        <time>2013-11-11T10:10:29.000Z</time>
      </trkpt>
      <trkpt lat="47.82426" lon="2.11107">
        <ele>137</ele>
        <time>2013-11-11T10:10:31.000Z</time>
      </trkpt>
      <trkpt lat="47.82426" lon="2.11107">
        <ele>137</ele>
        <time>2013-11-11T10:10:33.000Z</time>
      </trkpt>
      <trkpt lat="47.82426" lon="2.11107">
        <ele>137</ele>
        <time>2013-11-11T10:10:35.000Z</time>
      </trkpt>
      <trkpt lat="47.82426" lon="2.11107">
        <ele>137</ele>
        <time>2013-11-11T10:10:37.000Z</time>
      </trkpt>
      <trkpt lat="47.82426" lon="2.11107">
        <ele>137</ele>
        <time>2013-11-11T10:10:39.000Z</time>
      </trkpt>
      <trkpt lat="47.82426" lon="2.11107">
        <ele>137</ele>
        <time>2013-11-11T10:10:41.000Z</time>
      </trkpt>
      <trkpt lat="47.82426" lon="2.11107">
        <ele>137</ele>
        <time>2013-11-11T10:10:43.000Z</time>
      </trkpt>
      <trkpt lat="47.82426" lon="2.11107">
        <ele>137</ele>
        <time>2013-11-11T10:10:45.000Z</time>
      </trkpt>
      <trkpt lat="47.82426" lon="2.11107">
        <ele>137</ele>
        <time>2013-11-11T10:10:47.000Z</time>
      </trkpt>
      <trkpt lat="47.82426" lon="2.11107">
        <ele>137</ele>
        <time>2013-11-11T10:10:49.000Z</time>
      </trkpt>
      <trkpt lat="47.82426" lon="2.11107">
        <ele>137</ele>
        <time>2013-11-11T10:10:51.000Z</time>
      </trkpt>
      <trkpt lat="47.82426" lon="2.11107">
        <ele>137</ele>
        <time>2013-11-11T10:10:53.000Z</time>
      </trkpt>
      <trkpt lat="47.82426" lon="2.11107">
        <ele>137</ele>
        <time>2013-11-11T10:10:55.000Z</time>
      </trkpt>
      <trkpt lat="47.82426" lon="2.11107">
        <ele>137</ele>
        <time>2013-11-11T10:10:57.000Z</time>
      </trkpt>
      <trkpt lat="47.82341" lon="2.11117">
        <ele>137</ele>
        <time>2013-11-11T10:11:01.000Z</time>
      </trkpt>
      <trkpt lat="47.82294" lon="2.11123">
        <ele>139</ele>
        <time>2013-11-11T10:11:03.000Z</time>
      </trkpt>
      <trkpt lat="47.82267" lon="2.11127">
        <ele>139</ele>
        <time>2013-11-11T10:11:05.000Z</time>
      </trkpt>
      <trkpt lat="47.82249" lon="2.11129">
        <ele>138</ele>
        <time>2013-11-11T10:11:07.000Z</time>
      </trkpt>
      <trkpt lat="47.82236" lon="2.1113">
        <ele>139</ele>
        <time>2013-11-11T10:11:09.000Z</time>
      </trkpt>
      <trkpt lat="47.82212" lon="2.11132">
        <ele>140</ele>
        <time>2013-11-11T10:11:11.000Z</time>
      </trkpt>
      <trkpt lat="47.82203" lon="2.11133">
        <ele>141</ele>
        <time>2013-11-11T10:11:13.000Z</time>
      </trkpt>
      <trkpt lat="47.82193" lon="2.11133">
        <ele>142</ele>
        <time>2013-11-11T10:11:15.000Z</time>
      </trkpt>
      <trkpt lat="47.82184" lon="2.11132">
        <ele>143</ele>
        <time>2013-11-11T10:11:17.000Z</time>
      </trkpt>
      <trkpt lat="47.82184" lon="2.11132">
        <ele>143</ele>
        <time>2013-11-11T10:11:19.000Z</time>
      </trkpt>
      <trkpt lat="47.82184" lon="2.11132">
        <ele>143</ele>
        <time>2013-11-11T10:11:21.000Z</time>
      </trkpt>
      <trkpt lat="47.82147" lon="2.11137">
        <ele>143</ele>
        <time>2013-11-11T10:11:25.000Z</time>
      </trkpt>
      <trkpt lat="47.82147" lon="2.11137">
        <ele>143</ele>
        <time>2013-11-11T10:11:27.000Z</time>
      </trkpt>
      <trkpt lat="47.82147" lon="2.11137">
        <ele>143</ele>
        <time>2013-11-11T10:11:29.000Z</time>
      </trkpt>
      <trkpt lat="47.82147" lon="2.11137">
        <ele>143</ele>
        <time>2013-11-11T10:11:31.000Z</time>
      </trkpt>
      <trkpt lat="47.82147" lon="2.11137">
        <ele>143</ele>
        <time>2013-11-11T10:11:33.000Z</time>
      </trkpt>
      <trkpt lat="47.82147" lon="2.11137">
        <ele>143</ele>
        <time>2013-11-11T10:11:39.000Z</time>
      </trkpt>
      <trkpt lat="47.82147" lon="2.11137">
        <ele>143</ele>
        <time>2013-11-11T10:11:41.000Z</time>
      </trkpt>
      <trkpt lat="47.82147" lon="2.11137">
        <ele>143</ele>
        <time>2013-11-11T10:11:43.000Z</time>
      </trkpt>
      <trkpt lat="47.82147" lon="2.11137">
        <ele>143</ele>
        <time>2013-11-11T10:11:45.000Z</time>
      </trkpt>
      <trkpt lat="47.82147" lon="2.11137">
        <ele>143</ele>
        <time>2013-11-11T10:11:47.000Z</time>
      </trkpt>
      <trkpt lat="47.82147" lon="2.11137">
        <ele>143</ele>
        <time>2013-11-11T10:11:49.000Z</time>
      </trkpt>
      <trkpt lat="47.82147" lon="2.11137">
        <ele>143</ele>
        <time>2013-11-11T10:11:51.000Z</time>
      </trkpt>
      <trkpt lat="47.82147" lon="2.11137">
        <ele>143</ele>
        <time>2013-11-11T10:11:53.000Z</time>
      </trkpt>
      <trkpt lat="47.82147" lon="2.11137">
        <ele>143</ele>
        <time>2013-11-11T10:11:55.000Z</time>
      </trkpt>
      <trkpt lat="47.82147" lon="2.11137">
        <ele>143</ele>
        <time>2013-11-11T10:11:57.000Z</time>
      </trkpt>
      <trkpt lat="47.82147" lon="2.11137">
        <ele>143</ele>
        <time>2013-11-11T10:11:59.000Z</time>
      </trkpt>
      <trkpt lat="47.82147" lon="2.11137">
        <ele>143</ele>
        <time>2013-11-11T10:12:01.000Z</time>
      </trkpt>
      <trkpt lat="47.81992" lon="2.11155">
        <ele>146</ele>
        <time>2013-11-11T10:12:03.000Z</time>
      </trkpt>
      <trkpt lat="47.81976" lon="2.11157">
        <ele>146</ele>
        <time>2013-11-11T10:12:07.000Z</time>
      </trkpt>
      <trkpt lat="47.81966" lon="2.11158">
        <ele>146</ele>
        <time>2013-11-11T10:12:09.000Z</time>
      </trkpt>
      <trkpt lat="47.81966" lon="2.11158">
        <ele>146</ele>
        <time>2013-11-11T10:12:11.000Z</time>
      </trkpt>
      <trkpt lat="47.81966" lon="2.11158">
        <ele>146</ele>
        <time>2013-11-11T10:12:13.000Z</time>
      </trkpt>
      <trkpt lat="47.81933" lon="2.1116">
        <ele>150</ele>
        <time>2013-11-11T10:12:17.000Z</time>
      </trkpt>
      <trkpt lat="47.81923" lon="2.11161">
        <ele>150</ele>
        <time>2013-11-11T10:12:19.000Z</time>
      </trkpt>
      <trkpt lat="47.81923" lon="2.11161">
        <ele>150</ele>
        <time>2013-11-11T10:12:21.000Z</time>
      </trkpt>
      <trkpt lat="47.81923" lon="2.11161">
        <ele>150</ele>
        <time>2013-11-11T10:12:23.000Z</time>
      </trkpt>
      <trkpt lat="47.81923" lon="2.11161">
        <ele>150</ele>
        <time>2013-11-11T10:12:25.000Z</time>
      </trkpt>
      <trkpt lat="47.81881" lon="2.11168">
        <ele>146</ele>
        <time>2013-11-11T10:12:29.000Z</time>
      </trkpt>
      <trkpt lat="47.81871" lon="2.11168">
        <ele>146</ele>
        <time>2013-11-11T10:12:31.000Z</time>
      </trkpt>
      <trkpt lat="47.81862" lon="2.1117">
        <ele>145</ele>
        <time>2013-11-11T10:12:33.000Z</time>
      </trkpt>
      <trkpt lat="47.81852" lon="2.11171">
        <ele>145</ele>
        <time>2013-11-11T10:12:35.000Z</time>
      </trkpt>
      <trkpt lat="47.81842" lon="2.11172">
        <ele>144</ele>
        <time>2013-11-11T10:12:37.000Z</time>
      </trkpt>
      <trkpt lat="47.81842" lon="2.11172">
        <ele>144</ele>
        <time>2013-11-11T10:12:39.000Z</time>
      </trkpt>
      <trkpt lat="47.81842" lon="2.11172">
        <ele>144</ele>
        <time>2013-11-11T10:12:41.000Z</time>
      </trkpt>
      <trkpt lat="47.81842" lon="2.11172">
        <ele>144</ele>
        <time>2013-11-11T10:12:43.000Z</time>
      </trkpt>
      <trkpt lat="47.81842" lon="2.11172">
        <ele>144</ele>
        <time>2013-11-11T10:12:45.000Z</time>
      </trkpt>
      <trkpt lat="47.81842" lon="2.11172">
        <ele>144</ele>
        <time>2013-11-11T10:12:47.000Z</time>
      </trkpt>
      <trkpt lat="47.81842" lon="2.11172">
        <ele>144</ele>
        <time>2013-11-11T10:12:49.000Z</time>
      </trkpt>
      <trkpt lat="47.81842" lon="2.11172">
        <ele>144</ele>
        <time>2013-11-11T10:12:51.000Z</time>
      </trkpt>
      <trkpt lat="47.81836" lon="2.11145">
        <ele>145</ele>
        <time>2013-11-11T10:12:55.000Z</time>
      </trkpt>
      <trkpt lat="47.81835" lon="2.11125">
        <ele>145</ele>
        <time>2013-11-11T10:12:57.000Z</time>
      </trkpt>
      <trkpt lat="47.81837" lon="2.11109">
        <ele>145</ele>
        <time>2013-11-11T10:12:59.000Z</time>
      </trkpt>
      <trkpt lat="47.81841" lon="2.11094">
        <ele>146</ele>
        <time>2013-11-11T10:13:01.000Z</time>
      </trkpt>
      <trkpt lat="47.81845" lon="2.1108">
        <ele>146</ele>
        <time>2013-11-11T10:13:03.000Z</time>
      </trkpt>
      <trkpt lat="47.81855" lon="2.11053">
        <ele>145</ele>
        <time>2013-11-11T10:13:05.000Z</time>
      </trkpt>
      <trkpt lat="47.8186" lon="2.11041">
        <ele>146</ele>
        <time>2013-11-11T10:13:07.000Z</time>
      </trkpt>
      <trkpt lat="47.81865" lon="2.11028">
        <ele>146</ele>
        <time>2013-11-11T10:13:09.000Z</time>
      </trkpt>
      <trkpt lat="47.81869" lon="2.11015">
        <ele>145</ele>
        <time>2013-11-11T10:13:11.000Z</time>
      </trkpt>
      <trkpt lat="47.81869" lon="2.11015">
        <ele>145</ele>
        <time>2013-11-11T10:13:13.000Z</time>
      </trkpt>
      <trkpt lat="47.81879" lon="2.10988">
        <ele>145</ele>
        <time>2013-11-11T10:13:15.000Z</time>
      </trkpt>
      <trkpt lat="47.81885" lon="2.10975">
        <ele>145</ele>
        <time>2013-11-11T10:13:17.000Z</time>
      </trkpt>
      <trkpt lat="47.8189" lon="2.10963">
        <ele>145</ele>
        <time>2013-11-11T10:13:19.000Z</time>
      </trkpt>
      <trkpt lat="47.8189" lon="2.10963">
        <ele>145</ele>
        <time>2013-11-11T10:13:21.000Z</time>
      </trkpt>
      <trkpt lat="47.8189" lon="2.10963">
        <ele>145</ele>
        <time>2013-11-11T10:13:23.000Z</time>
      </trkpt>
      <trkpt lat="47.8189" lon="2.10963">
        <ele>145</ele>
        <time>2013-11-11T10:13:27.000Z</time>
      </trkpt>
      <trkpt lat="47.81915" lon="2.10879">
        <ele>145</ele>
        <time>2013-11-11T10:13:31.000Z</time>
      </trkpt>
      <trkpt lat="47.81918" lon="2.10864">
        <ele>145</ele>
        <time>2013-11-11T10:13:33.000Z</time>
      </trkpt>
      <trkpt lat="47.81921" lon="2.10849">
        <ele>146</ele>
        <time>2013-11-11T10:13:35.000Z</time>
      </trkpt>
      <trkpt lat="47.81924" lon="2.10833">
        <ele>145</ele>
        <time>2013-11-11T10:13:37.000Z</time>
      </trkpt>
      <trkpt lat="47.81927" lon="2.10818">
        <ele>144</ele>
        <time>2013-11-11T10:13:39.000Z</time>
      </trkpt>
      <trkpt lat="47.81927" lon="2.10818">
        <ele>144</ele>
        <time>2013-11-11T10:13:41.000Z</time>
      </trkpt>
      <trkpt lat="47.81927" lon="2.10818">
        <ele>144</ele>
        <time>2013-11-11T10:13:43.000Z</time>
      </trkpt>
      <trkpt lat="47.81949" lon="2.10749">
        <ele>143</ele>
        <time>2013-11-11T10:13:49.000Z</time>
      </trkpt>
      <trkpt lat="47.81955" lon="2.10738">
        <ele>142</ele>
        <time>2013-11-11T10:13:51.000Z</time>
      </trkpt>
      <trkpt lat="47.81963" lon="2.10724">
        <ele>142</ele>
        <time>2013-11-11T10:13:53.000Z</time>
      </trkpt>
      <trkpt lat="47.81971" lon="2.10713">
        <ele>142</ele>
        <time>2013-11-11T10:13:55.000Z</time>
      </trkpt>
      <trkpt lat="47.81979" lon="2.10701">
        <ele>142</ele>
        <time>2013-11-11T10:13:57.000Z</time>
      </trkpt>
      <trkpt lat="47.81987" lon="2.1069">
        <ele>142</ele>
        <time>2013-11-11T10:13:59.000Z</time>
      </trkpt>
      <trkpt lat="47.81995" lon="2.10678">
        <ele>143</ele>
        <time>2013-11-11T10:14:01.000Z</time>
      </trkpt>
      <trkpt lat="47.82004" lon="2.10667">
        <ele>143</ele>
        <time>2013-11-11T10:14:03.000Z</time>
      </trkpt>
      <trkpt lat="47.82013" lon="2.10655">
        <ele>143</ele>
        <time>2013-11-11T10:14:05.000Z</time>
      </trkpt>
      <trkpt lat="47.82021" lon="2.10642">
        <ele>143</ele>
        <time>2013-11-11T10:14:07.000Z</time>
      </trkpt>
      <trkpt lat="47.8203" lon="2.10631">
        <ele>142</ele>
        <time>2013-11-11T10:14:09.000Z</time>
      </trkpt>
      <trkpt lat="47.82038" lon="2.10619">
        <ele>142</ele>
        <time>2013-11-11T10:14:11.000Z</time>
      </trkpt>
      <trkpt lat="47.82047" lon="2.10607">
        <ele>142</ele>
        <time>2013-11-11T10:14:13.000Z</time>
      </trkpt>
      <trkpt lat="47.82055" lon="2.10595">
        <ele>143</ele>
        <time>2013-11-11T10:14:15.000Z</time>
      </trkpt>
      <trkpt lat="47.82064" lon="2.10584">
        <ele>143</ele>
        <time>2013-11-11T10:14:17.000Z</time>
      </trkpt>
      <trkpt lat="47.82073" lon="2.10573">
        <ele>143</ele>
        <time>2013-11-11T10:14:19.000Z</time>
      </trkpt>
      <trkpt lat="47.82081" lon="2.1056">
        <ele>142</ele>
        <time>2013-11-11T10:14:21.000Z</time>
      </trkpt>
      <trkpt lat="47.82089" lon="2.10548">
        <ele>143</ele>
        <time>2013-11-11T10:14:23.000Z</time>
      </trkpt>
      <trkpt lat="47.82098" lon="2.10536">
        <ele>143</ele>
        <time>2013-11-11T10:14:25.000Z</time>
      </trkpt>
      <trkpt lat="47.82107" lon="2.10524">
        <ele>143</ele>
        <time>2013-11-11T10:14:27.000Z</time>
      </trkpt>
      <trkpt lat="47.82116" lon="2.10513">
        <ele>144</ele>
        <time>2013-11-11T10:14:29.000Z</time>
      </trkpt>
      <trkpt lat="47.82125" lon="2.105">
        <ele>145</ele>
        <time>2013-11-11T10:14:31.000Z</time>
      </trkpt>
      <trkpt lat="47.82133" lon="2.10488">
        <ele>145</ele>
        <time>2013-11-11T10:14:33.000Z</time>
      </trkpt>
      <trkpt lat="47.82143" lon="2.10476">
        <ele>144</ele>
        <time>2013-11-11T10:14:35.000Z</time>
      </trkpt>
      <trkpt lat="47.82151" lon="2.10463">
        <ele>144</ele>
        <time>2013-11-11T10:14:37.000Z</time>
      </trkpt>
      <trkpt lat="47.8216" lon="2.10452">
        <ele>144</ele>
        <time>2013-11-11T10:14:39.000Z</time>
      </trkpt>
      <trkpt lat="47.82168" lon="2.10441">
        <ele>144</ele>
        <time>2013-11-11T10:14:41.000Z</time>
      </trkpt>
      <trkpt lat="47.82177" lon="2.1043">
        <ele>145</ele>
        <time>2013-11-11T10:14:43.000Z</time>
      </trkpt>
      <trkpt lat="47.82183" lon="2.10417">
        <ele>145</ele>
        <time>2013-11-11T10:14:45.000Z</time>
      </trkpt>
      <trkpt lat="47.82191" lon="2.10405">
        <ele>145</ele>
        <time>2013-11-11T10:14:47.000Z</time>
      </trkpt>
      <trkpt lat="47.822" lon="2.10394">
        <ele>145</ele>
        <time>2013-11-11T10:14:49.000Z</time>
      </trkpt>
      <trkpt lat="47.822" lon="2.10394">
        <ele>145</ele>
        <time>2013-11-11T10:14:51.000Z</time>
      </trkpt>
      <trkpt lat="47.822" lon="2.10394">
        <ele>145</ele>
        <time>2013-11-11T10:14:53.000Z</time>
      </trkpt>
      <trkpt lat="47.822" lon="2.10394">
        <ele>145</ele>
        <time>2013-11-11T10:14:55.000Z</time>
      </trkpt>
      <trkpt lat="47.822" lon="2.10394">
        <ele>145</ele>
        <time>2013-11-11T10:14:57.000Z</time>
      </trkpt>
      <trkpt lat="47.822" lon="2.10394">
        <ele>145</ele>
        <time>2013-11-11T10:14:59.000Z</time>
      </trkpt>
      <trkpt lat="47.822" lon="2.10394">
        <ele>145</ele>
        <time>2013-11-11T10:15:01.000Z</time>
      </trkpt>
      <trkpt lat="47.822" lon="2.10394">
        <ele>145</ele>
        <time>2013-11-11T10:15:03.000Z</time>
      </trkpt>
      <trkpt lat="47.822" lon="2.10394">
        <ele>145</ele>
        <time>2013-11-11T10:15:05.000Z</time>
      </trkpt>
      <trkpt lat="47.822" lon="2.10394">
        <ele>145</ele>
        <time>2013-11-11T10:15:07.000Z</time>
      </trkpt>
      <trkpt lat="47.822" lon="2.10394">
        <ele>145</ele>
        <time>2013-11-11T10:15:09.000Z</time>
      </trkpt>
      <trkpt lat="47.822" lon="2.10394">
        <ele>145</ele>
        <time>2013-11-11T10:15:11.000Z</time>
      </trkpt>
      <trkpt lat="47.822" lon="2.10394">
        <ele>145</ele>
        <time>2013-11-11T10:15:13.000Z</time>
      </trkpt>
      <trkpt lat="47.82231" lon="2.1035">
        <ele>144</ele>
        <time>2013-11-11T10:15:17.000Z</time>
      </trkpt>
      <trkpt lat="47.82219" lon="2.10365">
        <ele>145</ele>
        <time>2013-11-11T10:15:21.000Z</time>
      </trkpt>
      <trkpt lat="47.82208" lon="2.10374">
        <ele>144</ele>
        <time>2013-11-11T10:15:25.000Z</time>
      </trkpt>
      <trkpt lat="47.82199" lon="2.10371">
        <ele>146</ele>
        <time>2013-11-11T10:15:27.000Z</time>
      </trkpt>
      <trkpt lat="47.82183" lon="2.10364">
        <ele>145</ele>
        <time>2013-11-11T10:15:31.000Z</time>
      </trkpt>
      <trkpt lat="47.82167" lon="2.10356">
        <ele>145</ele>
        <time>2013-11-11T10:15:35.000Z</time>
      </trkpt>
      <trkpt lat="47.82151" lon="2.10347">
        <ele>145</ele>
        <time>2013-11-11T10:15:39.000Z</time>
      </trkpt>
      <trkpt lat="47.82133" lon="2.10339">
        <ele>144</ele>
        <time>2013-11-11T10:15:43.000Z</time>
      </trkpt>
      <trkpt lat="47.82125" lon="2.10335">
        <ele>143</ele>
        <time>2013-11-11T10:15:47.000Z</time>
      </trkpt>
      <trkpt lat="47.82125" lon="2.10335">
        <ele>143</ele>
        <time>2013-11-11T10:15:49.000Z</time>
      </trkpt>
      <trkpt lat="47.82125" lon="2.10335">
        <ele>143</ele>
        <time>2013-11-11T10:15:51.000Z</time>
      </trkpt>
      <trkpt lat="47.82125" lon="2.10335">
        <ele>143</ele>
        <time>2013-11-11T10:15:53.000Z</time>
      </trkpt>
      <trkpt lat="47.82125" lon="2.10335">
        <ele>143</ele>
        <time>2013-11-11T10:15:55.000Z</time>
      </trkpt>
      <trkpt lat="47.82125" lon="2.10335">
        <ele>143</ele>
        <time>2013-11-11T10:15:57.000Z</time>
      </trkpt>
      <trkpt lat="47.82125" lon="2.10335">
        <ele>143</ele>
        <time>2013-11-11T10:15:59.000Z</time>
      </trkpt>
      <trkpt lat="47.82125" lon="2.10335">
        <ele>143</ele>
        <time>2013-11-11T10:16:01.000Z</time>
      </trkpt>
      <trkpt lat="47.82125" lon="2.10335">
        <ele>143</ele>
        <time>2013-11-11T10:16:03.000Z</time>
      </trkpt>
      <trkpt lat="47.82125" lon="2.10335">
        <ele>143</ele>
        <time>2013-11-11T10:16:05.000Z</time>
      </trkpt>
      <trkpt lat="47.82125" lon="2.10335">
        <ele>143</ele>
        <time>2013-11-11T10:16:07.000Z</time>
      </trkpt>
      <trkpt lat="47.82125" lon="2.10335">
        <ele>143</ele>
        <time>2013-11-11T10:16:09.000Z</time>
      </trkpt>
      <trkpt lat="47.82104" lon="2.10324">
        <ele>145</ele>
        <time>2013-11-11T10:16:13.000Z</time>
      </trkpt>
      <trkpt lat="47.82097" lon="2.1032">
        <ele>146</ele>
        <time>2013-11-11T10:16:15.000Z</time>
      </trkpt>
      <trkpt lat="47.82105" lon="2.10323">
        <ele>144</ele>
        <time>2013-11-11T10:16:21.000Z</time>
      </trkpt>
      <trkpt lat="47.82113" lon="2.10327">
        <ele>144</ele>
        <time>2013-11-11T10:16:23.000Z</time>
      </trkpt>
      <trkpt lat="47.82121" lon="2.10331">
        <ele>145</ele>
        <time>2013-11-11T10:16:25.000Z</time>
      </trkpt>
      <trkpt lat="47.82132" lon="2.10336">
        <ele>147</ele>
        <time>2013-11-11T10:16:27.000Z</time>
      </trkpt>
      <trkpt lat="47.8214" lon="2.10341">
        <ele>146</ele>
        <time>2013-11-11T10:16:29.000Z</time>
      </trkpt>
      <trkpt lat="47.82158" lon="2.10349">
        <ele>146</ele>
        <time>2013-11-11T10:16:31.000Z</time>
      </trkpt>
      <trkpt lat="47.82166" lon="2.10353">
        <ele>147</ele>
        <time>2013-11-11T10:16:33.000Z</time>
      </trkpt>
      <trkpt lat="47.82166" lon="2.10353">
        <ele>147</ele>
        <time>2013-11-11T10:16:35.000Z</time>
      </trkpt>
      <trkpt lat="47.82166" lon="2.10353">
        <ele>147</ele>
        <time>2013-11-11T10:16:37.000Z</time>
      </trkpt>
      <trkpt lat="47.82166" lon="2.10353">
        <ele>147</ele>
        <time>2013-11-11T10:16:39.000Z</time>
      </trkpt>
      <trkpt lat="47.82166" lon="2.10353">
        <ele>147</ele>
        <time>2013-11-11T10:16:41.000Z</time>
      </trkpt>
      <trkpt lat="47.82166" lon="2.10353">
        <ele>147</ele>
        <time>2013-11-11T10:16:43.000Z</time>
      </trkpt>
      <trkpt lat="47.82227" lon="2.10371">
        <ele>148</ele>
        <time>2013-11-11T10:16:49.000Z</time>
      </trkpt>
      <trkpt lat="47.82232" lon="2.10357">
        <ele>147</ele>
        <time>2013-11-11T10:16:51.000Z</time>
      </trkpt>
      <trkpt lat="47.82239" lon="2.10346">
        <ele>146</ele>
        <time>2013-11-11T10:16:53.000Z</time>
      </trkpt>
      <trkpt lat="47.82247" lon="2.10336">
        <ele>146</ele>
        <time>2013-11-11T10:16:55.000Z</time>
      </trkpt>
      <trkpt lat="47.82255" lon="2.10325">
        <ele>146</ele>
        <time>2013-11-11T10:16:57.000Z</time>
      </trkpt>
      <trkpt lat="47.82262" lon="2.10313">
        <ele>146</ele>
        <time>2013-11-11T10:16:59.000Z</time>
      </trkpt>
      <trkpt lat="47.8227" lon="2.10302">
        <ele>146</ele>
        <time>2013-11-11T10:17:01.000Z</time>
      </trkpt>
      <trkpt lat="47.82278" lon="2.1029">
        <ele>146</ele>
        <time>2013-11-11T10:17:03.000Z</time>
      </trkpt>
      <trkpt lat="47.82285" lon="2.10279">
        <ele>146</ele>
        <time>2013-11-11T10:17:05.000Z</time>
      </trkpt>
      <trkpt lat="47.82293" lon="2.10267">
        <ele>146</ele>
        <time>2013-11-11T10:17:07.000Z</time>
      </trkpt>
      <trkpt lat="47.823" lon="2.10257">
        <ele>146</ele>
        <time>2013-11-11T10:17:09.000Z</time>
      </trkpt>
      <trkpt lat="47.823" lon="2.10257">
        <ele>146</ele>
        <time>2013-11-11T10:17:11.000Z</time>
      </trkpt>
      <trkpt lat="47.823" lon="2.10257">
        <ele>146</ele>
        <time>2013-11-11T10:17:15.000Z</time>
      </trkpt>
      <trkpt lat="47.823" lon="2.10257">
        <ele>146</ele>
        <time>2013-11-11T10:17:17.000Z</time>
      </trkpt>
      <trkpt lat="47.823" lon="2.10257">
        <ele>146</ele>
        <time>2013-11-11T10:17:19.000Z</time>
      </trkpt>
      <trkpt lat="47.823" lon="2.10257">
        <ele>146</ele>
        <time>2013-11-11T10:17:21.000Z</time>
      </trkpt>
      <trkpt lat="47.823" lon="2.10257">
        <ele>146</ele>
        <time>2013-11-11T10:17:23.000Z</time>
      </trkpt>
      <trkpt lat="47.823" lon="2.10257">
        <ele>146</ele>
        <time>2013-11-11T10:17:25.000Z</time>
      </trkpt>
      <trkpt lat="47.823" lon="2.10257">
        <ele>146</ele>
        <time>2013-11-11T10:17:27.000Z</time>
      </trkpt>
      <trkpt lat="47.823" lon="2.10257">
        <ele>146</ele>
        <time>2013-11-11T10:17:29.000Z</time>
      </trkpt>
      <trkpt lat="47.823" lon="2.10257">
        <ele>146</ele>
        <time>2013-11-11T10:17:31.000Z</time>
      </trkpt>
      <trkpt lat="47.823" lon="2.10257">
        <ele>146</ele>
        <time>2013-11-11T10:17:33.000Z</time>
      </trkpt>
      <trkpt lat="47.823" lon="2.10257">
        <ele>146</ele>
        <time>2013-11-11T10:17:35.000Z</time>
      </trkpt>
      <trkpt lat="47.823" lon="2.10257">
        <ele>146</ele>
        <time>2013-11-11T10:17:37.000Z</time>
      </trkpt>
      <trkpt lat="47.82338" lon="2.10121">
        <ele>143</ele>
        <time>2013-11-11T10:17:43.000Z</time>
      </trkpt>
      <trkpt lat="47.82321" lon="2.10113">
        <ele>144</ele>
        <time>2013-11-11T10:17:47.000Z</time>
      </trkpt>
      <trkpt lat="47.82311" lon="2.1011">
        <ele>144</ele>
        <time>2013-11-11T10:17:49.000Z</time>
      </trkpt>
      <trkpt lat="47.82302" lon="2.10106">
        <ele>144</ele>
        <time>2013-11-11T10:17:51.000Z</time>
      </trkpt>
      <trkpt lat="47.82293" lon="2.10102">
        <ele>144</ele>
        <time>2013-11-11T10:17:53.000Z</time>
      </trkpt>
      <trkpt lat="47.82293" lon="2.10102">
        <ele>144</ele>
        <time>2013-11-11T10:17:55.000Z</time>
      </trkpt>
      <trkpt lat="47.82275" lon="2.10096">
        <ele>145</ele>
        <time>2013-11-11T10:17:57.000Z</time>
      </trkpt>
      <trkpt lat="47.82265" lon="2.10095">
        <ele>145</ele>
        <time>2013-11-11T10:17:59.000Z</time>
      </trkpt>
      <trkpt lat="47.82255" lon="2.10095">
        <ele>145</ele>
        <time>2013-11-11T10:18:01.000Z</time>
      </trkpt>
      <trkpt lat="47.82246" lon="2.10093">
        <ele>145</ele>
        <time>2013-11-11T10:18:03.000Z</time>
      </trkpt>
      <trkpt lat="47.82237" lon="2.10092">
        <ele>145</ele>
        <time>2013-11-11T10:18:05.000Z</time>
      </trkpt>
      <trkpt lat="47.82227" lon="2.10091">
        <ele>144</ele>
        <time>2013-11-11T10:18:07.000Z</time>
      </trkpt>
      <trkpt lat="47.82227" lon="2.10091">
        <ele>144</ele>
        <time>2013-11-11T10:18:09.000Z</time>
      </trkpt>
      <trkpt lat="47.82227" lon="2.10091">
        <ele>144</ele>
        <time>2013-11-11T10:18:11.000Z</time>
      </trkpt>
      <trkpt lat="47.82227" lon="2.10091">
        <ele>144</ele>
        <time>2013-11-11T10:18:13.000Z</time>
      </trkpt>
      <trkpt lat="47.82179" lon="2.10086">
        <ele>146</ele>
        <time>2013-11-11T10:18:17.000Z</time>
      </trkpt>
      <trkpt lat="47.8217" lon="2.10085">
        <ele>145</ele>
        <time>2013-11-11T10:18:19.000Z</time>
      </trkpt>
      <trkpt lat="47.82161" lon="2.10086">
        <ele>145</ele>
        <time>2013-11-11T10:18:21.000Z</time>
      </trkpt>
      <trkpt lat="47.82151" lon="2.10085">
        <ele>146</ele>
        <time>2013-11-11T10:18:25.000Z</time>
      </trkpt>
      <trkpt lat="47.82151" lon="2.10085">
        <ele>146</ele>
        <time>2013-11-11T10:18:27.000Z</time>
      </trkpt>
      <trkpt lat="47.82151" lon="2.10085">
        <ele>146</ele>
        <time>2013-11-11T10:18:29.000Z</time>
      </trkpt>
      <trkpt lat="47.82151" lon="2.10085">
        <ele>146</ele>
        <time>2013-11-11T10:18:31.000Z</time>
      </trkpt>
      <trkpt lat="47.82151" lon="2.10085">
        <ele>146</ele>
        <time>2013-11-11T10:18:33.000Z</time>
      </trkpt>
      <trkpt lat="47.82151" lon="2.10085">
        <ele>146</ele>
        <time>2013-11-11T10:18:35.000Z</time>
      </trkpt>
      <trkpt lat="47.82151" lon="2.10085">
        <ele>146</ele>
        <time>2013-11-11T10:18:37.000Z</time>
      </trkpt>
      <trkpt lat="47.82151" lon="2.10085">
        <ele>146</ele>
        <time>2013-11-11T10:18:39.000Z</time>
      </trkpt>
      <trkpt lat="47.82151" lon="2.10085">
        <ele>146</ele>
        <time>2013-11-11T10:18:41.000Z</time>
      </trkpt>
      <trkpt lat="47.82151" lon="2.10085">
        <ele>146</ele>
        <time>2013-11-11T10:18:43.000Z</time>
      </trkpt>
      <trkpt lat="47.82151" lon="2.10085">
        <ele>146</ele>
        <time>2013-11-11T10:18:45.000Z</time>
      </trkpt>
      <trkpt lat="47.82151" lon="2.10085">
        <ele>146</ele>
        <time>2013-11-11T10:18:47.000Z</time>
      </trkpt>
      <trkpt lat="47.82119" lon="2.10039">
        <ele>147</ele>
        <time>2013-11-11T10:18:51.000Z</time>
      </trkpt>
      <trkpt lat="47.82103" lon="2.10011">
        <ele>147</ele>
        <time>2013-11-11T10:18:53.000Z</time>
      </trkpt>
      <trkpt lat="47.82095" lon="2.0999">
        <ele>147</ele>
        <time>2013-11-11T10:18:55.000Z</time>
      </trkpt>
      <trkpt lat="47.82091" lon="2.09973">
        <ele>147</ele>
        <time>2013-11-11T10:18:57.000Z</time>
      </trkpt>
      <trkpt lat="47.82089" lon="2.09959">
        <ele>146</ele>
        <time>2013-11-11T10:18:59.000Z</time>
      </trkpt>
      <trkpt lat="47.82089" lon="2.09959">
        <ele>146</ele>
        <time>2013-11-11T10:19:01.000Z</time>
      </trkpt>
      <trkpt lat="47.82089" lon="2.09959">
        <ele>146</ele>
        <time>2013-11-11T10:19:04.000Z</time>
      </trkpt>
      <trkpt lat="47.8205" lon="2.09931">
        <ele>147</ele>
        <time>2013-11-11T10:19:08.000Z</time>
      </trkpt>
      <trkpt lat="47.82035" lon="2.09925">
        <ele>147</ele>
        <time>2013-11-11T10:19:12.000Z</time>
      </trkpt>
      <trkpt lat="47.82035" lon="2.09925">
        <ele>147</ele>
        <time>2013-11-11T10:19:14.000Z</time>
      </trkpt>
      <trkpt lat="47.82035" lon="2.09925">
        <ele>147</ele>
        <time>2013-11-11T10:19:16.000Z</time>
      </trkpt>
      <trkpt lat="47.82035" lon="2.09925">
        <ele>147</ele>
        <time>2013-11-11T10:19:18.000Z</time>
      </trkpt>
      <trkpt lat="47.82035" lon="2.09925">
        <ele>147</ele>
        <time>2013-11-11T10:19:20.000Z</time>
      </trkpt>
      <trkpt lat="47.81981" lon="2.09915">
        <ele>144</ele>
        <time>2013-11-11T10:19:26.000Z</time>
      </trkpt>
      <trkpt lat="47.81966" lon="2.09911">
        <ele>144</ele>
        <time>2013-11-11T10:19:30.000Z</time>
      </trkpt>
      <trkpt lat="47.81966" lon="2.09911">
        <ele>144</ele>
        <time>2013-11-11T10:19:32.000Z</time>
      </trkpt>
      <trkpt lat="47.81966" lon="2.09911">
        <ele>144</ele>
        <time>2013-11-11T10:19:34.000Z</time>
      </trkpt>
      <trkpt lat="47.81966" lon="2.09911">
        <ele>144</ele>
        <time>2013-11-11T10:19:36.000Z</time>
      </trkpt>
      <trkpt lat="47.81929" lon="2.09904">
        <ele>147</ele>
        <time>2013-11-11T10:19:40.000Z</time>
      </trkpt>
      <trkpt lat="47.81915" lon="2.09901">
        <ele>147</ele>
        <time>2013-11-11T10:19:44.000Z</time>
      </trkpt>
      <trkpt lat="47.81915" lon="2.09901">
        <ele>147</ele>
        <time>2013-11-11T10:19:46.000Z</time>
      </trkpt>
      <trkpt lat="47.81915" lon="2.09901">
        <ele>147</ele>
        <time>2013-11-11T10:19:48.000Z</time>
      </trkpt>
      <trkpt lat="47.81915" lon="2.09901">
        <ele>147</ele>
        <time>2013-11-11T10:19:50.000Z</time>
      </trkpt>
      <trkpt lat="47.81915" lon="2.09901">
        <ele>147</ele>
        <time>2013-11-11T10:19:52.000Z</time>
      </trkpt>
      <trkpt lat="47.8187" lon="2.0989">
        <ele>151</ele>
        <time>2013-11-11T10:19:56.000Z</time>
      </trkpt>
      <trkpt lat="47.81855" lon="2.09886">
        <ele>149</ele>
        <time>2013-11-11T10:20:00.000Z</time>
      </trkpt>
      <trkpt lat="47.8184" lon="2.09884">
        <ele>149</ele>
        <time>2013-11-11T10:20:04.000Z</time>
      </trkpt>
      <trkpt lat="47.8184" lon="2.09884">
        <ele>149</ele>
        <time>2013-11-11T10:20:06.000Z</time>
      </trkpt>
      <trkpt lat="47.8184" lon="2.09884">
        <ele>149</ele>
        <time>2013-11-11T10:20:08.000Z</time>
      </trkpt>
      <trkpt lat="47.8184" lon="2.09884">
        <ele>149</ele>
        <time>2013-11-11T10:20:10.000Z</time>
      </trkpt>
      <trkpt lat="47.8184" lon="2.09884">
        <ele>149</ele>
        <time>2013-11-11T10:20:12.000Z</time>
      </trkpt>
      <trkpt lat="47.8184" lon="2.09884">
        <ele>149</ele>
        <time>2013-11-11T10:20:14.000Z</time>
      </trkpt>
      <trkpt lat="47.8184" lon="2.09884">
        <ele>149</ele>
        <time>2013-11-11T10:20:16.000Z</time>
      </trkpt>
      <trkpt lat="47.8184" lon="2.09884">
        <ele>149</ele>
        <time>2013-11-11T10:20:18.000Z</time>
      </trkpt>
      <trkpt lat="47.8184" lon="2.09884">
        <ele>149</ele>
        <time>2013-11-11T10:20:20.000Z</time>
      </trkpt>
      <trkpt lat="47.8184" lon="2.09884">
        <ele>149</ele>
        <time>2013-11-11T10:20:22.000Z</time>
      </trkpt>
      <trkpt lat="47.8184" lon="2.09884">
        <ele>149</ele>
        <time>2013-11-11T10:20:24.000Z</time>
      </trkpt>
      <trkpt lat="47.8184" lon="2.09884">
        <ele>149</ele>
        <time>2013-11-11T10:20:26.000Z</time>
      </trkpt>
      <trkpt lat="47.8184" lon="2.09884">
        <ele>149</ele>
        <time>2013-11-11T10:20:28.000Z</time>
      </trkpt>
      <trkpt lat="47.8184" lon="2.09884">
        <ele>149</ele>
        <time>2013-11-11T10:20:30.000Z</time>
      </trkpt>
      <trkpt lat="47.8184" lon="2.09884">
        <ele>149</ele>
        <time>2013-11-11T10:20:32.000Z</time>
      </trkpt>
      <trkpt lat="47.8184" lon="2.09884">
        <ele>149</ele>
        <time>2013-11-11T10:20:34.000Z</time>
      </trkpt>
      <trkpt lat="47.8184" lon="2.09884">
        <ele>149</ele>
        <time>2013-11-11T10:20:36.000Z</time>
      </trkpt>
      <trkpt lat="47.8184" lon="2.09884">
        <ele>149</ele>
        <time>2013-11-11T10:20:38.000Z</time>
      </trkpt>
      <trkpt lat="47.81792" lon="2.09872">
        <ele>149</ele>
        <time>2013-11-11T10:20:42.000Z</time>
      </trkpt>
      <trkpt lat="47.81765" lon="2.09866">
        <ele>148</ele>
        <time>2013-11-11T10:20:44.000Z</time>
      </trkpt>
      <trkpt lat="47.8175" lon="2.09863">
        <ele>148</ele>
        <time>2013-11-11T10:20:46.000Z</time>
      </trkpt>
      <trkpt lat="47.81739" lon="2.09862">
        <ele>148</ele>
        <time>2013-11-11T10:20:48.000Z</time>
      </trkpt>
      <trkpt lat="47.81731" lon="2.09861">
        <ele>147</ele>
        <time>2013-11-11T10:20:50.000Z</time>
      </trkpt>
      <trkpt lat="47.81718" lon="2.0986">
        <ele>146</ele>
        <time>2013-11-11T10:20:52.000Z</time>
      </trkpt>
      <trkpt lat="47.81708" lon="2.09858">
        <ele>145</ele>
        <time>2013-11-11T10:20:56.000Z</time>
      </trkpt>
      <trkpt lat="47.81694" lon="2.09856">
        <ele>145</ele>
        <time>2013-11-11T10:21:00.000Z</time>
      </trkpt>
      <trkpt lat="47.81681" lon="2.09855">
        <ele>144</ele>
        <time>2013-11-11T10:21:04.000Z</time>
      </trkpt>
      <trkpt lat="47.81667" lon="2.09852">
        <ele>145</ele>
        <time>2013-11-11T10:21:08.000Z</time>
      </trkpt>
      <trkpt lat="47.81655" lon="2.09851">
        <ele>146</ele>
        <time>2013-11-11T10:21:12.000Z</time>
      </trkpt>
      <trkpt lat="47.81655" lon="2.09851">
        <ele>146</ele>
        <time>2013-11-11T10:21:14.000Z</time>
      </trkpt>
      <trkpt lat="47.81655" lon="2.09851">
        <ele>146</ele>
        <time>2013-11-11T10:21:16.000Z</time>
      </trkpt>
      <trkpt lat="47.81655" lon="2.09851">
        <ele>146</ele>
        <time>2013-11-11T10:21:18.000Z</time>
      </trkpt>
      <trkpt lat="47.81655" lon="2.09851">
        <ele>146</ele>
        <time>2013-11-11T10:21:20.000Z</time>
      </trkpt>
      <trkpt lat="47.81617" lon="2.09842">
        <ele>145</ele>
        <time>2013-11-11T10:21:26.000Z</time>
      </trkpt>
      <trkpt lat="47.81604" lon="2.0984">
        <ele>145</ele>
        <time>2013-11-11T10:21:30.000Z</time>
      </trkpt>
      <trkpt lat="47.81604" lon="2.0984">
        <ele>145</ele>
        <time>2013-11-11T10:21:32.000Z</time>
      </trkpt>
      <trkpt lat="47.81594" lon="2.09837">
        <ele>144</ele>
        <time>2013-11-11T10:21:34.000Z</time>
      </trkpt>
      <trkpt lat="47.81594" lon="2.09837">
        <ele>144</ele>
        <time>2013-11-11T10:21:36.000Z</time>
      </trkpt>
      <trkpt lat="47.81594" lon="2.09837">
        <ele>144</ele>
        <time>2013-11-11T10:21:38.000Z</time>
      </trkpt>
      <trkpt lat="47.8157" lon="2.09831">
        <ele>143</ele>
        <time>2013-11-11T10:21:42.000Z</time>
      </trkpt>
      <trkpt lat="47.81556" lon="2.09829">
        <ele>142</ele>
        <time>2013-11-11T10:21:46.000Z</time>
      </trkpt>
      <trkpt lat="47.81544" lon="2.09826">
        <ele>143</ele>
        <time>2013-11-11T10:21:50.000Z</time>
      </trkpt>
      <trkpt lat="47.81544" lon="2.09826">
        <ele>143</ele>
        <time>2013-11-11T10:21:52.000Z</time>
      </trkpt>
      <trkpt lat="47.81544" lon="2.09826">
        <ele>143</ele>
        <time>2013-11-11T10:21:54.000Z</time>
      </trkpt>
      <trkpt lat="47.81517" lon="2.09822">
        <ele>144</ele>
        <time>2013-11-11T10:21:58.000Z</time>
      </trkpt>
      <trkpt lat="47.81503" lon="2.09819">
        <ele>143</ele>
        <time>2013-11-11T10:22:02.000Z</time>
      </trkpt>
      <trkpt lat="47.8149" lon="2.09815">
        <ele>143</ele>
        <time>2013-11-11T10:22:06.000Z</time>
      </trkpt>
      <trkpt lat="47.8149" lon="2.09815">
        <ele>143</ele>
        <time>2013-11-11T10:22:08.000Z</time>
      </trkpt>
      <trkpt lat="47.8149" lon="2.09815">
        <ele>143</ele>
        <time>2013-11-11T10:22:10.000Z</time>
      </trkpt>
      <trkpt lat="47.8149" lon="2.09815">
        <ele>143</ele>
        <time>2013-11-11T10:22:12.000Z</time>
      </trkpt>
      <trkpt lat="47.8149" lon="2.09815">
        <ele>143</ele>
        <time>2013-11-11T10:22:14.000Z</time>
      </trkpt>
      <trkpt lat="47.8149" lon="2.09815">
        <ele>143</ele>
        <time>2013-11-11T10:22:16.000Z</time>
      </trkpt>
      <trkpt lat="47.8149" lon="2.09815">
        <ele>143</ele>
        <time>2013-11-11T10:22:18.000Z</time>
      </trkpt>
      <trkpt lat="47.8149" lon="2.09815">
        <ele>143</ele>
        <time>2013-11-11T10:22:20.000Z</time>
      </trkpt>
      <trkpt lat="47.8149" lon="2.09815">
        <ele>143</ele>
        <time>2013-11-11T10:22:22.000Z</time>
      </trkpt>
      <trkpt lat="47.81461" lon="2.09809">
        <ele>144</ele>
        <time>2013-11-11T10:22:26.000Z</time>
      </trkpt>
      <trkpt lat="47.81443" lon="2.09806">
        <ele>143</ele>
        <time>2013-11-11T10:22:28.000Z</time>
      </trkpt>
      <trkpt lat="47.81432" lon="2.09804">
        <ele>144</ele>
        <time>2013-11-11T10:22:30.000Z</time>
      </trkpt>
      <trkpt lat="47.81422" lon="2.09802">
        <ele>144</ele>
        <time>2013-11-11T10:22:32.000Z</time>
      </trkpt>
      <trkpt lat="47.81414" lon="2.09801">
        <ele>143</ele>
        <time>2013-11-11T10:22:34.000Z</time>
      </trkpt>
      <trkpt lat="47.814" lon="2.09799">
        <ele>144</ele>
        <time>2013-11-11T10:22:36.000Z</time>
      </trkpt>
      <trkpt lat="47.81387" lon="2.09797">
        <ele>145</ele>
        <time>2013-11-11T10:22:40.000Z</time>
      </trkpt>
      <trkpt lat="47.81387" lon="2.09797">
        <ele>145</ele>
        <time>2013-11-11T10:22:42.000Z</time>
      </trkpt>
      <trkpt lat="47.81387" lon="2.09797">
        <ele>145</ele>
        <time>2013-11-11T10:22:44.000Z</time>
      </trkpt>
      <trkpt lat="47.81387" lon="2.09797">
        <ele>145</ele>
        <time>2013-11-11T10:22:46.000Z</time>
      </trkpt>
      <trkpt lat="47.81387" lon="2.09797">
        <ele>145</ele>
        <time>2013-11-11T10:22:48.000Z</time>
      </trkpt>
      <trkpt lat="47.81387" lon="2.09797">
        <ele>145</ele>
        <time>2013-11-11T10:22:50.000Z</time>
      </trkpt>
      <trkpt lat="47.81387" lon="2.09797">
        <ele>145</ele>
        <time>2013-11-11T10:22:52.000Z</time>
      </trkpt>
      <trkpt lat="47.81342" lon="2.09787">
        <ele>146</ele>
        <time>2013-11-11T10:22:56.000Z</time>
      </trkpt>
      <trkpt lat="47.81329" lon="2.09784">
        <ele>147</ele>
        <time>2013-11-11T10:23:00.000Z</time>
      </trkpt>
      <trkpt lat="47.81313" lon="2.09781">
        <ele>147</ele>
        <time>2013-11-11T10:23:04.000Z</time>
      </trkpt>
      <trkpt lat="47.81298" lon="2.09777">
        <ele>147</ele>
        <time>2013-11-11T10:23:08.000Z</time>
      </trkpt>
      <trkpt lat="47.81282" lon="2.09774">
        <ele>147</ele>
        <time>2013-11-11T10:23:12.000Z</time>
      </trkpt>
      <trkpt lat="47.81266" lon="2.0977">
        <ele>148</ele>
        <time>2013-11-11T10:23:16.000Z</time>
      </trkpt>
      <trkpt lat="47.81266" lon="2.0977">
        <ele>148</ele>
        <time>2013-11-11T10:23:18.000Z</time>
      </trkpt>
      <trkpt lat="47.8125" lon="2.09767">
        <ele>148</ele>
        <time>2013-11-11T10:23:20.000Z</time>
      </trkpt>
      <trkpt lat="47.8125" lon="2.09767">
        <ele>148</ele>
        <time>2013-11-11T10:23:22.000Z</time>
      </trkpt>
      <trkpt lat="47.8125" lon="2.09767">
        <ele>148</ele>
        <time>2013-11-11T10:23:24.000Z</time>
      </trkpt>
      <trkpt lat="47.8125" lon="2.09767">
        <ele>148</ele>
        <time>2013-11-11T10:23:28.000Z</time>
      </trkpt>
      <trkpt lat="47.8125" lon="2.09767">
        <ele>148</ele>
        <time>2013-11-11T10:23:30.000Z</time>
      </trkpt>
      <trkpt lat="47.81202" lon="2.09758">
        <ele>147</ele>
        <time>2013-11-11T10:23:32.000Z</time>
      </trkpt>
      <trkpt lat="47.81185" lon="2.09755">
        <ele>146</ele>
        <time>2013-11-11T10:23:36.000Z</time>
      </trkpt>
      <trkpt lat="47.81185" lon="2.09755">
        <ele>146</ele>
        <time>2013-11-11T10:23:38.000Z</time>
      </trkpt>
      <trkpt lat="47.81185" lon="2.09755">
        <ele>146</ele>
        <time>2013-11-11T10:23:40.000Z</time>
      </trkpt>
      <trkpt lat="47.81185" lon="2.09755">
        <ele>146</ele>
        <time>2013-11-11T10:23:42.000Z</time>
      </trkpt>
      <trkpt lat="47.81185" lon="2.09755">
        <ele>146</ele>
        <time>2013-11-11T10:23:44.000Z</time>
      </trkpt>
      <trkpt lat="47.81185" lon="2.09755">
        <ele>146</ele>
        <time>2013-11-11T10:23:46.000Z</time>
      </trkpt>
      <trkpt lat="47.81185" lon="2.09755">
        <ele>146</ele>
        <time>2013-11-11T10:23:48.000Z</time>
      </trkpt>
      <trkpt lat="47.81185" lon="2.09755">
        <ele>146</ele>
        <time>2013-11-11T10:23:50.000Z</time>
      </trkpt>
      <trkpt lat="47.81119" lon="2.09742">
        <ele>148</ele>
        <time>2013-11-11T10:23:54.000Z</time>
      </trkpt>
      <trkpt lat="47.81103" lon="2.0974">
        <ele>144</ele>
        <time>2013-11-11T10:23:58.000Z</time>
      </trkpt>
      <trkpt lat="47.81103" lon="2.0974">
        <ele>144</ele>
        <time>2013-11-11T10:24:00.000Z</time>
      </trkpt>
      <trkpt lat="47.81096" lon="2.09738">
        <ele>145</ele>
        <time>2013-11-11T10:24:02.000Z</time>
      </trkpt>
      <trkpt lat="47.81096" lon="2.09738">
        <ele>145</ele>
        <time>2013-11-11T10:24:04.000Z</time>
      </trkpt>
      <trkpt lat="47.81096" lon="2.09738">
        <ele>145</ele>
        <time>2013-11-11T10:24:10.000Z</time>
      </trkpt>
      <trkpt lat="47.81096" lon="2.09738">
        <ele>145</ele>
        <time>2013-11-11T10:24:12.000Z</time>
      </trkpt>
      <trkpt lat="47.81096" lon="2.09738">
        <ele>145</ele>
        <time>2013-11-11T10:24:14.000Z</time>
      </trkpt>
      <trkpt lat="47.81096" lon="2.09738">
        <ele>145</ele>
        <time>2013-11-11T10:24:16.000Z</time>
      </trkpt>
      <trkpt lat="47.81096" lon="2.09738">
        <ele>145</ele>
        <time>2013-11-11T10:24:18.000Z</time>
      </trkpt>
      <trkpt lat="47.81096" lon="2.09738">
        <ele>145</ele>
        <time>2013-11-11T10:24:20.000Z</time>
      </trkpt>
      <trkpt lat="47.81096" lon="2.09738">
        <ele>145</ele>
        <time>2013-11-11T10:24:22.000Z</time>
      </trkpt>
      <trkpt lat="47.81096" lon="2.09738">
        <ele>145</ele>
        <time>2013-11-11T10:24:24.000Z</time>
      </trkpt>
      <trkpt lat="47.81096" lon="2.09738">
        <ele>145</ele>
        <time>2013-11-11T10:24:26.000Z</time>
      </trkpt>
      <trkpt lat="47.81096" lon="2.09738">
        <ele>145</ele>
        <time>2013-11-11T10:24:28.000Z</time>
      </trkpt>
      <trkpt lat="47.81053" lon="2.09731">
        <ele>147</ele>
        <time>2013-11-11T10:24:32.000Z</time>
      </trkpt>
      <trkpt lat="47.8103" lon="2.09726">
        <ele>149</ele>
        <time>2013-11-11T10:24:34.000Z</time>
      </trkpt>
      <trkpt lat="47.81015" lon="2.09723">
        <ele>149</ele>
        <time>2013-11-11T10:24:36.000Z</time>
      </trkpt>
      <trkpt lat="47.81005" lon="2.09721">
        <ele>150</ele>
        <time>2013-11-11T10:24:38.000Z</time>
      </trkpt>
      <trkpt lat="47.80998" lon="2.09719">
        <ele>149</ele>
        <time>2013-11-11T10:24:40.000Z</time>
      </trkpt>
      <trkpt lat="47.80984" lon="2.09716">
        <ele>149</ele>
        <time>2013-11-11T10:24:42.000Z</time>
      </trkpt>
      <trkpt lat="47.80973" lon="2.09713">
        <ele>148</ele>
        <time>2013-11-11T10:24:46.000Z</time>
      </trkpt>
      <trkpt lat="47.80973" lon="2.09713">
        <ele>148</ele>
        <time>2013-11-11T10:24:48.000Z</time>
      </trkpt>
      <trkpt lat="47.80962" lon="2.09712">
        <ele>146</ele>
        <time>2013-11-11T10:24:50.000Z</time>
      </trkpt>
      <trkpt lat="47.80962" lon="2.09712">
        <ele>146</ele>
        <time>2013-11-11T10:24:52.000Z</time>
      </trkpt>
      <trkpt lat="47.80962" lon="2.09712">
        <ele>146</ele>
        <time>2013-11-11T10:24:54.000Z</time>
      </trkpt>
      <trkpt lat="47.80962" lon="2.09712">
        <ele>146</ele>
        <time>2013-11-11T10:24:56.000Z</time>
      </trkpt>
      <trkpt lat="47.80962" lon="2.09712">
        <ele>146</ele>
        <time>2013-11-11T10:24:58.000Z</time>
      </trkpt>
      <trkpt lat="47.80962" lon="2.09712">
        <ele>146</ele>
        <time>2013-11-11T10:25:00.000Z</time>
      </trkpt>
      <trkpt lat="47.80962" lon="2.09712">
        <ele>146</ele>
        <time>2013-11-11T10:25:02.000Z</time>
      </trkpt>
      <trkpt lat="47.80962" lon="2.09712">
        <ele>146</ele>
        <time>2013-11-11T10:25:04.000Z</time>
      </trkpt>
      <trkpt lat="47.80962" lon="2.09712">
        <ele>146</ele>
        <time>2013-11-11T10:25:06.000Z</time>
      </trkpt>
      <trkpt lat="47.80925" lon="2.0971">
        <ele>144</ele>
        <time>2013-11-11T10:25:27.000Z</time>
      </trkpt>
      <trkpt lat="47.80915" lon="2.09708">
        <ele>144</ele>
        <time>2013-11-11T10:25:31.000Z</time>
      </trkpt>
      <trkpt lat="47.80903" lon="2.09708">
        <ele>144</ele>
        <time>2013-11-11T10:25:35.000Z</time>
      </trkpt>
      <trkpt lat="47.80903" lon="2.09708">
        <ele>144</ele>
        <time>2013-11-11T10:25:37.000Z</time>
      </trkpt>
      <trkpt lat="47.80903" lon="2.09708">
        <ele>144</ele>
        <time>2013-11-11T10:25:39.000Z</time>
      </trkpt>
      <trkpt lat="47.80903" lon="2.09708">
        <ele>144</ele>
        <time>2013-11-11T10:25:41.000Z</time>
      </trkpt>
      <trkpt lat="47.80903" lon="2.09708">
        <ele>144</ele>
        <time>2013-11-11T10:25:43.000Z</time>
      </trkpt>
      <trkpt lat="47.80903" lon="2.09708">
        <ele>144</ele>
        <time>2013-11-11T10:25:45.000Z</time>
      </trkpt>
      <trkpt lat="47.80903" lon="2.09708">
        <ele>144</ele>
        <time>2013-11-11T10:25:49.000Z</time>
      </trkpt>
      <trkpt lat="47.80903" lon="2.09708">
        <ele>144</ele>
        <time>2013-11-11T10:25:51.000Z</time>
      </trkpt>
      <trkpt lat="47.80903" lon="2.09708">
        <ele>144</ele>
        <time>2013-11-11T10:25:53.000Z</time>
      </trkpt>
      <trkpt lat="47.80903" lon="2.09708">
        <ele>144</ele>
        <time>2013-11-11T10:25:55.000Z</time>
      </trkpt>
      <trkpt lat="47.80903" lon="2.09708">
        <ele>144</ele>
        <time>2013-11-11T10:25:57.000Z</time>
      </trkpt>
      <trkpt lat="47.80903" lon="2.09708">
        <ele>144</ele>
        <time>2013-11-11T10:25:59.000Z</time>
      </trkpt>
      <trkpt lat="47.80903" lon="2.09708">
        <ele>144</ele>
        <time>2013-11-11T10:26:01.000Z</time>
      </trkpt>
      <trkpt lat="47.80903" lon="2.09708">
        <ele>144</ele>
        <time>2013-11-11T10:26:03.000Z</time>
      </trkpt>
      <trkpt lat="47.80903" lon="2.09708">
        <ele>144</ele>
        <time>2013-11-11T10:26:05.000Z</time>
      </trkpt>
      <trkpt lat="47.80903" lon="2.09708">
        <ele>144</ele>
        <time>2013-11-11T10:26:07.000Z</time>
      </trkpt>
      <trkpt lat="47.80903" lon="2.09708">
        <ele>144</ele>
        <time>2013-11-11T10:26:09.000Z</time>
      </trkpt>
      <trkpt lat="47.80903" lon="2.09708">
        <ele>144</ele>
        <time>2013-11-11T10:26:11.000Z</time>
      </trkpt>
      <trkpt lat="47.8082" lon="2.09679">
        <ele>144</ele>
        <time>2013-11-11T10:26:38.000Z</time>
      </trkpt>
      <trkpt lat="47.80808" lon="2.09682">
        <ele>143</ele>
        <time>2013-11-11T10:26:41.000Z</time>
      </trkpt>
      <trkpt lat="47.80799" lon="2.09686">
        <ele>141</ele>
        <time>2013-11-11T10:26:43.000Z</time>
      </trkpt>
      <trkpt lat="47.80791" lon="2.0969">
        <ele>140</ele>
        <time>2013-11-11T10:26:45.000Z</time>
      </trkpt>
      <trkpt lat="47.80791" lon="2.0969">
        <ele>140</ele>
        <time>2013-11-11T10:26:47.000Z</time>
      </trkpt>
      <trkpt lat="47.80791" lon="2.0969">
        <ele>140</ele>
        <time>2013-11-11T10:26:49.000Z</time>
      </trkpt>
      <trkpt lat="47.80791" lon="2.0969">
        <ele>140</ele>
        <time>2013-11-11T10:26:51.000Z</time>
      </trkpt>
      <trkpt lat="47.80791" lon="2.0969">
        <ele>140</ele>
        <time>2013-11-11T10:26:53.000Z</time>
      </trkpt>
      <trkpt lat="47.80791" lon="2.0969">
        <ele>140</ele>
        <time>2013-11-11T10:26:55.000Z</time>
      </trkpt>
      <trkpt lat="47.80791" lon="2.0969">
        <ele>140</ele>
        <time>2013-11-11T10:26:57.000Z</time>
      </trkpt>
      <trkpt lat="47.80791" lon="2.0969">
        <ele>140</ele>
        <time>2013-11-11T10:26:59.000Z</time>
      </trkpt>
      <trkpt lat="47.80751" lon="2.09768">
        <ele>132</ele>
        <time>2013-11-11T10:27:02.000Z</time>
      </trkpt>
      <trkpt lat="47.80746" lon="2.09782">
        <ele>135</ele>
        <time>2013-11-11T10:27:05.000Z</time>
      </trkpt>
      <trkpt lat="47.80745" lon="2.09797">
        <ele>137</ele>
        <time>2013-11-11T10:27:07.000Z</time>
      </trkpt>
      <trkpt lat="47.80745" lon="2.09797">
        <ele>137</ele>
        <time>2013-11-11T10:27:11.000Z</time>
      </trkpt>
      <trkpt lat="47.80745" lon="2.09797">
        <ele>137</ele>
        <time>2013-11-11T10:27:13.000Z</time>
      </trkpt>
      <trkpt lat="47.80745" lon="2.09797">
        <ele>137</ele>
        <time>2013-11-11T10:27:15.000Z</time>
      </trkpt>
      <trkpt lat="47.80745" lon="2.09797">
        <ele>137</ele>
        <time>2013-11-11T10:27:21.000Z</time>
      </trkpt>
      <trkpt lat="47.80745" lon="2.09797">
        <ele>137</ele>
        <time>2013-11-11T10:27:23.000Z</time>
      </trkpt>
      <trkpt lat="47.80745" lon="2.09797">
        <ele>137</ele>
        <time>2013-11-11T10:27:25.000Z</time>
      </trkpt>
      <trkpt lat="47.80745" lon="2.09797">
        <ele>137</ele>
        <time>2013-11-11T10:27:31.000Z</time>
      </trkpt>
      <trkpt lat="47.80745" lon="2.09797">
        <ele>137</ele>
        <time>2013-11-11T10:27:33.000Z</time>
      </trkpt>
      <trkpt lat="47.80745" lon="2.09797">
        <ele>137</ele>
        <time>2013-11-11T10:27:35.000Z</time>
      </trkpt>
      <trkpt lat="47.80745" lon="2.09797">
        <ele>137</ele>
        <time>2013-11-11T10:27:37.000Z</time>
      </trkpt>
      <trkpt lat="47.80692" lon="2.09867">
        <ele>155</ele>
        <time>2013-11-11T10:27:41.000Z</time>
      </trkpt>
      <trkpt lat="47.80692" lon="2.09867">
        <ele>155</ele>
        <time>2013-11-11T10:27:47.000Z</time>
      </trkpt>
      <trkpt lat="47.80692" lon="2.09867">
        <ele>155</ele>
        <time>2013-11-11T10:27:49.000Z</time>
      </trkpt>
      <trkpt lat="47.80671" lon="2.09869">
        <ele>153</ele>
        <time>2013-11-11T10:27:53.000Z</time>
      </trkpt>
      <trkpt lat="47.80664" lon="2.09868">
        <ele>154</ele>
        <time>2013-11-11T10:27:59.000Z</time>
      </trkpt>
      <trkpt lat="47.80659" lon="2.09867">
        <ele>155</ele>
        <time>2013-11-11T10:28:01.000Z</time>
      </trkpt>
      <trkpt lat="47.80654" lon="2.09866">
        <ele>156</ele>
        <time>2013-11-11T10:28:03.000Z</time>
      </trkpt>
      <trkpt lat="47.80649" lon="2.09866">
        <ele>157</ele>
        <time>2013-11-11T10:28:05.000Z</time>
      </trkpt>
      <trkpt lat="47.80644" lon="2.09866">
        <ele>155</ele>
        <time>2013-11-11T10:28:07.000Z</time>
      </trkpt>
      <trkpt lat="47.80632" lon="2.09867">
        <ele>154</ele>
        <time>2013-11-11T10:28:09.000Z</time>
      </trkpt>
      <trkpt lat="47.80632" lon="2.09867">
        <ele>154</ele>
        <time>2013-11-11T10:28:15.000Z</time>
      </trkpt>
      <trkpt lat="47.80632" lon="2.09867">
        <ele>154</ele>
        <time>2013-11-11T10:28:17.000Z</time>
      </trkpt>
      <trkpt lat="47.80632" lon="2.09867">
        <ele>154</ele>
        <time>2013-11-11T10:28:25.000Z</time>
      </trkpt>
      <trkpt lat="47.80632" lon="2.09867">
        <ele>154</ele>
        <time>2013-11-11T10:28:27.000Z</time>
      </trkpt>
      <trkpt lat="47.80632" lon="2.09867">
        <ele>154</ele>
        <time>2013-11-11T10:28:29.000Z</time>
      </trkpt>
      <trkpt lat="47.80632" lon="2.09867">
        <ele>154</ele>
        <time>2013-11-11T10:28:31.000Z</time>
      </trkpt>
      <trkpt lat="47.80632" lon="2.09867">
        <ele>154</ele>
        <time>2013-11-11T10:28:33.000Z</time>
      </trkpt>
      <trkpt lat="47.80585" lon="2.09849">
        <ele>156</ele>
        <time>2013-11-11T10:29:14.000Z</time>
      </trkpt>
      <trkpt lat="47.80587" lon="2.09833">
        <ele>157</ele>
        <time>2013-11-11T10:29:18.000Z</time>
      </trkpt>
      <trkpt lat="47.80589" lon="2.09818">
        <ele>157</ele>
        <time>2013-11-11T10:29:22.000Z</time>
      </trkpt>
      <trkpt lat="47.80592" lon="2.09796">
        <ele>159</ele>
        <time>2013-11-11T10:29:26.000Z</time>
      </trkpt>
      <trkpt lat="47.80593" lon="2.09776">
        <ele>158</ele>
        <time>2013-11-11T10:29:30.000Z</time>
      </trkpt>
      <trkpt lat="47.80593" lon="2.09753">
        <ele>158</ele>
        <time>2013-11-11T10:29:34.000Z</time>
      </trkpt>
      <trkpt lat="47.80594" lon="2.0973">
        <ele>158</ele>
        <time>2013-11-11T10:29:38.000Z</time>
      </trkpt>
      <trkpt lat="47.80596" lon="2.09705">
        <ele>157</ele>
        <time>2013-11-11T10:29:42.000Z</time>
      </trkpt>
      <trkpt lat="47.80598" lon="2.0968">
        <ele>157</ele>
        <time>2013-11-11T10:29:46.000Z</time>
      </trkpt>
      <trkpt lat="47.806" lon="2.09653">
        <ele>157</ele>
        <time>2013-11-11T10:29:50.000Z</time>
      </trkpt>
      <trkpt lat="47.806" lon="2.09627">
        <ele>158</ele>
        <time>2013-11-11T10:29:54.000Z</time>
      </trkpt>
      <trkpt lat="47.806" lon="2.096">
        <ele>158</ele>
        <time>2013-11-11T10:29:58.000Z</time>
      </trkpt>
      <trkpt lat="47.806" lon="2.096">
        <ele>158</ele>
        <time>2013-11-11T10:30:00.000Z</time>
      </trkpt>
      <trkpt lat="47.806" lon="2.096">
        <ele>158</ele>
        <time>2013-11-11T10:30:02.000Z</time>
      </trkpt>
      <trkpt lat="47.806" lon="2.096">
        <ele>158</ele>
        <time>2013-11-11T10:30:04.000Z</time>
      </trkpt>
      <trkpt lat="47.806" lon="2.096">
        <ele>158</ele>
        <time>2013-11-11T10:30:06.000Z</time>
      </trkpt>
      <trkpt lat="47.806" lon="2.096">
        <ele>158</ele>
        <time>2013-11-11T10:30:08.000Z</time>
      </trkpt>
      <trkpt lat="47.80605" lon="2.09513">
        <ele>156</ele>
        <time>2013-11-11T10:30:12.000Z</time>
      </trkpt>
      <trkpt lat="47.80606" lon="2.09499">
        <ele>157</ele>
        <time>2013-11-11T10:30:14.000Z</time>
      </trkpt>
      <trkpt lat="47.80608" lon="2.09472">
        <ele>157</ele>
        <time>2013-11-11T10:30:18.000Z</time>
      </trkpt>
      <trkpt lat="47.80609" lon="2.09457">
        <ele>157</ele>
        <time>2013-11-11T10:30:20.000Z</time>
      </trkpt>
      <trkpt lat="47.80611" lon="2.09444">
        <ele>156</ele>
        <time>2013-11-11T10:30:22.000Z</time>
      </trkpt>
      <trkpt lat="47.80613" lon="2.09418">
        <ele>155</ele>
        <time>2013-11-11T10:30:26.000Z</time>
      </trkpt>
      <trkpt lat="47.80613" lon="2.09418">
        <ele>155</ele>
        <time>2013-11-11T10:30:28.000Z</time>
      </trkpt>
      <trkpt lat="47.80613" lon="2.09418">
        <ele>155</ele>
        <time>2013-11-11T10:30:30.000Z</time>
      </trkpt>
      <trkpt lat="47.80613" lon="2.09418">
        <ele>155</ele>
        <time>2013-11-11T10:30:32.000Z</time>
      </trkpt>
      <trkpt lat="47.80613" lon="2.09418">
        <ele>155</ele>
        <time>2013-11-11T10:30:34.000Z</time>
      </trkpt>
      <trkpt lat="47.80613" lon="2.09418">
        <ele>155</ele>
        <time>2013-11-11T10:30:40.000Z</time>
      </trkpt>
      <trkpt lat="47.80613" lon="2.09418">
        <ele>155</ele>
        <time>2013-11-11T10:30:42.000Z</time>
      </trkpt>
      <trkpt lat="47.80613" lon="2.09418">
        <ele>155</ele>
        <time>2013-11-11T10:30:44.000Z</time>
      </trkpt>
      <trkpt lat="47.80613" lon="2.09418">
        <ele>155</ele>
        <time>2013-11-11T10:30:46.000Z</time>
      </trkpt>
      <trkpt lat="47.80613" lon="2.09418">
        <ele>155</ele>
        <time>2013-11-11T10:30:52.000Z</time>
      </trkpt>
      <trkpt lat="47.80613" lon="2.09418">
        <ele>155</ele>
        <time>2013-11-11T10:30:54.000Z</time>
      </trkpt>
      <trkpt lat="47.80613" lon="2.09418">
        <ele>155</ele>
        <time>2013-11-11T10:30:56.000Z</time>
      </trkpt>
      <trkpt lat="47.80613" lon="2.09418">
        <ele>155</ele>
        <time>2013-11-11T10:30:58.000Z</time>
      </trkpt>
      <trkpt lat="47.80613" lon="2.09418">
        <ele>155</ele>
        <time>2013-11-11T10:31:00.000Z</time>
      </trkpt>
      <trkpt lat="47.80613" lon="2.09418">
        <ele>155</ele>
        <time>2013-11-11T10:31:02.000Z</time>
      </trkpt>
      <trkpt lat="47.80613" lon="2.09418">
        <ele>155</ele>
        <time>2013-11-11T10:31:04.000Z</time>
      </trkpt>
      <trkpt lat="47.80613" lon="2.09418">
        <ele>155</ele>
        <time>2013-11-11T10:31:06.000Z</time>
      </trkpt>
      <trkpt lat="47.80613" lon="2.09418">
        <ele>155</ele>
        <time>2013-11-11T10:31:08.000Z</time>
      </trkpt>
      <trkpt lat="47.80601" lon="2.09275">
        <ele>154</ele>
        <time>2013-11-11T10:31:14.000Z</time>
      </trkpt>
      <trkpt lat="47.80594" lon="2.09198">
        <ele>155</ele>
        <time>2013-11-11T10:31:16.000Z</time>
      </trkpt>
      <trkpt lat="47.8059" lon="2.09154">
        <ele>155</ele>
        <time>2013-11-11T10:31:18.000Z</time>
      </trkpt>
      <trkpt lat="47.80587" lon="2.09127">
        <ele>155</ele>
        <time>2013-11-11T10:31:20.000Z</time>
      </trkpt>
      <trkpt lat="47.80587" lon="2.09127">
        <ele>155</ele>
        <time>2013-11-11T10:31:22.000Z</time>
      </trkpt>
      <trkpt lat="47.80587" lon="2.09127">
        <ele>155</ele>
        <time>2013-11-11T10:31:24.000Z</time>
      </trkpt>
      <trkpt lat="47.80587" lon="2.09127">
        <ele>155</ele>
        <time>2013-11-11T10:31:26.000Z</time>
      </trkpt>
      <trkpt lat="47.80587" lon="2.09127">
        <ele>155</ele>
        <time>2013-11-11T10:31:28.000Z</time>
      </trkpt>
      <trkpt lat="47.80581" lon="2.09081">
        <ele>154</ele>
        <time>2013-11-11T10:31:32.000Z</time>
      </trkpt>
      <trkpt lat="47.80577" lon="2.09053">
        <ele>155</ele>
        <time>2013-11-11T10:31:34.000Z</time>
      </trkpt>
      <trkpt lat="47.80575" lon="2.09033">
        <ele>155</ele>
        <time>2013-11-11T10:31:36.000Z</time>
      </trkpt>
      <trkpt lat="47.80573" lon="2.09017">
        <ele>156</ele>
        <time>2013-11-11T10:31:38.000Z</time>
      </trkpt>
      <trkpt lat="47.80571" lon="2.09004">
        <ele>155</ele>
        <time>2013-11-11T10:31:40.000Z</time>
      </trkpt>
      <trkpt lat="47.80566" lon="2.08978">
        <ele>156</ele>
        <time>2013-11-11T10:31:42.000Z</time>
      </trkpt>
      <trkpt lat="47.80563" lon="2.08955">
        <ele>155</ele>
        <time>2013-11-11T10:31:46.000Z</time>
      </trkpt>
      <trkpt lat="47.80561" lon="2.08941">
        <ele>155</ele>
        <time>2013-11-11T10:31:48.000Z</time>
      </trkpt>
      <trkpt lat="47.80562" lon="2.08919">
        <ele>155</ele>
        <time>2013-11-11T10:31:52.000Z</time>
      </trkpt>
      <trkpt lat="47.80562" lon="2.08919">
        <ele>155</ele>
        <time>2013-11-11T10:31:54.000Z</time>
      </trkpt>
      <trkpt lat="47.80562" lon="2.08919">
        <ele>155</ele>
        <time>2013-11-11T10:31:56.000Z</time>
      </trkpt>
      <trkpt lat="47.80535" lon="2.08893">
        <ele>155</ele>
        <time>2013-11-11T10:32:00.000Z</time>
      </trkpt>
      <trkpt lat="47.80535" lon="2.08893">
        <ele>155</ele>
        <time>2013-11-11T10:32:02.000Z</time>
      </trkpt>
      <trkpt lat="47.80535" lon="2.08893">
        <ele>155</ele>
        <time>2013-11-11T10:32:04.000Z</time>
      </trkpt>
      <trkpt lat="47.80535" lon="2.08893">
        <ele>155</ele>
        <time>2013-11-11T10:32:06.000Z</time>
      </trkpt>
      <trkpt lat="47.80535" lon="2.08893">
        <ele>155</ele>
        <time>2013-11-11T10:32:08.000Z</time>
      </trkpt>
      <trkpt lat="47.80535" lon="2.08893">
        <ele>155</ele>
        <time>2013-11-11T10:32:10.000Z</time>
      </trkpt>
      <trkpt lat="47.80535" lon="2.08893">
        <ele>155</ele>
        <time>2013-11-11T10:32:12.000Z</time>
      </trkpt>
      <trkpt lat="47.80487" lon="2.08866">
        <ele>146</ele>
        <time>2013-11-11T10:32:18.000Z</time>
      </trkpt>
      <trkpt lat="47.80471" lon="2.08864">
        <ele>143</ele>
        <time>2013-11-11T10:32:22.000Z</time>
      </trkpt>
      <trkpt lat="47.80471" lon="2.08864">
        <ele>143</ele>
        <time>2013-11-11T10:32:24.000Z</time>
      </trkpt>
      <trkpt lat="47.80455" lon="2.0886">
        <ele>142</ele>
        <time>2013-11-11T10:32:26.000Z</time>
      </trkpt>
      <trkpt lat="47.80416" lon="2.08867">
        <ele>138</ele>
        <time>2013-11-11T10:32:34.000Z</time>
      </trkpt>
      <trkpt lat="47.80399" lon="2.08867">
        <ele>137</ele>
        <time>2013-11-11T10:32:38.000Z</time>
      </trkpt>
      <trkpt lat="47.80388" lon="2.08869">
        <ele>136</ele>
        <time>2013-11-11T10:32:40.000Z</time>
      </trkpt>
      <trkpt lat="47.8037" lon="2.08871">
        <ele>136</ele>
        <time>2013-11-11T10:32:44.000Z</time>
      </trkpt>
      <trkpt lat="47.8037" lon="2.08871">
        <ele>136</ele>
        <time>2013-11-11T10:32:46.000Z</time>
      </trkpt>
      <trkpt lat="47.8037" lon="2.08871">
        <ele>136</ele>
        <time>2013-11-11T10:32:48.000Z</time>
      </trkpt>
      <trkpt lat="47.8037" lon="2.08871">
        <ele>136</ele>
        <time>2013-11-11T10:32:50.000Z</time>
      </trkpt>
      <trkpt lat="47.8037" lon="2.08871">
        <ele>136</ele>
        <time>2013-11-11T10:32:52.000Z</time>
      </trkpt>
      <trkpt lat="47.8037" lon="2.08871">
        <ele>136</ele>
        <time>2013-11-11T10:32:54.000Z</time>
      </trkpt>
      <trkpt lat="47.80312" lon="2.0886">
        <ele>139</ele>
        <time>2013-11-11T10:32:58.000Z</time>
      </trkpt>
      <trkpt lat="47.80302" lon="2.08855">
        <ele>138</ele>
        <time>2013-11-11T10:33:00.000Z</time>
      </trkpt>
      <trkpt lat="47.80302" lon="2.08855">
        <ele>138</ele>
        <time>2013-11-11T10:33:02.000Z</time>
      </trkpt>
      <trkpt lat="47.80275" lon="2.08852">
        <ele>128</ele>
        <time>2013-11-11T10:33:05.000Z</time>
      </trkpt>
      <trkpt lat="47.80264" lon="2.08849">
        <ele>133</ele>
        <time>2013-11-11T10:33:07.000Z</time>
      </trkpt>
      <trkpt lat="47.80246" lon="2.08849">
        <ele>136</ele>
        <time>2013-11-11T10:33:11.000Z</time>
      </trkpt>
      <trkpt lat="47.80236" lon="2.08848">
        <ele>138</ele>
        <time>2013-11-11T10:33:13.000Z</time>
      </trkpt>
      <trkpt lat="47.80225" lon="2.08848">
        <ele>138</ele>
        <time>2013-11-11T10:33:15.000Z</time>
      </trkpt>
      <trkpt lat="47.80216" lon="2.08849">
        <ele>139</ele>
        <time>2013-11-11T10:33:17.000Z</time>
      </trkpt>
      <trkpt lat="47.80207" lon="2.08852">
        <ele>138</ele>
        <time>2013-11-11T10:33:19.000Z</time>
      </trkpt>
      <trkpt lat="47.80207" lon="2.08852">
        <ele>138</ele>
        <time>2013-11-11T10:33:21.000Z</time>
      </trkpt>
      <trkpt lat="47.80188" lon="2.08855">
        <ele>141</ele>
        <time>2013-11-11T10:33:23.000Z</time>
      </trkpt>
      <trkpt lat="47.80178" lon="2.08857">
        <ele>142</ele>
        <time>2013-11-11T10:33:25.000Z</time>
      </trkpt>
      <trkpt lat="47.80169" lon="2.0886">
        <ele>146</ele>
        <time>2013-11-11T10:33:29.000Z</time>
      </trkpt>
      <trkpt lat="47.8016" lon="2.08863">
        <ele>145</ele>
        <time>2013-11-11T10:33:31.000Z</time>
      </trkpt>
      <trkpt lat="47.80151" lon="2.08864">
        <ele>143</ele>
        <time>2013-11-11T10:33:33.000Z</time>
      </trkpt>
      <trkpt lat="47.80143" lon="2.08867">
        <ele>142</ele>
        <time>2013-11-11T10:33:35.000Z</time>
      </trkpt>
      <trkpt lat="47.80143" lon="2.08867">
        <ele>142</ele>
        <time>2013-11-11T10:33:37.000Z</time>
      </trkpt>
      <trkpt lat="47.80143" lon="2.08867">
        <ele>142</ele>
        <time>2013-11-11T10:33:39.000Z</time>
      </trkpt>
      <trkpt lat="47.80143" lon="2.08867">
        <ele>142</ele>
        <time>2013-11-11T10:33:41.000Z</time>
      </trkpt>
      <trkpt lat="47.80143" lon="2.08867">
        <ele>142</ele>
        <time>2013-11-11T10:33:43.000Z</time>
      </trkpt>
      <trkpt lat="47.80143" lon="2.08867">
        <ele>142</ele>
        <time>2013-11-11T10:33:46.000Z</time>
      </trkpt>
      <trkpt lat="47.80143" lon="2.08867">
        <ele>142</ele>
        <time>2013-11-11T10:33:49.000Z</time>
      </trkpt>
      <trkpt lat="47.80143" lon="2.08867">
        <ele>142</ele>
        <time>2013-11-11T10:33:51.000Z</time>
      </trkpt>
      <trkpt lat="47.80143" lon="2.08867">
        <ele>142</ele>
        <time>2013-11-11T10:33:53.000Z</time>
      </trkpt>
      <trkpt lat="47.80143" lon="2.08867">
        <ele>142</ele>
        <time>2013-11-11T10:33:55.000Z</time>
      </trkpt>
      <trkpt lat="47.80143" lon="2.08867">
        <ele>142</ele>
        <time>2013-11-11T10:33:57.000Z</time>
      </trkpt>
      <trkpt lat="47.80143" lon="2.08867">
        <ele>142</ele>
        <time>2013-11-11T10:33:59.000Z</time>
      </trkpt>
      <trkpt lat="47.80143" lon="2.08867">
        <ele>142</ele>
        <time>2013-11-11T10:34:01.000Z</time>
      </trkpt>
      <trkpt lat="47.80089" lon="2.08909">
        <ele>134</ele>
        <time>2013-11-11T10:34:06.000Z</time>
      </trkpt>
      <trkpt lat="47.80059" lon="2.0894">
        <ele>136</ele>
        <time>2013-11-11T10:34:09.000Z</time>
      </trkpt>
      <trkpt lat="47.80042" lon="2.08961">
        <ele>139</ele>
        <time>2013-11-11T10:34:11.000Z</time>
      </trkpt>
      <trkpt lat="47.80042" lon="2.08961">
        <ele>139</ele>
        <time>2013-11-11T10:34:13.000Z</time>
      </trkpt>
      <trkpt lat="47.80042" lon="2.08961">
        <ele>139</ele>
        <time>2013-11-11T10:34:15.000Z</time>
      </trkpt>
      <trkpt lat="47.80042" lon="2.08961">
        <ele>139</ele>
        <time>2013-11-11T10:34:17.000Z</time>
      </trkpt>
      <trkpt lat="47.80042" lon="2.08961">
        <ele>139</ele>
        <time>2013-11-11T10:34:19.000Z</time>
      </trkpt>
      <trkpt lat="47.80042" lon="2.08961">
        <ele>139</ele>
        <time>2013-11-11T10:34:21.000Z</time>
      </trkpt>
      <trkpt lat="47.80019" lon="2.09015">
        <ele>145</ele>
        <time>2013-11-11T10:34:26.000Z</time>
      </trkpt>
      <trkpt lat="47.80006" lon="2.09047">
        <ele>145</ele>
        <time>2013-11-11T10:34:28.000Z</time>
      </trkpt>
      <trkpt lat="47.79998" lon="2.0907">
        <ele>144</ele>
        <time>2013-11-11T10:34:30.000Z</time>
      </trkpt>
      <trkpt lat="47.79995" lon="2.09088">
        <ele>143</ele>
        <time>2013-11-11T10:34:32.000Z</time>
      </trkpt>
      <trkpt lat="47.79996" lon="2.09104">
        <ele>143</ele>
        <time>2013-11-11T10:34:34.000Z</time>
      </trkpt>
      <trkpt lat="47.80002" lon="2.09136">
        <ele>141</ele>
        <time>2013-11-11T10:34:36.000Z</time>
      </trkpt>
      <trkpt lat="47.80005" lon="2.09152">
        <ele>145</ele>
        <time>2013-11-11T10:34:38.000Z</time>
      </trkpt>
      <trkpt lat="47.80007" lon="2.09165">
        <ele>147</ele>
        <time>2013-11-11T10:34:40.000Z</time>
      </trkpt>
      <trkpt lat="47.80012" lon="2.09184">
        <ele>144</ele>
        <time>2013-11-11T10:34:44.000Z</time>
      </trkpt>
      <trkpt lat="47.80012" lon="2.09184">
        <ele>144</ele>
        <time>2013-11-11T10:34:46.000Z</time>
      </trkpt>
      <trkpt lat="47.80011" lon="2.09242">
        <ele>144</ele>
        <time>2013-11-11T10:34:52.000Z</time>
      </trkpt>
      <trkpt lat="47.80008" lon="2.09256">
        <ele>145</ele>
        <time>2013-11-11T10:34:54.000Z</time>
      </trkpt>
      <trkpt lat="47.80008" lon="2.09256">
        <ele>145</ele>
        <time>2013-11-11T10:34:56.000Z</time>
      </trkpt>
      <trkpt lat="47.80008" lon="2.09256">
        <ele>145</ele>
        <time>2013-11-11T10:34:58.000Z</time>
      </trkpt>
      <trkpt lat="47.80008" lon="2.09256">
        <ele>145</ele>
        <time>2013-11-11T10:35:00.000Z</time>
      </trkpt>
      <trkpt lat="47.79996" lon="2.09322">
        <ele>144</ele>
        <time>2013-11-11T10:35:04.000Z</time>
      </trkpt>
      <trkpt lat="47.79997" lon="2.09341">
        <ele>147</ele>
        <time>2013-11-11T10:35:06.000Z</time>
      </trkpt>
      <trkpt lat="47.8" lon="2.09357">
        <ele>148</ele>
        <time>2013-11-11T10:35:08.000Z</time>
      </trkpt>
      <trkpt lat="47.8" lon="2.09357">
        <ele>148</ele>
        <time>2013-11-11T10:35:10.000Z</time>
      </trkpt>
      <trkpt lat="47.80001" lon="2.09383">
        <ele>152</ele>
        <time>2013-11-11T10:35:12.000Z</time>
      </trkpt>
      <trkpt lat="47.80001" lon="2.09383">
        <ele>152</ele>
        <time>2013-11-11T10:35:14.000Z</time>
      </trkpt>
      <trkpt lat="47.80001" lon="2.09383">
        <ele>152</ele>
        <time>2013-11-11T10:35:16.000Z</time>
      </trkpt>
      <trkpt lat="47.80001" lon="2.09383">
        <ele>152</ele>
        <time>2013-11-11T10:35:18.000Z</time>
      </trkpt>
      <trkpt lat="47.80001" lon="2.09383">
        <ele>152</ele>
        <time>2013-11-11T10:35:20.000Z</time>
      </trkpt>
      <trkpt lat="47.80001" lon="2.09383">
        <ele>152</ele>
        <time>2013-11-11T10:35:22.000Z</time>
      </trkpt>
      <trkpt lat="47.80001" lon="2.09383">
        <ele>152</ele>
        <time>2013-11-11T10:35:24.000Z</time>
      </trkpt>
      <trkpt lat="47.80001" lon="2.09383">
        <ele>152</ele>
        <time>2013-11-11T10:35:26.000Z</time>
      </trkpt>
      <trkpt lat="47.80001" lon="2.09383">
        <ele>152</ele>
        <time>2013-11-11T10:35:28.000Z</time>
      </trkpt>
      <trkpt lat="47.8002" lon="2.09492">
        <ele>159</ele>
        <time>2013-11-11T10:35:32.000Z</time>
      </trkpt>
      <trkpt lat="47.80025" lon="2.09515">
        <ele>160</ele>
        <time>2013-11-11T10:35:36.000Z</time>
      </trkpt>
      <trkpt lat="47.8003" lon="2.09537">
        <ele>160</ele>
        <time>2013-11-11T10:35:40.000Z</time>
      </trkpt>
      <trkpt lat="47.80035" lon="2.0956">
        <ele>161</ele>
        <time>2013-11-11T10:35:44.000Z</time>
      </trkpt>
      <trkpt lat="47.80035" lon="2.0956">
        <ele>161</ele>
        <time>2013-11-11T10:35:46.000Z</time>
      </trkpt>
      <trkpt lat="47.80035" lon="2.0956">
        <ele>161</ele>
        <time>2013-11-11T10:35:48.000Z</time>
      </trkpt>
      <trkpt lat="47.80035" lon="2.0956">
        <ele>161</ele>
        <time>2013-11-11T10:35:50.000Z</time>
      </trkpt>
      <trkpt lat="47.80035" lon="2.0956">
        <ele>161</ele>
        <time>2013-11-11T10:35:54.000Z</time>
      </trkpt>
      <trkpt lat="47.80035" lon="2.0956">
        <ele>161</ele>
        <time>2013-11-11T10:35:56.000Z</time>
      </trkpt>
      <trkpt lat="47.80035" lon="2.0956">
        <ele>161</ele>
        <time>2013-11-11T10:35:58.000Z</time>
      </trkpt>
      <trkpt lat="47.80035" lon="2.0956">
        <ele>161</ele>
        <time>2013-11-11T10:36:00.000Z</time>
      </trkpt>
      <trkpt lat="47.80043" lon="2.09652">
        <ele>165</ele>
        <time>2013-11-11T10:36:02.000Z</time>
      </trkpt>
      <trkpt lat="47.80043" lon="2.09663">
        <ele>168</ele>
        <time>2013-11-11T10:36:06.000Z</time>
      </trkpt>
      <trkpt lat="47.80043" lon="2.09663">
        <ele>168</ele>
        <time>2013-11-11T10:36:08.000Z</time>
      </trkpt>
      <trkpt lat="47.80043" lon="2.09663">
        <ele>168</ele>
        <time>2013-11-11T10:36:10.000Z</time>
      </trkpt>
      <trkpt lat="47.80043" lon="2.09663">
        <ele>168</ele>
        <time>2013-11-11T10:36:12.000Z</time>
      </trkpt>
      <trkpt lat="47.80041" lon="2.09693">
        <ele>168</ele>
        <time>2013-11-11T10:36:16.000Z</time>
      </trkpt>
      <trkpt lat="47.8004" lon="2.09714">
        <ele>168</ele>
        <time>2013-11-11T10:36:18.000Z</time>
      </trkpt>
      <trkpt lat="47.80039" lon="2.09731">
        <ele>169</ele>
        <time>2013-11-11T10:36:20.000Z</time>
      </trkpt>
      <trkpt lat="47.80038" lon="2.09745">
        <ele>168</ele>
        <time>2013-11-11T10:36:22.000Z</time>
      </trkpt>
      <trkpt lat="47.80038" lon="2.09758">
        <ele>168</ele>
        <time>2013-11-11T10:36:24.000Z</time>
      </trkpt>
      <trkpt lat="47.80039" lon="2.09785">
        <ele>169</ele>
        <time>2013-11-11T10:36:26.000Z</time>
      </trkpt>
      <trkpt lat="47.80039" lon="2.09785">
        <ele>169</ele>
        <time>2013-11-11T10:36:28.000Z</time>
      </trkpt>
      <trkpt lat="47.80039" lon="2.09785">
        <ele>169</ele>
        <time>2013-11-11T10:36:30.000Z</time>
      </trkpt>
      <trkpt lat="47.80039" lon="2.09785">
        <ele>169</ele>
        <time>2013-11-11T10:36:32.000Z</time>
      </trkpt>
      <trkpt lat="47.80039" lon="2.09785">
        <ele>169</ele>
        <time>2013-11-11T10:36:34.000Z</time>
      </trkpt>
      <trkpt lat="47.80039" lon="2.09785">
        <ele>169</ele>
        <time>2013-11-11T10:36:36.000Z</time>
      </trkpt>
      <trkpt lat="47.80039" lon="2.09785">
        <ele>169</ele>
        <time>2013-11-11T10:36:38.000Z</time>
      </trkpt>
      <trkpt lat="47.80039" lon="2.09785">
        <ele>169</ele>
        <time>2013-11-11T10:36:40.000Z</time>
      </trkpt>
      <trkpt lat="47.80066" lon="2.09862">
        <ele>166</ele>
        <time>2013-11-11T10:36:44.000Z</time>
      </trkpt>
      <trkpt lat="47.80072" lon="2.09883">
        <ele>168</ele>
        <time>2013-11-11T10:36:48.000Z</time>
      </trkpt>
      <trkpt lat="47.80077" lon="2.09904">
        <ele>166</ele>
        <time>2013-11-11T10:36:52.000Z</time>
      </trkpt>
      <trkpt lat="47.80077" lon="2.09904">
        <ele>166</ele>
        <time>2013-11-11T10:36:54.000Z</time>
      </trkpt>
      <trkpt lat="47.8008" lon="2.09927">
        <ele>166</ele>
        <time>2013-11-11T10:36:56.000Z</time>
      </trkpt>
      <trkpt lat="47.80083" lon="2.0995">
        <ele>167</ele>
        <time>2013-11-11T10:37:00.000Z</time>
      </trkpt>
      <trkpt lat="47.80088" lon="2.09974">
        <ele>167</ele>
        <time>2013-11-11T10:37:04.000Z</time>
      </trkpt>
      <trkpt lat="47.8009" lon="2.09998">
        <ele>167</ele>
        <time>2013-11-11T10:37:08.000Z</time>
      </trkpt>
      <trkpt lat="47.8009" lon="2.09998">
        <ele>167</ele>
        <time>2013-11-11T10:37:10.000Z</time>
      </trkpt>
      <trkpt lat="47.8009" lon="2.09998">
        <ele>167</ele>
        <time>2013-11-11T10:37:12.000Z</time>
      </trkpt>
      <trkpt lat="47.8009" lon="2.09998">
        <ele>167</ele>
        <time>2013-11-11T10:37:14.000Z</time>
      </trkpt>
      <trkpt lat="47.8009" lon="2.09998">
        <ele>167</ele>
        <time>2013-11-11T10:37:16.000Z</time>
      </trkpt>
      <trkpt lat="47.8009" lon="2.09998">
        <ele>167</ele>
        <time>2013-11-11T10:37:18.000Z</time>
      </trkpt>
      <trkpt lat="47.8009" lon="2.09998">
        <ele>167</ele>
        <time>2013-11-11T10:37:20.000Z</time>
      </trkpt>
      <trkpt lat="47.80115" lon="2.10078">
        <ele>160</ele>
        <time>2013-11-11T10:37:24.000Z</time>
      </trkpt>
      <trkpt lat="47.80125" lon="2.10097">
        <ele>159</ele>
        <time>2013-11-11T10:37:28.000Z</time>
      </trkpt>
      <trkpt lat="47.80135" lon="2.10117">
        <ele>160</ele>
        <time>2013-11-11T10:37:32.000Z</time>
      </trkpt>
      <trkpt lat="47.80146" lon="2.10138">
        <ele>160</ele>
        <time>2013-11-11T10:37:36.000Z</time>
      </trkpt>
      <trkpt lat="47.80153" lon="2.10161">
        <ele>162</ele>
        <time>2013-11-11T10:37:40.000Z</time>
      </trkpt>
      <trkpt lat="47.80163" lon="2.10181">
        <ele>164</ele>
        <time>2013-11-11T10:37:44.000Z</time>
      </trkpt>
      <trkpt lat="47.80173" lon="2.10201">
        <ele>164</ele>
        <time>2013-11-11T10:37:48.000Z</time>
      </trkpt>
      <trkpt lat="47.8018" lon="2.10212">
        <ele>165</ele>
        <time>2013-11-11T10:37:50.000Z</time>
      </trkpt>
      <trkpt lat="47.80186" lon="2.10224">
        <ele>166</ele>
        <time>2013-11-11T10:37:52.000Z</time>
      </trkpt>
      <trkpt lat="47.80191" lon="2.10236">
        <ele>166</ele>
        <time>2013-11-11T10:37:54.000Z</time>
      </trkpt>
      <trkpt lat="47.80198" lon="2.10259">
        <ele>166</ele>
        <time>2013-11-11T10:37:58.000Z</time>
      </trkpt>
      <trkpt lat="47.80198" lon="2.10259">
        <ele>166</ele>
        <time>2013-11-11T10:38:00.000Z</time>
      </trkpt>
      <trkpt lat="47.80198" lon="2.10259">
        <ele>166</ele>
        <time>2013-11-11T10:38:02.000Z</time>
      </trkpt>
      <trkpt lat="47.80198" lon="2.10259">
        <ele>166</ele>
        <time>2013-11-11T10:38:04.000Z</time>
      </trkpt>
      <trkpt lat="47.80203" lon="2.10293">
        <ele>166</ele>
        <time>2013-11-11T10:38:08.000Z</time>
      </trkpt>
      <trkpt lat="47.80206" lon="2.10316">
        <ele>166</ele>
        <time>2013-11-11T10:38:10.000Z</time>
      </trkpt>
      <trkpt lat="47.80209" lon="2.10335">
        <ele>166</ele>
        <time>2013-11-11T10:38:12.000Z</time>
      </trkpt>
      <trkpt lat="47.80211" lon="2.10352">
        <ele>166</ele>
        <time>2013-11-11T10:38:14.000Z</time>
      </trkpt>
      <trkpt lat="47.80214" lon="2.10367">
        <ele>166</ele>
        <time>2013-11-11T10:38:16.000Z</time>
      </trkpt>
      <trkpt lat="47.80214" lon="2.10367">
        <ele>166</ele>
        <time>2013-11-11T10:38:18.000Z</time>
      </trkpt>
      <trkpt lat="47.80214" lon="2.10367">
        <ele>166</ele>
        <time>2013-11-11T10:38:20.000Z</time>
      </trkpt>
      <trkpt lat="47.80221" lon="2.10434">
        <ele>167</ele>
        <time>2013-11-11T10:38:24.000Z</time>
      </trkpt>
      <trkpt lat="47.80222" lon="2.10449">
        <ele>168</ele>
        <time>2013-11-11T10:38:26.000Z</time>
      </trkpt>
      <trkpt lat="47.80222" lon="2.10464">
        <ele>168</ele>
        <time>2013-11-11T10:38:28.000Z</time>
      </trkpt>
      <trkpt lat="47.80223" lon="2.10479">
        <ele>169</ele>
        <time>2013-11-11T10:38:30.000Z</time>
      </trkpt>
      <trkpt lat="47.80223" lon="2.10495">
        <ele>169</ele>
        <time>2013-11-11T10:38:32.000Z</time>
      </trkpt>
      <trkpt lat="47.80224" lon="2.10512">
        <ele>170</ele>
        <time>2013-11-11T10:38:34.000Z</time>
      </trkpt>
      <trkpt lat="47.80225" lon="2.10529">
        <ele>171</ele>
        <time>2013-11-11T10:38:36.000Z</time>
      </trkpt>
      <trkpt lat="47.80225" lon="2.10543">
        <ele>171</ele>
        <time>2013-11-11T10:38:38.000Z</time>
      </trkpt>
      <trkpt lat="47.80225" lon="2.10543">
        <ele>171</ele>
        <time>2013-11-11T10:38:40.000Z</time>
      </trkpt>
      <trkpt lat="47.80225" lon="2.10543">
        <ele>171</ele>
        <time>2013-11-11T10:38:42.000Z</time>
      </trkpt>
      <trkpt lat="47.80225" lon="2.10543">
        <ele>171</ele>
        <time>2013-11-11T10:38:44.000Z</time>
      </trkpt>
      <trkpt lat="47.80225" lon="2.10543">
        <ele>171</ele>
        <time>2013-11-11T10:38:46.000Z</time>
      </trkpt>
      <trkpt lat="47.80225" lon="2.10543">
        <ele>171</ele>
        <time>2013-11-11T10:38:48.000Z</time>
      </trkpt>
      <trkpt lat="47.80225" lon="2.10543">
        <ele>171</ele>
        <time>2013-11-11T10:38:50.000Z</time>
      </trkpt>
      <trkpt lat="47.80225" lon="2.10543">
        <ele>171</ele>
        <time>2013-11-11T10:38:52.000Z</time>
      </trkpt>
      <trkpt lat="47.80225" lon="2.10543">
        <ele>171</ele>
        <time>2013-11-11T10:38:54.000Z</time>
      </trkpt>
      <trkpt lat="47.80225" lon="2.10543">
        <ele>171</ele>
        <time>2013-11-11T10:38:56.000Z</time>
      </trkpt>
      <trkpt lat="47.80225" lon="2.10543">
        <ele>171</ele>
        <time>2013-11-11T10:38:58.000Z</time>
      </trkpt>
      <trkpt lat="47.80225" lon="2.10543">
        <ele>171</ele>
        <time>2013-11-11T10:39:00.000Z</time>
      </trkpt>
      <trkpt lat="47.80225" lon="2.10543">
        <ele>171</ele>
        <time>2013-11-11T10:39:02.000Z</time>
      </trkpt>
      <trkpt lat="47.80225" lon="2.10543">
        <ele>171</ele>
        <time>2013-11-11T10:39:04.000Z</time>
      </trkpt>
      <trkpt lat="47.80225" lon="2.10543">
        <ele>171</ele>
        <time>2013-11-11T10:39:06.000Z</time>
      </trkpt>
      <trkpt lat="47.80225" lon="2.10688">
        <ele>170</ele>
        <time>2013-11-11T10:39:08.000Z</time>
      </trkpt>
      <trkpt lat="47.80223" lon="2.10707">
        <ele>168</ele>
        <time>2013-11-11T10:39:12.000Z</time>
      </trkpt>
      <trkpt lat="47.80221" lon="2.10729">
        <ele>167</ele>
        <time>2013-11-11T10:39:16.000Z</time>
      </trkpt>
      <trkpt lat="47.80221" lon="2.10752">
        <ele>166</ele>
        <time>2013-11-11T10:39:20.000Z</time>
      </trkpt>
      <trkpt lat="47.8022" lon="2.10775">
        <ele>166</ele>
        <time>2013-11-11T10:39:24.000Z</time>
      </trkpt>
      <trkpt lat="47.80222" lon="2.108">
        <ele>167</ele>
        <time>2013-11-11T10:39:28.000Z</time>
      </trkpt>
      <trkpt lat="47.80222" lon="2.108">
        <ele>167</ele>
        <time>2013-11-11T10:39:30.000Z</time>
      </trkpt>
      <trkpt lat="47.80224" lon="2.10822">
        <ele>168</ele>
        <time>2013-11-11T10:39:32.000Z</time>
      </trkpt>
      <trkpt lat="47.80224" lon="2.10822">
        <ele>168</ele>
        <time>2013-11-11T10:39:34.000Z</time>
      </trkpt>
      <trkpt lat="47.80227" lon="2.1086">
        <ele>170</ele>
        <time>2013-11-11T10:39:38.000Z</time>
      </trkpt>
      <trkpt lat="47.80228" lon="2.10884">
        <ele>170</ele>
        <time>2013-11-11T10:39:42.000Z</time>
      </trkpt>
      <trkpt lat="47.80228" lon="2.10884">
        <ele>170</ele>
        <time>2013-11-11T10:39:44.000Z</time>
      </trkpt>
      <trkpt lat="47.80228" lon="2.10884">
        <ele>170</ele>
        <time>2013-11-11T10:39:46.000Z</time>
      </trkpt>
      <trkpt lat="47.80228" lon="2.10884">
        <ele>170</ele>
        <time>2013-11-11T10:39:50.000Z</time>
      </trkpt>
      <trkpt lat="47.80228" lon="2.10884">
        <ele>170</ele>
        <time>2013-11-11T10:39:52.000Z</time>
      </trkpt>
      <trkpt lat="47.80228" lon="2.10884">
        <ele>170</ele>
        <time>2013-11-11T10:39:54.000Z</time>
      </trkpt>
      <trkpt lat="47.80231" lon="2.10931">
        <ele>170</ele>
        <time>2013-11-11T10:39:58.000Z</time>
      </trkpt>
      <trkpt lat="47.80232" lon="2.10961">
        <ele>170</ele>
        <time>2013-11-11T10:40:00.000Z</time>
      </trkpt>
      <trkpt lat="47.80233" lon="2.10983">
        <ele>170</ele>
        <time>2013-11-11T10:40:02.000Z</time>
      </trkpt>
      <trkpt lat="47.80234" lon="2.11">
        <ele>171</ele>
        <time>2013-11-11T10:40:04.000Z</time>
      </trkpt>
      <trkpt lat="47.80235" lon="2.11015">
        <ele>171</ele>
        <time>2013-11-11T10:40:06.000Z</time>
      </trkpt>
      <trkpt lat="47.80236" lon="2.11043">
        <ele>170</ele>
        <time>2013-11-11T10:40:08.000Z</time>
      </trkpt>
      <trkpt lat="47.80236" lon="2.11056">
        <ele>170</ele>
        <time>2013-11-11T10:40:10.000Z</time>
      </trkpt>
      <trkpt lat="47.80238" lon="2.11083">
        <ele>171</ele>
        <time>2013-11-11T10:40:14.000Z</time>
      </trkpt>
      <trkpt lat="47.8024" lon="2.11109">
        <ele>171</ele>
        <time>2013-11-11T10:40:18.000Z</time>
      </trkpt>
      <trkpt lat="47.8024" lon="2.11136">
        <ele>171</ele>
        <time>2013-11-11T10:40:22.000Z</time>
      </trkpt>
      <trkpt lat="47.8024" lon="2.1115">
        <ele>170</ele>
        <time>2013-11-11T10:40:24.000Z</time>
      </trkpt>
      <trkpt lat="47.80242" lon="2.11164">
        <ele>171</ele>
        <time>2013-11-11T10:40:26.000Z</time>
      </trkpt>
      <trkpt lat="47.80242" lon="2.11178">
        <ele>170</ele>
        <time>2013-11-11T10:40:28.000Z</time>
      </trkpt>
      <trkpt lat="47.80244" lon="2.11193">
        <ele>170</ele>
        <time>2013-11-11T10:40:30.000Z</time>
      </trkpt>
      <trkpt lat="47.80244" lon="2.11208">
        <ele>171</ele>
        <time>2013-11-11T10:40:32.000Z</time>
      </trkpt>
      <trkpt lat="47.80244" lon="2.11223">
        <ele>171</ele>
        <time>2013-11-11T10:40:34.000Z</time>
      </trkpt>
      <trkpt lat="47.80244" lon="2.11223">
        <ele>171</ele>
        <time>2013-11-11T10:40:38.000Z</time>
      </trkpt>
      <trkpt lat="47.80244" lon="2.11223">
        <ele>171</ele>
        <time>2013-11-11T10:40:40.000Z</time>
      </trkpt>
      <trkpt lat="47.80244" lon="2.11223">
        <ele>171</ele>
        <time>2013-11-11T10:40:42.000Z</time>
      </trkpt>
      <trkpt lat="47.80244" lon="2.11223">
        <ele>171</ele>
        <time>2013-11-11T10:40:44.000Z</time>
      </trkpt>
      <trkpt lat="47.80244" lon="2.11223">
        <ele>171</ele>
        <time>2013-11-11T10:40:46.000Z</time>
      </trkpt>
      <trkpt lat="47.80244" lon="2.11223">
        <ele>171</ele>
        <time>2013-11-11T10:40:48.000Z</time>
      </trkpt>
      <trkpt lat="47.80244" lon="2.11223">
        <ele>171</ele>
        <time>2013-11-11T10:40:50.000Z</time>
      </trkpt>
      <trkpt lat="47.80244" lon="2.11223">
        <ele>171</ele>
        <time>2013-11-11T10:40:52.000Z</time>
      </trkpt>
      <trkpt lat="47.80244" lon="2.11223">
        <ele>171</ele>
        <time>2013-11-11T10:40:54.000Z</time>
      </trkpt>
      <trkpt lat="47.80243" lon="2.11388">
        <ele>175</ele>
        <time>2013-11-11T10:40:58.000Z</time>
      </trkpt>
      <trkpt lat="47.80244" lon="2.11403">
        <ele>175</ele>
        <time>2013-11-11T10:41:00.000Z</time>
      </trkpt>
      <trkpt lat="47.80244" lon="2.11417">
        <ele>176</ele>
        <time>2013-11-11T10:41:02.000Z</time>
      </trkpt>
      <trkpt lat="47.80243" lon="2.11432">
        <ele>176</ele>
        <time>2013-11-11T10:41:04.000Z</time>
      </trkpt>
      <trkpt lat="47.80243" lon="2.11445">
        <ele>175</ele>
        <time>2013-11-11T10:41:06.000Z</time>
      </trkpt>
      <trkpt lat="47.80242" lon="2.11459">
        <ele>175</ele>
        <time>2013-11-11T10:41:08.000Z</time>
      </trkpt>
      <trkpt lat="47.80242" lon="2.11459">
        <ele>175</ele>
        <time>2013-11-11T10:41:10.000Z</time>
      </trkpt>
      <trkpt lat="47.80242" lon="2.11459">
        <ele>175</ele>
        <time>2013-11-11T10:41:12.000Z</time>
      </trkpt>
      <trkpt lat="47.80242" lon="2.11459">
        <ele>175</ele>
        <time>2013-11-11T10:41:14.000Z</time>
      </trkpt>
      <trkpt lat="47.80242" lon="2.11459">
        <ele>175</ele>
        <time>2013-11-11T10:41:16.000Z</time>
      </trkpt>
      <trkpt lat="47.80242" lon="2.11459">
        <ele>175</ele>
        <time>2013-11-11T10:41:20.000Z</time>
      </trkpt>
      <trkpt lat="47.80273" lon="2.1156">
        <ele>175</ele>
        <time>2013-11-11T10:41:24.000Z</time>
      </trkpt>
      <trkpt lat="47.80279" lon="2.11572">
        <ele>175</ele>
        <time>2013-11-11T10:41:26.000Z</time>
      </trkpt>
      <trkpt lat="47.80279" lon="2.11572">
        <ele>175</ele>
        <time>2013-11-11T10:41:28.000Z</time>
      </trkpt>
      <trkpt lat="47.80279" lon="2.11572">
        <ele>175</ele>
        <time>2013-11-11T10:41:30.000Z</time>
      </trkpt>
      <trkpt lat="47.80287" lon="2.11625">
        <ele>172</ele>
        <time>2013-11-11T10:41:34.000Z</time>
      </trkpt>
      <trkpt lat="47.80286" lon="2.1164">
        <ele>172</ele>
        <time>2013-11-11T10:41:36.000Z</time>
      </trkpt>
      <trkpt lat="47.80286" lon="2.11654">
        <ele>171</ele>
        <time>2013-11-11T10:41:38.000Z</time>
      </trkpt>
      <trkpt lat="47.80286" lon="2.11668">
        <ele>171</ele>
        <time>2013-11-11T10:41:40.000Z</time>
      </trkpt>
      <trkpt lat="47.80285" lon="2.11684">
        <ele>171</ele>
        <time>2013-11-11T10:41:42.000Z</time>
      </trkpt>
      <trkpt lat="47.80285" lon="2.11684">
        <ele>171</ele>
        <time>2013-11-11T10:41:44.000Z</time>
      </trkpt>
      <trkpt lat="47.80285" lon="2.11684">
        <ele>171</ele>
        <time>2013-11-11T10:41:46.000Z</time>
      </trkpt>
      <trkpt lat="47.80285" lon="2.11684">
        <ele>171</ele>
        <time>2013-11-11T10:41:48.000Z</time>
      </trkpt>
      <trkpt lat="47.80285" lon="2.11684">
        <ele>171</ele>
        <time>2013-11-11T10:41:50.000Z</time>
      </trkpt>
      <trkpt lat="47.80285" lon="2.11684">
        <ele>171</ele>
        <time>2013-11-11T10:41:52.000Z</time>
      </trkpt>
      <trkpt lat="47.80285" lon="2.11684">
        <ele>171</ele>
        <time>2013-11-11T10:41:54.000Z</time>
      </trkpt>
      <trkpt lat="47.80285" lon="2.11684">
        <ele>171</ele>
        <time>2013-11-11T10:41:56.000Z</time>
      </trkpt>
      <trkpt lat="47.80285" lon="2.11684">
        <ele>171</ele>
        <time>2013-11-11T10:41:58.000Z</time>
      </trkpt>
      <trkpt lat="47.80285" lon="2.11684">
        <ele>171</ele>
        <time>2013-11-11T10:42:00.000Z</time>
      </trkpt>
      <trkpt lat="47.80285" lon="2.11684">
        <ele>171</ele>
        <time>2013-11-11T10:42:02.000Z</time>
      </trkpt>
      <trkpt lat="47.80272" lon="2.11759">
        <ele>166</ele>
        <time>2013-11-11T10:42:06.000Z</time>
      </trkpt>
      <trkpt lat="47.80264" lon="2.11803">
        <ele>165</ele>
        <time>2013-11-11T10:42:08.000Z</time>
      </trkpt>
      <trkpt lat="47.80259" lon="2.11831">
        <ele>165</ele>
        <time>2013-11-11T10:42:10.000Z</time>
      </trkpt>
      <trkpt lat="47.80255" lon="2.11852">
        <ele>166</ele>
        <time>2013-11-11T10:42:12.000Z</time>
      </trkpt>
      <trkpt lat="47.80252" lon="2.11868">
        <ele>166</ele>
        <time>2013-11-11T10:42:14.000Z</time>
      </trkpt>
      <trkpt lat="47.80245" lon="2.11897">
        <ele>165</ele>
        <time>2013-11-11T10:42:16.000Z</time>
      </trkpt>
      <trkpt lat="47.80245" lon="2.11897">
        <ele>165</ele>
        <time>2013-11-11T10:42:19.000Z</time>
      </trkpt>
      <trkpt lat="47.80245" lon="2.11897">
        <ele>165</ele>
        <time>2013-11-11T10:42:21.000Z</time>
      </trkpt>
      <trkpt lat="47.80245" lon="2.11897">
        <ele>165</ele>
        <time>2013-11-11T10:42:23.000Z</time>
      </trkpt>
      <trkpt lat="47.80245" lon="2.11897">
        <ele>165</ele>
        <time>2013-11-11T10:42:25.000Z</time>
      </trkpt>
      <trkpt lat="47.80245" lon="2.11897">
        <ele>165</ele>
        <time>2013-11-11T10:42:27.000Z</time>
      </trkpt>
      <trkpt lat="47.80245" lon="2.11897">
        <ele>165</ele>
        <time>2013-11-11T10:42:29.000Z</time>
      </trkpt>
      <trkpt lat="47.80245" lon="2.11897">
        <ele>165</ele>
        <time>2013-11-11T10:42:31.000Z</time>
      </trkpt>
      <trkpt lat="47.80245" lon="2.11897">
        <ele>165</ele>
        <time>2013-11-11T10:42:33.000Z</time>
      </trkpt>
      <trkpt lat="47.80245" lon="2.11897">
        <ele>165</ele>
        <time>2013-11-11T10:42:35.000Z</time>
      </trkpt>
      <trkpt lat="47.80236" lon="2.12032">
        <ele>160</ele>
        <time>2013-11-11T10:42:42.000Z</time>
      </trkpt>
      <trkpt lat="47.80235" lon="2.12045">
        <ele>161</ele>
        <time>2013-11-11T10:42:44.000Z</time>
      </trkpt>
      <trkpt lat="47.80233" lon="2.12059">
        <ele>163</ele>
        <time>2013-11-11T10:42:46.000Z</time>
      </trkpt>
      <trkpt lat="47.80232" lon="2.12072">
        <ele>163</ele>
        <time>2013-11-11T10:42:48.000Z</time>
      </trkpt>
      <trkpt lat="47.80232" lon="2.12072">
        <ele>163</ele>
        <time>2013-11-11T10:42:50.000Z</time>
      </trkpt>
      <trkpt lat="47.80232" lon="2.12072">
        <ele>163</ele>
        <time>2013-11-11T10:42:52.000Z</time>
      </trkpt>
      <trkpt lat="47.80224" lon="2.12126">
        <ele>164</ele>
        <time>2013-11-11T10:42:56.000Z</time>
      </trkpt>
      <trkpt lat="47.80222" lon="2.12141">
        <ele>163</ele>
        <time>2013-11-11T10:42:58.000Z</time>
      </trkpt>
      <trkpt lat="47.80219" lon="2.12159">
        <ele>162</ele>
        <time>2013-11-11T10:43:00.000Z</time>
      </trkpt>
      <trkpt lat="47.80217" lon="2.12181">
        <ele>161</ele>
        <time>2013-11-11T10:43:02.000Z</time>
      </trkpt>
      <trkpt lat="47.80217" lon="2.12201">
        <ele>161</ele>
        <time>2013-11-11T10:43:04.000Z</time>
      </trkpt>
      <trkpt lat="47.80215" lon="2.12216">
        <ele>160</ele>
        <time>2013-11-11T10:43:06.000Z</time>
      </trkpt>
      <trkpt lat="47.80206" lon="2.12269">
        <ele>159</ele>
        <time>2013-11-11T10:43:10.000Z</time>
      </trkpt>
      <trkpt lat="47.80203" lon="2.12292">
        <ele>158</ele>
        <time>2013-11-11T10:43:12.000Z</time>
      </trkpt>
      <trkpt lat="47.80202" lon="2.12317">
        <ele>157</ele>
        <time>2013-11-11T10:43:14.000Z</time>
      </trkpt>
      <trkpt lat="47.80198" lon="2.12348">
        <ele>156</ele>
        <time>2013-11-11T10:43:16.000Z</time>
      </trkpt>
      <trkpt lat="47.80198" lon="2.12376">
        <ele>156</ele>
        <time>2013-11-11T10:43:18.000Z</time>
      </trkpt>
      <trkpt lat="47.80203" lon="2.12402">
        <ele>156</ele>
        <time>2013-11-11T10:43:20.000Z</time>
      </trkpt>
      <trkpt lat="47.8021" lon="2.12426">
        <ele>155</ele>
        <time>2013-11-11T10:43:22.000Z</time>
      </trkpt>
      <trkpt lat="47.80219" lon="2.12442">
        <ele>154</ele>
        <time>2013-11-11T10:43:24.000Z</time>
      </trkpt>
      <trkpt lat="47.80223" lon="2.12454">
        <ele>154</ele>
        <time>2013-11-11T10:43:26.000Z</time>
      </trkpt>
      <trkpt lat="47.80223" lon="2.12454">
        <ele>154</ele>
        <time>2013-11-11T10:43:28.000Z</time>
      </trkpt>
      <trkpt lat="47.80223" lon="2.12454">
        <ele>154</ele>
        <time>2013-11-11T10:43:30.000Z</time>
      </trkpt>
      <trkpt lat="47.80223" lon="2.12454">
        <ele>154</ele>
        <time>2013-11-11T10:43:32.000Z</time>
      </trkpt>
      <trkpt lat="47.80223" lon="2.12454">
        <ele>154</ele>
        <time>2013-11-11T10:43:34.000Z</time>
      </trkpt>
      <trkpt lat="47.80215" lon="2.12542">
        <ele>156</ele>
        <time>2013-11-11T10:43:38.000Z</time>
      </trkpt>
      <trkpt lat="47.80213" lon="2.1256">
        <ele>156</ele>
        <time>2013-11-11T10:43:40.000Z</time>
      </trkpt>
      <trkpt lat="47.80211" lon="2.12578">
        <ele>156</ele>
        <time>2013-11-11T10:43:42.000Z</time>
      </trkpt>
      <trkpt lat="47.80209" lon="2.12596">
        <ele>157</ele>
        <time>2013-11-11T10:43:44.000Z</time>
      </trkpt>
      <trkpt lat="47.80206" lon="2.12612">
        <ele>157</ele>
        <time>2013-11-11T10:43:46.000Z</time>
      </trkpt>
      <trkpt lat="47.80204" lon="2.1263">
        <ele>158</ele>
        <time>2013-11-11T10:43:48.000Z</time>
      </trkpt>
      <trkpt lat="47.80203" lon="2.12647">
        <ele>157</ele>
        <time>2013-11-11T10:43:50.000Z</time>
      </trkpt>
      <trkpt lat="47.802" lon="2.12665">
        <ele>159</ele>
        <time>2013-11-11T10:43:52.000Z</time>
      </trkpt>
      <trkpt lat="47.80197" lon="2.12684">
        <ele>159</ele>
        <time>2013-11-11T10:43:54.000Z</time>
      </trkpt>
      <trkpt lat="47.80195" lon="2.12701">
        <ele>159</ele>
        <time>2013-11-11T10:43:56.000Z</time>
      </trkpt>
      <trkpt lat="47.80192" lon="2.12718">
        <ele>159</ele>
        <time>2013-11-11T10:43:58.000Z</time>
      </trkpt>
      <trkpt lat="47.80187" lon="2.12735">
        <ele>159</ele>
        <time>2013-11-11T10:44:00.000Z</time>
      </trkpt>
      <trkpt lat="47.80183" lon="2.12752">
        <ele>159</ele>
        <time>2013-11-11T10:44:02.000Z</time>
      </trkpt>
      <trkpt lat="47.80179" lon="2.12768">
        <ele>159</ele>
        <time>2013-11-11T10:44:04.000Z</time>
      </trkpt>
      <trkpt lat="47.80177" lon="2.12786">
        <ele>160</ele>
        <time>2013-11-11T10:44:06.000Z</time>
      </trkpt>
      <trkpt lat="47.80173" lon="2.12804">
        <ele>160</ele>
        <time>2013-11-11T10:44:08.000Z</time>
      </trkpt>
      <trkpt lat="47.80169" lon="2.1282">
        <ele>161</ele>
        <time>2013-11-11T10:44:10.000Z</time>
      </trkpt>
      <trkpt lat="47.80166" lon="2.12834">
        <ele>161</ele>
        <time>2013-11-11T10:44:12.000Z</time>
      </trkpt>
      <trkpt lat="47.8017" lon="2.12849">
        <ele>161</ele>
        <time>2013-11-11T10:44:14.000Z</time>
      </trkpt>
      <trkpt lat="47.8017" lon="2.12849">
        <ele>161</ele>
        <time>2013-11-11T10:44:16.000Z</time>
      </trkpt>
      <trkpt lat="47.8017" lon="2.12849">
        <ele>161</ele>
        <time>2013-11-11T10:44:18.000Z</time>
      </trkpt>
      <trkpt lat="47.8017" lon="2.12849">
        <ele>161</ele>
        <time>2013-11-11T10:44:20.000Z</time>
      </trkpt>
      <trkpt lat="47.8017" lon="2.12849">
        <ele>161</ele>
        <time>2013-11-11T10:44:22.000Z</time>
      </trkpt>
      <trkpt lat="47.8017" lon="2.12849">
        <ele>161</ele>
        <time>2013-11-11T10:44:24.000Z</time>
      </trkpt>
      <trkpt lat="47.8017" lon="2.12849">
        <ele>161</ele>
        <time>2013-11-11T10:44:26.000Z</time>
      </trkpt>
      <trkpt lat="47.80236" lon="2.12854">
        <ele>153</ele>
        <time>2013-11-11T10:44:30.000Z</time>
      </trkpt>
      <trkpt lat="47.80248" lon="2.1285">
        <ele>151</ele>
        <time>2013-11-11T10:44:32.000Z</time>
      </trkpt>
      <trkpt lat="47.80261" lon="2.12846">
        <ele>148</ele>
        <time>2013-11-11T10:44:34.000Z</time>
      </trkpt>
      <trkpt lat="47.80275" lon="2.12849">
        <ele>148</ele>
        <time>2013-11-11T10:44:36.000Z</time>
      </trkpt>
      <trkpt lat="47.80285" lon="2.12863">
        <ele>149</ele>
        <time>2013-11-11T10:44:38.000Z</time>
      </trkpt>
      <trkpt lat="47.80293" lon="2.12875">
        <ele>149</ele>
        <time>2013-11-11T10:44:40.000Z</time>
      </trkpt>
      <trkpt lat="47.80303" lon="2.12888">
        <ele>149</ele>
        <time>2013-11-11T10:44:42.000Z</time>
      </trkpt>
      <trkpt lat="47.80312" lon="2.129">
        <ele>149</ele>
        <time>2013-11-11T10:44:44.000Z</time>
      </trkpt>
      <trkpt lat="47.80319" lon="2.1291">
        <ele>149</ele>
        <time>2013-11-11T10:44:46.000Z</time>
      </trkpt>
      <trkpt lat="47.80328" lon="2.12917">
        <ele>149</ele>
        <time>2013-11-11T10:44:48.000Z</time>
      </trkpt>
      <trkpt lat="47.80328" lon="2.12917">
        <ele>149</ele>
        <time>2013-11-11T10:44:50.000Z</time>
      </trkpt>
      <trkpt lat="47.80328" lon="2.12917">
        <ele>149</ele>
        <time>2013-11-11T10:44:52.000Z</time>
      </trkpt>
      <trkpt lat="47.80328" lon="2.12917">
        <ele>149</ele>
        <time>2013-11-11T10:44:54.000Z</time>
      </trkpt>
      <trkpt lat="47.80328" lon="2.12917">
        <ele>149</ele>
        <time>2013-11-11T10:44:56.000Z</time>
      </trkpt>
      <trkpt lat="47.80328" lon="2.12917">
        <ele>149</ele>
        <time>2013-11-11T10:44:58.000Z</time>
      </trkpt>
      <trkpt lat="47.80328" lon="2.12917">
        <ele>149</ele>
        <time>2013-11-11T10:45:00.000Z</time>
      </trkpt>
      <trkpt lat="47.80328" lon="2.12917">
        <ele>149</ele>
        <time>2013-11-11T10:45:10.000Z</time>
      </trkpt>
      <trkpt lat="47.80328" lon="2.12917">
        <ele>149</ele>
        <time>2013-11-11T10:45:12.000Z</time>
      </trkpt>
      <trkpt lat="47.80328" lon="2.12917">
        <ele>149</ele>
        <time>2013-11-11T10:45:14.000Z</time>
      </trkpt>
      <trkpt lat="47.80325" lon="2.1298">
        <ele>147</ele>
        <time>2013-11-11T10:45:18.000Z</time>
      </trkpt>
      <trkpt lat="47.80322" lon="2.13022">
        <ele>147</ele>
        <time>2013-11-11T10:45:20.000Z</time>
      </trkpt>
      <trkpt lat="47.80319" lon="2.13052">
        <ele>147</ele>
        <time>2013-11-11T10:45:22.000Z</time>
      </trkpt>
      <trkpt lat="47.80318" lon="2.13077">
        <ele>146</ele>
        <time>2013-11-11T10:45:24.000Z</time>
      </trkpt>
      <trkpt lat="47.8032" lon="2.13096">
        <ele>146</ele>
        <time>2013-11-11T10:45:26.000Z</time>
      </trkpt>
      <trkpt lat="47.80327" lon="2.13126">
        <ele>146</ele>
        <time>2013-11-11T10:45:28.000Z</time>
      </trkpt>
      <trkpt lat="47.80338" lon="2.13132">
        <ele>147</ele>
        <time>2013-11-11T10:45:30.000Z</time>
      </trkpt>
      <trkpt lat="47.80338" lon="2.13132">
        <ele>147</ele>
        <time>2013-11-11T10:45:32.000Z</time>
      </trkpt>
      <trkpt lat="47.80338" lon="2.13132">
        <ele>147</ele>
        <time>2013-11-11T10:45:34.000Z</time>
      </trkpt>
      <trkpt lat="47.80338" lon="2.13132">
        <ele>147</ele>
        <time>2013-11-11T10:45:36.000Z</time>
      </trkpt>
      <trkpt lat="47.80338" lon="2.13132">
        <ele>147</ele>
        <time>2013-11-11T10:45:38.000Z</time>
      </trkpt>
      <trkpt lat="47.80338" lon="2.13132">
        <ele>147</ele>
        <time>2013-11-11T10:45:40.000Z</time>
      </trkpt>
      <trkpt lat="47.80338" lon="2.13132">
        <ele>147</ele>
        <time>2013-11-11T10:45:42.000Z</time>
      </trkpt>
      <trkpt lat="47.80338" lon="2.13132">
        <ele>147</ele>
        <time>2013-11-11T10:45:44.000Z</time>
      </trkpt>
      <trkpt lat="47.80338" lon="2.13132">
        <ele>147</ele>
        <time>2013-11-11T10:45:52.000Z</time>
      </trkpt>
      <trkpt lat="47.80338" lon="2.13132">
        <ele>147</ele>
        <time>2013-11-11T10:45:54.000Z</time>
      </trkpt>
      <trkpt lat="47.80367" lon="2.13235">
        <ele>152</ele>
        <time>2013-11-11T10:45:58.000Z</time>
      </trkpt>
      <trkpt lat="47.80367" lon="2.13255">
        <ele>152</ele>
        <time>2013-11-11T10:46:02.000Z</time>
      </trkpt>
      <trkpt lat="47.80362" lon="2.13275">
        <ele>151</ele>
        <time>2013-11-11T10:46:06.000Z</time>
      </trkpt>
      <trkpt lat="47.80355" lon="2.13293">
        <ele>148</ele>
        <time>2013-11-11T10:46:10.000Z</time>
      </trkpt>
      <trkpt lat="47.80346" lon="2.13309">
        <ele>145</ele>
        <time>2013-11-11T10:46:14.000Z</time>
      </trkpt>
      <trkpt lat="47.80346" lon="2.13309">
        <ele>145</ele>
        <time>2013-11-11T10:46:16.000Z</time>
      </trkpt>
      <trkpt lat="47.80336" lon="2.13327">
        <ele>145</ele>
        <time>2013-11-11T10:46:18.000Z</time>
      </trkpt>
      <trkpt lat="47.80331" lon="2.13338">
        <ele>146</ele>
        <time>2013-11-11T10:46:20.000Z</time>
      </trkpt>
      <trkpt lat="47.8032" lon="2.13359">
        <ele>148</ele>
        <time>2013-11-11T10:46:24.000Z</time>
      </trkpt>
      <trkpt lat="47.80315" lon="2.1337">
        <ele>148</ele>
        <time>2013-11-11T10:46:26.000Z</time>
      </trkpt>
      <trkpt lat="47.80315" lon="2.1337">
        <ele>148</ele>
        <time>2013-11-11T10:46:28.000Z</time>
      </trkpt>
      <trkpt lat="47.80315" lon="2.1337">
        <ele>148</ele>
        <time>2013-11-11T10:46:30.000Z</time>
      </trkpt>
      <trkpt lat="47.80315" lon="2.1337">
        <ele>148</ele>
        <time>2013-11-11T10:46:32.000Z</time>
      </trkpt>
      <trkpt lat="47.80315" lon="2.1337">
        <ele>148</ele>
        <time>2013-11-11T10:46:34.000Z</time>
      </trkpt>
      <trkpt lat="47.80315" lon="2.1337">
        <ele>148</ele>
        <time>2013-11-11T10:46:36.000Z</time>
      </trkpt>
      <trkpt lat="47.80315" lon="2.1337">
        <ele>148</ele>
        <time>2013-11-11T10:46:38.000Z</time>
      </trkpt>
      <trkpt lat="47.80315" lon="2.1337">
        <ele>148</ele>
        <time>2013-11-11T10:46:40.000Z</time>
      </trkpt>
      <trkpt lat="47.80315" lon="2.1337">
        <ele>148</ele>
        <time>2013-11-11T10:46:42.000Z</time>
      </trkpt>
      <trkpt lat="47.80268" lon="2.13448">
        <ele>150</ele>
        <time>2013-11-11T10:46:47.000Z</time>
      </trkpt>
      <trkpt lat="47.8026" lon="2.13471">
        <ele>150</ele>
        <time>2013-11-11T10:46:51.000Z</time>
      </trkpt>
      <trkpt lat="47.80254" lon="2.13484">
        <ele>149</ele>
        <time>2013-11-11T10:46:55.000Z</time>
      </trkpt>
      <trkpt lat="47.80249" lon="2.13496">
        <ele>149</ele>
        <time>2013-11-11T10:46:57.000Z</time>
      </trkpt>
      <trkpt lat="47.80245" lon="2.13508">
        <ele>151</ele>
        <time>2013-11-11T10:46:59.000Z</time>
      </trkpt>
      <trkpt lat="47.80242" lon="2.1352">
        <ele>152</ele>
        <time>2013-11-11T10:47:01.000Z</time>
      </trkpt>
      <trkpt lat="47.80238" lon="2.13534">
        <ele>152</ele>
        <time>2013-11-11T10:47:03.000Z</time>
      </trkpt>
      <trkpt lat="47.80232" lon="2.13562">
        <ele>153</ele>
        <time>2013-11-11T10:47:05.000Z</time>
      </trkpt>
      <trkpt lat="47.80232" lon="2.13562">
        <ele>153</ele>
        <time>2013-11-11T10:47:07.000Z</time>
      </trkpt>
      <trkpt lat="47.80232" lon="2.13562">
        <ele>153</ele>
        <time>2013-11-11T10:47:09.000Z</time>
      </trkpt>
      <trkpt lat="47.80232" lon="2.13562">
        <ele>153</ele>
        <time>2013-11-11T10:47:11.000Z</time>
      </trkpt>
      <trkpt lat="47.80223" lon="2.13611">
        <ele>154</ele>
        <time>2013-11-11T10:47:13.000Z</time>
      </trkpt>
      <trkpt lat="47.80223" lon="2.13637">
        <ele>153</ele>
        <time>2013-11-11T10:47:17.000Z</time>
      </trkpt>
      <trkpt lat="47.80222" lon="2.13663">
        <ele>153</ele>
        <time>2013-11-11T10:47:21.000Z</time>
      </trkpt>
      <trkpt lat="47.80221" lon="2.13677">
        <ele>153</ele>
        <time>2013-11-11T10:47:23.000Z</time>
      </trkpt>
      <trkpt lat="47.80222" lon="2.13691">
        <ele>153</ele>
        <time>2013-11-11T10:47:25.000Z</time>
      </trkpt>
      <trkpt lat="47.80221" lon="2.13717">
        <ele>154</ele>
        <time>2013-11-11T10:47:29.000Z</time>
      </trkpt>
      <trkpt lat="47.8022" lon="2.13731">
        <ele>154</ele>
        <time>2013-11-11T10:47:31.000Z</time>
      </trkpt>
      <trkpt lat="47.8022" lon="2.13745">
        <ele>154</ele>
        <time>2013-11-11T10:47:33.000Z</time>
      </trkpt>
      <trkpt lat="47.80219" lon="2.13758">
        <ele>155</ele>
        <time>2013-11-11T10:47:35.000Z</time>
      </trkpt>
      <trkpt lat="47.80218" lon="2.13772">
        <ele>154</ele>
        <time>2013-11-11T10:47:37.000Z</time>
      </trkpt>
      <trkpt lat="47.80217" lon="2.13786">
        <ele>155</ele>
        <time>2013-11-11T10:47:39.000Z</time>
      </trkpt>
      <trkpt lat="47.80217" lon="2.13801">
        <ele>155</ele>
        <time>2013-11-11T10:47:41.000Z</time>
      </trkpt>
      <trkpt lat="47.80216" lon="2.13814">
        <ele>154</ele>
        <time>2013-11-11T10:47:43.000Z</time>
      </trkpt>
      <trkpt lat="47.80214" lon="2.13828">
        <ele>154</ele>
        <time>2013-11-11T10:47:45.000Z</time>
      </trkpt>
      <trkpt lat="47.8021" lon="2.13844">
        <ele>154</ele>
        <time>2013-11-11T10:47:47.000Z</time>
      </trkpt>
      <trkpt lat="47.80208" lon="2.1386">
        <ele>154</ele>
        <time>2013-11-11T10:47:49.000Z</time>
      </trkpt>
      <trkpt lat="47.80206" lon="2.13875">
        <ele>154</ele>
        <time>2013-11-11T10:47:51.000Z</time>
      </trkpt>
      <trkpt lat="47.80202" lon="2.13888">
        <ele>154</ele>
        <time>2013-11-11T10:47:53.000Z</time>
      </trkpt>
      <trkpt lat="47.80202" lon="2.13888">
        <ele>154</ele>
        <time>2013-11-11T10:47:55.000Z</time>
      </trkpt>
      <trkpt lat="47.80202" lon="2.13888">
        <ele>154</ele>
        <time>2013-11-11T10:47:57.000Z</time>
      </trkpt>
      <trkpt lat="47.80202" lon="2.13888">
        <ele>154</ele>
        <time>2013-11-11T10:47:59.000Z</time>
      </trkpt>
      <trkpt lat="47.80202" lon="2.13888">
        <ele>154</ele>
        <time>2013-11-11T10:48:01.000Z</time>
      </trkpt>
      <trkpt lat="47.80202" lon="2.13888">
        <ele>154</ele>
        <time>2013-11-11T10:48:03.000Z</time>
      </trkpt>
      <trkpt lat="47.80202" lon="2.13888">
        <ele>154</ele>
        <time>2013-11-11T10:48:05.000Z</time>
      </trkpt>
      <trkpt lat="47.80202" lon="2.13888">
        <ele>154</ele>
        <time>2013-11-11T10:48:07.000Z</time>
      </trkpt>
      <trkpt lat="47.80202" lon="2.13888">
        <ele>154</ele>
        <time>2013-11-11T10:48:09.000Z</time>
      </trkpt>
      <trkpt lat="47.80202" lon="2.13888">
        <ele>154</ele>
        <time>2013-11-11T10:48:11.000Z</time>
      </trkpt>
      <trkpt lat="47.80202" lon="2.13888">
        <ele>154</ele>
        <time>2013-11-11T10:48:13.000Z</time>
      </trkpt>
      <trkpt lat="47.80202" lon="2.13888">
        <ele>154</ele>
        <time>2013-11-11T10:48:15.000Z</time>
      </trkpt>
      <trkpt lat="47.80202" lon="2.13888">
        <ele>154</ele>
        <time>2013-11-11T10:48:17.000Z</time>
      </trkpt>
      <trkpt lat="47.80202" lon="2.13888">
        <ele>154</ele>
        <time>2013-11-11T10:48:19.000Z</time>
      </trkpt>
      <trkpt lat="47.80215" lon="2.14038">
        <ele>153</ele>
        <time>2013-11-11T10:48:23.000Z</time>
      </trkpt>
      <trkpt lat="47.80224" lon="2.14043">
        <ele>152</ele>
        <time>2013-11-11T10:48:25.000Z</time>
      </trkpt>
      <trkpt lat="47.80234" lon="2.14047">
        <ele>152</ele>
        <time>2013-11-11T10:48:27.000Z</time>
      </trkpt>
      <trkpt lat="47.8025" lon="2.14056">
        <ele>152</ele>
        <time>2013-11-11T10:48:31.000Z</time>
      </trkpt>
      <trkpt lat="47.8025" lon="2.14056">
        <ele>152</ele>
        <time>2013-11-11T10:48:33.000Z</time>
      </trkpt>
      <trkpt lat="47.8025" lon="2.14056">
        <ele>152</ele>
        <time>2013-11-11T10:48:35.000Z</time>
      </trkpt>
      <trkpt lat="47.8025" lon="2.14056">
        <ele>152</ele>
        <time>2013-11-11T10:48:37.000Z</time>
      </trkpt>
      <trkpt lat="47.8025" lon="2.14056">
        <ele>152</ele>
        <time>2013-11-11T10:48:39.000Z</time>
      </trkpt>
      <trkpt lat="47.8025" lon="2.14056">
        <ele>152</ele>
        <time>2013-11-11T10:48:41.000Z</time>
      </trkpt>
      <trkpt lat="47.8025" lon="2.14056">
        <ele>152</ele>
        <time>2013-11-11T10:48:43.000Z</time>
      </trkpt>
      <trkpt lat="47.8025" lon="2.14056">
        <ele>152</ele>
        <time>2013-11-11T10:48:45.000Z</time>
      </trkpt>
      <trkpt lat="47.8025" lon="2.14056">
        <ele>152</ele>
        <time>2013-11-11T10:48:47.000Z</time>
      </trkpt>
      <trkpt lat="47.8025" lon="2.14056">
        <ele>152</ele>
        <time>2013-11-11T10:48:49.000Z</time>
      </trkpt>
      <trkpt lat="47.8025" lon="2.14056">
        <ele>152</ele>
        <time>2013-11-11T10:48:53.000Z</time>
      </trkpt>
      <trkpt lat="47.8025" lon="2.14056">
        <ele>152</ele>
        <time>2013-11-11T10:48:55.000Z</time>
      </trkpt>
    </trkseg>
  </trk>
</gpx>